<?xml version="1.0" encoding="UTF-8" standalone="no" ?>
<gpx xmlns="http://www.topografix.com/GPX/1/1" xmlns:xsi="http://www.w3.org/2001/XMLSchema-instance" xsi:schemaLocation="http://www.topografix.com/GPX/1/1 http://www.topografix.com/GPX/1/1/gpx.xsd" version="1.1" creator="VisuGPX - https://www.visugpx.com">
  <metadata>
    <name>Sortie VTT du 31/10/2010</name>
    <desc><![CDATA[Sortie VTT du 31/10/2010 avec Stephane DOM Mika Marc]]></desc>
  </metadata>
  <trk>
    <name><![CDATA[Tracé 001]]></name>
    <trkseg>
      <trkpt lat="47.36113" lon="-0.03503">
        <ele>152.03</ele>
        <time>2010-10-30T17:13:23Z</time>
      </trkpt>
      <trkpt lat="47.36114" lon="-0.03503">
        <ele>152.03</ele>
        <time>2010-10-30T17:13:24Z</time>
      </trkpt>
      <trkpt lat="47.36114" lon="-0.03503">
        <ele>150.58</ele>
        <time>2010-10-30T17:13:25Z</time>
      </trkpt>
      <trkpt lat="47.36114" lon="-0.03503">
        <ele>147.22</ele>
        <time>2010-10-30T17:13:26Z</time>
      </trkpt>
      <trkpt lat="47.36114" lon="-0.03503">
        <ele>143.37</ele>
        <time>2010-10-30T17:13:28Z</time>
      </trkpt>
      <trkpt lat="47.36114" lon="-0.03503">
        <ele>139.05</ele>
        <time>2010-10-30T17:13:30Z</time>
      </trkpt>
      <trkpt lat="47.36114" lon="-0.03502">
        <ele>136.64</ele>
        <time>2010-10-30T17:13:32Z</time>
      </trkpt>
      <trkpt lat="47.36114" lon="-0.03502">
        <ele>132.32</ele>
        <time>2010-10-30T17:13:34Z</time>
      </trkpt>
      <trkpt lat="47.36114" lon="-0.03501">
        <ele>127.51</ele>
        <time>2010-10-30T17:13:36Z</time>
      </trkpt>
      <trkpt lat="47.36114" lon="-0.03501">
        <ele>127.51</ele>
        <time>2010-10-30T17:13:37Z</time>
      </trkpt>
      <trkpt lat="47.36114" lon="-0.03501">
        <ele>123.67</ele>
        <time>2010-10-30T17:13:41Z</time>
      </trkpt>
      <trkpt lat="47.36113" lon="-0.03502">
        <ele>118.86</ele>
        <time>2010-10-30T17:13:44Z</time>
      </trkpt>
      <trkpt lat="47.36112" lon="-0.03502">
        <ele>117.9</ele>
        <time>2010-10-30T17:13:46Z</time>
      </trkpt>
      <trkpt lat="47.36112" lon="-0.03501">
        <ele>113.57</ele>
        <time>2010-10-30T17:13:48Z</time>
      </trkpt>
      <trkpt lat="47.36112" lon="-0.03501">
        <ele>110.21</ele>
        <time>2010-10-30T17:13:52Z</time>
      </trkpt>
      <trkpt lat="47.36111" lon="-0.03502">
        <ele>105.4</ele>
        <time>2010-10-30T17:13:57Z</time>
      </trkpt>
      <trkpt lat="47.3611" lon="-0.03502">
        <ele>102.04</ele>
        <time>2010-10-30T17:14:00Z</time>
      </trkpt>
      <trkpt lat="47.3611" lon="-0.03502">
        <ele>102.52</ele>
        <time>2010-10-30T17:14:01Z</time>
      </trkpt>
      <trkpt lat="47.3611" lon="-0.03502">
        <ele>99.15</ele>
        <time>2010-10-30T17:14:03Z</time>
      </trkpt>
      <trkpt lat="47.3611" lon="-0.03502">
        <ele>99.15</ele>
        <time>2010-10-30T17:14:04Z</time>
      </trkpt>
      <trkpt lat="47.36109" lon="-0.03503">
        <ele>96.27</ele>
        <time>2010-10-30T17:14:07Z</time>
      </trkpt>
      <trkpt lat="47.3611" lon="-0.03505">
        <ele>93.87</ele>
        <time>2010-10-30T17:14:10Z</time>
      </trkpt>
      <trkpt lat="47.36112" lon="-0.03506">
        <ele>90.98</ele>
        <time>2010-10-30T17:14:14Z</time>
      </trkpt>
      <trkpt lat="47.36112" lon="-0.03506">
        <ele>90.5</ele>
        <time>2010-10-30T17:14:15Z</time>
      </trkpt>
      <trkpt lat="47.36114" lon="-0.03506">
        <ele>87.14</ele>
        <time>2010-10-30T17:14:24Z</time>
      </trkpt>
      <trkpt lat="47.36112" lon="-0.03507">
        <ele>83.29</ele>
        <time>2010-10-30T17:14:45Z</time>
      </trkpt>
      <trkpt lat="47.36112" lon="-0.03507">
        <ele>82.81</ele>
        <time>2010-10-30T17:15:16Z</time>
      </trkpt>
      <trkpt lat="47.36112" lon="-0.03506">
        <ele>81.37</ele>
        <time>2010-10-30T17:15:34Z</time>
      </trkpt>
      <trkpt lat="47.36112" lon="-0.03506">
        <ele>82.81</ele>
        <time>2010-10-30T17:15:35Z</time>
      </trkpt>
      <trkpt lat="47.36112" lon="-0.03506">
        <ele>82.33</ele>
        <time>2010-10-30T17:15:54Z</time>
      </trkpt>
      <trkpt lat="47.36112" lon="-0.03506">
        <ele>82.33</ele>
        <time>2010-10-30T17:15:55Z</time>
      </trkpt>
      <trkpt lat="47.36112" lon="-0.03506">
        <ele>80.89</ele>
        <time>2010-10-30T17:16:41Z</time>
      </trkpt>
      <trkpt lat="47.36112" lon="-0.03506">
        <ele>82.33</ele>
        <time>2010-10-30T17:16:44Z</time>
      </trkpt>
      <trkpt lat="47.36112" lon="-0.03506">
        <ele>81.37</ele>
        <time>2010-10-30T17:16:59Z</time>
      </trkpt>
      <trkpt lat="47.36112" lon="-0.03506">
        <ele>82.33</ele>
        <time>2010-10-30T17:17:04Z</time>
      </trkpt>
      <trkpt lat="47.36069" lon="-0.03626">
        <ele>73.2</ele>
        <time>2010-10-30T17:29:17Z</time>
      </trkpt>
      <trkpt lat="47.36066" lon="-0.03622">
        <ele>73.2</ele>
        <time>2010-10-30T17:29:18Z</time>
      </trkpt>
      <trkpt lat="47.36064" lon="-0.03618">
        <ele>70.31</ele>
        <time>2010-10-30T17:29:19Z</time>
      </trkpt>
      <trkpt lat="47.36062" lon="-0.03615">
        <ele>66.95</ele>
        <time>2010-10-30T17:29:20Z</time>
      </trkpt>
      <trkpt lat="47.36059" lon="-0.03609">
        <ele>60.7</ele>
        <time>2010-10-30T17:29:22Z</time>
      </trkpt>
      <trkpt lat="47.36057" lon="-0.03605">
        <ele>57.34</ele>
        <time>2010-10-30T17:29:23Z</time>
      </trkpt>
      <trkpt lat="47.36057" lon="-0.03601">
        <ele>53.49</ele>
        <time>2010-10-30T17:29:24Z</time>
      </trkpt>
      <trkpt lat="47.36056" lon="-0.03597">
        <ele>49.65</ele>
        <time>2010-10-30T17:29:25Z</time>
      </trkpt>
      <trkpt lat="47.36054" lon="-0.0359">
        <ele>45.32</ele>
        <time>2010-10-30T17:29:27Z</time>
      </trkpt>
      <trkpt lat="47.36052" lon="-0.03582">
        <ele>39.07</ele>
        <time>2010-10-30T17:29:29Z</time>
      </trkpt>
      <trkpt lat="47.36051" lon="-0.03575">
        <ele>34.74</ele>
        <time>2010-10-30T17:29:31Z</time>
      </trkpt>
      <trkpt lat="47.36049" lon="-0.0357">
        <ele>29.94</ele>
        <time>2010-10-30T17:29:33Z</time>
      </trkpt>
      <trkpt lat="47.36048" lon="-0.03565">
        <ele>26.09</ele>
        <time>2010-10-30T17:29:35Z</time>
      </trkpt>
      <trkpt lat="47.36047" lon="-0.0356">
        <ele>21.29</ele>
        <time>2010-10-30T17:29:37Z</time>
      </trkpt>
      <trkpt lat="47.36046" lon="-0.03556">
        <ele>16.96</ele>
        <time>2010-10-30T17:29:39Z</time>
      </trkpt>
      <trkpt lat="47.36047" lon="-0.03553">
        <ele>14.08</ele>
        <time>2010-10-30T17:29:41Z</time>
      </trkpt>
      <trkpt lat="47.36047" lon="-0.03551">
        <ele>9.75</ele>
        <time>2010-10-30T17:29:43Z</time>
      </trkpt>
      <trkpt lat="47.36049" lon="-0.03548">
        <ele>4.94</ele>
        <time>2010-10-30T17:29:46Z</time>
      </trkpt>
      <trkpt lat="47.3605" lon="-0.03543">
        <ele>1.58</ele>
        <time>2010-10-30T17:29:49Z</time>
      </trkpt>
      <trkpt lat="47.36051" lon="-0.0354">
        <ele>-1.3</ele>
        <time>2010-10-30T17:29:52Z</time>
      </trkpt>
      <trkpt lat="47.36054" lon="-0.03536">
        <ele>-5.15</ele>
        <time>2010-10-30T17:29:56Z</time>
      </trkpt>
      <trkpt lat="47.36058" lon="-0.03532">
        <ele>-8.51</ele>
        <time>2010-10-30T17:29:59Z</time>
      </trkpt>
      <trkpt lat="47.36063" lon="-0.03529">
        <ele>-9.48</ele>
        <time>2010-10-30T17:30:01Z</time>
      </trkpt>
      <trkpt lat="47.36075" lon="-0.03523">
        <ele>-12.84</ele>
        <time>2010-10-30T17:30:05Z</time>
      </trkpt>
      <trkpt lat="47.36077" lon="-0.03523">
        <ele>-12.36</ele>
        <time>2010-10-30T17:30:06Z</time>
      </trkpt>
      <trkpt lat="47.36111" lon="-0.03506">
        <ele>-10.44</ele>
        <time>2010-10-30T17:32:00Z</time>
      </trkpt>
      <trkpt lat="47.36115" lon="-0.03509">
        <ele>-11.88</ele>
        <time>2010-10-30T17:32:04Z</time>
      </trkpt>
      <trkpt lat="47.36122" lon="-0.03511">
        <ele>-12.36</ele>
        <time>2010-10-30T17:32:12Z</time>
      </trkpt>
      <trkpt lat="47.36118" lon="-0.03511">
        <ele>-9</ele>
        <time>2010-10-30T17:34:28Z</time>
      </trkpt>
      <trkpt lat="47.36118" lon="-0.03511">
        <ele>-9.48</ele>
        <time>2010-10-30T17:34:51Z</time>
      </trkpt>
      <trkpt lat="47.36118" lon="-0.03511">
        <ele>-11.4</ele>
        <time>2010-10-30T17:34:56Z</time>
      </trkpt>
      <trkpt lat="47.36118" lon="-0.03511">
        <ele>45.8</ele>
        <time>2010-10-31T07:53:05Z</time>
      </trkpt>
      <trkpt lat="47.36118" lon="-0.03511">
        <ele>98.67</ele>
        <time>2010-10-31T07:53:06Z</time>
      </trkpt>
      <trkpt lat="47.36118" lon="-0.03511">
        <ele>99.15</ele>
        <time>2010-10-31T07:53:07Z</time>
      </trkpt>
      <trkpt lat="47.3612" lon="-0.03505">
        <ele>99.63</ele>
        <time>2010-10-31T07:53:35Z</time>
      </trkpt>
      <trkpt lat="47.36112" lon="-0.03508">
        <ele>98.67</ele>
        <time>2010-10-31T07:53:44Z</time>
      </trkpt>
      <trkpt lat="47.3611" lon="-0.03506">
        <ele>95.79</ele>
        <time>2010-10-31T07:53:49Z</time>
      </trkpt>
      <trkpt lat="47.36109" lon="-0.03505">
        <ele>90.5</ele>
        <time>2010-10-31T07:53:52Z</time>
      </trkpt>
      <trkpt lat="47.36108" lon="-0.03505">
        <ele>87.14</ele>
        <time>2010-10-31T07:53:54Z</time>
      </trkpt>
      <trkpt lat="47.36107" lon="-0.03505">
        <ele>81.85</ele>
        <time>2010-10-31T07:53:57Z</time>
      </trkpt>
      <trkpt lat="47.36106" lon="-0.03505">
        <ele>80.41</ele>
        <time>2010-10-31T07:53:58Z</time>
      </trkpt>
      <trkpt lat="47.36104" lon="-0.03505">
        <ele>77.52</ele>
        <time>2010-10-31T07:54:01Z</time>
      </trkpt>
      <trkpt lat="47.36103" lon="-0.03501">
        <ele>74.64</ele>
        <time>2010-10-31T07:54:04Z</time>
      </trkpt>
      <trkpt lat="47.36102" lon="-0.03493">
        <ele>71.27</ele>
        <time>2010-10-31T07:54:08Z</time>
      </trkpt>
      <trkpt lat="47.36104" lon="-0.03492">
        <ele>67.91</ele>
        <time>2010-10-31T07:54:13Z</time>
      </trkpt>
      <trkpt lat="47.36104" lon="-0.03491">
        <ele>64.55</ele>
        <time>2010-10-31T07:54:22Z</time>
      </trkpt>
      <trkpt lat="47.36102" lon="-0.03492">
        <ele>63.1</ele>
        <time>2010-10-31T07:54:31Z</time>
      </trkpt>
      <trkpt lat="47.36099" lon="-0.0349">
        <ele>61.18</ele>
        <time>2010-10-31T07:54:49Z</time>
      </trkpt>
      <trkpt lat="47.36101" lon="-0.03491">
        <ele>62.62</ele>
        <time>2010-10-31T07:54:52Z</time>
      </trkpt>
      <trkpt lat="47.36103" lon="-0.03492">
        <ele>62.14</ele>
        <time>2010-10-31T07:54:58Z</time>
      </trkpt>
      <trkpt lat="47.36103" lon="-0.03492">
        <ele>61.18</ele>
        <time>2010-10-31T07:54:59Z</time>
      </trkpt>
      <trkpt lat="47.36103" lon="-0.03492">
        <ele>60.22</ele>
        <time>2010-10-31T08:09:23Z</time>
      </trkpt>
      <trkpt lat="47.36103" lon="-0.03492">
        <ele>49.65</ele>
        <time>2010-10-31T08:09:24Z</time>
      </trkpt>
      <trkpt lat="47.3621" lon="-0.03729">
        <ele>50.13</ele>
        <time>2010-10-31T08:09:32Z</time>
      </trkpt>
      <trkpt lat="47.36211" lon="-0.03728">
        <ele>50.61</ele>
        <time>2010-10-31T08:09:33Z</time>
      </trkpt>
      <trkpt lat="47.36206" lon="-0.03732">
        <ele>53.01</ele>
        <time>2010-10-31T08:09:38Z</time>
      </trkpt>
      <trkpt lat="47.36196" lon="-0.03715">
        <ele>55.89</ele>
        <time>2010-10-31T08:09:43Z</time>
      </trkpt>
      <trkpt lat="47.3619" lon="-0.0369">
        <ele>56.86</ele>
        <time>2010-10-31T08:09:48Z</time>
      </trkpt>
      <trkpt lat="47.36177" lon="-0.03687">
        <ele>58.78</ele>
        <time>2010-10-31T08:09:53Z</time>
      </trkpt>
      <trkpt lat="47.36173" lon="-0.03688">
        <ele>59.26</ele>
        <time>2010-10-31T08:09:54Z</time>
      </trkpt>
      <trkpt lat="47.36156" lon="-0.03692">
        <ele>61.66</ele>
        <time>2010-10-31T08:10:00Z</time>
      </trkpt>
      <trkpt lat="47.36146" lon="-0.03692">
        <ele>62.14</ele>
        <time>2010-10-31T08:10:05Z</time>
      </trkpt>
      <trkpt lat="47.36144" lon="-0.03691">
        <ele>63.1</ele>
        <time>2010-10-31T08:10:06Z</time>
      </trkpt>
      <trkpt lat="47.36143" lon="-0.03691">
        <ele>62.62</ele>
        <time>2010-10-31T08:10:07Z</time>
      </trkpt>
      <trkpt lat="47.3614" lon="-0.03692">
        <ele>63.58</ele>
        <time>2010-10-31T08:10:08Z</time>
      </trkpt>
      <trkpt lat="47.36131" lon="-0.03697">
        <ele>64.55</ele>
        <time>2010-10-31T08:10:11Z</time>
      </trkpt>
      <trkpt lat="47.36131" lon="-0.03699">
        <ele>65.51</ele>
        <time>2010-10-31T08:10:12Z</time>
      </trkpt>
      <trkpt lat="47.3613" lon="-0.03701">
        <ele>65.99</ele>
        <time>2010-10-31T08:10:13Z</time>
      </trkpt>
      <trkpt lat="47.36128" lon="-0.03702">
        <ele>65.99</ele>
        <time>2010-10-31T08:10:14Z</time>
      </trkpt>
      <trkpt lat="47.36127" lon="-0.03701">
        <ele>66.95</ele>
        <time>2010-10-31T08:10:15Z</time>
      </trkpt>
      <trkpt lat="47.36127" lon="-0.03698">
        <ele>66.95</ele>
        <time>2010-10-31T08:10:16Z</time>
      </trkpt>
      <trkpt lat="47.36127" lon="-0.03694">
        <ele>65.99</ele>
        <time>2010-10-31T08:10:17Z</time>
      </trkpt>
      <trkpt lat="47.36126" lon="-0.0369">
        <ele>66.47</ele>
        <time>2010-10-31T08:10:18Z</time>
      </trkpt>
      <trkpt lat="47.36129" lon="-0.03657">
        <ele>67.91</ele>
        <time>2010-10-31T08:10:25Z</time>
      </trkpt>
      <trkpt lat="47.36134" lon="-0.03628">
        <ele>69.35</ele>
        <time>2010-10-31T08:10:31Z</time>
      </trkpt>
      <trkpt lat="47.36134" lon="-0.03623">
        <ele>68.87</ele>
        <time>2010-10-31T08:10:32Z</time>
      </trkpt>
      <trkpt lat="47.36132" lon="-0.03574">
        <ele>68.39</ele>
        <time>2010-10-31T08:10:42Z</time>
      </trkpt>
      <trkpt lat="47.36132" lon="-0.03536">
        <ele>68.39</ele>
        <time>2010-10-31T08:10:50Z</time>
      </trkpt>
      <trkpt lat="47.36133" lon="-0.03522">
        <ele>69.83</ele>
        <time>2010-10-31T08:10:53Z</time>
      </trkpt>
      <trkpt lat="47.36136" lon="-0.03474">
        <ele>69.35</ele>
        <time>2010-10-31T08:11:03Z</time>
      </trkpt>
      <trkpt lat="47.36134" lon="-0.03448">
        <ele>69.83</ele>
        <time>2010-10-31T08:11:09Z</time>
      </trkpt>
      <trkpt lat="47.36118" lon="-0.03441">
        <ele>71.27</ele>
        <time>2010-10-31T08:11:14Z</time>
      </trkpt>
      <trkpt lat="47.36098" lon="-0.03438">
        <ele>71.76</ele>
        <time>2010-10-31T08:11:21Z</time>
      </trkpt>
      <trkpt lat="47.36082" lon="-0.03437">
        <ele>73.68</ele>
        <time>2010-10-31T08:11:27Z</time>
      </trkpt>
      <trkpt lat="47.36071" lon="-0.03434">
        <ele>73.2</ele>
        <time>2010-10-31T08:11:32Z</time>
      </trkpt>
      <trkpt lat="47.36065" lon="-0.03423">
        <ele>75.12</ele>
        <time>2010-10-31T08:11:37Z</time>
      </trkpt>
      <trkpt lat="47.36067" lon="-0.03416">
        <ele>74.16</ele>
        <time>2010-10-31T08:11:40Z</time>
      </trkpt>
      <trkpt lat="47.36067" lon="-0.03412">
        <ele>74.64</ele>
        <time>2010-10-31T08:11:41Z</time>
      </trkpt>
      <trkpt lat="47.36066" lon="-0.03408">
        <ele>74.64</ele>
        <time>2010-10-31T08:11:42Z</time>
      </trkpt>
      <trkpt lat="47.36066" lon="-0.03404">
        <ele>76.56</ele>
        <time>2010-10-31T08:11:43Z</time>
      </trkpt>
      <trkpt lat="47.36066" lon="-0.034">
        <ele>76.56</ele>
        <time>2010-10-31T08:11:44Z</time>
      </trkpt>
      <trkpt lat="47.36065" lon="-0.03396">
        <ele>77.52</ele>
        <time>2010-10-31T08:11:45Z</time>
      </trkpt>
      <trkpt lat="47.36065" lon="-0.03391">
        <ele>77.04</ele>
        <time>2010-10-31T08:11:46Z</time>
      </trkpt>
      <trkpt lat="47.36064" lon="-0.03386">
        <ele>75.6</ele>
        <time>2010-10-31T08:11:47Z</time>
      </trkpt>
      <trkpt lat="47.36062" lon="-0.03382">
        <ele>75.6</ele>
        <time>2010-10-31T08:11:48Z</time>
      </trkpt>
      <trkpt lat="47.36065" lon="-0.03359">
        <ele>76.08</ele>
        <time>2010-10-31T08:11:53Z</time>
      </trkpt>
      <trkpt lat="47.36071" lon="-0.03337">
        <ele>76.56</ele>
        <time>2010-10-31T08:11:58Z</time>
      </trkpt>
      <trkpt lat="47.36079" lon="-0.03306">
        <ele>76.08</ele>
        <time>2010-10-31T08:12:04Z</time>
      </trkpt>
      <trkpt lat="47.36084" lon="-0.03285">
        <ele>76.08</ele>
        <time>2010-10-31T08:12:08Z</time>
      </trkpt>
      <trkpt lat="47.36085" lon="-0.03262">
        <ele>77.52</ele>
        <time>2010-10-31T08:12:12Z</time>
      </trkpt>
      <trkpt lat="47.3609" lon="-0.03237">
        <ele>78.97</ele>
        <time>2010-10-31T08:12:17Z</time>
      </trkpt>
      <trkpt lat="47.36098" lon="-0.03208">
        <ele>76.56</ele>
        <time>2010-10-31T08:12:23Z</time>
      </trkpt>
      <trkpt lat="47.361" lon="-0.03171">
        <ele>78</ele>
        <time>2010-10-31T08:12:30Z</time>
      </trkpt>
      <trkpt lat="47.36091" lon="-0.03144">
        <ele>78.48</ele>
        <time>2010-10-31T08:12:36Z</time>
      </trkpt>
      <trkpt lat="47.36083" lon="-0.03131">
        <ele>79.93</ele>
        <time>2010-10-31T08:12:39Z</time>
      </trkpt>
      <trkpt lat="47.36072" lon="-0.031">
        <ele>79.93</ele>
        <time>2010-10-31T08:12:47Z</time>
      </trkpt>
      <trkpt lat="47.36068" lon="-0.03081">
        <ele>80.41</ele>
        <time>2010-10-31T08:12:52Z</time>
      </trkpt>
      <trkpt lat="47.36064" lon="-0.03064">
        <ele>81.37</ele>
        <time>2010-10-31T08:12:57Z</time>
      </trkpt>
      <trkpt lat="47.3606" lon="-0.03047">
        <ele>82.81</ele>
        <time>2010-10-31T08:13:02Z</time>
      </trkpt>
      <trkpt lat="47.36057" lon="-0.03038">
        <ele>81.85</ele>
        <time>2010-10-31T08:13:05Z</time>
      </trkpt>
      <trkpt lat="47.36056" lon="-0.03034">
        <ele>83.29</ele>
        <time>2010-10-31T08:13:07Z</time>
      </trkpt>
      <trkpt lat="47.36051" lon="-0.03016">
        <ele>85.21</ele>
        <time>2010-10-31T08:13:13Z</time>
      </trkpt>
      <trkpt lat="47.36044" lon="-0.03005">
        <ele>84.73</ele>
        <time>2010-10-31T08:13:17Z</time>
      </trkpt>
      <trkpt lat="47.36032" lon="-0.02985">
        <ele>86.18</ele>
        <time>2010-10-31T08:13:23Z</time>
      </trkpt>
      <trkpt lat="47.36019" lon="-0.02968">
        <ele>88.1</ele>
        <time>2010-10-31T08:13:30Z</time>
      </trkpt>
      <trkpt lat="47.36005" lon="-0.0295">
        <ele>88.58</ele>
        <time>2010-10-31T08:13:36Z</time>
      </trkpt>
      <trkpt lat="47.35991" lon="-0.02937">
        <ele>89.54</ele>
        <time>2010-10-31T08:13:41Z</time>
      </trkpt>
      <trkpt lat="47.35988" lon="-0.02936">
        <ele>90.5</ele>
        <time>2010-10-31T08:13:42Z</time>
      </trkpt>
      <trkpt lat="47.35986" lon="-0.02934">
        <ele>89.54</ele>
        <time>2010-10-31T08:13:43Z</time>
      </trkpt>
      <trkpt lat="47.35983" lon="-0.02933">
        <ele>90.5</ele>
        <time>2010-10-31T08:13:44Z</time>
      </trkpt>
      <trkpt lat="47.3598" lon="-0.02932">
        <ele>90.02</ele>
        <time>2010-10-31T08:13:45Z</time>
      </trkpt>
      <trkpt lat="47.35978" lon="-0.02931">
        <ele>89.54</ele>
        <time>2010-10-31T08:13:46Z</time>
      </trkpt>
      <trkpt lat="47.35975" lon="-0.02929">
        <ele>90.5</ele>
        <time>2010-10-31T08:13:47Z</time>
      </trkpt>
      <trkpt lat="47.35973" lon="-0.02927">
        <ele>89.54</ele>
        <time>2010-10-31T08:13:48Z</time>
      </trkpt>
      <trkpt lat="47.35952" lon="-0.02914">
        <ele>90.98</ele>
        <time>2010-10-31T08:13:55Z</time>
      </trkpt>
      <trkpt lat="47.35923" lon="-0.02895">
        <ele>92.42</ele>
        <time>2010-10-31T08:14:04Z</time>
      </trkpt>
      <trkpt lat="47.35904" lon="-0.0288">
        <ele>93.87</ele>
        <time>2010-10-31T08:14:10Z</time>
      </trkpt>
      <trkpt lat="47.35875" lon="-0.02867">
        <ele>91.94</ele>
        <time>2010-10-31T08:14:18Z</time>
      </trkpt>
      <trkpt lat="47.3583" lon="-0.02834">
        <ele>93.39</ele>
        <time>2010-10-31T08:14:27Z</time>
      </trkpt>
      <trkpt lat="47.35798" lon="-0.0281">
        <ele>93.87</ele>
        <time>2010-10-31T08:14:35Z</time>
      </trkpt>
      <trkpt lat="47.35767" lon="-0.02778">
        <ele>92.9</ele>
        <time>2010-10-31T08:14:44Z</time>
      </trkpt>
      <trkpt lat="47.35745" lon="-0.02752">
        <ele>92.9</ele>
        <time>2010-10-31T08:14:51Z</time>
      </trkpt>
      <trkpt lat="47.3574" lon="-0.02743">
        <ele>94.35</ele>
        <time>2010-10-31T08:14:53Z</time>
      </trkpt>
      <trkpt lat="47.35735" lon="-0.02733">
        <ele>93.87</ele>
        <time>2010-10-31T08:14:55Z</time>
      </trkpt>
      <trkpt lat="47.35734" lon="-0.02727">
        <ele>93.39</ele>
        <time>2010-10-31T08:14:56Z</time>
      </trkpt>
      <trkpt lat="47.35724" lon="-0.02674">
        <ele>94.83</ele>
        <time>2010-10-31T08:15:05Z</time>
      </trkpt>
      <trkpt lat="47.35718" lon="-0.02636">
        <ele>95.31</ele>
        <time>2010-10-31T08:15:12Z</time>
      </trkpt>
      <trkpt lat="47.35716" lon="-0.02598">
        <ele>97.23</ele>
        <time>2010-10-31T08:15:19Z</time>
      </trkpt>
      <trkpt lat="47.35715" lon="-0.0257">
        <ele>97.23</ele>
        <time>2010-10-31T08:15:24Z</time>
      </trkpt>
      <trkpt lat="47.35713" lon="-0.02523">
        <ele>98.67</ele>
        <time>2010-10-31T08:15:33Z</time>
      </trkpt>
      <trkpt lat="47.3571" lon="-0.0248">
        <ele>99.63</ele>
        <time>2010-10-31T08:15:41Z</time>
      </trkpt>
      <trkpt lat="47.35706" lon="-0.02433">
        <ele>100.6</ele>
        <time>2010-10-31T08:15:49Z</time>
      </trkpt>
      <trkpt lat="47.35703" lon="-0.02375">
        <ele>101.56</ele>
        <time>2010-10-31T08:15:59Z</time>
      </trkpt>
      <trkpt lat="47.35702" lon="-0.02328">
        <ele>100.6</ele>
        <time>2010-10-31T08:16:07Z</time>
      </trkpt>
      <trkpt lat="47.35704" lon="-0.02289">
        <ele>103.48</ele>
        <time>2010-10-31T08:16:14Z</time>
      </trkpt>
      <trkpt lat="47.35701" lon="-0.02249">
        <ele>103</ele>
        <time>2010-10-31T08:16:21Z</time>
      </trkpt>
      <trkpt lat="47.35693" lon="-0.02209">
        <ele>103.48</ele>
        <time>2010-10-31T08:16:28Z</time>
      </trkpt>
      <trkpt lat="47.35691" lon="-0.02203">
        <ele>103.96</ele>
        <time>2010-10-31T08:16:29Z</time>
      </trkpt>
      <trkpt lat="47.35684" lon="-0.02177">
        <ele>103.96</ele>
        <time>2010-10-31T08:16:34Z</time>
      </trkpt>
      <trkpt lat="47.35682" lon="-0.02171">
        <ele>104.44</ele>
        <time>2010-10-31T08:16:35Z</time>
      </trkpt>
      <trkpt lat="47.35681" lon="-0.02166">
        <ele>103.48</ele>
        <time>2010-10-31T08:16:36Z</time>
      </trkpt>
      <trkpt lat="47.35673" lon="-0.02121">
        <ele>104.92</ele>
        <time>2010-10-31T08:16:44Z</time>
      </trkpt>
      <trkpt lat="47.35666" lon="-0.02093">
        <ele>104.92</ele>
        <time>2010-10-31T08:16:49Z</time>
      </trkpt>
      <trkpt lat="47.3566" lon="-0.02059">
        <ele>105.88</ele>
        <time>2010-10-31T08:16:55Z</time>
      </trkpt>
      <trkpt lat="47.3565" lon="-0.02026">
        <ele>104.92</ele>
        <time>2010-10-31T08:17:01Z</time>
      </trkpt>
      <trkpt lat="47.35643" lon="-0.02004">
        <ele>105.88</ele>
        <time>2010-10-31T08:17:05Z</time>
      </trkpt>
      <trkpt lat="47.35644" lon="-0.01999">
        <ele>104.92</ele>
        <time>2010-10-31T08:17:06Z</time>
      </trkpt>
      <trkpt lat="47.35645" lon="-0.01994">
        <ele>105.4</ele>
        <time>2010-10-31T08:17:07Z</time>
      </trkpt>
      <trkpt lat="47.35644" lon="-0.01988">
        <ele>105.4</ele>
        <time>2010-10-31T08:17:08Z</time>
      </trkpt>
      <trkpt lat="47.35642" lon="-0.01983">
        <ele>105.88</ele>
        <time>2010-10-31T08:17:09Z</time>
      </trkpt>
      <trkpt lat="47.35629" lon="-0.01937">
        <ele>104.92</ele>
        <time>2010-10-31T08:17:17Z</time>
      </trkpt>
      <trkpt lat="47.35622" lon="-0.01913">
        <ele>106.36</ele>
        <time>2010-10-31T08:17:21Z</time>
      </trkpt>
      <trkpt lat="47.3562" lon="-0.01907">
        <ele>105.88</ele>
        <time>2010-10-31T08:17:22Z</time>
      </trkpt>
      <trkpt lat="47.35606" lon="-0.01853">
        <ele>105.88</ele>
        <time>2010-10-31T08:17:30Z</time>
      </trkpt>
      <trkpt lat="47.35601" lon="-0.01833">
        <ele>105.88</ele>
        <time>2010-10-31T08:17:33Z</time>
      </trkpt>
      <trkpt lat="47.35599" lon="-0.01826">
        <ele>105.4</ele>
        <time>2010-10-31T08:17:34Z</time>
      </trkpt>
      <trkpt lat="47.35589" lon="-0.01786">
        <ele>104.92</ele>
        <time>2010-10-31T08:17:40Z</time>
      </trkpt>
      <trkpt lat="47.35576" lon="-0.0174">
        <ele>104.92</ele>
        <time>2010-10-31T08:17:47Z</time>
      </trkpt>
      <trkpt lat="47.3556" lon="-0.01674">
        <ele>106.84</ele>
        <time>2010-10-31T08:17:57Z</time>
      </trkpt>
      <trkpt lat="47.35546" lon="-0.01619">
        <ele>106.36</ele>
        <time>2010-10-31T08:18:05Z</time>
      </trkpt>
      <trkpt lat="47.35541" lon="-0.01599">
        <ele>106.84</ele>
        <time>2010-10-31T08:18:08Z</time>
      </trkpt>
      <trkpt lat="47.35529" lon="-0.01558">
        <ele>106.36</ele>
        <time>2010-10-31T08:18:14Z</time>
      </trkpt>
      <trkpt lat="47.35526" lon="-0.01552">
        <ele>105.4</ele>
        <time>2010-10-31T08:18:15Z</time>
      </trkpt>
      <trkpt lat="47.35523" lon="-0.01549">
        <ele>105.88</ele>
        <time>2010-10-31T08:18:16Z</time>
      </trkpt>
      <trkpt lat="47.35518" lon="-0.01547">
        <ele>105.88</ele>
        <time>2010-10-31T08:18:17Z</time>
      </trkpt>
      <trkpt lat="47.35514" lon="-0.01547">
        <ele>106.36</ele>
        <time>2010-10-31T08:18:18Z</time>
      </trkpt>
      <trkpt lat="47.3551" lon="-0.01547">
        <ele>105.4</ele>
        <time>2010-10-31T08:18:19Z</time>
      </trkpt>
      <trkpt lat="47.35505" lon="-0.01546">
        <ele>104.92</ele>
        <time>2010-10-31T08:18:20Z</time>
      </trkpt>
      <trkpt lat="47.35478" lon="-0.01541">
        <ele>105.4</ele>
        <time>2010-10-31T08:18:26Z</time>
      </trkpt>
      <trkpt lat="47.35474" lon="-0.01539">
        <ele>105.4</ele>
        <time>2010-10-31T08:18:27Z</time>
      </trkpt>
      <trkpt lat="47.35464" lon="-0.01537">
        <ele>104.92</ele>
        <time>2010-10-31T08:18:29Z</time>
      </trkpt>
      <trkpt lat="47.35459" lon="-0.01536">
        <ele>103.96</ele>
        <time>2010-10-31T08:18:30Z</time>
      </trkpt>
      <trkpt lat="47.3545" lon="-0.01534">
        <ele>105.88</ele>
        <time>2010-10-31T08:18:32Z</time>
      </trkpt>
      <trkpt lat="47.35445" lon="-0.01533">
        <ele>105.4</ele>
        <time>2010-10-31T08:18:33Z</time>
      </trkpt>
      <trkpt lat="47.35417" lon="-0.01524">
        <ele>105.4</ele>
        <time>2010-10-31T08:18:39Z</time>
      </trkpt>
      <trkpt lat="47.35403" lon="-0.01517">
        <ele>103.96</ele>
        <time>2010-10-31T08:18:42Z</time>
      </trkpt>
      <trkpt lat="47.35384" lon="-0.01507">
        <ele>104.44</ele>
        <time>2010-10-31T08:18:47Z</time>
      </trkpt>
      <trkpt lat="47.35373" lon="-0.01498">
        <ele>104.92</ele>
        <time>2010-10-31T08:18:50Z</time>
      </trkpt>
      <trkpt lat="47.3537" lon="-0.01493">
        <ele>103.96</ele>
        <time>2010-10-31T08:18:51Z</time>
      </trkpt>
      <trkpt lat="47.35363" lon="-0.01483">
        <ele>103.48</ele>
        <time>2010-10-31T08:18:53Z</time>
      </trkpt>
      <trkpt lat="47.35359" lon="-0.01478">
        <ele>103.48</ele>
        <time>2010-10-31T08:18:54Z</time>
      </trkpt>
      <trkpt lat="47.35354" lon="-0.01474">
        <ele>102.52</ele>
        <time>2010-10-31T08:18:55Z</time>
      </trkpt>
      <trkpt lat="47.35349" lon="-0.01471">
        <ele>102.52</ele>
        <time>2010-10-31T08:18:56Z</time>
      </trkpt>
      <trkpt lat="47.35343" lon="-0.01468">
        <ele>101.56</ele>
        <time>2010-10-31T08:18:57Z</time>
      </trkpt>
      <trkpt lat="47.35337" lon="-0.01466">
        <ele>102.04</ele>
        <time>2010-10-31T08:18:58Z</time>
      </trkpt>
      <trkpt lat="47.35327" lon="-0.0146">
        <ele>102.04</ele>
        <time>2010-10-31T08:19:00Z</time>
      </trkpt>
      <trkpt lat="47.35316" lon="-0.01453">
        <ele>101.56</ele>
        <time>2010-10-31T08:19:02Z</time>
      </trkpt>
      <trkpt lat="47.35292" lon="-0.01431">
        <ele>97.71</ele>
        <time>2010-10-31T08:19:06Z</time>
      </trkpt>
      <trkpt lat="47.35286" lon="-0.01424">
        <ele>97.71</ele>
        <time>2010-10-31T08:19:07Z</time>
      </trkpt>
      <trkpt lat="47.35262" lon="-0.01397">
        <ele>93.87</ele>
        <time>2010-10-31T08:19:11Z</time>
      </trkpt>
      <trkpt lat="47.35249" lon="-0.01382">
        <ele>92.9</ele>
        <time>2010-10-31T08:19:13Z</time>
      </trkpt>
      <trkpt lat="47.35232" lon="-0.01363">
        <ele>90.5</ele>
        <time>2010-10-31T08:19:16Z</time>
      </trkpt>
      <trkpt lat="47.35225" lon="-0.01357">
        <ele>89.06</ele>
        <time>2010-10-31T08:19:17Z</time>
      </trkpt>
      <trkpt lat="47.35218" lon="-0.01351">
        <ele>89.06</ele>
        <time>2010-10-31T08:19:18Z</time>
      </trkpt>
      <trkpt lat="47.35189" lon="-0.01327">
        <ele>83.77</ele>
        <time>2010-10-31T08:19:22Z</time>
      </trkpt>
      <trkpt lat="47.35167" lon="-0.01311">
        <ele>80.89</ele>
        <time>2010-10-31T08:19:25Z</time>
      </trkpt>
      <trkpt lat="47.35161" lon="-0.01305">
        <ele>79.93</ele>
        <time>2010-10-31T08:19:26Z</time>
      </trkpt>
      <trkpt lat="47.35138" lon="-0.01283">
        <ele>75.6</ele>
        <time>2010-10-31T08:19:29Z</time>
      </trkpt>
      <trkpt lat="47.3512" lon="-0.01263">
        <ele>72.24</ele>
        <time>2010-10-31T08:19:31Z</time>
      </trkpt>
      <trkpt lat="47.35107" lon="-0.01248">
        <ele>70.79</ele>
        <time>2010-10-31T08:19:33Z</time>
      </trkpt>
      <trkpt lat="47.35096" lon="-0.01236">
        <ele>67.91</ele>
        <time>2010-10-31T08:19:36Z</time>
      </trkpt>
      <trkpt lat="47.35094" lon="-0.01232">
        <ele>67.43</ele>
        <time>2010-10-31T08:19:37Z</time>
      </trkpt>
      <trkpt lat="47.35094" lon="-0.01228">
        <ele>67.91</ele>
        <time>2010-10-31T08:19:38Z</time>
      </trkpt>
      <trkpt lat="47.35095" lon="-0.01224">
        <ele>67.43</ele>
        <time>2010-10-31T08:19:39Z</time>
      </trkpt>
      <trkpt lat="47.35097" lon="-0.01219">
        <ele>67.43</ele>
        <time>2010-10-31T08:19:40Z</time>
      </trkpt>
      <trkpt lat="47.351" lon="-0.01214">
        <ele>67.43</ele>
        <time>2010-10-31T08:19:41Z</time>
      </trkpt>
      <trkpt lat="47.35104" lon="-0.01205">
        <ele>67.91</ele>
        <time>2010-10-31T08:19:43Z</time>
      </trkpt>
      <trkpt lat="47.35111" lon="-0.01188">
        <ele>67.43</ele>
        <time>2010-10-31T08:19:46Z</time>
      </trkpt>
      <trkpt lat="47.35117" lon="-0.01169">
        <ele>67.91</ele>
        <time>2010-10-31T08:19:49Z</time>
      </trkpt>
      <trkpt lat="47.35124" lon="-0.0115">
        <ele>66.47</ele>
        <time>2010-10-31T08:19:52Z</time>
      </trkpt>
      <trkpt lat="47.35129" lon="-0.01137">
        <ele>66.47</ele>
        <time>2010-10-31T08:19:54Z</time>
      </trkpt>
      <trkpt lat="47.35138" lon="-0.01117">
        <ele>65.03</ele>
        <time>2010-10-31T08:19:57Z</time>
      </trkpt>
      <trkpt lat="47.35154" lon="-0.01079">
        <ele>65.99</ele>
        <time>2010-10-31T08:20:04Z</time>
      </trkpt>
      <trkpt lat="47.35156" lon="-0.01069">
        <ele>67.43</ele>
        <time>2010-10-31T08:20:06Z</time>
      </trkpt>
      <trkpt lat="47.35156" lon="-0.01064">
        <ele>67.91</ele>
        <time>2010-10-31T08:20:07Z</time>
      </trkpt>
      <trkpt lat="47.35152" lon="-0.01042">
        <ele>67.43</ele>
        <time>2010-10-31T08:20:12Z</time>
      </trkpt>
      <trkpt lat="47.35153" lon="-0.01037">
        <ele>65.99</ele>
        <time>2010-10-31T08:20:13Z</time>
      </trkpt>
      <trkpt lat="47.35167" lon="-0.01006">
        <ele>67.43</ele>
        <time>2010-10-31T08:20:20Z</time>
      </trkpt>
      <trkpt lat="47.3518" lon="-0.00976">
        <ele>67.91</ele>
        <time>2010-10-31T08:20:27Z</time>
      </trkpt>
      <trkpt lat="47.35194" lon="-0.00948">
        <ele>68.39</ele>
        <time>2010-10-31T08:20:34Z</time>
      </trkpt>
      <trkpt lat="47.35196" lon="-0.00944">
        <ele>68.39</ele>
        <time>2010-10-31T08:20:35Z</time>
      </trkpt>
      <trkpt lat="47.35213" lon="-0.00904">
        <ele>68.39</ele>
        <time>2010-10-31T08:20:44Z</time>
      </trkpt>
      <trkpt lat="47.35226" lon="-0.00873">
        <ele>66.95</ele>
        <time>2010-10-31T08:20:51Z</time>
      </trkpt>
      <trkpt lat="47.35238" lon="-0.00846">
        <ele>66.47</ele>
        <time>2010-10-31T08:20:57Z</time>
      </trkpt>
      <trkpt lat="47.35246" lon="-0.00814">
        <ele>66.47</ele>
        <time>2010-10-31T08:21:03Z</time>
      </trkpt>
      <trkpt lat="47.35241" lon="-0.00785">
        <ele>65.99</ele>
        <time>2010-10-31T08:21:09Z</time>
      </trkpt>
      <trkpt lat="47.35224" lon="-0.00765">
        <ele>63.58</ele>
        <time>2010-10-31T08:21:15Z</time>
      </trkpt>
      <trkpt lat="47.35199" lon="-0.00743">
        <ele>62.14</ele>
        <time>2010-10-31T08:21:22Z</time>
      </trkpt>
      <trkpt lat="47.35163" lon="-0.00707">
        <ele>58.78</ele>
        <time>2010-10-31T08:21:31Z</time>
      </trkpt>
      <trkpt lat="47.35159" lon="-0.00703">
        <ele>59.74</ele>
        <time>2010-10-31T08:21:32Z</time>
      </trkpt>
      <trkpt lat="47.35139" lon="-0.00689">
        <ele>58.3</ele>
        <time>2010-10-31T08:21:37Z</time>
      </trkpt>
      <trkpt lat="47.35131" lon="-0.00686">
        <ele>58.3</ele>
        <time>2010-10-31T08:21:39Z</time>
      </trkpt>
      <trkpt lat="47.35121" lon="-0.00681">
        <ele>57.82</ele>
        <time>2010-10-31T08:21:41Z</time>
      </trkpt>
      <trkpt lat="47.35081" lon="-0.00642">
        <ele>55.89</ele>
        <time>2010-10-31T08:21:50Z</time>
      </trkpt>
      <trkpt lat="47.35053" lon="-0.00613">
        <ele>56.37</ele>
        <time>2010-10-31T08:21:57Z</time>
      </trkpt>
      <trkpt lat="47.35044" lon="-0.00604">
        <ele>55.41</ele>
        <time>2010-10-31T08:22:00Z</time>
      </trkpt>
      <trkpt lat="47.35044" lon="-0.00592">
        <ele>55.89</ele>
        <time>2010-10-31T08:22:04Z</time>
      </trkpt>
      <trkpt lat="47.35068" lon="-0.0056">
        <ele>56.37</ele>
        <time>2010-10-31T08:22:12Z</time>
      </trkpt>
      <trkpt lat="47.35071" lon="-0.00556">
        <ele>55.89</ele>
        <time>2010-10-31T08:22:13Z</time>
      </trkpt>
      <trkpt lat="47.35088" lon="-0.00539">
        <ele>56.37</ele>
        <time>2010-10-31T08:22:17Z</time>
      </trkpt>
      <trkpt lat="47.35118" lon="-0.00501">
        <ele>56.37</ele>
        <time>2010-10-31T08:22:25Z</time>
      </trkpt>
      <trkpt lat="47.35156" lon="-0.00443">
        <ele>56.86</ele>
        <time>2010-10-31T08:22:36Z</time>
      </trkpt>
      <trkpt lat="47.35166" lon="-0.00428">
        <ele>57.82</ele>
        <time>2010-10-31T08:22:39Z</time>
      </trkpt>
      <trkpt lat="47.35176" lon="-0.00415">
        <ele>57.34</ele>
        <time>2010-10-31T08:22:42Z</time>
      </trkpt>
      <trkpt lat="47.3518" lon="-0.00411">
        <ele>57.82</ele>
        <time>2010-10-31T08:22:43Z</time>
      </trkpt>
      <trkpt lat="47.35184" lon="-0.00409">
        <ele>58.3</ele>
        <time>2010-10-31T08:22:44Z</time>
      </trkpt>
      <trkpt lat="47.35188" lon="-0.00406">
        <ele>57.82</ele>
        <time>2010-10-31T08:22:45Z</time>
      </trkpt>
      <trkpt lat="47.35192" lon="-0.00404">
        <ele>58.78</ele>
        <time>2010-10-31T08:22:46Z</time>
      </trkpt>
      <trkpt lat="47.35196" lon="-0.00403">
        <ele>58.3</ele>
        <time>2010-10-31T08:22:47Z</time>
      </trkpt>
      <trkpt lat="47.352" lon="-0.00401">
        <ele>57.82</ele>
        <time>2010-10-31T08:22:48Z</time>
      </trkpt>
      <trkpt lat="47.35204" lon="-0.00398">
        <ele>57.82</ele>
        <time>2010-10-31T08:22:49Z</time>
      </trkpt>
      <trkpt lat="47.35225" lon="-0.00384">
        <ele>59.74</ele>
        <time>2010-10-31T08:22:55Z</time>
      </trkpt>
      <trkpt lat="47.35243" lon="-0.00365">
        <ele>61.66</ele>
        <time>2010-10-31T08:23:01Z</time>
      </trkpt>
      <trkpt lat="47.35256" lon="-0.00352">
        <ele>62.14</ele>
        <time>2010-10-31T08:23:06Z</time>
      </trkpt>
      <trkpt lat="47.35272" lon="-0.00334">
        <ele>64.07</ele>
        <time>2010-10-31T08:23:12Z</time>
      </trkpt>
      <trkpt lat="47.35283" lon="-0.00322">
        <ele>65.03</ele>
        <time>2010-10-31T08:23:17Z</time>
      </trkpt>
      <trkpt lat="47.35284" lon="-0.00319">
        <ele>64.55</ele>
        <time>2010-10-31T08:23:18Z</time>
      </trkpt>
      <trkpt lat="47.35287" lon="-0.00316">
        <ele>64.55</ele>
        <time>2010-10-31T08:23:19Z</time>
      </trkpt>
      <trkpt lat="47.35289" lon="-0.00313">
        <ele>65.03</ele>
        <time>2010-10-31T08:23:20Z</time>
      </trkpt>
      <trkpt lat="47.35291" lon="-0.0031">
        <ele>65.03</ele>
        <time>2010-10-31T08:23:21Z</time>
      </trkpt>
      <trkpt lat="47.35294" lon="-0.00307">
        <ele>65.03</ele>
        <time>2010-10-31T08:23:22Z</time>
      </trkpt>
      <trkpt lat="47.35296" lon="-0.00304">
        <ele>65.03</ele>
        <time>2010-10-31T08:23:23Z</time>
      </trkpt>
      <trkpt lat="47.35299" lon="-0.00302">
        <ele>65.51</ele>
        <time>2010-10-31T08:23:24Z</time>
      </trkpt>
      <trkpt lat="47.35312" lon="-0.00286">
        <ele>66.47</ele>
        <time>2010-10-31T08:23:30Z</time>
      </trkpt>
      <trkpt lat="47.35324" lon="-0.00271">
        <ele>68.39</ele>
        <time>2010-10-31T08:23:35Z</time>
      </trkpt>
      <trkpt lat="47.35325" lon="-0.00267">
        <ele>67.91</ele>
        <time>2010-10-31T08:23:36Z</time>
      </trkpt>
      <trkpt lat="47.35326" lon="-0.00264">
        <ele>67.91</ele>
        <time>2010-10-31T08:23:37Z</time>
      </trkpt>
      <trkpt lat="47.35329" lon="-0.00261">
        <ele>68.87</ele>
        <time>2010-10-31T08:23:38Z</time>
      </trkpt>
      <trkpt lat="47.35331" lon="-0.00259">
        <ele>69.35</ele>
        <time>2010-10-31T08:23:39Z</time>
      </trkpt>
      <trkpt lat="47.35333" lon="-0.00256">
        <ele>68.39</ele>
        <time>2010-10-31T08:23:40Z</time>
      </trkpt>
      <trkpt lat="47.35335" lon="-0.00252">
        <ele>68.39</ele>
        <time>2010-10-31T08:23:41Z</time>
      </trkpt>
      <trkpt lat="47.35348" lon="-0.00228">
        <ele>69.83</ele>
        <time>2010-10-31T08:23:47Z</time>
      </trkpt>
      <trkpt lat="47.3536" lon="-0.002">
        <ele>70.79</ele>
        <time>2010-10-31T08:23:53Z</time>
      </trkpt>
      <trkpt lat="47.3537" lon="-0.00167">
        <ele>71.27</ele>
        <time>2010-10-31T08:23:59Z</time>
      </trkpt>
      <trkpt lat="47.35385" lon="-0.0013">
        <ele>72.24</ele>
        <time>2010-10-31T08:24:06Z</time>
      </trkpt>
      <trkpt lat="47.35401" lon="-0.00097">
        <ele>71.76</ele>
        <time>2010-10-31T08:24:12Z</time>
      </trkpt>
      <trkpt lat="47.35404" lon="-0.00092">
        <ele>72.24</ele>
        <time>2010-10-31T08:24:13Z</time>
      </trkpt>
      <trkpt lat="47.35414" lon="-0.00078">
        <ele>72.24</ele>
        <time>2010-10-31T08:24:16Z</time>
      </trkpt>
      <trkpt lat="47.35428" lon="-0.00054">
        <ele>72.24</ele>
        <time>2010-10-31T08:24:21Z</time>
      </trkpt>
      <trkpt lat="47.3543" lon="-0.0005">
        <ele>71.27</ele>
        <time>2010-10-31T08:24:22Z</time>
      </trkpt>
      <trkpt lat="47.35433" lon="-0.00046">
        <ele>72.24</ele>
        <time>2010-10-31T08:24:23Z</time>
      </trkpt>
      <trkpt lat="47.35453" lon="-0.00015">
        <ele>72.24</ele>
        <time>2010-10-31T08:24:30Z</time>
      </trkpt>
      <trkpt lat="47.35469" lon="6.0E-5">
        <ele>70.79</ele>
        <time>2010-10-31T08:24:35Z</time>
      </trkpt>
      <trkpt lat="47.3548" lon="0.00023">
        <ele>72.24</ele>
        <time>2010-10-31T08:24:39Z</time>
      </trkpt>
      <trkpt lat="47.35486" lon="0.00032">
        <ele>72.72</ele>
        <time>2010-10-31T08:24:41Z</time>
      </trkpt>
      <trkpt lat="47.3549" lon="0.00036">
        <ele>72.24</ele>
        <time>2010-10-31T08:24:42Z</time>
      </trkpt>
      <trkpt lat="47.35495" lon="0.00044">
        <ele>72.24</ele>
        <time>2010-10-31T08:24:44Z</time>
      </trkpt>
      <trkpt lat="47.35497" lon="0.00048">
        <ele>71.27</ele>
        <time>2010-10-31T08:24:45Z</time>
      </trkpt>
      <trkpt lat="47.35513" lon="0.00073">
        <ele>71.27</ele>
        <time>2010-10-31T08:24:50Z</time>
      </trkpt>
      <trkpt lat="47.35516" lon="0.00078">
        <ele>71.76</ele>
        <time>2010-10-31T08:24:51Z</time>
      </trkpt>
      <trkpt lat="47.3554" lon="0.00109">
        <ele>71.27</ele>
        <time>2010-10-31T08:24:58Z</time>
      </trkpt>
      <trkpt lat="47.35563" lon="0.00137">
        <ele>71.27</ele>
        <time>2010-10-31T08:25:04Z</time>
      </trkpt>
      <trkpt lat="47.35589" lon="0.00167">
        <ele>71.76</ele>
        <time>2010-10-31T08:25:10Z</time>
      </trkpt>
      <trkpt lat="47.35593" lon="0.00171">
        <ele>71.27</ele>
        <time>2010-10-31T08:25:11Z</time>
      </trkpt>
      <trkpt lat="47.3561" lon="0.0019">
        <ele>71.27</ele>
        <time>2010-10-31T08:25:15Z</time>
      </trkpt>
      <trkpt lat="47.35615" lon="0.00195">
        <ele>70.79</ele>
        <time>2010-10-31T08:25:16Z</time>
      </trkpt>
      <trkpt lat="47.35632" lon="0.00215">
        <ele>71.76</ele>
        <time>2010-10-31T08:25:20Z</time>
      </trkpt>
      <trkpt lat="47.35636" lon="0.00221">
        <ele>71.76</ele>
        <time>2010-10-31T08:25:21Z</time>
      </trkpt>
      <trkpt lat="47.3564" lon="0.00226">
        <ele>72.24</ele>
        <time>2010-10-31T08:25:22Z</time>
      </trkpt>
      <trkpt lat="47.35644" lon="0.00231">
        <ele>72.24</ele>
        <time>2010-10-31T08:25:23Z</time>
      </trkpt>
      <trkpt lat="47.35648" lon="0.00237">
        <ele>71.27</ele>
        <time>2010-10-31T08:25:24Z</time>
      </trkpt>
      <trkpt lat="47.35652" lon="0.00243">
        <ele>71.76</ele>
        <time>2010-10-31T08:25:25Z</time>
      </trkpt>
      <trkpt lat="47.35656" lon="0.00248">
        <ele>71.27</ele>
        <time>2010-10-31T08:25:26Z</time>
      </trkpt>
      <trkpt lat="47.35664" lon="0.00258">
        <ele>71.76</ele>
        <time>2010-10-31T08:25:28Z</time>
      </trkpt>
      <trkpt lat="47.35668" lon="0.00264">
        <ele>72.24</ele>
        <time>2010-10-31T08:25:29Z</time>
      </trkpt>
      <trkpt lat="47.35672" lon="0.00269">
        <ele>71.27</ele>
        <time>2010-10-31T08:25:30Z</time>
      </trkpt>
      <trkpt lat="47.35674" lon="0.00275">
        <ele>72.24</ele>
        <time>2010-10-31T08:25:31Z</time>
      </trkpt>
      <trkpt lat="47.35676" lon="0.0028">
        <ele>71.76</ele>
        <time>2010-10-31T08:25:32Z</time>
      </trkpt>
      <trkpt lat="47.35674" lon="0.00284">
        <ele>71.27</ele>
        <time>2010-10-31T08:25:33Z</time>
      </trkpt>
      <trkpt lat="47.35664" lon="0.00306">
        <ele>71.27</ele>
        <time>2010-10-31T08:25:38Z</time>
      </trkpt>
      <trkpt lat="47.35649" lon="0.00327">
        <ele>69.83</ele>
        <time>2010-10-31T08:25:43Z</time>
      </trkpt>
      <trkpt lat="47.35646" lon="0.00331">
        <ele>70.31</ele>
        <time>2010-10-31T08:25:44Z</time>
      </trkpt>
      <trkpt lat="47.35637" lon="0.00345">
        <ele>67.91</ele>
        <time>2010-10-31T08:25:47Z</time>
      </trkpt>
      <trkpt lat="47.35633" lon="0.00351">
        <ele>68.39</ele>
        <time>2010-10-31T08:25:48Z</time>
      </trkpt>
      <trkpt lat="47.35629" lon="0.00357">
        <ele>68.39</ele>
        <time>2010-10-31T08:25:49Z</time>
      </trkpt>
      <trkpt lat="47.35624" lon="0.00363">
        <ele>67.91</ele>
        <time>2010-10-31T08:25:50Z</time>
      </trkpt>
      <trkpt lat="47.35621" lon="0.00369">
        <ele>67.43</ele>
        <time>2010-10-31T08:25:51Z</time>
      </trkpt>
      <trkpt lat="47.3561" lon="0.00385">
        <ele>67.91</ele>
        <time>2010-10-31T08:25:54Z</time>
      </trkpt>
      <trkpt lat="47.35601" lon="0.00397">
        <ele>66.95</ele>
        <time>2010-10-31T08:25:56Z</time>
      </trkpt>
      <trkpt lat="47.35585" lon="0.00418">
        <ele>66.47</ele>
        <time>2010-10-31T08:26:00Z</time>
      </trkpt>
      <trkpt lat="47.35582" lon="0.00422">
        <ele>65.99</ele>
        <time>2010-10-31T08:26:01Z</time>
      </trkpt>
      <trkpt lat="47.35579" lon="0.00426">
        <ele>65.99</ele>
        <time>2010-10-31T08:26:02Z</time>
      </trkpt>
      <trkpt lat="47.3556" lon="0.00449">
        <ele>65.03</ele>
        <time>2010-10-31T08:26:07Z</time>
      </trkpt>
      <trkpt lat="47.35555" lon="0.00454">
        <ele>65.51</ele>
        <time>2010-10-31T08:26:08Z</time>
      </trkpt>
      <trkpt lat="47.35541" lon="0.00471">
        <ele>64.07</ele>
        <time>2010-10-31T08:26:12Z</time>
      </trkpt>
      <trkpt lat="47.35524" lon="0.00488">
        <ele>64.07</ele>
        <time>2010-10-31T08:26:16Z</time>
      </trkpt>
      <trkpt lat="47.3552" lon="0.00493">
        <ele>64.07</ele>
        <time>2010-10-31T08:26:17Z</time>
      </trkpt>
      <trkpt lat="47.35514" lon="0.00498">
        <ele>64.07</ele>
        <time>2010-10-31T08:26:18Z</time>
      </trkpt>
      <trkpt lat="47.35489" lon="0.0052">
        <ele>62.14</ele>
        <time>2010-10-31T08:26:23Z</time>
      </trkpt>
      <trkpt lat="47.35466" lon="0.00542">
        <ele>62.14</ele>
        <time>2010-10-31T08:26:28Z</time>
      </trkpt>
      <trkpt lat="47.35462" lon="0.00547">
        <ele>61.66</ele>
        <time>2010-10-31T08:26:29Z</time>
      </trkpt>
      <trkpt lat="47.35458" lon="0.0055">
        <ele>61.66</ele>
        <time>2010-10-31T08:26:30Z</time>
      </trkpt>
      <trkpt lat="47.35431" lon="0.00573">
        <ele>59.26</ele>
        <time>2010-10-31T08:26:35Z</time>
      </trkpt>
      <trkpt lat="47.35408" lon="0.00594">
        <ele>57.82</ele>
        <time>2010-10-31T08:26:39Z</time>
      </trkpt>
      <trkpt lat="47.35398" lon="0.00603">
        <ele>57.82</ele>
        <time>2010-10-31T08:26:41Z</time>
      </trkpt>
      <trkpt lat="47.35378" lon="0.00619">
        <ele>58.3</ele>
        <time>2010-10-31T08:26:46Z</time>
      </trkpt>
      <trkpt lat="47.35375" lon="0.00623">
        <ele>58.3</ele>
        <time>2010-10-31T08:26:47Z</time>
      </trkpt>
      <trkpt lat="47.35371" lon="0.00627">
        <ele>57.82</ele>
        <time>2010-10-31T08:26:48Z</time>
      </trkpt>
      <trkpt lat="47.35369" lon="0.00632">
        <ele>58.3</ele>
        <time>2010-10-31T08:26:49Z</time>
      </trkpt>
      <trkpt lat="47.35366" lon="0.00636">
        <ele>58.3</ele>
        <time>2010-10-31T08:26:50Z</time>
      </trkpt>
      <trkpt lat="47.35364" lon="0.0064">
        <ele>58.3</ele>
        <time>2010-10-31T08:26:51Z</time>
      </trkpt>
      <trkpt lat="47.35361" lon="0.00644">
        <ele>58.3</ele>
        <time>2010-10-31T08:26:52Z</time>
      </trkpt>
      <trkpt lat="47.35357" lon="0.00647">
        <ele>58.3</ele>
        <time>2010-10-31T08:26:53Z</time>
      </trkpt>
      <trkpt lat="47.3535" lon="0.00653">
        <ele>59.74</ele>
        <time>2010-10-31T08:26:55Z</time>
      </trkpt>
      <trkpt lat="47.35332" lon="0.00673">
        <ele>60.22</ele>
        <time>2010-10-31T08:27:01Z</time>
      </trkpt>
      <trkpt lat="47.35315" lon="0.00695">
        <ele>60.7</ele>
        <time>2010-10-31T08:27:06Z</time>
      </trkpt>
      <trkpt lat="47.35293" lon="0.00718">
        <ele>62.14</ele>
        <time>2010-10-31T08:27:12Z</time>
      </trkpt>
      <trkpt lat="47.35275" lon="0.00735">
        <ele>62.62</ele>
        <time>2010-10-31T08:27:17Z</time>
      </trkpt>
      <trkpt lat="47.35263" lon="0.00746">
        <ele>63.1</ele>
        <time>2010-10-31T08:27:20Z</time>
      </trkpt>
      <trkpt lat="47.3526" lon="0.0075">
        <ele>64.07</ele>
        <time>2010-10-31T08:27:21Z</time>
      </trkpt>
      <trkpt lat="47.35241" lon="0.0077">
        <ele>64.07</ele>
        <time>2010-10-31T08:27:27Z</time>
      </trkpt>
      <trkpt lat="47.35226" lon="0.00785">
        <ele>64.55</ele>
        <time>2010-10-31T08:27:32Z</time>
      </trkpt>
      <trkpt lat="47.35215" lon="0.00796">
        <ele>65.99</ele>
        <time>2010-10-31T08:27:37Z</time>
      </trkpt>
      <trkpt lat="47.35215" lon="0.00798">
        <ele>65.99</ele>
        <time>2010-10-31T08:27:38Z</time>
      </trkpt>
      <trkpt lat="47.35213" lon="0.008">
        <ele>65.51</ele>
        <time>2010-10-31T08:27:39Z</time>
      </trkpt>
      <trkpt lat="47.35211" lon="0.00805">
        <ele>65.51</ele>
        <time>2010-10-31T08:27:41Z</time>
      </trkpt>
      <trkpt lat="47.35211" lon="0.00808">
        <ele>65.51</ele>
        <time>2010-10-31T08:27:42Z</time>
      </trkpt>
      <trkpt lat="47.35211" lon="0.00815">
        <ele>65.51</ele>
        <time>2010-10-31T08:27:44Z</time>
      </trkpt>
      <trkpt lat="47.35208" lon="0.0082">
        <ele>65.99</ele>
        <time>2010-10-31T08:27:45Z</time>
      </trkpt>
      <trkpt lat="47.35208" lon="0.00823">
        <ele>66.47</ele>
        <time>2010-10-31T08:27:46Z</time>
      </trkpt>
      <trkpt lat="47.35199" lon="0.00835">
        <ele>66.95</ele>
        <time>2010-10-31T08:27:51Z</time>
      </trkpt>
      <trkpt lat="47.35188" lon="0.00848">
        <ele>67.91</ele>
        <time>2010-10-31T08:27:57Z</time>
      </trkpt>
      <trkpt lat="47.35176" lon="0.00863">
        <ele>68.39</ele>
        <time>2010-10-31T08:28:03Z</time>
      </trkpt>
      <trkpt lat="47.35165" lon="0.00874">
        <ele>69.35</ele>
        <time>2010-10-31T08:28:08Z</time>
      </trkpt>
      <trkpt lat="47.35158" lon="0.00881">
        <ele>70.79</ele>
        <time>2010-10-31T08:28:12Z</time>
      </trkpt>
      <trkpt lat="47.35149" lon="0.00896">
        <ele>71.27</ele>
        <time>2010-10-31T08:28:18Z</time>
      </trkpt>
      <trkpt lat="47.35139" lon="0.00913">
        <ele>72.72</ele>
        <time>2010-10-31T08:28:24Z</time>
      </trkpt>
      <trkpt lat="47.35127" lon="0.00928">
        <ele>73.68</ele>
        <time>2010-10-31T08:28:31Z</time>
      </trkpt>
      <trkpt lat="47.35119" lon="0.00937">
        <ele>76.08</ele>
        <time>2010-10-31T08:28:35Z</time>
      </trkpt>
      <trkpt lat="47.35113" lon="0.00944">
        <ele>76.08</ele>
        <time>2010-10-31T08:28:39Z</time>
      </trkpt>
      <trkpt lat="47.35111" lon="0.00946">
        <ele>77.04</ele>
        <time>2010-10-31T08:28:42Z</time>
      </trkpt>
      <trkpt lat="47.35106" lon="0.00952">
        <ele>78.48</ele>
        <time>2010-10-31T08:28:48Z</time>
      </trkpt>
      <trkpt lat="47.35101" lon="0.00961">
        <ele>79.93</ele>
        <time>2010-10-31T08:28:53Z</time>
      </trkpt>
      <trkpt lat="47.35098" lon="0.00968">
        <ele>81.37</ele>
        <time>2010-10-31T08:28:58Z</time>
      </trkpt>
      <trkpt lat="47.35093" lon="0.00977">
        <ele>81.37</ele>
        <time>2010-10-31T08:29:03Z</time>
      </trkpt>
      <trkpt lat="47.35082" lon="0.00994">
        <ele>82.81</ele>
        <time>2010-10-31T08:29:08Z</time>
      </trkpt>
      <trkpt lat="47.35077" lon="0.01002">
        <ele>83.29</ele>
        <time>2010-10-31T08:29:11Z</time>
      </trkpt>
      <trkpt lat="47.35072" lon="0.01009">
        <ele>82.33</ele>
        <time>2010-10-31T08:29:14Z</time>
      </trkpt>
      <trkpt lat="47.35062" lon="0.01023">
        <ele>83.77</ele>
        <time>2010-10-31T08:29:19Z</time>
      </trkpt>
      <trkpt lat="47.35057" lon="0.01033">
        <ele>84.73</ele>
        <time>2010-10-31T08:29:23Z</time>
      </trkpt>
      <trkpt lat="47.35052" lon="0.01047">
        <ele>84.73</ele>
        <time>2010-10-31T08:29:27Z</time>
      </trkpt>
      <trkpt lat="47.35049" lon="0.01056">
        <ele>86.18</ele>
        <time>2010-10-31T08:29:29Z</time>
      </trkpt>
      <trkpt lat="47.35039" lon="0.01077">
        <ele>85.69</ele>
        <time>2010-10-31T08:29:35Z</time>
      </trkpt>
      <trkpt lat="47.35028" lon="0.01101">
        <ele>87.14</ele>
        <time>2010-10-31T08:29:41Z</time>
      </trkpt>
      <trkpt lat="47.35024" lon="0.01107">
        <ele>87.14</ele>
        <time>2010-10-31T08:29:43Z</time>
      </trkpt>
      <trkpt lat="47.35014" lon="0.01118">
        <ele>88.1</ele>
        <time>2010-10-31T08:29:50Z</time>
      </trkpt>
      <trkpt lat="47.35009" lon="0.01127">
        <ele>88.58</ele>
        <time>2010-10-31T08:29:55Z</time>
      </trkpt>
      <trkpt lat="47.34998" lon="0.0114">
        <ele>88.58</ele>
        <time>2010-10-31T08:30:01Z</time>
      </trkpt>
      <trkpt lat="47.34994" lon="0.01145">
        <ele>89.06</ele>
        <time>2010-10-31T08:30:03Z</time>
      </trkpt>
      <trkpt lat="47.3498" lon="0.01163">
        <ele>89.54</ele>
        <time>2010-10-31T08:30:09Z</time>
      </trkpt>
      <trkpt lat="47.34969" lon="0.01175">
        <ele>89.54</ele>
        <time>2010-10-31T08:30:14Z</time>
      </trkpt>
      <trkpt lat="47.34954" lon="0.01196">
        <ele>88.58</ele>
        <time>2010-10-31T08:30:19Z</time>
      </trkpt>
      <trkpt lat="47.34949" lon="0.01202">
        <ele>87.62</ele>
        <time>2010-10-31T08:30:21Z</time>
      </trkpt>
      <trkpt lat="47.34937" lon="0.01202">
        <ele>87.14</ele>
        <time>2010-10-31T08:30:26Z</time>
      </trkpt>
      <trkpt lat="47.34936" lon="0.01203">
        <ele>87.62</ele>
        <time>2010-10-31T08:30:29Z</time>
      </trkpt>
      <trkpt lat="47.34937" lon="0.01208">
        <ele>87.14</ele>
        <time>2010-10-31T08:30:34Z</time>
      </trkpt>
      <trkpt lat="47.34936" lon="0.01214">
        <ele>86.18</ele>
        <time>2010-10-31T08:31:28Z</time>
      </trkpt>
      <trkpt lat="47.34939" lon="0.01229">
        <ele>85.21</ele>
        <time>2010-10-31T08:31:34Z</time>
      </trkpt>
      <trkpt lat="47.34942" lon="0.0124">
        <ele>85.69</ele>
        <time>2010-10-31T08:31:37Z</time>
      </trkpt>
      <trkpt lat="47.34945" lon="0.01257">
        <ele>83.77</ele>
        <time>2010-10-31T08:31:42Z</time>
      </trkpt>
      <trkpt lat="47.34951" lon="0.01269">
        <ele>84.73</ele>
        <time>2010-10-31T08:31:47Z</time>
      </trkpt>
      <trkpt lat="47.34957" lon="0.01281">
        <ele>84.73</ele>
        <time>2010-10-31T08:31:50Z</time>
      </trkpt>
      <trkpt lat="47.3496" lon="0.01286">
        <ele>83.77</ele>
        <time>2010-10-31T08:31:52Z</time>
      </trkpt>
      <trkpt lat="47.34969" lon="0.01299">
        <ele>84.25</ele>
        <time>2010-10-31T08:31:57Z</time>
      </trkpt>
      <trkpt lat="47.34977" lon="0.01332">
        <ele>82.81</ele>
        <time>2010-10-31T08:32:05Z</time>
      </trkpt>
      <trkpt lat="47.34987" lon="0.01357">
        <ele>81.37</ele>
        <time>2010-10-31T08:32:12Z</time>
      </trkpt>
      <trkpt lat="47.3499" lon="0.01366">
        <ele>81.37</ele>
        <time>2010-10-31T08:32:15Z</time>
      </trkpt>
      <trkpt lat="47.34994" lon="0.01373">
        <ele>81.37</ele>
        <time>2010-10-31T08:32:17Z</time>
      </trkpt>
      <trkpt lat="47.35003" lon="0.01389">
        <ele>80.89</ele>
        <time>2010-10-31T08:32:21Z</time>
      </trkpt>
      <trkpt lat="47.35007" lon="0.01405">
        <ele>79.93</ele>
        <time>2010-10-31T08:32:25Z</time>
      </trkpt>
      <trkpt lat="47.35022" lon="0.01436">
        <ele>78</ele>
        <time>2010-10-31T08:32:32Z</time>
      </trkpt>
      <trkpt lat="47.35027" lon="0.01443">
        <ele>78.48</ele>
        <time>2010-10-31T08:32:34Z</time>
      </trkpt>
      <trkpt lat="47.35038" lon="0.01444">
        <ele>78</ele>
        <time>2010-10-31T08:32:38Z</time>
      </trkpt>
      <trkpt lat="47.3504" lon="0.01442">
        <ele>79.45</ele>
        <time>2010-10-31T08:32:39Z</time>
      </trkpt>
      <trkpt lat="47.35042" lon="0.0144">
        <ele>78.48</ele>
        <time>2010-10-31T08:32:41Z</time>
      </trkpt>
      <trkpt lat="47.35055" lon="0.01442">
        <ele>77.52</ele>
        <time>2010-10-31T08:32:47Z</time>
      </trkpt>
      <trkpt lat="47.35057" lon="0.01444">
        <ele>78</ele>
        <time>2010-10-31T08:32:48Z</time>
      </trkpt>
      <trkpt lat="47.35062" lon="0.01451">
        <ele>76.56</ele>
        <time>2010-10-31T08:32:51Z</time>
      </trkpt>
      <trkpt lat="47.35067" lon="0.01465">
        <ele>75.6</ele>
        <time>2010-10-31T08:32:55Z</time>
      </trkpt>
      <trkpt lat="47.35066" lon="0.01472">
        <ele>75.6</ele>
        <time>2010-10-31T08:32:58Z</time>
      </trkpt>
      <trkpt lat="47.35064" lon="0.01491">
        <ele>73.2</ele>
        <time>2010-10-31T08:33:03Z</time>
      </trkpt>
      <trkpt lat="47.35065" lon="0.01517">
        <ele>72.72</ele>
        <time>2010-10-31T08:33:09Z</time>
      </trkpt>
      <trkpt lat="47.35076" lon="0.01548">
        <ele>72.24</ele>
        <time>2010-10-31T08:33:14Z</time>
      </trkpt>
      <trkpt lat="47.35079" lon="0.01553">
        <ele>71.27</ele>
        <time>2010-10-31T08:33:15Z</time>
      </trkpt>
      <trkpt lat="47.35081" lon="0.01558">
        <ele>71.27</ele>
        <time>2010-10-31T08:33:16Z</time>
      </trkpt>
      <trkpt lat="47.35082" lon="0.01562">
        <ele>70.79</ele>
        <time>2010-10-31T08:33:17Z</time>
      </trkpt>
      <trkpt lat="47.35084" lon="0.01566">
        <ele>70.31</ele>
        <time>2010-10-31T08:33:18Z</time>
      </trkpt>
      <trkpt lat="47.35085" lon="0.01571">
        <ele>69.35</ele>
        <time>2010-10-31T08:33:19Z</time>
      </trkpt>
      <trkpt lat="47.35087" lon="0.01577">
        <ele>69.83</ele>
        <time>2010-10-31T08:33:20Z</time>
      </trkpt>
      <trkpt lat="47.3509" lon="0.01584">
        <ele>68.87</ele>
        <time>2010-10-31T08:33:22Z</time>
      </trkpt>
      <trkpt lat="47.3509" lon="0.01591">
        <ele>69.35</ele>
        <time>2010-10-31T08:33:29Z</time>
      </trkpt>
      <trkpt lat="47.3509" lon="0.01593">
        <ele>69.35</ele>
        <time>2010-10-31T08:33:38Z</time>
      </trkpt>
      <trkpt lat="47.3509" lon="0.01595">
        <ele>69.35</ele>
        <time>2010-10-31T08:33:48Z</time>
      </trkpt>
      <trkpt lat="47.3509" lon="0.01595">
        <ele>68.39</ele>
        <time>2010-10-31T08:33:51Z</time>
      </trkpt>
      <trkpt lat="47.35094" lon="0.01606">
        <ele>68.39</ele>
        <time>2010-10-31T08:33:56Z</time>
      </trkpt>
      <trkpt lat="47.35092" lon="0.01622">
        <ele>67.91</ele>
        <time>2010-10-31T08:34:01Z</time>
      </trkpt>
      <trkpt lat="47.35088" lon="0.01645">
        <ele>68.39</ele>
        <time>2010-10-31T08:34:07Z</time>
      </trkpt>
      <trkpt lat="47.3509" lon="0.01653">
        <ele>68.39</ele>
        <time>2010-10-31T08:34:11Z</time>
      </trkpt>
      <trkpt lat="47.35098" lon="0.0167">
        <ele>67.91</ele>
        <time>2010-10-31T08:34:16Z</time>
      </trkpt>
      <trkpt lat="47.35107" lon="0.01682">
        <ele>68.39</ele>
        <time>2010-10-31T08:34:19Z</time>
      </trkpt>
      <trkpt lat="47.35124" lon="0.01717">
        <ele>67.43</ele>
        <time>2010-10-31T08:34:27Z</time>
      </trkpt>
      <trkpt lat="47.35116" lon="0.01738">
        <ele>67.43</ele>
        <time>2010-10-31T08:34:32Z</time>
      </trkpt>
      <trkpt lat="47.35109" lon="0.01753">
        <ele>66.95</ele>
        <time>2010-10-31T08:34:37Z</time>
      </trkpt>
      <trkpt lat="47.3511" lon="0.01756">
        <ele>65.99</ele>
        <time>2010-10-31T08:34:38Z</time>
      </trkpt>
      <trkpt lat="47.3512" lon="0.0178">
        <ele>66.95</ele>
        <time>2010-10-31T08:34:44Z</time>
      </trkpt>
      <trkpt lat="47.35121" lon="0.01823">
        <ele>67.91</ele>
        <time>2010-10-31T08:34:52Z</time>
      </trkpt>
      <trkpt lat="47.35117" lon="0.01861">
        <ele>68.39</ele>
        <time>2010-10-31T08:34:59Z</time>
      </trkpt>
      <trkpt lat="47.3511" lon="0.01879">
        <ele>69.35</ele>
        <time>2010-10-31T08:35:03Z</time>
      </trkpt>
      <trkpt lat="47.35109" lon="0.01885">
        <ele>68.87</ele>
        <time>2010-10-31T08:35:05Z</time>
      </trkpt>
      <trkpt lat="47.35095" lon="0.01914">
        <ele>69.83</ele>
        <time>2010-10-31T08:35:11Z</time>
      </trkpt>
      <trkpt lat="47.35093" lon="0.01919">
        <ele>70.31</ele>
        <time>2010-10-31T08:35:12Z</time>
      </trkpt>
      <trkpt lat="47.35074" lon="0.01964">
        <ele>70.79</ele>
        <time>2010-10-31T08:35:20Z</time>
      </trkpt>
      <trkpt lat="47.35064" lon="0.0199">
        <ele>71.76</ele>
        <time>2010-10-31T08:35:26Z</time>
      </trkpt>
      <trkpt lat="47.35053" lon="0.02026">
        <ele>72.72</ele>
        <time>2010-10-31T08:35:33Z</time>
      </trkpt>
      <trkpt lat="47.35047" lon="0.02056">
        <ele>73.2</ele>
        <time>2010-10-31T08:35:39Z</time>
      </trkpt>
      <trkpt lat="47.35044" lon="0.02093">
        <ele>74.64</ele>
        <time>2010-10-31T08:35:47Z</time>
      </trkpt>
      <trkpt lat="47.35042" lon="0.02122">
        <ele>75.12</ele>
        <time>2010-10-31T08:35:53Z</time>
      </trkpt>
      <trkpt lat="47.35039" lon="0.02142">
        <ele>77.04</ele>
        <time>2010-10-31T08:35:57Z</time>
      </trkpt>
      <trkpt lat="47.35037" lon="0.0215">
        <ele>76.08</ele>
        <time>2010-10-31T08:35:59Z</time>
      </trkpt>
      <trkpt lat="47.35025" lon="0.0218">
        <ele>77.52</ele>
        <time>2010-10-31T08:36:06Z</time>
      </trkpt>
      <trkpt lat="47.35017" lon="0.02198">
        <ele>78</ele>
        <time>2010-10-31T08:36:10Z</time>
      </trkpt>
      <trkpt lat="47.35013" lon="0.02217">
        <ele>79.45</ele>
        <time>2010-10-31T08:36:15Z</time>
      </trkpt>
      <trkpt lat="47.35009" lon="0.02241">
        <ele>79.45</ele>
        <time>2010-10-31T08:36:21Z</time>
      </trkpt>
      <trkpt lat="47.35002" lon="0.02265">
        <ele>80.89</ele>
        <time>2010-10-31T08:36:27Z</time>
      </trkpt>
      <trkpt lat="47.35001" lon="0.02271">
        <ele>81.37</ele>
        <time>2010-10-31T08:36:29Z</time>
      </trkpt>
      <trkpt lat="47.34998" lon="0.02285">
        <ele>82.81</ele>
        <time>2010-10-31T08:36:34Z</time>
      </trkpt>
      <trkpt lat="47.34991" lon="0.02322">
        <ele>84.73</ele>
        <time>2010-10-31T08:36:42Z</time>
      </trkpt>
      <trkpt lat="47.34989" lon="0.02345">
        <ele>86.18</ele>
        <time>2010-10-31T08:36:48Z</time>
      </trkpt>
      <trkpt lat="47.34989" lon="0.02369">
        <ele>87.14</ele>
        <time>2010-10-31T08:36:54Z</time>
      </trkpt>
      <trkpt lat="47.34998" lon="0.02394">
        <ele>88.1</ele>
        <time>2010-10-31T08:37:01Z</time>
      </trkpt>
      <trkpt lat="47.35012" lon="0.02406">
        <ele>89.54</ele>
        <time>2010-10-31T08:37:07Z</time>
      </trkpt>
      <trkpt lat="47.35031" lon="0.02421">
        <ele>90.02</ele>
        <time>2010-10-31T08:37:14Z</time>
      </trkpt>
      <trkpt lat="47.35037" lon="0.02432">
        <ele>91.46</ele>
        <time>2010-10-31T08:37:17Z</time>
      </trkpt>
      <trkpt lat="47.3504" lon="0.02459">
        <ele>93.39</ele>
        <time>2010-10-31T08:37:23Z</time>
      </trkpt>
      <trkpt lat="47.35036" lon="0.02481">
        <ele>93.87</ele>
        <time>2010-10-31T08:37:29Z</time>
      </trkpt>
      <trkpt lat="47.35037" lon="0.02485">
        <ele>92.9</ele>
        <time>2010-10-31T08:37:31Z</time>
      </trkpt>
      <trkpt lat="47.35038" lon="0.02487">
        <ele>94.35</ele>
        <time>2010-10-31T08:37:32Z</time>
      </trkpt>
      <trkpt lat="47.3504" lon="0.02488">
        <ele>95.31</ele>
        <time>2010-10-31T08:37:34Z</time>
      </trkpt>
      <trkpt lat="47.35032" lon="0.02509">
        <ele>94.35</ele>
        <time>2010-10-31T08:37:39Z</time>
      </trkpt>
      <trkpt lat="47.35021" lon="0.02538">
        <ele>95.79</ele>
        <time>2010-10-31T08:37:45Z</time>
      </trkpt>
      <trkpt lat="47.35014" lon="0.0256">
        <ele>95.79</ele>
        <time>2010-10-31T08:37:50Z</time>
      </trkpt>
      <trkpt lat="47.35008" lon="0.02583">
        <ele>96.75</ele>
        <time>2010-10-31T08:37:55Z</time>
      </trkpt>
      <trkpt lat="47.35002" lon="0.0262">
        <ele>97.23</ele>
        <time>2010-10-31T08:38:02Z</time>
      </trkpt>
      <trkpt lat="47.34996" lon="0.02647">
        <ele>96.75</ele>
        <time>2010-10-31T08:38:07Z</time>
      </trkpt>
      <trkpt lat="47.34982" lon="0.02687">
        <ele>96.75</ele>
        <time>2010-10-31T08:38:15Z</time>
      </trkpt>
      <trkpt lat="47.34969" lon="0.02726">
        <ele>97.71</ele>
        <time>2010-10-31T08:38:23Z</time>
      </trkpt>
      <trkpt lat="47.34954" lon="0.02758">
        <ele>97.71</ele>
        <time>2010-10-31T08:38:30Z</time>
      </trkpt>
      <trkpt lat="47.34936" lon="0.02783">
        <ele>98.67</ele>
        <time>2010-10-31T08:38:37Z</time>
      </trkpt>
      <trkpt lat="47.34925" lon="0.02802">
        <ele>97.23</ele>
        <time>2010-10-31T08:38:43Z</time>
      </trkpt>
      <trkpt lat="47.34921" lon="0.02805">
        <ele>97.71</ele>
        <time>2010-10-31T08:38:44Z</time>
      </trkpt>
      <trkpt lat="47.34899" lon="0.02824">
        <ele>97.71</ele>
        <time>2010-10-31T08:38:50Z</time>
      </trkpt>
      <trkpt lat="47.34885" lon="0.0282">
        <ele>97.71</ele>
        <time>2010-10-31T08:38:54Z</time>
      </trkpt>
      <trkpt lat="47.34854" lon="0.028">
        <ele>97.71</ele>
        <time>2010-10-31T08:39:02Z</time>
      </trkpt>
      <trkpt lat="47.3485" lon="0.02798">
        <ele>97.23</ele>
        <time>2010-10-31T08:39:03Z</time>
      </trkpt>
      <trkpt lat="47.34842" lon="0.02794">
        <ele>98.67</ele>
        <time>2010-10-31T08:39:05Z</time>
      </trkpt>
      <trkpt lat="47.34834" lon="0.02788">
        <ele>97.71</ele>
        <time>2010-10-31T08:39:07Z</time>
      </trkpt>
      <trkpt lat="47.34812" lon="0.02788">
        <ele>98.19</ele>
        <time>2010-10-31T08:39:12Z</time>
      </trkpt>
      <trkpt lat="47.34808" lon="0.02792">
        <ele>98.19</ele>
        <time>2010-10-31T08:39:13Z</time>
      </trkpt>
      <trkpt lat="47.34801" lon="0.02799">
        <ele>98.19</ele>
        <time>2010-10-31T08:39:15Z</time>
      </trkpt>
      <trkpt lat="47.34781" lon="0.02813">
        <ele>98.19</ele>
        <time>2010-10-31T08:39:20Z</time>
      </trkpt>
      <trkpt lat="47.34778" lon="0.02819">
        <ele>98.67</ele>
        <time>2010-10-31T08:39:21Z</time>
      </trkpt>
      <trkpt lat="47.34773" lon="0.0283">
        <ele>97.71</ele>
        <time>2010-10-31T08:39:23Z</time>
      </trkpt>
      <trkpt lat="47.34764" lon="0.02863">
        <ele>97.71</ele>
        <time>2010-10-31T08:39:29Z</time>
      </trkpt>
      <trkpt lat="47.34762" lon="0.02869">
        <ele>97.71</ele>
        <time>2010-10-31T08:39:30Z</time>
      </trkpt>
      <trkpt lat="47.34757" lon="0.02881">
        <ele>96.75</ele>
        <time>2010-10-31T08:39:32Z</time>
      </trkpt>
      <trkpt lat="47.34755" lon="0.02886">
        <ele>97.23</ele>
        <time>2010-10-31T08:39:33Z</time>
      </trkpt>
      <trkpt lat="47.34752" lon="0.02892">
        <ele>97.23</ele>
        <time>2010-10-31T08:39:34Z</time>
      </trkpt>
      <trkpt lat="47.3475" lon="0.02898">
        <ele>97.71</ele>
        <time>2010-10-31T08:39:35Z</time>
      </trkpt>
      <trkpt lat="47.34749" lon="0.02902">
        <ele>97.71</ele>
        <time>2010-10-31T08:39:36Z</time>
      </trkpt>
      <trkpt lat="47.34749" lon="0.02906">
        <ele>98.19</ele>
        <time>2010-10-31T08:39:37Z</time>
      </trkpt>
      <trkpt lat="47.34747" lon="0.02911">
        <ele>97.71</ele>
        <time>2010-10-31T08:39:38Z</time>
      </trkpt>
      <trkpt lat="47.34744" lon="0.02926">
        <ele>97.71</ele>
        <time>2010-10-31T08:39:41Z</time>
      </trkpt>
      <trkpt lat="47.34742" lon="0.02935">
        <ele>98.19</ele>
        <time>2010-10-31T08:39:43Z</time>
      </trkpt>
      <trkpt lat="47.3474" lon="0.02939">
        <ele>97.23</ele>
        <time>2010-10-31T08:39:44Z</time>
      </trkpt>
      <trkpt lat="47.34737" lon="0.02944">
        <ele>97.71</ele>
        <time>2010-10-31T08:39:45Z</time>
      </trkpt>
      <trkpt lat="47.34733" lon="0.02947">
        <ele>97.71</ele>
        <time>2010-10-31T08:39:46Z</time>
      </trkpt>
      <trkpt lat="47.3473" lon="0.0295">
        <ele>97.71</ele>
        <time>2010-10-31T08:39:47Z</time>
      </trkpt>
      <trkpt lat="47.34726" lon="0.02954">
        <ele>97.71</ele>
        <time>2010-10-31T08:39:48Z</time>
      </trkpt>
      <trkpt lat="47.34723" lon="0.02958">
        <ele>97.71</ele>
        <time>2010-10-31T08:39:49Z</time>
      </trkpt>
      <trkpt lat="47.34718" lon="0.02971">
        <ele>97.71</ele>
        <time>2010-10-31T08:39:52Z</time>
      </trkpt>
      <trkpt lat="47.34717" lon="0.02976">
        <ele>97.71</ele>
        <time>2010-10-31T08:39:53Z</time>
      </trkpt>
      <trkpt lat="47.34714" lon="0.02982">
        <ele>97.23</ele>
        <time>2010-10-31T08:39:54Z</time>
      </trkpt>
      <trkpt lat="47.34706" lon="0.03009">
        <ele>98.19</ele>
        <time>2010-10-31T08:39:59Z</time>
      </trkpt>
      <trkpt lat="47.34697" lon="0.03036">
        <ele>98.19</ele>
        <time>2010-10-31T08:40:04Z</time>
      </trkpt>
      <trkpt lat="47.34691" lon="0.03054">
        <ele>98.19</ele>
        <time>2010-10-31T08:40:07Z</time>
      </trkpt>
      <trkpt lat="47.34688" lon="0.03059">
        <ele>98.19</ele>
        <time>2010-10-31T08:40:08Z</time>
      </trkpt>
      <trkpt lat="47.34686" lon="0.03065">
        <ele>97.71</ele>
        <time>2010-10-31T08:40:09Z</time>
      </trkpt>
      <trkpt lat="47.34684" lon="0.03071">
        <ele>98.19</ele>
        <time>2010-10-31T08:40:10Z</time>
      </trkpt>
      <trkpt lat="47.34682" lon="0.03077">
        <ele>97.71</ele>
        <time>2010-10-31T08:40:11Z</time>
      </trkpt>
      <trkpt lat="47.3468" lon="0.03084">
        <ele>98.67</ele>
        <time>2010-10-31T08:40:12Z</time>
      </trkpt>
      <trkpt lat="47.34671" lon="0.03118">
        <ele>97.71</ele>
        <time>2010-10-31T08:40:18Z</time>
      </trkpt>
      <trkpt lat="47.34668" lon="0.03124">
        <ele>98.19</ele>
        <time>2010-10-31T08:40:19Z</time>
      </trkpt>
      <trkpt lat="47.34666" lon="0.03129">
        <ele>97.23</ele>
        <time>2010-10-31T08:40:20Z</time>
      </trkpt>
      <trkpt lat="47.34658" lon="0.03155">
        <ele>97.23</ele>
        <time>2010-10-31T08:40:25Z</time>
      </trkpt>
      <trkpt lat="47.34652" lon="0.03168">
        <ele>98.19</ele>
        <time>2010-10-31T08:40:28Z</time>
      </trkpt>
      <trkpt lat="47.34636" lon="0.03198">
        <ele>96.75</ele>
        <time>2010-10-31T08:40:34Z</time>
      </trkpt>
      <trkpt lat="47.34619" lon="0.03235">
        <ele>96.75</ele>
        <time>2010-10-31T08:40:41Z</time>
      </trkpt>
      <trkpt lat="47.34608" lon="0.0326">
        <ele>96.27</ele>
        <time>2010-10-31T08:40:47Z</time>
      </trkpt>
      <trkpt lat="47.34607" lon="0.03267">
        <ele>96.27</ele>
        <time>2010-10-31T08:40:49Z</time>
      </trkpt>
      <trkpt lat="47.34608" lon="0.0327">
        <ele>95.79</ele>
        <time>2010-10-31T08:40:50Z</time>
      </trkpt>
      <trkpt lat="47.34608" lon="0.03273">
        <ele>96.27</ele>
        <time>2010-10-31T08:40:56Z</time>
      </trkpt>
      <trkpt lat="47.34608" lon="0.03273">
        <ele>93.39</ele>
        <time>2010-10-31T08:41:03Z</time>
      </trkpt>
      <trkpt lat="47.34608" lon="0.03273">
        <ele>95.79</ele>
        <time>2010-10-31T08:41:05Z</time>
      </trkpt>
      <trkpt lat="47.34608" lon="0.03276">
        <ele>95.79</ele>
        <time>2010-10-31T08:42:38Z</time>
      </trkpt>
      <trkpt lat="47.3461" lon="0.03277">
        <ele>96.27</ele>
        <time>2010-10-31T08:42:39Z</time>
      </trkpt>
      <trkpt lat="47.34611" lon="0.03278">
        <ele>96.27</ele>
        <time>2010-10-31T08:42:40Z</time>
      </trkpt>
      <trkpt lat="47.34612" lon="0.03279">
        <ele>96.27</ele>
        <time>2010-10-31T08:42:41Z</time>
      </trkpt>
      <trkpt lat="47.34613" lon="0.0328">
        <ele>96.75</ele>
        <time>2010-10-31T08:42:42Z</time>
      </trkpt>
      <trkpt lat="47.34628" lon="0.03288">
        <ele>97.23</ele>
        <time>2010-10-31T08:42:48Z</time>
      </trkpt>
      <trkpt lat="47.34644" lon="0.03298">
        <ele>97.71</ele>
        <time>2010-10-31T08:42:53Z</time>
      </trkpt>
      <trkpt lat="47.34668" lon="0.03313">
        <ele>97.23</ele>
        <time>2010-10-31T08:42:59Z</time>
      </trkpt>
      <trkpt lat="47.34685" lon="0.03323">
        <ele>96.27</ele>
        <time>2010-10-31T08:43:03Z</time>
      </trkpt>
      <trkpt lat="47.3469" lon="0.03326">
        <ele>96.27</ele>
        <time>2010-10-31T08:43:04Z</time>
      </trkpt>
      <trkpt lat="47.34695" lon="0.03329">
        <ele>96.75</ele>
        <time>2010-10-31T08:43:05Z</time>
      </trkpt>
      <trkpt lat="47.34727" lon="0.03345">
        <ele>96.27</ele>
        <time>2010-10-31T08:43:11Z</time>
      </trkpt>
      <trkpt lat="47.34737" lon="0.03349">
        <ele>96.75</ele>
        <time>2010-10-31T08:43:13Z</time>
      </trkpt>
      <trkpt lat="47.34773" lon="0.03369">
        <ele>96.75</ele>
        <time>2010-10-31T08:43:20Z</time>
      </trkpt>
      <trkpt lat="47.34789" lon="0.03376">
        <ele>95.31</ele>
        <time>2010-10-31T08:43:23Z</time>
      </trkpt>
      <trkpt lat="47.34803" lon="0.03385">
        <ele>96.27</ele>
        <time>2010-10-31T08:43:26Z</time>
      </trkpt>
      <trkpt lat="47.34832" lon="0.03403">
        <ele>96.27</ele>
        <time>2010-10-31T08:43:32Z</time>
      </trkpt>
      <trkpt lat="47.34869" lon="0.03424">
        <ele>96.75</ele>
        <time>2010-10-31T08:43:39Z</time>
      </trkpt>
      <trkpt lat="47.34899" lon="0.03443">
        <ele>97.23</ele>
        <time>2010-10-31T08:43:45Z</time>
      </trkpt>
      <trkpt lat="47.34904" lon="0.03445">
        <ele>97.23</ele>
        <time>2010-10-31T08:43:46Z</time>
      </trkpt>
      <trkpt lat="47.34914" lon="0.03449">
        <ele>96.75</ele>
        <time>2010-10-31T08:43:48Z</time>
      </trkpt>
      <trkpt lat="47.34951" lon="0.03471">
        <ele>95.79</ele>
        <time>2010-10-31T08:43:56Z</time>
      </trkpt>
      <trkpt lat="47.34985" lon="0.0349">
        <ele>95.79</ele>
        <time>2010-10-31T08:44:03Z</time>
      </trkpt>
      <trkpt lat="47.3499" lon="0.03492">
        <ele>94.83</ele>
        <time>2010-10-31T08:44:04Z</time>
      </trkpt>
      <trkpt lat="47.35021" lon="0.035">
        <ele>95.31</ele>
        <time>2010-10-31T08:44:10Z</time>
      </trkpt>
      <trkpt lat="47.35057" lon="0.03513">
        <ele>93.39</ele>
        <time>2010-10-31T08:44:17Z</time>
      </trkpt>
      <trkpt lat="47.35069" lon="0.03518">
        <ele>92.9</ele>
        <time>2010-10-31T08:44:19Z</time>
      </trkpt>
      <trkpt lat="47.35074" lon="0.0352">
        <ele>93.39</ele>
        <time>2010-10-31T08:44:20Z</time>
      </trkpt>
      <trkpt lat="47.35099" lon="0.03527">
        <ele>91.46</ele>
        <time>2010-10-31T08:44:24Z</time>
      </trkpt>
      <trkpt lat="47.35148" lon="0.03539">
        <ele>87.62</ele>
        <time>2010-10-31T08:44:31Z</time>
      </trkpt>
      <trkpt lat="47.35162" lon="0.03544">
        <ele>86.66</ele>
        <time>2010-10-31T08:44:33Z</time>
      </trkpt>
      <trkpt lat="47.3517" lon="0.03546">
        <ele>86.18</ele>
        <time>2010-10-31T08:44:34Z</time>
      </trkpt>
      <trkpt lat="47.35203" lon="0.0356">
        <ele>82.81</ele>
        <time>2010-10-31T08:44:38Z</time>
      </trkpt>
      <trkpt lat="47.35212" lon="0.03564">
        <ele>82.81</ele>
        <time>2010-10-31T08:44:39Z</time>
      </trkpt>
      <trkpt lat="47.35249" lon="0.03577">
        <ele>78.97</ele>
        <time>2010-10-31T08:44:43Z</time>
      </trkpt>
      <trkpt lat="47.3527" lon="0.03582">
        <ele>78</ele>
        <time>2010-10-31T08:44:45Z</time>
      </trkpt>
      <trkpt lat="47.35319" lon="0.036">
        <ele>74.64</ele>
        <time>2010-10-31T08:44:50Z</time>
      </trkpt>
      <trkpt lat="47.35329" lon="0.03603">
        <ele>74.64</ele>
        <time>2010-10-31T08:44:51Z</time>
      </trkpt>
      <trkpt lat="47.35372" lon="0.03621">
        <ele>72.72</ele>
        <time>2010-10-31T08:44:56Z</time>
      </trkpt>
      <trkpt lat="47.35381" lon="0.03621">
        <ele>71.76</ele>
        <time>2010-10-31T08:44:57Z</time>
      </trkpt>
      <trkpt lat="47.35389" lon="0.0362">
        <ele>71.76</ele>
        <time>2010-10-31T08:44:58Z</time>
      </trkpt>
      <trkpt lat="47.35396" lon="0.03617">
        <ele>70.79</ele>
        <time>2010-10-31T08:44:59Z</time>
      </trkpt>
      <trkpt lat="47.35404" lon="0.03614">
        <ele>71.27</ele>
        <time>2010-10-31T08:45:00Z</time>
      </trkpt>
      <trkpt lat="47.35446" lon="0.03598">
        <ele>69.83</ele>
        <time>2010-10-31T08:45:06Z</time>
      </trkpt>
      <trkpt lat="47.35452" lon="0.03597">
        <ele>68.39</ele>
        <time>2010-10-31T08:45:07Z</time>
      </trkpt>
      <trkpt lat="47.35466" lon="0.03595">
        <ele>69.35</ele>
        <time>2010-10-31T08:45:09Z</time>
      </trkpt>
      <trkpt lat="47.35472" lon="0.03593">
        <ele>68.39</ele>
        <time>2010-10-31T08:45:10Z</time>
      </trkpt>
      <trkpt lat="47.35485" lon="0.03589">
        <ele>68.39</ele>
        <time>2010-10-31T08:45:12Z</time>
      </trkpt>
      <trkpt lat="47.35506" lon="0.03581">
        <ele>68.87</ele>
        <time>2010-10-31T08:45:16Z</time>
      </trkpt>
      <trkpt lat="47.35519" lon="0.03576">
        <ele>67.91</ele>
        <time>2010-10-31T08:45:19Z</time>
      </trkpt>
      <trkpt lat="47.35548" lon="0.03568">
        <ele>69.83</ele>
        <time>2010-10-31T08:45:26Z</time>
      </trkpt>
      <trkpt lat="47.3556" lon="0.03565">
        <ele>70.31</ele>
        <time>2010-10-31T08:45:29Z</time>
      </trkpt>
      <trkpt lat="47.35564" lon="0.03563">
        <ele>70.79</ele>
        <time>2010-10-31T08:45:30Z</time>
      </trkpt>
      <trkpt lat="47.35592" lon="0.03563">
        <ele>71.27</ele>
        <time>2010-10-31T08:45:37Z</time>
      </trkpt>
      <trkpt lat="47.35611" lon="0.03567">
        <ele>71.27</ele>
        <time>2010-10-31T08:45:42Z</time>
      </trkpt>
      <trkpt lat="47.35635" lon="0.03572">
        <ele>72.72</ele>
        <time>2010-10-31T08:45:48Z</time>
      </trkpt>
      <trkpt lat="47.35651" lon="0.03574">
        <ele>74.16</ele>
        <time>2010-10-31T08:45:53Z</time>
      </trkpt>
      <trkpt lat="47.35666" lon="0.03577">
        <ele>74.16</ele>
        <time>2010-10-31T08:45:58Z</time>
      </trkpt>
      <trkpt lat="47.35681" lon="0.03574">
        <ele>76.56</ele>
        <time>2010-10-31T08:46:03Z</time>
      </trkpt>
      <trkpt lat="47.35683" lon="0.03573">
        <ele>76.56</ele>
        <time>2010-10-31T08:46:04Z</time>
      </trkpt>
      <trkpt lat="47.35685" lon="0.03572">
        <ele>77.52</ele>
        <time>2010-10-31T08:46:05Z</time>
      </trkpt>
      <trkpt lat="47.35688" lon="0.0357">
        <ele>76.56</ele>
        <time>2010-10-31T08:46:06Z</time>
      </trkpt>
      <trkpt lat="47.3569" lon="0.03569">
        <ele>76.56</ele>
        <time>2010-10-31T08:46:07Z</time>
      </trkpt>
      <trkpt lat="47.35692" lon="0.03567">
        <ele>77.52</ele>
        <time>2010-10-31T08:46:08Z</time>
      </trkpt>
      <trkpt lat="47.35695" lon="0.03565">
        <ele>77.04</ele>
        <time>2010-10-31T08:46:09Z</time>
      </trkpt>
      <trkpt lat="47.35697" lon="0.03563">
        <ele>78</ele>
        <time>2010-10-31T08:46:10Z</time>
      </trkpt>
      <trkpt lat="47.35708" lon="0.03554">
        <ele>78.48</ele>
        <time>2010-10-31T08:46:16Z</time>
      </trkpt>
      <trkpt lat="47.3572" lon="0.03541">
        <ele>80.41</ele>
        <time>2010-10-31T08:46:22Z</time>
      </trkpt>
      <trkpt lat="47.35728" lon="0.03528">
        <ele>81.37</ele>
        <time>2010-10-31T08:46:26Z</time>
      </trkpt>
      <trkpt lat="47.35729" lon="0.03525">
        <ele>81.85</ele>
        <time>2010-10-31T08:46:27Z</time>
      </trkpt>
      <trkpt lat="47.3573" lon="0.03523">
        <ele>81.85</ele>
        <time>2010-10-31T08:46:28Z</time>
      </trkpt>
      <trkpt lat="47.35732" lon="0.0352">
        <ele>81.85</ele>
        <time>2010-10-31T08:46:29Z</time>
      </trkpt>
      <trkpt lat="47.35733" lon="0.03518">
        <ele>82.33</ele>
        <time>2010-10-31T08:46:30Z</time>
      </trkpt>
      <trkpt lat="47.35734" lon="0.03515">
        <ele>82.81</ele>
        <time>2010-10-31T08:46:31Z</time>
      </trkpt>
      <trkpt lat="47.35736" lon="0.03513">
        <ele>81.85</ele>
        <time>2010-10-31T08:46:32Z</time>
      </trkpt>
      <trkpt lat="47.35737" lon="0.0351">
        <ele>82.81</ele>
        <time>2010-10-31T08:46:33Z</time>
      </trkpt>
      <trkpt lat="47.35739" lon="0.03506">
        <ele>82.81</ele>
        <time>2010-10-31T08:46:34Z</time>
      </trkpt>
      <trkpt lat="47.35741" lon="0.03503">
        <ele>82.81</ele>
        <time>2010-10-31T08:46:35Z</time>
      </trkpt>
      <trkpt lat="47.35742" lon="0.03499">
        <ele>82.81</ele>
        <time>2010-10-31T08:46:36Z</time>
      </trkpt>
      <trkpt lat="47.35744" lon="0.03496">
        <ele>83.29</ele>
        <time>2010-10-31T08:46:37Z</time>
      </trkpt>
      <trkpt lat="47.35759" lon="0.03476">
        <ele>85.21</ele>
        <time>2010-10-31T08:46:44Z</time>
      </trkpt>
      <trkpt lat="47.35772" lon="0.03468">
        <ele>84.73</ele>
        <time>2010-10-31T08:46:50Z</time>
      </trkpt>
      <trkpt lat="47.35785" lon="0.03457">
        <ele>85.21</ele>
        <time>2010-10-31T08:46:56Z</time>
      </trkpt>
      <trkpt lat="47.35803" lon="0.03453">
        <ele>87.14</ele>
        <time>2010-10-31T08:47:02Z</time>
      </trkpt>
      <trkpt lat="47.35821" lon="0.03452">
        <ele>88.1</ele>
        <time>2010-10-31T08:47:09Z</time>
      </trkpt>
      <trkpt lat="47.35837" lon="0.03455">
        <ele>89.54</ele>
        <time>2010-10-31T08:47:16Z</time>
      </trkpt>
      <trkpt lat="47.35853" lon="0.03456">
        <ele>89.54</ele>
        <time>2010-10-31T08:47:23Z</time>
      </trkpt>
      <trkpt lat="47.35866" lon="0.03459">
        <ele>89.54</ele>
        <time>2010-10-31T08:47:28Z</time>
      </trkpt>
      <trkpt lat="47.3588" lon="0.03459">
        <ele>90.5</ele>
        <time>2010-10-31T08:47:34Z</time>
      </trkpt>
      <trkpt lat="47.35893" lon="0.0346">
        <ele>91.46</ele>
        <time>2010-10-31T08:47:41Z</time>
      </trkpt>
      <trkpt lat="47.3591" lon="0.03459">
        <ele>90.02</ele>
        <time>2010-10-31T08:47:48Z</time>
      </trkpt>
      <trkpt lat="47.35934" lon="0.03458">
        <ele>90.5</ele>
        <time>2010-10-31T08:47:57Z</time>
      </trkpt>
      <trkpt lat="47.3595" lon="0.03458">
        <ele>90.02</ele>
        <time>2010-10-31T08:48:04Z</time>
      </trkpt>
      <trkpt lat="47.35962" lon="0.03449">
        <ele>90.5</ele>
        <time>2010-10-31T08:48:09Z</time>
      </trkpt>
      <trkpt lat="47.35979" lon="0.03423">
        <ele>92.42</ele>
        <time>2010-10-31T08:48:17Z</time>
      </trkpt>
      <trkpt lat="47.35994" lon="0.03398">
        <ele>91.94</ele>
        <time>2010-10-31T08:48:24Z</time>
      </trkpt>
      <trkpt lat="47.36003" lon="0.03385">
        <ele>92.42</ele>
        <time>2010-10-31T08:48:29Z</time>
      </trkpt>
      <trkpt lat="47.36005" lon="0.03385">
        <ele>92.42</ele>
        <time>2010-10-31T08:48:30Z</time>
      </trkpt>
      <trkpt lat="47.36008" lon="0.03386">
        <ele>92.42</ele>
        <time>2010-10-31T08:48:31Z</time>
      </trkpt>
      <trkpt lat="47.36011" lon="0.03388">
        <ele>92.42</ele>
        <time>2010-10-31T08:48:32Z</time>
      </trkpt>
      <trkpt lat="47.36025" lon="0.03401">
        <ele>90.98</ele>
        <time>2010-10-31T08:48:36Z</time>
      </trkpt>
      <trkpt lat="47.36039" lon="0.03416">
        <ele>90.02</ele>
        <time>2010-10-31T08:48:39Z</time>
      </trkpt>
      <trkpt lat="47.36049" lon="0.03425">
        <ele>88.1</ele>
        <time>2010-10-31T08:48:41Z</time>
      </trkpt>
      <trkpt lat="47.36084" lon="0.03432">
        <ele>84.73</ele>
        <time>2010-10-31T08:48:46Z</time>
      </trkpt>
      <trkpt lat="47.36116" lon="0.03454">
        <ele>81.85</ele>
        <time>2010-10-31T08:48:51Z</time>
      </trkpt>
      <trkpt lat="47.36119" lon="0.03464">
        <ele>81.85</ele>
        <time>2010-10-31T08:48:53Z</time>
      </trkpt>
      <trkpt lat="47.36135" lon="0.03493">
        <ele>81.85</ele>
        <time>2010-10-31T08:49:00Z</time>
      </trkpt>
      <trkpt lat="47.36148" lon="0.03508">
        <ele>82.81</ele>
        <time>2010-10-31T08:49:05Z</time>
      </trkpt>
      <trkpt lat="47.36165" lon="0.03516">
        <ele>84.25</ele>
        <time>2010-10-31T08:49:11Z</time>
      </trkpt>
      <trkpt lat="47.36181" lon="0.03516">
        <ele>86.18</ele>
        <time>2010-10-31T08:49:17Z</time>
      </trkpt>
      <trkpt lat="47.36196" lon="0.03514">
        <ele>86.66</ele>
        <time>2010-10-31T08:49:24Z</time>
      </trkpt>
      <trkpt lat="47.36199" lon="0.03523">
        <ele>87.62</ele>
        <time>2010-10-31T08:49:28Z</time>
      </trkpt>
      <trkpt lat="47.362" lon="0.03528">
        <ele>87.14</ele>
        <time>2010-10-31T08:49:30Z</time>
      </trkpt>
      <trkpt lat="47.36213" lon="0.03536">
        <ele>87.14</ele>
        <time>2010-10-31T08:49:37Z</time>
      </trkpt>
      <trkpt lat="47.36217" lon="0.03539">
        <ele>87.14</ele>
        <time>2010-10-31T08:49:39Z</time>
      </trkpt>
      <trkpt lat="47.36223" lon="0.03541">
        <ele>87.14</ele>
        <time>2010-10-31T08:49:41Z</time>
      </trkpt>
      <trkpt lat="47.36234" lon="0.0355">
        <ele>87.14</ele>
        <time>2010-10-31T08:49:45Z</time>
      </trkpt>
      <trkpt lat="47.3625" lon="0.03568">
        <ele>87.62</ele>
        <time>2010-10-31T08:49:50Z</time>
      </trkpt>
      <trkpt lat="47.36262" lon="0.03586">
        <ele>86.66</ele>
        <time>2010-10-31T08:49:54Z</time>
      </trkpt>
      <trkpt lat="47.3628" lon="0.03604">
        <ele>85.21</ele>
        <time>2010-10-31T08:49:58Z</time>
      </trkpt>
      <trkpt lat="47.36296" lon="0.03618">
        <ele>83.77</ele>
        <time>2010-10-31T08:50:01Z</time>
      </trkpt>
      <trkpt lat="47.36301" lon="0.03623">
        <ele>83.29</ele>
        <time>2010-10-31T08:50:02Z</time>
      </trkpt>
      <trkpt lat="47.36311" lon="0.03634">
        <ele>82.81</ele>
        <time>2010-10-31T08:50:04Z</time>
      </trkpt>
      <trkpt lat="47.36335" lon="0.03672">
        <ele>79.93</ele>
        <time>2010-10-31T08:50:09Z</time>
      </trkpt>
      <trkpt lat="47.36351" lon="0.03713">
        <ele>78.97</ele>
        <time>2010-10-31T08:50:14Z</time>
      </trkpt>
      <trkpt lat="47.36356" lon="0.03721">
        <ele>78</ele>
        <time>2010-10-31T08:50:15Z</time>
      </trkpt>
      <trkpt lat="47.36369" lon="0.03743">
        <ele>78.48</ele>
        <time>2010-10-31T08:50:18Z</time>
      </trkpt>
      <trkpt lat="47.3639" lon="0.03776">
        <ele>79.45</ele>
        <time>2010-10-31T08:50:24Z</time>
      </trkpt>
      <trkpt lat="47.36409" lon="0.03801">
        <ele>79.45</ele>
        <time>2010-10-31T08:50:29Z</time>
      </trkpt>
      <trkpt lat="47.36427" lon="0.03826">
        <ele>78.48</ele>
        <time>2010-10-31T08:50:33Z</time>
      </trkpt>
      <trkpt lat="47.36448" lon="0.03861">
        <ele>76.56</ele>
        <time>2010-10-31T08:50:38Z</time>
      </trkpt>
      <trkpt lat="47.36463" lon="0.03893">
        <ele>76.08</ele>
        <time>2010-10-31T08:50:42Z</time>
      </trkpt>
      <trkpt lat="47.36484" lon="0.03921">
        <ele>75.12</ele>
        <time>2010-10-31T08:50:46Z</time>
      </trkpt>
      <trkpt lat="47.36504" lon="0.03945">
        <ele>75.12</ele>
        <time>2010-10-31T08:50:50Z</time>
      </trkpt>
      <trkpt lat="47.36523" lon="0.0397">
        <ele>74.64</ele>
        <time>2010-10-31T08:50:54Z</time>
      </trkpt>
      <trkpt lat="47.36544" lon="0.04009">
        <ele>74.16</ele>
        <time>2010-10-31T08:50:59Z</time>
      </trkpt>
      <trkpt lat="47.36555" lon="0.04045">
        <ele>75.12</ele>
        <time>2010-10-31T08:51:04Z</time>
      </trkpt>
      <trkpt lat="47.36557" lon="0.04049">
        <ele>75.12</ele>
        <time>2010-10-31T08:51:05Z</time>
      </trkpt>
      <trkpt lat="47.36565" lon="0.04067">
        <ele>76.56</ele>
        <time>2010-10-31T08:51:09Z</time>
      </trkpt>
      <trkpt lat="47.36575" lon="0.04087">
        <ele>76.08</ele>
        <time>2010-10-31T08:51:14Z</time>
      </trkpt>
      <trkpt lat="47.36588" lon="0.04106">
        <ele>77.52</ele>
        <time>2010-10-31T08:51:19Z</time>
      </trkpt>
      <trkpt lat="47.36598" lon="0.04127">
        <ele>78.97</ele>
        <time>2010-10-31T08:51:25Z</time>
      </trkpt>
      <trkpt lat="47.36603" lon="0.04135">
        <ele>78.97</ele>
        <time>2010-10-31T08:51:28Z</time>
      </trkpt>
      <trkpt lat="47.36617" lon="0.0416">
        <ele>79.45</ele>
        <time>2010-10-31T08:51:36Z</time>
      </trkpt>
      <trkpt lat="47.36625" lon="0.04187">
        <ele>80.41</ele>
        <time>2010-10-31T08:51:42Z</time>
      </trkpt>
      <trkpt lat="47.36627" lon="0.04196">
        <ele>80.41</ele>
        <time>2010-10-31T08:51:44Z</time>
      </trkpt>
      <trkpt lat="47.36635" lon="0.04229">
        <ele>80.89</ele>
        <time>2010-10-31T08:51:51Z</time>
      </trkpt>
      <trkpt lat="47.36636" lon="0.04234">
        <ele>81.37</ele>
        <time>2010-10-31T08:51:52Z</time>
      </trkpt>
      <trkpt lat="47.36639" lon="0.04263">
        <ele>83.29</ele>
        <time>2010-10-31T08:51:58Z</time>
      </trkpt>
      <trkpt lat="47.36645" lon="0.04285">
        <ele>82.33</ele>
        <time>2010-10-31T08:52:03Z</time>
      </trkpt>
      <trkpt lat="47.36648" lon="0.04298">
        <ele>83.29</ele>
        <time>2010-10-31T08:52:06Z</time>
      </trkpt>
      <trkpt lat="47.36655" lon="0.04316">
        <ele>84.73</ele>
        <time>2010-10-31T08:52:11Z</time>
      </trkpt>
      <trkpt lat="47.36663" lon="0.0434">
        <ele>85.21</ele>
        <time>2010-10-31T08:52:17Z</time>
      </trkpt>
      <trkpt lat="47.36675" lon="0.04369">
        <ele>85.21</ele>
        <time>2010-10-31T08:52:23Z</time>
      </trkpt>
      <trkpt lat="47.36678" lon="0.04374">
        <ele>85.69</ele>
        <time>2010-10-31T08:52:24Z</time>
      </trkpt>
      <trkpt lat="47.36685" lon="0.04383">
        <ele>86.18</ele>
        <time>2010-10-31T08:52:26Z</time>
      </trkpt>
      <trkpt lat="47.36688" lon="0.04389">
        <ele>85.21</ele>
        <time>2010-10-31T08:52:27Z</time>
      </trkpt>
      <trkpt lat="47.36691" lon="0.04394">
        <ele>86.18</ele>
        <time>2010-10-31T08:52:28Z</time>
      </trkpt>
      <trkpt lat="47.36694" lon="0.04398">
        <ele>86.18</ele>
        <time>2010-10-31T08:52:29Z</time>
      </trkpt>
      <trkpt lat="47.36696" lon="0.04403">
        <ele>86.66</ele>
        <time>2010-10-31T08:52:30Z</time>
      </trkpt>
      <trkpt lat="47.36699" lon="0.04408">
        <ele>85.69</ele>
        <time>2010-10-31T08:52:31Z</time>
      </trkpt>
      <trkpt lat="47.36714" lon="0.04439">
        <ele>85.21</ele>
        <time>2010-10-31T08:52:37Z</time>
      </trkpt>
      <trkpt lat="47.36717" lon="0.04444">
        <ele>85.69</ele>
        <time>2010-10-31T08:52:38Z</time>
      </trkpt>
      <trkpt lat="47.36719" lon="0.04449">
        <ele>85.69</ele>
        <time>2010-10-31T08:52:39Z</time>
      </trkpt>
      <trkpt lat="47.36722" lon="0.04454">
        <ele>85.21</ele>
        <time>2010-10-31T08:52:40Z</time>
      </trkpt>
      <trkpt lat="47.36725" lon="0.04459">
        <ele>85.21</ele>
        <time>2010-10-31T08:52:41Z</time>
      </trkpt>
      <trkpt lat="47.36728" lon="0.04465">
        <ele>85.21</ele>
        <time>2010-10-31T08:52:42Z</time>
      </trkpt>
      <trkpt lat="47.36735" lon="0.04474">
        <ele>85.69</ele>
        <time>2010-10-31T08:52:44Z</time>
      </trkpt>
      <trkpt lat="47.36738" lon="0.0448">
        <ele>85.69</ele>
        <time>2010-10-31T08:52:45Z</time>
      </trkpt>
      <trkpt lat="47.36748" lon="0.04499">
        <ele>84.25</ele>
        <time>2010-10-31T08:52:48Z</time>
      </trkpt>
      <trkpt lat="47.3675" lon="0.04504">
        <ele>84.73</ele>
        <time>2010-10-31T08:52:49Z</time>
      </trkpt>
      <trkpt lat="47.36757" lon="0.04522">
        <ele>84.73</ele>
        <time>2010-10-31T08:52:52Z</time>
      </trkpt>
      <trkpt lat="47.36762" lon="0.04543">
        <ele>84.73</ele>
        <time>2010-10-31T08:52:55Z</time>
      </trkpt>
      <trkpt lat="47.36763" lon="0.0455">
        <ele>85.21</ele>
        <time>2010-10-31T08:52:56Z</time>
      </trkpt>
      <trkpt lat="47.36765" lon="0.04557">
        <ele>85.21</ele>
        <time>2010-10-31T08:52:57Z</time>
      </trkpt>
      <trkpt lat="47.36766" lon="0.04563">
        <ele>85.21</ele>
        <time>2010-10-31T08:52:58Z</time>
      </trkpt>
      <trkpt lat="47.36768" lon="0.04569">
        <ele>85.21</ele>
        <time>2010-10-31T08:52:59Z</time>
      </trkpt>
      <trkpt lat="47.3677" lon="0.04575">
        <ele>85.21</ele>
        <time>2010-10-31T08:53:00Z</time>
      </trkpt>
      <trkpt lat="47.36771" lon="0.04581">
        <ele>85.69</ele>
        <time>2010-10-31T08:53:01Z</time>
      </trkpt>
      <trkpt lat="47.36773" lon="0.04587">
        <ele>86.66</ele>
        <time>2010-10-31T08:53:02Z</time>
      </trkpt>
      <trkpt lat="47.36784" lon="0.04613">
        <ele>85.69</ele>
        <time>2010-10-31T08:53:07Z</time>
      </trkpt>
      <trkpt lat="47.36786" lon="0.04617">
        <ele>86.18</ele>
        <time>2010-10-31T08:53:08Z</time>
      </trkpt>
      <trkpt lat="47.36788" lon="0.04622">
        <ele>86.66</ele>
        <time>2010-10-31T08:53:09Z</time>
      </trkpt>
      <trkpt lat="47.3679" lon="0.04626">
        <ele>86.18</ele>
        <time>2010-10-31T08:53:10Z</time>
      </trkpt>
      <trkpt lat="47.36792" lon="0.0463">
        <ele>86.66</ele>
        <time>2010-10-31T08:53:11Z</time>
      </trkpt>
      <trkpt lat="47.36794" lon="0.04634">
        <ele>86.66</ele>
        <time>2010-10-31T08:53:12Z</time>
      </trkpt>
      <trkpt lat="47.36796" lon="0.04638">
        <ele>87.14</ele>
        <time>2010-10-31T08:53:13Z</time>
      </trkpt>
      <trkpt lat="47.36798" lon="0.04641">
        <ele>87.62</ele>
        <time>2010-10-31T08:53:14Z</time>
      </trkpt>
      <trkpt lat="47.36801" lon="0.04645">
        <ele>87.14</ele>
        <time>2010-10-31T08:53:15Z</time>
      </trkpt>
      <trkpt lat="47.36804" lon="0.0465">
        <ele>87.62</ele>
        <time>2010-10-31T08:53:16Z</time>
      </trkpt>
      <trkpt lat="47.36807" lon="0.04654">
        <ele>87.62</ele>
        <time>2010-10-31T08:53:17Z</time>
      </trkpt>
      <trkpt lat="47.3681" lon="0.04658">
        <ele>88.1</ele>
        <time>2010-10-31T08:53:18Z</time>
      </trkpt>
      <trkpt lat="47.36819" lon="0.04671">
        <ele>88.1</ele>
        <time>2010-10-31T08:53:21Z</time>
      </trkpt>
      <trkpt lat="47.36822" lon="0.04676">
        <ele>88.1</ele>
        <time>2010-10-31T08:53:22Z</time>
      </trkpt>
      <trkpt lat="47.36824" lon="0.0468">
        <ele>88.58</ele>
        <time>2010-10-31T08:53:23Z</time>
      </trkpt>
      <trkpt lat="47.3683" lon="0.04688">
        <ele>89.06</ele>
        <time>2010-10-31T08:53:25Z</time>
      </trkpt>
      <trkpt lat="47.36834" lon="0.04692">
        <ele>89.06</ele>
        <time>2010-10-31T08:53:26Z</time>
      </trkpt>
      <trkpt lat="47.36837" lon="0.04696">
        <ele>89.06</ele>
        <time>2010-10-31T08:53:27Z</time>
      </trkpt>
      <trkpt lat="47.3684" lon="0.047">
        <ele>89.06</ele>
        <time>2010-10-31T08:53:28Z</time>
      </trkpt>
      <trkpt lat="47.36843" lon="0.04704">
        <ele>88.58</ele>
        <time>2010-10-31T08:53:29Z</time>
      </trkpt>
      <trkpt lat="47.36858" lon="0.04723">
        <ele>89.06</ele>
        <time>2010-10-31T08:53:34Z</time>
      </trkpt>
      <trkpt lat="47.36875" lon="0.04742">
        <ele>89.06</ele>
        <time>2010-10-31T08:53:39Z</time>
      </trkpt>
      <trkpt lat="47.36879" lon="0.04746">
        <ele>89.54</ele>
        <time>2010-10-31T08:53:40Z</time>
      </trkpt>
      <trkpt lat="47.36882" lon="0.0475">
        <ele>89.54</ele>
        <time>2010-10-31T08:53:41Z</time>
      </trkpt>
      <trkpt lat="47.36905" lon="0.04775">
        <ele>89.06</ele>
        <time>2010-10-31T08:53:48Z</time>
      </trkpt>
      <trkpt lat="47.36918" lon="0.04793">
        <ele>89.54</ele>
        <time>2010-10-31T08:53:54Z</time>
      </trkpt>
      <trkpt lat="47.36921" lon="0.04798">
        <ele>90.02</ele>
        <time>2010-10-31T08:53:57Z</time>
      </trkpt>
      <trkpt lat="47.36922" lon="0.048">
        <ele>89.54</ele>
        <time>2010-10-31T08:53:58Z</time>
      </trkpt>
      <trkpt lat="47.36924" lon="0.04801">
        <ele>89.54</ele>
        <time>2010-10-31T08:53:59Z</time>
      </trkpt>
      <trkpt lat="47.36925" lon="0.04802">
        <ele>89.54</ele>
        <time>2010-10-31T08:54:00Z</time>
      </trkpt>
      <trkpt lat="47.36927" lon="0.04803">
        <ele>89.54</ele>
        <time>2010-10-31T08:54:01Z</time>
      </trkpt>
      <trkpt lat="47.36929" lon="0.04804">
        <ele>90.02</ele>
        <time>2010-10-31T08:54:02Z</time>
      </trkpt>
      <trkpt lat="47.36932" lon="0.04805">
        <ele>89.06</ele>
        <time>2010-10-31T08:54:03Z</time>
      </trkpt>
      <trkpt lat="47.36935" lon="0.04806">
        <ele>89.54</ele>
        <time>2010-10-31T08:54:04Z</time>
      </trkpt>
      <trkpt lat="47.36953" lon="0.04813">
        <ele>89.06</ele>
        <time>2010-10-31T08:54:11Z</time>
      </trkpt>
      <trkpt lat="47.36975" lon="0.04822">
        <ele>89.06</ele>
        <time>2010-10-31T08:54:18Z</time>
      </trkpt>
      <trkpt lat="47.36991" lon="0.04828">
        <ele>89.54</ele>
        <time>2010-10-31T08:54:23Z</time>
      </trkpt>
      <trkpt lat="47.37014" lon="0.04833">
        <ele>90.02</ele>
        <time>2010-10-31T08:54:29Z</time>
      </trkpt>
      <trkpt lat="47.37049" lon="0.04848">
        <ele>90.02</ele>
        <time>2010-10-31T08:54:38Z</time>
      </trkpt>
      <trkpt lat="47.3705" lon="0.04852">
        <ele>89.54</ele>
        <time>2010-10-31T08:54:39Z</time>
      </trkpt>
      <trkpt lat="47.37051" lon="0.04856">
        <ele>90.98</ele>
        <time>2010-10-31T08:54:40Z</time>
      </trkpt>
      <trkpt lat="47.3705" lon="0.0486">
        <ele>90.02</ele>
        <time>2010-10-31T08:54:41Z</time>
      </trkpt>
      <trkpt lat="47.37049" lon="0.04864">
        <ele>90.02</ele>
        <time>2010-10-31T08:54:42Z</time>
      </trkpt>
      <trkpt lat="47.37047" lon="0.04869">
        <ele>90.02</ele>
        <time>2010-10-31T08:54:43Z</time>
      </trkpt>
      <trkpt lat="47.37038" lon="0.04889">
        <ele>90.02</ele>
        <time>2010-10-31T08:54:47Z</time>
      </trkpt>
      <trkpt lat="47.37033" lon="0.049">
        <ele>90.02</ele>
        <time>2010-10-31T08:54:49Z</time>
      </trkpt>
      <trkpt lat="47.3703" lon="0.04906">
        <ele>90.02</ele>
        <time>2010-10-31T08:54:50Z</time>
      </trkpt>
      <trkpt lat="47.37028" lon="0.04912">
        <ele>89.54</ele>
        <time>2010-10-31T08:54:51Z</time>
      </trkpt>
      <trkpt lat="47.37025" lon="0.04917">
        <ele>90.5</ele>
        <time>2010-10-31T08:54:52Z</time>
      </trkpt>
      <trkpt lat="47.37023" lon="0.04922">
        <ele>90.02</ele>
        <time>2010-10-31T08:54:53Z</time>
      </trkpt>
      <trkpt lat="47.3702" lon="0.04927">
        <ele>90.02</ele>
        <time>2010-10-31T08:54:54Z</time>
      </trkpt>
      <trkpt lat="47.37017" lon="0.04933">
        <ele>90.02</ele>
        <time>2010-10-31T08:54:55Z</time>
      </trkpt>
      <trkpt lat="47.37015" lon="0.04938">
        <ele>89.54</ele>
        <time>2010-10-31T08:54:56Z</time>
      </trkpt>
      <trkpt lat="47.37012" lon="0.04943">
        <ele>89.54</ele>
        <time>2010-10-31T08:54:57Z</time>
      </trkpt>
      <trkpt lat="47.3701" lon="0.04949">
        <ele>90.02</ele>
        <time>2010-10-31T08:54:58Z</time>
      </trkpt>
      <trkpt lat="47.37008" lon="0.04954">
        <ele>89.54</ele>
        <time>2010-10-31T08:54:59Z</time>
      </trkpt>
      <trkpt lat="47.37009" lon="0.0496">
        <ele>90.02</ele>
        <time>2010-10-31T08:55:00Z</time>
      </trkpt>
      <trkpt lat="47.3701" lon="0.04967">
        <ele>89.54</ele>
        <time>2010-10-31T08:55:01Z</time>
      </trkpt>
      <trkpt lat="47.3701" lon="0.04975">
        <ele>90.02</ele>
        <time>2010-10-31T08:55:02Z</time>
      </trkpt>
      <trkpt lat="47.37011" lon="0.04982">
        <ele>88.58</ele>
        <time>2010-10-31T08:55:03Z</time>
      </trkpt>
      <trkpt lat="47.37013" lon="0.0499">
        <ele>89.06</ele>
        <time>2010-10-31T08:55:04Z</time>
      </trkpt>
      <trkpt lat="47.37014" lon="0.04997">
        <ele>89.06</ele>
        <time>2010-10-31T08:55:05Z</time>
      </trkpt>
      <trkpt lat="47.37015" lon="0.05005">
        <ele>88.1</ele>
        <time>2010-10-31T08:55:06Z</time>
      </trkpt>
      <trkpt lat="47.37016" lon="0.05013">
        <ele>88.58</ele>
        <time>2010-10-31T08:55:07Z</time>
      </trkpt>
      <trkpt lat="47.37019" lon="0.0503">
        <ele>89.06</ele>
        <time>2010-10-31T08:55:09Z</time>
      </trkpt>
      <trkpt lat="47.37021" lon="0.05038">
        <ele>89.06</ele>
        <time>2010-10-31T08:55:10Z</time>
      </trkpt>
      <trkpt lat="47.37023" lon="0.05046">
        <ele>89.06</ele>
        <time>2010-10-31T08:55:11Z</time>
      </trkpt>
      <trkpt lat="47.37024" lon="0.05054">
        <ele>88.1</ele>
        <time>2010-10-31T08:55:12Z</time>
      </trkpt>
      <trkpt lat="47.37026" lon="0.05062">
        <ele>88.1</ele>
        <time>2010-10-31T08:55:13Z</time>
      </trkpt>
      <trkpt lat="47.37027" lon="0.0507">
        <ele>87.62</ele>
        <time>2010-10-31T08:55:14Z</time>
      </trkpt>
      <trkpt lat="47.37028" lon="0.05078">
        <ele>88.58</ele>
        <time>2010-10-31T08:55:15Z</time>
      </trkpt>
      <trkpt lat="47.37033" lon="0.05102">
        <ele>88.58</ele>
        <time>2010-10-31T08:55:18Z</time>
      </trkpt>
      <trkpt lat="47.37035" lon="0.0511">
        <ele>88.1</ele>
        <time>2010-10-31T08:55:19Z</time>
      </trkpt>
      <trkpt lat="47.3704" lon="0.05151">
        <ele>88.58</ele>
        <time>2010-10-31T08:55:24Z</time>
      </trkpt>
      <trkpt lat="47.37041" lon="0.05159">
        <ele>87.62</ele>
        <time>2010-10-31T08:55:25Z</time>
      </trkpt>
      <trkpt lat="47.37046" lon="0.05199">
        <ele>89.06</ele>
        <time>2010-10-31T08:55:30Z</time>
      </trkpt>
      <trkpt lat="47.37048" lon="0.05206">
        <ele>88.58</ele>
        <time>2010-10-31T08:55:31Z</time>
      </trkpt>
      <trkpt lat="47.3705" lon="0.05213">
        <ele>88.58</ele>
        <time>2010-10-31T08:55:32Z</time>
      </trkpt>
      <trkpt lat="47.37051" lon="0.0522">
        <ele>88.58</ele>
        <time>2010-10-31T08:55:33Z</time>
      </trkpt>
      <trkpt lat="47.37052" lon="0.05227">
        <ele>88.1</ele>
        <time>2010-10-31T08:55:34Z</time>
      </trkpt>
      <trkpt lat="47.37056" lon="0.05259">
        <ele>88.58</ele>
        <time>2010-10-31T08:55:38Z</time>
      </trkpt>
      <trkpt lat="47.37058" lon="0.05266">
        <ele>88.58</ele>
        <time>2010-10-31T08:55:39Z</time>
      </trkpt>
      <trkpt lat="47.37059" lon="0.05274">
        <ele>88.58</ele>
        <time>2010-10-31T08:55:40Z</time>
      </trkpt>
      <trkpt lat="47.3706" lon="0.05281">
        <ele>89.06</ele>
        <time>2010-10-31T08:55:41Z</time>
      </trkpt>
      <trkpt lat="47.37062" lon="0.05288">
        <ele>89.54</ele>
        <time>2010-10-31T08:55:42Z</time>
      </trkpt>
      <trkpt lat="47.37065" lon="0.05301">
        <ele>89.06</ele>
        <time>2010-10-31T08:55:44Z</time>
      </trkpt>
      <trkpt lat="47.37067" lon="0.05308">
        <ele>89.06</ele>
        <time>2010-10-31T08:55:45Z</time>
      </trkpt>
      <trkpt lat="47.37068" lon="0.05314">
        <ele>89.54</ele>
        <time>2010-10-31T08:55:46Z</time>
      </trkpt>
      <trkpt lat="47.37069" lon="0.0532">
        <ele>90.5</ele>
        <time>2010-10-31T08:55:47Z</time>
      </trkpt>
      <trkpt lat="47.3707" lon="0.05328">
        <ele>90.5</ele>
        <time>2010-10-31T08:55:48Z</time>
      </trkpt>
      <trkpt lat="47.37071" lon="0.05335">
        <ele>90.02</ele>
        <time>2010-10-31T08:55:49Z</time>
      </trkpt>
      <trkpt lat="47.37074" lon="0.0535">
        <ele>90.5</ele>
        <time>2010-10-31T08:55:51Z</time>
      </trkpt>
      <trkpt lat="47.37074" lon="0.05357">
        <ele>90.02</ele>
        <time>2010-10-31T08:55:52Z</time>
      </trkpt>
      <trkpt lat="47.37075" lon="0.05364">
        <ele>90.5</ele>
        <time>2010-10-31T08:55:53Z</time>
      </trkpt>
      <trkpt lat="47.37077" lon="0.05371">
        <ele>90.5</ele>
        <time>2010-10-31T08:55:54Z</time>
      </trkpt>
      <trkpt lat="47.37078" lon="0.05378">
        <ele>90.02</ele>
        <time>2010-10-31T08:55:55Z</time>
      </trkpt>
      <trkpt lat="47.37079" lon="0.05386">
        <ele>90.02</ele>
        <time>2010-10-31T08:55:56Z</time>
      </trkpt>
      <trkpt lat="47.3708" lon="0.05394">
        <ele>90.5</ele>
        <time>2010-10-31T08:55:57Z</time>
      </trkpt>
      <trkpt lat="47.37083" lon="0.05402">
        <ele>90.02</ele>
        <time>2010-10-31T08:55:58Z</time>
      </trkpt>
      <trkpt lat="47.37085" lon="0.0541">
        <ele>90.02</ele>
        <time>2010-10-31T08:55:59Z</time>
      </trkpt>
      <trkpt lat="47.37087" lon="0.05418">
        <ele>90.02</ele>
        <time>2010-10-31T08:56:00Z</time>
      </trkpt>
      <trkpt lat="47.37089" lon="0.05426">
        <ele>90.02</ele>
        <time>2010-10-31T08:56:01Z</time>
      </trkpt>
      <trkpt lat="47.37091" lon="0.05433">
        <ele>90.02</ele>
        <time>2010-10-31T08:56:02Z</time>
      </trkpt>
      <trkpt lat="47.37092" lon="0.0544">
        <ele>89.54</ele>
        <time>2010-10-31T08:56:03Z</time>
      </trkpt>
      <trkpt lat="47.37094" lon="0.05448">
        <ele>89.54</ele>
        <time>2010-10-31T08:56:04Z</time>
      </trkpt>
      <trkpt lat="47.37097" lon="0.05456">
        <ele>89.54</ele>
        <time>2010-10-31T08:56:05Z</time>
      </trkpt>
      <trkpt lat="47.371" lon="0.05463">
        <ele>90.02</ele>
        <time>2010-10-31T08:56:06Z</time>
      </trkpt>
      <trkpt lat="47.37103" lon="0.05471">
        <ele>90.02</ele>
        <time>2010-10-31T08:56:07Z</time>
      </trkpt>
      <trkpt lat="47.37107" lon="0.05478">
        <ele>89.54</ele>
        <time>2010-10-31T08:56:08Z</time>
      </trkpt>
      <trkpt lat="47.37111" lon="0.05485">
        <ele>89.54</ele>
        <time>2010-10-31T08:56:09Z</time>
      </trkpt>
      <trkpt lat="47.37114" lon="0.05492">
        <ele>89.06</ele>
        <time>2010-10-31T08:56:10Z</time>
      </trkpt>
      <trkpt lat="47.37117" lon="0.05499">
        <ele>89.06</ele>
        <time>2010-10-31T08:56:11Z</time>
      </trkpt>
      <trkpt lat="47.37121" lon="0.05507">
        <ele>89.54</ele>
        <time>2010-10-31T08:56:12Z</time>
      </trkpt>
      <trkpt lat="47.37125" lon="0.05514">
        <ele>89.06</ele>
        <time>2010-10-31T08:56:13Z</time>
      </trkpt>
      <trkpt lat="47.37128" lon="0.05521">
        <ele>89.54</ele>
        <time>2010-10-31T08:56:14Z</time>
      </trkpt>
      <trkpt lat="47.37147" lon="0.05565">
        <ele>89.54</ele>
        <time>2010-10-31T08:56:20Z</time>
      </trkpt>
      <trkpt lat="47.37153" lon="0.0558">
        <ele>89.54</ele>
        <time>2010-10-31T08:56:22Z</time>
      </trkpt>
      <trkpt lat="47.37156" lon="0.05586">
        <ele>89.06</ele>
        <time>2010-10-31T08:56:23Z</time>
      </trkpt>
      <trkpt lat="47.37159" lon="0.05592">
        <ele>88.58</ele>
        <time>2010-10-31T08:56:24Z</time>
      </trkpt>
      <trkpt lat="47.37162" lon="0.05598">
        <ele>89.06</ele>
        <time>2010-10-31T08:56:25Z</time>
      </trkpt>
      <trkpt lat="47.37165" lon="0.05603">
        <ele>89.54</ele>
        <time>2010-10-31T08:56:26Z</time>
      </trkpt>
      <trkpt lat="47.37168" lon="0.05607">
        <ele>89.06</ele>
        <time>2010-10-31T08:56:27Z</time>
      </trkpt>
      <trkpt lat="47.37171" lon="0.05613">
        <ele>90.02</ele>
        <time>2010-10-31T08:56:28Z</time>
      </trkpt>
      <trkpt lat="47.37173" lon="0.05617">
        <ele>89.54</ele>
        <time>2010-10-31T08:56:29Z</time>
      </trkpt>
      <trkpt lat="47.37175" lon="0.05622">
        <ele>89.54</ele>
        <time>2010-10-31T08:56:30Z</time>
      </trkpt>
      <trkpt lat="47.37183" lon="0.05647">
        <ele>90.02</ele>
        <time>2010-10-31T08:56:35Z</time>
      </trkpt>
      <trkpt lat="47.3719" lon="0.05662">
        <ele>90.98</ele>
        <time>2010-10-31T08:56:38Z</time>
      </trkpt>
      <trkpt lat="47.37198" lon="0.05679">
        <ele>90.5</ele>
        <time>2010-10-31T08:56:41Z</time>
      </trkpt>
      <trkpt lat="47.37201" lon="0.05685">
        <ele>90.5</ele>
        <time>2010-10-31T08:56:42Z</time>
      </trkpt>
      <trkpt lat="47.37205" lon="0.0569">
        <ele>90.98</ele>
        <time>2010-10-31T08:56:43Z</time>
      </trkpt>
      <trkpt lat="47.37208" lon="0.05695">
        <ele>90.98</ele>
        <time>2010-10-31T08:56:44Z</time>
      </trkpt>
      <trkpt lat="47.3721" lon="0.057">
        <ele>90.98</ele>
        <time>2010-10-31T08:56:45Z</time>
      </trkpt>
      <trkpt lat="47.37212" lon="0.05705">
        <ele>90.98</ele>
        <time>2010-10-31T08:56:46Z</time>
      </trkpt>
      <trkpt lat="47.37215" lon="0.05711">
        <ele>90.98</ele>
        <time>2010-10-31T08:56:47Z</time>
      </trkpt>
      <trkpt lat="47.37217" lon="0.05717">
        <ele>91.46</ele>
        <time>2010-10-31T08:56:48Z</time>
      </trkpt>
      <trkpt lat="47.37222" lon="0.05729">
        <ele>91.46</ele>
        <time>2010-10-31T08:56:50Z</time>
      </trkpt>
      <trkpt lat="47.37231" lon="0.05744">
        <ele>90.98</ele>
        <time>2010-10-31T08:56:53Z</time>
      </trkpt>
      <trkpt lat="47.37233" lon="0.05748">
        <ele>91.46</ele>
        <time>2010-10-31T08:56:54Z</time>
      </trkpt>
      <trkpt lat="47.37235" lon="0.05752">
        <ele>90.98</ele>
        <time>2010-10-31T08:56:55Z</time>
      </trkpt>
      <trkpt lat="47.37237" lon="0.05755">
        <ele>91.46</ele>
        <time>2010-10-31T08:56:56Z</time>
      </trkpt>
      <trkpt lat="47.37239" lon="0.05759">
        <ele>91.46</ele>
        <time>2010-10-31T08:56:57Z</time>
      </trkpt>
      <trkpt lat="47.37242" lon="0.05763">
        <ele>91.94</ele>
        <time>2010-10-31T08:56:58Z</time>
      </trkpt>
      <trkpt lat="47.37259" lon="0.05789">
        <ele>91.94</ele>
        <time>2010-10-31T08:57:04Z</time>
      </trkpt>
      <trkpt lat="47.37265" lon="0.05798">
        <ele>92.9</ele>
        <time>2010-10-31T08:57:06Z</time>
      </trkpt>
      <trkpt lat="47.37269" lon="0.05802">
        <ele>91.94</ele>
        <time>2010-10-31T08:57:07Z</time>
      </trkpt>
      <trkpt lat="47.37272" lon="0.05807">
        <ele>91.94</ele>
        <time>2010-10-31T08:57:08Z</time>
      </trkpt>
      <trkpt lat="47.37274" lon="0.05812">
        <ele>92.42</ele>
        <time>2010-10-31T08:57:09Z</time>
      </trkpt>
      <trkpt lat="47.37277" lon="0.05817">
        <ele>92.42</ele>
        <time>2010-10-31T08:57:10Z</time>
      </trkpt>
      <trkpt lat="47.3728" lon="0.05821">
        <ele>93.39</ele>
        <time>2010-10-31T08:57:11Z</time>
      </trkpt>
      <trkpt lat="47.37283" lon="0.05825">
        <ele>92.9</ele>
        <time>2010-10-31T08:57:12Z</time>
      </trkpt>
      <trkpt lat="47.37286" lon="0.05829">
        <ele>92.9</ele>
        <time>2010-10-31T08:57:13Z</time>
      </trkpt>
      <trkpt lat="47.37288" lon="0.05833">
        <ele>92.9</ele>
        <time>2010-10-31T08:57:14Z</time>
      </trkpt>
      <trkpt lat="47.37293" lon="0.05842">
        <ele>92.9</ele>
        <time>2010-10-31T08:57:16Z</time>
      </trkpt>
      <trkpt lat="47.37295" lon="0.05846">
        <ele>92.9</ele>
        <time>2010-10-31T08:57:17Z</time>
      </trkpt>
      <trkpt lat="47.37298" lon="0.05851">
        <ele>93.39</ele>
        <time>2010-10-31T08:57:18Z</time>
      </trkpt>
      <trkpt lat="47.37302" lon="0.05855">
        <ele>93.87</ele>
        <time>2010-10-31T08:57:19Z</time>
      </trkpt>
      <trkpt lat="47.37305" lon="0.0586">
        <ele>93.87</ele>
        <time>2010-10-31T08:57:20Z</time>
      </trkpt>
      <trkpt lat="47.37308" lon="0.05865">
        <ele>93.87</ele>
        <time>2010-10-31T08:57:21Z</time>
      </trkpt>
      <trkpt lat="47.37314" lon="0.05875">
        <ele>94.35</ele>
        <time>2010-10-31T08:57:23Z</time>
      </trkpt>
      <trkpt lat="47.37317" lon="0.05879">
        <ele>94.35</ele>
        <time>2010-10-31T08:57:24Z</time>
      </trkpt>
      <trkpt lat="47.37326" lon="0.05895">
        <ele>94.35</ele>
        <time>2010-10-31T08:57:27Z</time>
      </trkpt>
      <trkpt lat="47.37329" lon="0.059">
        <ele>93.39</ele>
        <time>2010-10-31T08:57:28Z</time>
      </trkpt>
      <trkpt lat="47.37331" lon="0.05905">
        <ele>93.87</ele>
        <time>2010-10-31T08:57:29Z</time>
      </trkpt>
      <trkpt lat="47.37333" lon="0.05909">
        <ele>93.87</ele>
        <time>2010-10-31T08:57:30Z</time>
      </trkpt>
      <trkpt lat="47.37336" lon="0.05914">
        <ele>93.87</ele>
        <time>2010-10-31T08:57:31Z</time>
      </trkpt>
      <trkpt lat="47.37338" lon="0.05919">
        <ele>94.35</ele>
        <time>2010-10-31T08:57:32Z</time>
      </trkpt>
      <trkpt lat="47.37341" lon="0.05924">
        <ele>93.87</ele>
        <time>2010-10-31T08:57:33Z</time>
      </trkpt>
      <trkpt lat="47.37354" lon="0.05952">
        <ele>93.87</ele>
        <time>2010-10-31T08:57:39Z</time>
      </trkpt>
      <trkpt lat="47.37365" lon="0.05975">
        <ele>93.87</ele>
        <time>2010-10-31T08:57:44Z</time>
      </trkpt>
      <trkpt lat="47.37372" lon="0.05996">
        <ele>94.35</ele>
        <time>2010-10-31T08:57:48Z</time>
      </trkpt>
      <trkpt lat="47.37375" lon="0.06">
        <ele>93.87</ele>
        <time>2010-10-31T08:57:49Z</time>
      </trkpt>
      <trkpt lat="47.37377" lon="0.06005">
        <ele>93.87</ele>
        <time>2010-10-31T08:57:50Z</time>
      </trkpt>
      <trkpt lat="47.37381" lon="0.06014">
        <ele>94.83</ele>
        <time>2010-10-31T08:57:52Z</time>
      </trkpt>
      <trkpt lat="47.37381" lon="0.06019">
        <ele>94.35</ele>
        <time>2010-10-31T08:57:53Z</time>
      </trkpt>
      <trkpt lat="47.37379" lon="0.06023">
        <ele>94.83</ele>
        <time>2010-10-31T08:57:54Z</time>
      </trkpt>
      <trkpt lat="47.37377" lon="0.06026">
        <ele>94.35</ele>
        <time>2010-10-31T08:57:55Z</time>
      </trkpt>
      <trkpt lat="47.37374" lon="0.06029">
        <ele>94.35</ele>
        <time>2010-10-31T08:57:56Z</time>
      </trkpt>
      <trkpt lat="47.37371" lon="0.06032">
        <ele>94.83</ele>
        <time>2010-10-31T08:57:57Z</time>
      </trkpt>
      <trkpt lat="47.3736" lon="0.0604">
        <ele>95.31</ele>
        <time>2010-10-31T08:58:00Z</time>
      </trkpt>
      <trkpt lat="47.37339" lon="0.06058">
        <ele>95.79</ele>
        <time>2010-10-31T08:58:06Z</time>
      </trkpt>
      <trkpt lat="47.37323" lon="0.0607">
        <ele>96.27</ele>
        <time>2010-10-31T08:58:11Z</time>
      </trkpt>
      <trkpt lat="47.37319" lon="0.06074">
        <ele>96.27</ele>
        <time>2010-10-31T08:58:12Z</time>
      </trkpt>
      <trkpt lat="47.37315" lon="0.06077">
        <ele>96.27</ele>
        <time>2010-10-31T08:58:13Z</time>
      </trkpt>
      <trkpt lat="47.37312" lon="0.0608">
        <ele>96.27</ele>
        <time>2010-10-31T08:58:14Z</time>
      </trkpt>
      <trkpt lat="47.37308" lon="0.06083">
        <ele>96.27</ele>
        <time>2010-10-31T08:58:15Z</time>
      </trkpt>
      <trkpt lat="47.37303" lon="0.06086">
        <ele>96.27</ele>
        <time>2010-10-31T08:58:16Z</time>
      </trkpt>
      <trkpt lat="47.37299" lon="0.06089">
        <ele>96.27</ele>
        <time>2010-10-31T08:58:17Z</time>
      </trkpt>
      <trkpt lat="47.37296" lon="0.06092">
        <ele>96.75</ele>
        <time>2010-10-31T08:58:18Z</time>
      </trkpt>
      <trkpt lat="47.37292" lon="0.06095">
        <ele>96.75</ele>
        <time>2010-10-31T08:58:19Z</time>
      </trkpt>
      <trkpt lat="47.37284" lon="0.06102">
        <ele>96.27</ele>
        <time>2010-10-31T08:58:21Z</time>
      </trkpt>
      <trkpt lat="47.3728" lon="0.06105">
        <ele>97.23</ele>
        <time>2010-10-31T08:58:22Z</time>
      </trkpt>
      <trkpt lat="47.37276" lon="0.06108">
        <ele>96.75</ele>
        <time>2010-10-31T08:58:23Z</time>
      </trkpt>
      <trkpt lat="47.37272" lon="0.06111">
        <ele>97.23</ele>
        <time>2010-10-31T08:58:24Z</time>
      </trkpt>
      <trkpt lat="47.37269" lon="0.06114">
        <ele>96.27</ele>
        <time>2010-10-31T08:58:25Z</time>
      </trkpt>
      <trkpt lat="47.37265" lon="0.06118">
        <ele>96.75</ele>
        <time>2010-10-31T08:58:26Z</time>
      </trkpt>
      <trkpt lat="47.37249" lon="0.06132">
        <ele>96.75</ele>
        <time>2010-10-31T08:58:31Z</time>
      </trkpt>
      <trkpt lat="47.37225" lon="0.0615">
        <ele>97.23</ele>
        <time>2010-10-31T08:58:37Z</time>
      </trkpt>
      <trkpt lat="47.37212" lon="0.0616">
        <ele>97.23</ele>
        <time>2010-10-31T08:58:40Z</time>
      </trkpt>
      <trkpt lat="47.37192" lon="0.06174">
        <ele>97.71</ele>
        <time>2010-10-31T08:58:45Z</time>
      </trkpt>
      <trkpt lat="47.37169" lon="0.06191">
        <ele>97.23</ele>
        <time>2010-10-31T08:58:51Z</time>
      </trkpt>
      <trkpt lat="47.37139" lon="0.06213">
        <ele>98.19</ele>
        <time>2010-10-31T08:58:58Z</time>
      </trkpt>
      <trkpt lat="47.37109" lon="0.06234">
        <ele>98.19</ele>
        <time>2010-10-31T08:59:05Z</time>
      </trkpt>
      <trkpt lat="47.37092" lon="0.06248">
        <ele>98.19</ele>
        <time>2010-10-31T08:59:09Z</time>
      </trkpt>
      <trkpt lat="47.37088" lon="0.06251">
        <ele>98.67</ele>
        <time>2010-10-31T08:59:10Z</time>
      </trkpt>
      <trkpt lat="47.37081" lon="0.06257">
        <ele>98.67</ele>
        <time>2010-10-31T08:59:12Z</time>
      </trkpt>
      <trkpt lat="47.37077" lon="0.0626">
        <ele>98.67</ele>
        <time>2010-10-31T08:59:13Z</time>
      </trkpt>
      <trkpt lat="47.37066" lon="0.0627">
        <ele>98.19</ele>
        <time>2010-10-31T08:59:16Z</time>
      </trkpt>
      <trkpt lat="47.37038" lon="0.06293">
        <ele>97.71</ele>
        <time>2010-10-31T08:59:23Z</time>
      </trkpt>
      <trkpt lat="47.37018" lon="0.0631">
        <ele>97.23</ele>
        <time>2010-10-31T08:59:29Z</time>
      </trkpt>
      <trkpt lat="47.37005" lon="0.06322">
        <ele>96.27</ele>
        <time>2010-10-31T08:59:34Z</time>
      </trkpt>
      <trkpt lat="47.36983" lon="0.06338">
        <ele>95.31</ele>
        <time>2010-10-31T08:59:40Z</time>
      </trkpt>
      <trkpt lat="47.36978" lon="0.06342">
        <ele>94.35</ele>
        <time>2010-10-31T08:59:41Z</time>
      </trkpt>
      <trkpt lat="47.36973" lon="0.06346">
        <ele>94.35</ele>
        <time>2010-10-31T08:59:42Z</time>
      </trkpt>
      <trkpt lat="47.36958" lon="0.0636">
        <ele>93.87</ele>
        <time>2010-10-31T08:59:46Z</time>
      </trkpt>
      <trkpt lat="47.36954" lon="0.06363">
        <ele>93.39</ele>
        <time>2010-10-31T08:59:47Z</time>
      </trkpt>
      <trkpt lat="47.3695" lon="0.06365">
        <ele>92.9</ele>
        <time>2010-10-31T08:59:48Z</time>
      </trkpt>
      <trkpt lat="47.36946" lon="0.06366">
        <ele>92.9</ele>
        <time>2010-10-31T08:59:49Z</time>
      </trkpt>
      <trkpt lat="47.36942" lon="0.06366">
        <ele>92.9</ele>
        <time>2010-10-31T08:59:50Z</time>
      </trkpt>
      <trkpt lat="47.36937" lon="0.06365">
        <ele>92.42</ele>
        <time>2010-10-31T08:59:51Z</time>
      </trkpt>
      <trkpt lat="47.36933" lon="0.06363">
        <ele>91.94</ele>
        <time>2010-10-31T08:59:52Z</time>
      </trkpt>
      <trkpt lat="47.3693" lon="0.0636">
        <ele>92.42</ele>
        <time>2010-10-31T08:59:53Z</time>
      </trkpt>
      <trkpt lat="47.36928" lon="0.06358">
        <ele>92.9</ele>
        <time>2010-10-31T08:59:54Z</time>
      </trkpt>
      <trkpt lat="47.36926" lon="0.06356">
        <ele>91.46</ele>
        <time>2010-10-31T08:59:55Z</time>
      </trkpt>
      <trkpt lat="47.36923" lon="0.06352">
        <ele>91.94</ele>
        <time>2010-10-31T08:59:56Z</time>
      </trkpt>
      <trkpt lat="47.36912" lon="0.06336">
        <ele>92.42</ele>
        <time>2010-10-31T09:00:02Z</time>
      </trkpt>
      <trkpt lat="47.36911" lon="0.06334">
        <ele>92.9</ele>
        <time>2010-10-31T09:00:03Z</time>
      </trkpt>
      <trkpt lat="47.36909" lon="0.06333">
        <ele>92.42</ele>
        <time>2010-10-31T09:00:04Z</time>
      </trkpt>
      <trkpt lat="47.36907" lon="0.06331">
        <ele>92.42</ele>
        <time>2010-10-31T09:00:05Z</time>
      </trkpt>
      <trkpt lat="47.36906" lon="0.06329">
        <ele>92.42</ele>
        <time>2010-10-31T09:00:06Z</time>
      </trkpt>
      <trkpt lat="47.36902" lon="0.06325">
        <ele>92.42</ele>
        <time>2010-10-31T09:00:13Z</time>
      </trkpt>
      <trkpt lat="47.369" lon="0.06324">
        <ele>91.94</ele>
        <time>2010-10-31T09:00:29Z</time>
      </trkpt>
      <trkpt lat="47.36898" lon="0.06324">
        <ele>92.9</ele>
        <time>2010-10-31T09:00:30Z</time>
      </trkpt>
      <trkpt lat="47.36896" lon="0.06325">
        <ele>91.46</ele>
        <time>2010-10-31T09:00:31Z</time>
      </trkpt>
      <trkpt lat="47.36894" lon="0.06327">
        <ele>91.46</ele>
        <time>2010-10-31T09:00:32Z</time>
      </trkpt>
      <trkpt lat="47.36893" lon="0.06329">
        <ele>91.94</ele>
        <time>2010-10-31T09:00:33Z</time>
      </trkpt>
      <trkpt lat="47.36891" lon="0.06332">
        <ele>91.46</ele>
        <time>2010-10-31T09:00:35Z</time>
      </trkpt>
      <trkpt lat="47.3689" lon="0.06333">
        <ele>91.46</ele>
        <time>2010-10-31T09:00:36Z</time>
      </trkpt>
      <trkpt lat="47.36889" lon="0.06335">
        <ele>90.5</ele>
        <time>2010-10-31T09:00:42Z</time>
      </trkpt>
      <trkpt lat="47.36888" lon="0.06336">
        <ele>90.98</ele>
        <time>2010-10-31T09:00:50Z</time>
      </trkpt>
      <trkpt lat="47.36887" lon="0.06338">
        <ele>90.5</ele>
        <time>2010-10-31T09:01:38Z</time>
      </trkpt>
      <trkpt lat="47.36883" lon="0.0634">
        <ele>90.5</ele>
        <time>2010-10-31T09:01:39Z</time>
      </trkpt>
      <trkpt lat="47.36881" lon="0.06341">
        <ele>89.54</ele>
        <time>2010-10-31T09:01:40Z</time>
      </trkpt>
      <trkpt lat="47.36877" lon="0.06343">
        <ele>89.54</ele>
        <time>2010-10-31T09:01:41Z</time>
      </trkpt>
      <trkpt lat="47.36874" lon="0.06344">
        <ele>90.5</ele>
        <time>2010-10-31T09:01:42Z</time>
      </trkpt>
      <trkpt lat="47.36872" lon="0.06345">
        <ele>90.5</ele>
        <time>2010-10-31T09:01:43Z</time>
      </trkpt>
      <trkpt lat="47.36869" lon="0.06346">
        <ele>89.54</ele>
        <time>2010-10-31T09:01:44Z</time>
      </trkpt>
      <trkpt lat="47.36865" lon="0.06348">
        <ele>90.02</ele>
        <time>2010-10-31T09:01:45Z</time>
      </trkpt>
      <trkpt lat="47.36833" lon="0.06364">
        <ele>87.62</ele>
        <time>2010-10-31T09:01:51Z</time>
      </trkpt>
      <trkpt lat="47.36805" lon="0.06378">
        <ele>85.21</ele>
        <time>2010-10-31T09:01:55Z</time>
      </trkpt>
      <trkpt lat="47.36796" lon="0.06381">
        <ele>83.77</ele>
        <time>2010-10-31T09:01:56Z</time>
      </trkpt>
      <trkpt lat="47.36751" lon="0.06402">
        <ele>80.41</ele>
        <time>2010-10-31T09:02:01Z</time>
      </trkpt>
      <trkpt lat="47.3672" lon="0.06418">
        <ele>78.97</ele>
        <time>2010-10-31T09:02:05Z</time>
      </trkpt>
      <trkpt lat="47.36696" lon="0.06427">
        <ele>78.48</ele>
        <time>2010-10-31T09:02:09Z</time>
      </trkpt>
      <trkpt lat="47.36691" lon="0.06428">
        <ele>78.97</ele>
        <time>2010-10-31T09:02:10Z</time>
      </trkpt>
      <trkpt lat="47.36666" lon="0.06438">
        <ele>80.41</ele>
        <time>2010-10-31T09:02:14Z</time>
      </trkpt>
      <trkpt lat="47.36661" lon="0.06439">
        <ele>80.89</ele>
        <time>2010-10-31T09:02:15Z</time>
      </trkpt>
      <trkpt lat="47.36656" lon="0.06441">
        <ele>80.89</ele>
        <time>2010-10-31T09:02:16Z</time>
      </trkpt>
      <trkpt lat="47.36651" lon="0.06443">
        <ele>80.89</ele>
        <time>2010-10-31T09:02:17Z</time>
      </trkpt>
      <trkpt lat="47.36646" lon="0.06445">
        <ele>81.85</ele>
        <time>2010-10-31T09:02:18Z</time>
      </trkpt>
      <trkpt lat="47.36642" lon="0.06447">
        <ele>81.85</ele>
        <time>2010-10-31T09:02:19Z</time>
      </trkpt>
      <trkpt lat="47.36637" lon="0.06449">
        <ele>82.81</ele>
        <time>2010-10-31T09:02:20Z</time>
      </trkpt>
      <trkpt lat="47.36634" lon="0.06451">
        <ele>84.25</ele>
        <time>2010-10-31T09:02:21Z</time>
      </trkpt>
      <trkpt lat="47.3663" lon="0.06453">
        <ele>83.77</ele>
        <time>2010-10-31T09:02:22Z</time>
      </trkpt>
      <trkpt lat="47.36611" lon="0.06461">
        <ele>85.69</ele>
        <time>2010-10-31T09:02:27Z</time>
      </trkpt>
      <trkpt lat="47.36594" lon="0.06468">
        <ele>87.62</ele>
        <time>2010-10-31T09:02:32Z</time>
      </trkpt>
      <trkpt lat="47.36561" lon="0.06481">
        <ele>89.54</ele>
        <time>2010-10-31T09:02:42Z</time>
      </trkpt>
      <trkpt lat="47.36535" lon="0.06492">
        <ele>90.5</ele>
        <time>2010-10-31T09:02:50Z</time>
      </trkpt>
      <trkpt lat="47.36509" lon="0.06504">
        <ele>91.46</ele>
        <time>2010-10-31T09:02:58Z</time>
      </trkpt>
      <trkpt lat="47.36487" lon="0.06514">
        <ele>93.39</ele>
        <time>2010-10-31T09:03:05Z</time>
      </trkpt>
      <trkpt lat="47.36484" lon="0.06515">
        <ele>93.87</ele>
        <time>2010-10-31T09:03:06Z</time>
      </trkpt>
      <trkpt lat="47.36461" lon="0.06528">
        <ele>93.87</ele>
        <time>2010-10-31T09:03:14Z</time>
      </trkpt>
      <trkpt lat="47.36444" lon="0.06534">
        <ele>94.83</ele>
        <time>2010-10-31T09:03:22Z</time>
      </trkpt>
      <trkpt lat="47.36419" lon="0.06545">
        <ele>95.79</ele>
        <time>2010-10-31T09:03:32Z</time>
      </trkpt>
      <trkpt lat="47.364" lon="0.06553">
        <ele>95.79</ele>
        <time>2010-10-31T09:03:40Z</time>
      </trkpt>
      <trkpt lat="47.36382" lon="0.06561">
        <ele>96.27</ele>
        <time>2010-10-31T09:03:48Z</time>
      </trkpt>
      <trkpt lat="47.36366" lon="0.06569">
        <ele>96.27</ele>
        <time>2010-10-31T09:03:54Z</time>
      </trkpt>
      <trkpt lat="47.36343" lon="0.06577">
        <ele>96.75</ele>
        <time>2010-10-31T09:04:02Z</time>
      </trkpt>
      <trkpt lat="47.36326" lon="0.06585">
        <ele>96.27</ele>
        <time>2010-10-31T09:04:08Z</time>
      </trkpt>
      <trkpt lat="47.36307" lon="0.06593">
        <ele>96.27</ele>
        <time>2010-10-31T09:04:14Z</time>
      </trkpt>
      <trkpt lat="47.36278" lon="0.06607">
        <ele>95.31</ele>
        <time>2010-10-31T09:04:22Z</time>
      </trkpt>
      <trkpt lat="47.36247" lon="0.06621">
        <ele>94.83</ele>
        <time>2010-10-31T09:04:30Z</time>
      </trkpt>
      <trkpt lat="47.36227" lon="0.06632">
        <ele>94.35</ele>
        <time>2010-10-31T09:04:35Z</time>
      </trkpt>
      <trkpt lat="47.362" lon="0.06645">
        <ele>94.35</ele>
        <time>2010-10-31T09:04:42Z</time>
      </trkpt>
      <trkpt lat="47.36172" lon="0.06657">
        <ele>94.83</ele>
        <time>2010-10-31T09:04:49Z</time>
      </trkpt>
      <trkpt lat="47.36168" lon="0.06659">
        <ele>93.87</ele>
        <time>2010-10-31T09:04:50Z</time>
      </trkpt>
      <trkpt lat="47.36164" lon="0.06662">
        <ele>94.35</ele>
        <time>2010-10-31T09:04:51Z</time>
      </trkpt>
      <trkpt lat="47.36155" lon="0.06667">
        <ele>93.87</ele>
        <time>2010-10-31T09:04:53Z</time>
      </trkpt>
      <trkpt lat="47.36151" lon="0.06669">
        <ele>93.87</ele>
        <time>2010-10-31T09:04:54Z</time>
      </trkpt>
      <trkpt lat="47.36147" lon="0.0667">
        <ele>93.87</ele>
        <time>2010-10-31T09:04:55Z</time>
      </trkpt>
      <trkpt lat="47.36142" lon="0.06672">
        <ele>93.39</ele>
        <time>2010-10-31T09:04:56Z</time>
      </trkpt>
      <trkpt lat="47.36138" lon="0.06674">
        <ele>92.9</ele>
        <time>2010-10-31T09:04:57Z</time>
      </trkpt>
      <trkpt lat="47.36134" lon="0.06677">
        <ele>93.87</ele>
        <time>2010-10-31T09:04:58Z</time>
      </trkpt>
      <trkpt lat="47.3613" lon="0.06679">
        <ele>93.87</ele>
        <time>2010-10-31T09:04:59Z</time>
      </trkpt>
      <trkpt lat="47.36125" lon="0.06681">
        <ele>92.9</ele>
        <time>2010-10-31T09:05:00Z</time>
      </trkpt>
      <trkpt lat="47.36121" lon="0.06683">
        <ele>93.39</ele>
        <time>2010-10-31T09:05:01Z</time>
      </trkpt>
      <trkpt lat="47.36113" lon="0.06688">
        <ele>92.9</ele>
        <time>2010-10-31T09:05:03Z</time>
      </trkpt>
      <trkpt lat="47.36109" lon="0.0669">
        <ele>93.39</ele>
        <time>2010-10-31T09:05:04Z</time>
      </trkpt>
      <trkpt lat="47.36105" lon="0.06693">
        <ele>93.39</ele>
        <time>2010-10-31T09:05:05Z</time>
      </trkpt>
      <trkpt lat="47.36101" lon="0.06695">
        <ele>92.9</ele>
        <time>2010-10-31T09:05:06Z</time>
      </trkpt>
      <trkpt lat="47.36097" lon="0.06696">
        <ele>92.42</ele>
        <time>2010-10-31T09:05:07Z</time>
      </trkpt>
      <trkpt lat="47.36093" lon="0.06699">
        <ele>92.42</ele>
        <time>2010-10-31T09:05:08Z</time>
      </trkpt>
      <trkpt lat="47.36088" lon="0.06701">
        <ele>93.39</ele>
        <time>2010-10-31T09:05:09Z</time>
      </trkpt>
      <trkpt lat="47.36084" lon="0.06703">
        <ele>93.39</ele>
        <time>2010-10-31T09:05:10Z</time>
      </trkpt>
      <trkpt lat="47.36079" lon="0.06704">
        <ele>92.42</ele>
        <time>2010-10-31T09:05:11Z</time>
      </trkpt>
      <trkpt lat="47.3605" lon="0.06713">
        <ele>92.42</ele>
        <time>2010-10-31T09:05:17Z</time>
      </trkpt>
      <trkpt lat="47.36016" lon="0.06721">
        <ele>91.94</ele>
        <time>2010-10-31T09:05:24Z</time>
      </trkpt>
      <trkpt lat="47.36011" lon="0.06723">
        <ele>91.46</ele>
        <time>2010-10-31T09:05:25Z</time>
      </trkpt>
      <trkpt lat="47.36005" lon="0.06724">
        <ele>91.46</ele>
        <time>2010-10-31T09:05:26Z</time>
      </trkpt>
      <trkpt lat="47.35972" lon="0.06733">
        <ele>90.02</ele>
        <time>2010-10-31T09:05:32Z</time>
      </trkpt>
      <trkpt lat="47.35938" lon="0.06743">
        <ele>88.58</ele>
        <time>2010-10-31T09:05:38Z</time>
      </trkpt>
      <trkpt lat="47.35928" lon="0.06746">
        <ele>88.1</ele>
        <time>2010-10-31T09:05:40Z</time>
      </trkpt>
      <trkpt lat="47.35923" lon="0.06747">
        <ele>87.62</ele>
        <time>2010-10-31T09:05:41Z</time>
      </trkpt>
      <trkpt lat="47.35919" lon="0.06749">
        <ele>89.06</ele>
        <time>2010-10-31T09:05:42Z</time>
      </trkpt>
      <trkpt lat="47.35908" lon="0.06751">
        <ele>87.62</ele>
        <time>2010-10-31T09:05:45Z</time>
      </trkpt>
      <trkpt lat="47.35904" lon="0.06752">
        <ele>88.58</ele>
        <time>2010-10-31T09:05:46Z</time>
      </trkpt>
      <trkpt lat="47.359" lon="0.06753">
        <ele>88.58</ele>
        <time>2010-10-31T09:05:47Z</time>
      </trkpt>
      <trkpt lat="47.35884" lon="0.06757">
        <ele>89.06</ele>
        <time>2010-10-31T09:05:52Z</time>
      </trkpt>
      <trkpt lat="47.35883" lon="0.06756">
        <ele>88.58</ele>
        <time>2010-10-31T09:05:53Z</time>
      </trkpt>
      <trkpt lat="47.35881" lon="0.06752">
        <ele>89.06</ele>
        <time>2010-10-31T09:05:55Z</time>
      </trkpt>
      <trkpt lat="47.3588" lon="0.06752">
        <ele>89.06</ele>
        <time>2010-10-31T09:05:56Z</time>
      </trkpt>
      <trkpt lat="47.35878" lon="0.06752">
        <ele>88.58</ele>
        <time>2010-10-31T09:05:57Z</time>
      </trkpt>
      <trkpt lat="47.35876" lon="0.06753">
        <ele>88.58</ele>
        <time>2010-10-31T09:05:58Z</time>
      </trkpt>
      <trkpt lat="47.35873" lon="0.06753">
        <ele>90.02</ele>
        <time>2010-10-31T09:05:59Z</time>
      </trkpt>
      <trkpt lat="47.3587" lon="0.06752">
        <ele>88.58</ele>
        <time>2010-10-31T09:06:00Z</time>
      </trkpt>
      <trkpt lat="47.35866" lon="0.06752">
        <ele>89.06</ele>
        <time>2010-10-31T09:06:01Z</time>
      </trkpt>
      <trkpt lat="47.35863" lon="0.06751">
        <ele>89.54</ele>
        <time>2010-10-31T09:06:02Z</time>
      </trkpt>
      <trkpt lat="47.35852" lon="0.06744">
        <ele>88.58</ele>
        <time>2010-10-31T09:06:07Z</time>
      </trkpt>
      <trkpt lat="47.35849" lon="0.06743">
        <ele>88.58</ele>
        <time>2010-10-31T09:06:08Z</time>
      </trkpt>
      <trkpt lat="47.35846" lon="0.06741">
        <ele>88.1</ele>
        <time>2010-10-31T09:06:09Z</time>
      </trkpt>
      <trkpt lat="47.35844" lon="0.0674">
        <ele>88.1</ele>
        <time>2010-10-31T09:06:10Z</time>
      </trkpt>
      <trkpt lat="47.35842" lon="0.06738">
        <ele>87.62</ele>
        <time>2010-10-31T09:06:11Z</time>
      </trkpt>
      <trkpt lat="47.3584" lon="0.06736">
        <ele>87.62</ele>
        <time>2010-10-31T09:06:12Z</time>
      </trkpt>
      <trkpt lat="47.35838" lon="0.06734">
        <ele>88.1</ele>
        <time>2010-10-31T09:06:13Z</time>
      </trkpt>
      <trkpt lat="47.35837" lon="0.06732">
        <ele>88.58</ele>
        <time>2010-10-31T09:06:14Z</time>
      </trkpt>
      <trkpt lat="47.35835" lon="0.0673">
        <ele>88.58</ele>
        <time>2010-10-31T09:06:15Z</time>
      </trkpt>
      <trkpt lat="47.35832" lon="0.06728">
        <ele>88.1</ele>
        <time>2010-10-31T09:06:16Z</time>
      </trkpt>
      <trkpt lat="47.3583" lon="0.06726">
        <ele>88.1</ele>
        <time>2010-10-31T09:06:17Z</time>
      </trkpt>
      <trkpt lat="47.35814" lon="0.0671">
        <ele>87.14</ele>
        <time>2010-10-31T09:06:22Z</time>
      </trkpt>
      <trkpt lat="47.35807" lon="0.06697">
        <ele>87.14</ele>
        <time>2010-10-31T09:06:27Z</time>
      </trkpt>
      <trkpt lat="47.35802" lon="0.06689">
        <ele>87.14</ele>
        <time>2010-10-31T09:06:30Z</time>
      </trkpt>
      <trkpt lat="47.35801" lon="0.06685">
        <ele>87.14</ele>
        <time>2010-10-31T09:06:31Z</time>
      </trkpt>
      <trkpt lat="47.35799" lon="0.06681">
        <ele>88.58</ele>
        <time>2010-10-31T09:06:32Z</time>
      </trkpt>
      <trkpt lat="47.35793" lon="0.0667">
        <ele>87.14</ele>
        <time>2010-10-31T09:06:35Z</time>
      </trkpt>
      <trkpt lat="47.35788" lon="0.06665">
        <ele>87.14</ele>
        <time>2010-10-31T09:06:37Z</time>
      </trkpt>
      <trkpt lat="47.35776" lon="0.06675">
        <ele>86.18</ele>
        <time>2010-10-31T09:06:42Z</time>
      </trkpt>
      <trkpt lat="47.35757" lon="0.06697">
        <ele>83.77</ele>
        <time>2010-10-31T09:06:51Z</time>
      </trkpt>
      <trkpt lat="47.35747" lon="0.06709">
        <ele>82.81</ele>
        <time>2010-10-31T09:06:56Z</time>
      </trkpt>
      <trkpt lat="47.35745" lon="0.0671">
        <ele>81.85</ele>
        <time>2010-10-31T09:06:57Z</time>
      </trkpt>
      <trkpt lat="47.35737" lon="0.06712">
        <ele>80.89</ele>
        <time>2010-10-31T09:07:01Z</time>
      </trkpt>
      <trkpt lat="47.35734" lon="0.06711">
        <ele>80.89</ele>
        <time>2010-10-31T09:07:02Z</time>
      </trkpt>
      <trkpt lat="47.35726" lon="0.06706">
        <ele>81.37</ele>
        <time>2010-10-31T09:07:05Z</time>
      </trkpt>
      <trkpt lat="47.35722" lon="0.06703">
        <ele>79.93</ele>
        <time>2010-10-31T09:07:06Z</time>
      </trkpt>
      <trkpt lat="47.35716" lon="0.067">
        <ele>80.41</ele>
        <time>2010-10-31T09:07:07Z</time>
      </trkpt>
      <trkpt lat="47.35711" lon="0.06697">
        <ele>79.93</ele>
        <time>2010-10-31T09:07:08Z</time>
      </trkpt>
      <trkpt lat="47.35706" lon="0.06694">
        <ele>78.97</ele>
        <time>2010-10-31T09:07:09Z</time>
      </trkpt>
      <trkpt lat="47.35701" lon="0.06691">
        <ele>78.48</ele>
        <time>2010-10-31T09:07:10Z</time>
      </trkpt>
      <trkpt lat="47.35682" lon="0.06679">
        <ele>78</ele>
        <time>2010-10-31T09:07:14Z</time>
      </trkpt>
      <trkpt lat="47.35677" lon="0.06677">
        <ele>77.52</ele>
        <time>2010-10-31T09:07:15Z</time>
      </trkpt>
      <trkpt lat="47.35673" lon="0.06675">
        <ele>77.04</ele>
        <time>2010-10-31T09:07:16Z</time>
      </trkpt>
      <trkpt lat="47.35668" lon="0.06673">
        <ele>77.04</ele>
        <time>2010-10-31T09:07:17Z</time>
      </trkpt>
      <trkpt lat="47.35663" lon="0.06669">
        <ele>76.56</ele>
        <time>2010-10-31T09:07:18Z</time>
      </trkpt>
      <trkpt lat="47.35658" lon="0.06667">
        <ele>77.04</ele>
        <time>2010-10-31T09:07:19Z</time>
      </trkpt>
      <trkpt lat="47.35648" lon="0.06663">
        <ele>76.08</ele>
        <time>2010-10-31T09:07:21Z</time>
      </trkpt>
      <trkpt lat="47.35644" lon="0.06661">
        <ele>75.12</ele>
        <time>2010-10-31T09:07:22Z</time>
      </trkpt>
      <trkpt lat="47.3564" lon="0.06658">
        <ele>75.6</ele>
        <time>2010-10-31T09:07:23Z</time>
      </trkpt>
      <trkpt lat="47.35635" lon="0.06655">
        <ele>74.64</ele>
        <time>2010-10-31T09:07:24Z</time>
      </trkpt>
      <trkpt lat="47.35625" lon="0.06645">
        <ele>75.12</ele>
        <time>2010-10-31T09:07:27Z</time>
      </trkpt>
      <trkpt lat="47.35603" lon="0.06611">
        <ele>75.12</ele>
        <time>2010-10-31T09:07:33Z</time>
      </trkpt>
      <trkpt lat="47.35585" lon="0.06574">
        <ele>74.16</ele>
        <time>2010-10-31T09:07:40Z</time>
      </trkpt>
      <trkpt lat="47.35572" lon="0.06553">
        <ele>75.12</ele>
        <time>2010-10-31T09:07:44Z</time>
      </trkpt>
      <trkpt lat="47.35558" lon="0.06523">
        <ele>73.2</ele>
        <time>2010-10-31T09:07:49Z</time>
      </trkpt>
      <trkpt lat="47.35538" lon="0.06485">
        <ele>73.2</ele>
        <time>2010-10-31T09:07:56Z</time>
      </trkpt>
      <trkpt lat="47.35526" lon="0.0647">
        <ele>72.72</ele>
        <time>2010-10-31T09:08:00Z</time>
      </trkpt>
      <trkpt lat="47.35514" lon="0.06446">
        <ele>70.79</ele>
        <time>2010-10-31T09:08:05Z</time>
      </trkpt>
      <trkpt lat="47.35507" lon="0.06431">
        <ele>69.35</ele>
        <time>2010-10-31T09:08:09Z</time>
      </trkpt>
      <trkpt lat="47.35505" lon="0.06428">
        <ele>68.39</ele>
        <time>2010-10-31T09:08:11Z</time>
      </trkpt>
      <trkpt lat="47.35497" lon="0.06416">
        <ele>67.43</ele>
        <time>2010-10-31T09:08:17Z</time>
      </trkpt>
      <trkpt lat="47.35497" lon="0.06416">
        <ele>67.43</ele>
        <time>2010-10-31T09:08:41Z</time>
      </trkpt>
      <trkpt lat="47.35497" lon="0.06415">
        <ele>66.95</ele>
        <time>2010-10-31T09:09:21Z</time>
      </trkpt>
      <trkpt lat="47.35497" lon="0.06415">
        <ele>63.58</ele>
        <time>2010-10-31T09:09:48Z</time>
      </trkpt>
      <trkpt lat="47.35497" lon="0.06415">
        <ele>67.43</ele>
        <time>2010-10-31T09:09:50Z</time>
      </trkpt>
      <trkpt lat="47.35497" lon="0.06415">
        <ele>67.91</ele>
        <time>2010-10-31T09:10:04Z</time>
      </trkpt>
      <trkpt lat="47.35495" lon="0.06412">
        <ele>65.99</ele>
        <time>2010-10-31T09:10:19Z</time>
      </trkpt>
      <trkpt lat="47.35491" lon="0.06409">
        <ele>66.47</ele>
        <time>2010-10-31T09:10:26Z</time>
      </trkpt>
      <trkpt lat="47.35488" lon="0.06409">
        <ele>66.47</ele>
        <time>2010-10-31T09:10:40Z</time>
      </trkpt>
      <trkpt lat="47.3547" lon="0.06425">
        <ele>64.55</ele>
        <time>2010-10-31T09:10:48Z</time>
      </trkpt>
      <trkpt lat="47.3544" lon="0.06446">
        <ele>64.07</ele>
        <time>2010-10-31T09:10:55Z</time>
      </trkpt>
      <trkpt lat="47.35417" lon="0.06464">
        <ele>63.58</ele>
        <time>2010-10-31T09:11:00Z</time>
      </trkpt>
      <trkpt lat="47.35409" lon="0.0647">
        <ele>62.14</ele>
        <time>2010-10-31T09:11:02Z</time>
      </trkpt>
      <trkpt lat="47.35393" lon="0.06486">
        <ele>61.18</ele>
        <time>2010-10-31T09:11:06Z</time>
      </trkpt>
      <trkpt lat="47.35388" lon="0.06489">
        <ele>61.18</ele>
        <time>2010-10-31T09:11:07Z</time>
      </trkpt>
      <trkpt lat="47.35378" lon="0.06497">
        <ele>59.74</ele>
        <time>2010-10-31T09:11:09Z</time>
      </trkpt>
      <trkpt lat="47.35366" lon="0.06511">
        <ele>61.66</ele>
        <time>2010-10-31T09:11:13Z</time>
      </trkpt>
      <trkpt lat="47.35347" lon="0.06526">
        <ele>60.7</ele>
        <time>2010-10-31T09:11:19Z</time>
      </trkpt>
      <trkpt lat="47.35326" lon="0.06545">
        <ele>60.22</ele>
        <time>2010-10-31T09:11:25Z</time>
      </trkpt>
      <trkpt lat="47.35308" lon="0.06561">
        <ele>61.18</ele>
        <time>2010-10-31T09:11:31Z</time>
      </trkpt>
      <trkpt lat="47.35291" lon="0.06574">
        <ele>60.7</ele>
        <time>2010-10-31T09:11:36Z</time>
      </trkpt>
      <trkpt lat="47.35278" lon="0.06596">
        <ele>62.14</ele>
        <time>2010-10-31T09:11:42Z</time>
      </trkpt>
      <trkpt lat="47.35268" lon="0.06607">
        <ele>61.18</ele>
        <time>2010-10-31T09:11:47Z</time>
      </trkpt>
      <trkpt lat="47.35266" lon="0.0662">
        <ele>61.18</ele>
        <time>2010-10-31T09:11:51Z</time>
      </trkpt>
      <trkpt lat="47.35268" lon="0.06623">
        <ele>61.66</ele>
        <time>2010-10-31T09:11:52Z</time>
      </trkpt>
      <trkpt lat="47.3528" lon="0.06643">
        <ele>61.66</ele>
        <time>2010-10-31T09:11:58Z</time>
      </trkpt>
      <trkpt lat="47.35291" lon="0.06659">
        <ele>61.18</ele>
        <time>2010-10-31T09:12:02Z</time>
      </trkpt>
      <trkpt lat="47.35301" lon="0.06671">
        <ele>61.66</ele>
        <time>2010-10-31T09:12:05Z</time>
      </trkpt>
      <trkpt lat="47.35305" lon="0.06675">
        <ele>61.66</ele>
        <time>2010-10-31T09:12:06Z</time>
      </trkpt>
      <trkpt lat="47.35318" lon="0.06696">
        <ele>61.66</ele>
        <time>2010-10-31T09:12:11Z</time>
      </trkpt>
      <trkpt lat="47.35323" lon="0.06705">
        <ele>62.14</ele>
        <time>2010-10-31T09:12:13Z</time>
      </trkpt>
      <trkpt lat="47.35326" lon="0.06709">
        <ele>62.62</ele>
        <time>2010-10-31T09:12:14Z</time>
      </trkpt>
      <trkpt lat="47.3533" lon="0.06718">
        <ele>62.14</ele>
        <time>2010-10-31T09:12:16Z</time>
      </trkpt>
      <trkpt lat="47.3533" lon="0.06722">
        <ele>62.14</ele>
        <time>2010-10-31T09:12:17Z</time>
      </trkpt>
      <trkpt lat="47.35339" lon="0.06743">
        <ele>63.1</ele>
        <time>2010-10-31T09:12:22Z</time>
      </trkpt>
      <trkpt lat="47.35346" lon="0.06766">
        <ele>63.58</ele>
        <time>2010-10-31T09:12:27Z</time>
      </trkpt>
      <trkpt lat="47.35354" lon="0.06782">
        <ele>63.58</ele>
        <time>2010-10-31T09:12:30Z</time>
      </trkpt>
      <trkpt lat="47.35357" lon="0.06788">
        <ele>62.62</ele>
        <time>2010-10-31T09:12:31Z</time>
      </trkpt>
      <trkpt lat="47.35365" lon="0.06807">
        <ele>61.66</ele>
        <time>2010-10-31T09:12:34Z</time>
      </trkpt>
      <trkpt lat="47.35371" lon="0.06819">
        <ele>61.66</ele>
        <time>2010-10-31T09:12:36Z</time>
      </trkpt>
      <trkpt lat="47.35397" lon="0.06867">
        <ele>61.66</ele>
        <time>2010-10-31T09:12:45Z</time>
      </trkpt>
      <trkpt lat="47.35415" lon="0.069">
        <ele>62.14</ele>
        <time>2010-10-31T09:12:51Z</time>
      </trkpt>
      <trkpt lat="47.35421" lon="0.06911">
        <ele>63.1</ele>
        <time>2010-10-31T09:12:53Z</time>
      </trkpt>
      <trkpt lat="47.35433" lon="0.06935">
        <ele>63.58</ele>
        <time>2010-10-31T09:12:57Z</time>
      </trkpt>
      <trkpt lat="47.35435" lon="0.06941">
        <ele>63.1</ele>
        <time>2010-10-31T09:12:58Z</time>
      </trkpt>
      <trkpt lat="47.35437" lon="0.06947">
        <ele>63.1</ele>
        <time>2010-10-31T09:12:59Z</time>
      </trkpt>
      <trkpt lat="47.35443" lon="0.06957">
        <ele>63.58</ele>
        <time>2010-10-31T09:13:01Z</time>
      </trkpt>
      <trkpt lat="47.35446" lon="0.06963">
        <ele>63.58</ele>
        <time>2010-10-31T09:13:02Z</time>
      </trkpt>
      <trkpt lat="47.35454" lon="0.06981">
        <ele>63.58</ele>
        <time>2010-10-31T09:13:05Z</time>
      </trkpt>
      <trkpt lat="47.35456" lon="0.06988">
        <ele>64.07</ele>
        <time>2010-10-31T09:13:06Z</time>
      </trkpt>
      <trkpt lat="47.35459" lon="0.06994">
        <ele>64.07</ele>
        <time>2010-10-31T09:13:07Z</time>
      </trkpt>
      <trkpt lat="47.35475" lon="0.07043">
        <ele>64.55</ele>
        <time>2010-10-31T09:13:14Z</time>
      </trkpt>
      <trkpt lat="47.35477" lon="0.07049">
        <ele>64.07</ele>
        <time>2010-10-31T09:13:15Z</time>
      </trkpt>
      <trkpt lat="47.35479" lon="0.07056">
        <ele>64.07</ele>
        <time>2010-10-31T09:13:16Z</time>
      </trkpt>
      <trkpt lat="47.35481" lon="0.07063">
        <ele>63.58</ele>
        <time>2010-10-31T09:13:17Z</time>
      </trkpt>
      <trkpt lat="47.35482" lon="0.07071">
        <ele>63.58</ele>
        <time>2010-10-31T09:13:18Z</time>
      </trkpt>
      <trkpt lat="47.35483" lon="0.07079">
        <ele>64.07</ele>
        <time>2010-10-31T09:13:19Z</time>
      </trkpt>
      <trkpt lat="47.35491" lon="0.07141">
        <ele>64.55</ele>
        <time>2010-10-31T09:13:27Z</time>
      </trkpt>
      <trkpt lat="47.35493" lon="0.07148">
        <ele>64.07</ele>
        <time>2010-10-31T09:13:28Z</time>
      </trkpt>
      <trkpt lat="47.35496" lon="0.07155">
        <ele>64.07</ele>
        <time>2010-10-31T09:13:29Z</time>
      </trkpt>
      <trkpt lat="47.35498" lon="0.07162">
        <ele>64.07</ele>
        <time>2010-10-31T09:13:30Z</time>
      </trkpt>
      <trkpt lat="47.355" lon="0.0717">
        <ele>64.55</ele>
        <time>2010-10-31T09:13:31Z</time>
      </trkpt>
      <trkpt lat="47.35507" lon="0.07191">
        <ele>64.07</ele>
        <time>2010-10-31T09:13:34Z</time>
      </trkpt>
      <trkpt lat="47.35509" lon="0.07199">
        <ele>64.55</ele>
        <time>2010-10-31T09:13:35Z</time>
      </trkpt>
      <trkpt lat="47.35511" lon="0.07206">
        <ele>64.55</ele>
        <time>2010-10-31T09:13:36Z</time>
      </trkpt>
      <trkpt lat="47.35518" lon="0.07228">
        <ele>65.03</ele>
        <time>2010-10-31T09:13:39Z</time>
      </trkpt>
      <trkpt lat="47.35521" lon="0.07235">
        <ele>65.03</ele>
        <time>2010-10-31T09:13:40Z</time>
      </trkpt>
      <trkpt lat="47.35523" lon="0.07242">
        <ele>65.51</ele>
        <time>2010-10-31T09:13:41Z</time>
      </trkpt>
      <trkpt lat="47.35533" lon="0.07276">
        <ele>64.55</ele>
        <time>2010-10-31T09:13:46Z</time>
      </trkpt>
      <trkpt lat="47.35536" lon="0.07283">
        <ele>64.55</ele>
        <time>2010-10-31T09:13:47Z</time>
      </trkpt>
      <trkpt lat="47.35551" lon="0.07318">
        <ele>64.07</ele>
        <time>2010-10-31T09:13:53Z</time>
      </trkpt>
      <trkpt lat="47.35578" lon="0.07355">
        <ele>65.51</ele>
        <time>2010-10-31T09:14:00Z</time>
      </trkpt>
      <trkpt lat="47.35581" lon="0.0736">
        <ele>65.99</ele>
        <time>2010-10-31T09:14:01Z</time>
      </trkpt>
      <trkpt lat="47.35608" lon="0.07397">
        <ele>65.99</ele>
        <time>2010-10-31T09:14:08Z</time>
      </trkpt>
      <trkpt lat="47.35621" lon="0.07422">
        <ele>67.91</ele>
        <time>2010-10-31T09:14:13Z</time>
      </trkpt>
      <trkpt lat="47.35627" lon="0.07433">
        <ele>67.43</ele>
        <time>2010-10-31T09:14:15Z</time>
      </trkpt>
      <trkpt lat="47.35629" lon="0.07438">
        <ele>68.39</ele>
        <time>2010-10-31T09:14:16Z</time>
      </trkpt>
      <trkpt lat="47.35638" lon="0.07457">
        <ele>68.87</ele>
        <time>2010-10-31T09:14:20Z</time>
      </trkpt>
      <trkpt lat="47.35641" lon="0.07463">
        <ele>69.35</ele>
        <time>2010-10-31T09:14:21Z</time>
      </trkpt>
      <trkpt lat="47.35649" lon="0.0748">
        <ele>69.35</ele>
        <time>2010-10-31T09:14:24Z</time>
      </trkpt>
      <trkpt lat="47.35652" lon="0.07485">
        <ele>68.87</ele>
        <time>2010-10-31T09:14:25Z</time>
      </trkpt>
      <trkpt lat="47.35664" lon="0.07518">
        <ele>68.87</ele>
        <time>2010-10-31T09:14:31Z</time>
      </trkpt>
      <trkpt lat="47.3567" lon="0.07535">
        <ele>69.35</ele>
        <time>2010-10-31T09:14:34Z</time>
      </trkpt>
      <trkpt lat="47.35672" lon="0.0754">
        <ele>69.83</ele>
        <time>2010-10-31T09:14:35Z</time>
      </trkpt>
      <trkpt lat="47.35674" lon="0.07546">
        <ele>70.31</ele>
        <time>2010-10-31T09:14:36Z</time>
      </trkpt>
      <trkpt lat="47.3568" lon="0.07559">
        <ele>69.83</ele>
        <time>2010-10-31T09:14:38Z</time>
      </trkpt>
      <trkpt lat="47.35684" lon="0.07571">
        <ele>69.83</ele>
        <time>2010-10-31T09:14:40Z</time>
      </trkpt>
      <trkpt lat="47.3569" lon="0.07582">
        <ele>69.83</ele>
        <time>2010-10-31T09:14:42Z</time>
      </trkpt>
      <trkpt lat="47.35692" lon="0.07588">
        <ele>69.35</ele>
        <time>2010-10-31T09:14:43Z</time>
      </trkpt>
      <trkpt lat="47.35695" lon="0.07594">
        <ele>69.83</ele>
        <time>2010-10-31T09:14:44Z</time>
      </trkpt>
      <trkpt lat="47.35714" lon="0.07633">
        <ele>71.27</ele>
        <time>2010-10-31T09:14:51Z</time>
      </trkpt>
      <trkpt lat="47.35719" lon="0.07645">
        <ele>70.79</ele>
        <time>2010-10-31T09:14:53Z</time>
      </trkpt>
      <trkpt lat="47.35731" lon="0.077">
        <ele>72.72</ele>
        <time>2010-10-31T09:15:02Z</time>
      </trkpt>
      <trkpt lat="47.35734" lon="0.07711">
        <ele>72.72</ele>
        <time>2010-10-31T09:15:04Z</time>
      </trkpt>
      <trkpt lat="47.3574" lon="0.07742">
        <ele>73.68</ele>
        <time>2010-10-31T09:15:10Z</time>
      </trkpt>
      <trkpt lat="47.35744" lon="0.07764">
        <ele>74.16</ele>
        <time>2010-10-31T09:15:16Z</time>
      </trkpt>
      <trkpt lat="47.35744" lon="0.07769">
        <ele>74.16</ele>
        <time>2010-10-31T09:15:18Z</time>
      </trkpt>
      <trkpt lat="47.35745" lon="0.07771">
        <ele>74.64</ele>
        <time>2010-10-31T09:15:19Z</time>
      </trkpt>
      <trkpt lat="47.35746" lon="0.07773">
        <ele>74.64</ele>
        <time>2010-10-31T09:15:20Z</time>
      </trkpt>
      <trkpt lat="47.35747" lon="0.07775">
        <ele>74.16</ele>
        <time>2010-10-31T09:15:21Z</time>
      </trkpt>
      <trkpt lat="47.35748" lon="0.07777">
        <ele>75.6</ele>
        <time>2010-10-31T09:15:22Z</time>
      </trkpt>
      <trkpt lat="47.3575" lon="0.07779">
        <ele>75.12</ele>
        <time>2010-10-31T09:15:23Z</time>
      </trkpt>
      <trkpt lat="47.35751" lon="0.07781">
        <ele>75.12</ele>
        <time>2010-10-31T09:15:24Z</time>
      </trkpt>
      <trkpt lat="47.35751" lon="0.07783">
        <ele>74.16</ele>
        <time>2010-10-31T09:15:25Z</time>
      </trkpt>
      <trkpt lat="47.35752" lon="0.07786">
        <ele>74.64</ele>
        <time>2010-10-31T09:15:26Z</time>
      </trkpt>
      <trkpt lat="47.35752" lon="0.07789">
        <ele>75.12</ele>
        <time>2010-10-31T09:15:31Z</time>
      </trkpt>
      <trkpt lat="47.35759" lon="0.07801">
        <ele>74.16</ele>
        <time>2010-10-31T09:15:58Z</time>
      </trkpt>
      <trkpt lat="47.35775" lon="0.07826">
        <ele>73.2</ele>
        <time>2010-10-31T09:16:03Z</time>
      </trkpt>
      <trkpt lat="47.3578" lon="0.07837">
        <ele>73.2</ele>
        <time>2010-10-31T09:16:05Z</time>
      </trkpt>
      <trkpt lat="47.35803" lon="0.07878">
        <ele>74.16</ele>
        <time>2010-10-31T09:16:13Z</time>
      </trkpt>
      <trkpt lat="47.35812" lon="0.07893">
        <ele>73.68</ele>
        <time>2010-10-31T09:16:16Z</time>
      </trkpt>
      <trkpt lat="47.35815" lon="0.07899">
        <ele>74.16</ele>
        <time>2010-10-31T09:16:17Z</time>
      </trkpt>
      <trkpt lat="47.35818" lon="0.07904">
        <ele>74.16</ele>
        <time>2010-10-31T09:16:18Z</time>
      </trkpt>
      <trkpt lat="47.35841" lon="0.07944">
        <ele>74.16</ele>
        <time>2010-10-31T09:16:26Z</time>
      </trkpt>
      <trkpt lat="47.35866" lon="0.07988">
        <ele>75.6</ele>
        <time>2010-10-31T09:16:35Z</time>
      </trkpt>
      <trkpt lat="47.3588" lon="0.08012">
        <ele>75.6</ele>
        <time>2010-10-31T09:16:41Z</time>
      </trkpt>
      <trkpt lat="47.35895" lon="0.0804">
        <ele>76.56</ele>
        <time>2010-10-31T09:16:48Z</time>
      </trkpt>
      <trkpt lat="47.35916" lon="0.08075">
        <ele>76.56</ele>
        <time>2010-10-31T09:16:57Z</time>
      </trkpt>
      <trkpt lat="47.35938" lon="0.08099">
        <ele>77.52</ele>
        <time>2010-10-31T09:17:04Z</time>
      </trkpt>
      <trkpt lat="47.35955" lon="0.0812">
        <ele>77.04</ele>
        <time>2010-10-31T09:17:10Z</time>
      </trkpt>
      <trkpt lat="47.35972" lon="0.08146">
        <ele>78.48</ele>
        <time>2010-10-31T09:17:17Z</time>
      </trkpt>
      <trkpt lat="47.35988" lon="0.08172">
        <ele>78</ele>
        <time>2010-10-31T09:17:24Z</time>
      </trkpt>
      <trkpt lat="47.36008" lon="0.08204">
        <ele>78.97</ele>
        <time>2010-10-31T09:17:32Z</time>
      </trkpt>
      <trkpt lat="47.36033" lon="0.08242">
        <ele>79.93</ele>
        <time>2010-10-31T09:17:42Z</time>
      </trkpt>
      <trkpt lat="47.36048" lon="0.08266">
        <ele>79.93</ele>
        <time>2010-10-31T09:17:48Z</time>
      </trkpt>
      <trkpt lat="47.36068" lon="0.08304">
        <ele>80.41</ele>
        <time>2010-10-31T09:17:57Z</time>
      </trkpt>
      <trkpt lat="47.36081" lon="0.08337">
        <ele>81.37</ele>
        <time>2010-10-31T09:18:04Z</time>
      </trkpt>
      <trkpt lat="47.36093" lon="0.08378">
        <ele>81.37</ele>
        <time>2010-10-31T09:18:12Z</time>
      </trkpt>
      <trkpt lat="47.36098" lon="0.08399">
        <ele>82.33</ele>
        <time>2010-10-31T09:18:16Z</time>
      </trkpt>
      <trkpt lat="47.36104" lon="0.08429">
        <ele>82.81</ele>
        <time>2010-10-31T09:18:22Z</time>
      </trkpt>
      <trkpt lat="47.3611" lon="0.08466">
        <ele>82.81</ele>
        <time>2010-10-31T09:18:29Z</time>
      </trkpt>
      <trkpt lat="47.36113" lon="0.08501">
        <ele>83.29</ele>
        <time>2010-10-31T09:18:35Z</time>
      </trkpt>
      <trkpt lat="47.36109" lon="0.08546">
        <ele>83.77</ele>
        <time>2010-10-31T09:18:43Z</time>
      </trkpt>
      <trkpt lat="47.36097" lon="0.08567">
        <ele>83.77</ele>
        <time>2010-10-31T09:18:49Z</time>
      </trkpt>
      <trkpt lat="47.3608" lon="0.08576">
        <ele>84.73</ele>
        <time>2010-10-31T09:18:54Z</time>
      </trkpt>
      <trkpt lat="47.36059" lon="0.08587">
        <ele>83.77</ele>
        <time>2010-10-31T09:19:00Z</time>
      </trkpt>
      <trkpt lat="47.36021" lon="0.08602">
        <ele>84.73</ele>
        <time>2010-10-31T09:19:10Z</time>
      </trkpt>
      <trkpt lat="47.36002" lon="0.08607">
        <ele>86.18</ele>
        <time>2010-10-31T09:19:16Z</time>
      </trkpt>
      <trkpt lat="47.3599" lon="0.08599">
        <ele>86.18</ele>
        <time>2010-10-31T09:19:21Z</time>
      </trkpt>
      <trkpt lat="47.35978" lon="0.0858">
        <ele>87.62</ele>
        <time>2010-10-31T09:19:27Z</time>
      </trkpt>
      <trkpt lat="47.35964" lon="0.08565">
        <ele>88.1</ele>
        <time>2010-10-31T09:19:33Z</time>
      </trkpt>
      <trkpt lat="47.35961" lon="0.08565">
        <ele>88.58</ele>
        <time>2010-10-31T09:19:34Z</time>
      </trkpt>
      <trkpt lat="47.35959" lon="0.08566">
        <ele>89.06</ele>
        <time>2010-10-31T09:19:35Z</time>
      </trkpt>
      <trkpt lat="47.35955" lon="0.08567">
        <ele>88.58</ele>
        <time>2010-10-31T09:19:36Z</time>
      </trkpt>
      <trkpt lat="47.35952" lon="0.08569">
        <ele>88.58</ele>
        <time>2010-10-31T09:19:37Z</time>
      </trkpt>
      <trkpt lat="47.35949" lon="0.08571">
        <ele>89.06</ele>
        <time>2010-10-31T09:19:38Z</time>
      </trkpt>
      <trkpt lat="47.35946" lon="0.08574">
        <ele>89.06</ele>
        <time>2010-10-31T09:19:39Z</time>
      </trkpt>
      <trkpt lat="47.35924" lon="0.08598">
        <ele>90.5</ele>
        <time>2010-10-31T09:19:47Z</time>
      </trkpt>
      <trkpt lat="47.35897" lon="0.08624">
        <ele>91.46</ele>
        <time>2010-10-31T09:19:56Z</time>
      </trkpt>
      <trkpt lat="47.35877" lon="0.08643">
        <ele>91.94</ele>
        <time>2010-10-31T09:20:03Z</time>
      </trkpt>
      <trkpt lat="47.35869" lon="0.08651">
        <ele>92.9</ele>
        <time>2010-10-31T09:20:06Z</time>
      </trkpt>
      <trkpt lat="47.35849" lon="0.08668">
        <ele>93.87</ele>
        <time>2010-10-31T09:20:13Z</time>
      </trkpt>
      <trkpt lat="47.35829" lon="0.08686">
        <ele>95.31</ele>
        <time>2010-10-31T09:20:20Z</time>
      </trkpt>
      <trkpt lat="47.35807" lon="0.08709">
        <ele>97.23</ele>
        <time>2010-10-31T09:20:29Z</time>
      </trkpt>
      <trkpt lat="47.35804" lon="0.08733">
        <ele>97.23</ele>
        <time>2010-10-31T09:20:35Z</time>
      </trkpt>
      <trkpt lat="47.3581" lon="0.08772">
        <ele>96.75</ele>
        <time>2010-10-31T09:20:44Z</time>
      </trkpt>
      <trkpt lat="47.35812" lon="0.08801">
        <ele>97.23</ele>
        <time>2010-10-31T09:20:50Z</time>
      </trkpt>
      <trkpt lat="47.35805" lon="0.08827">
        <ele>96.27</ele>
        <time>2010-10-31T09:20:55Z</time>
      </trkpt>
      <trkpt lat="47.35786" lon="0.08861">
        <ele>97.71</ele>
        <time>2010-10-31T09:21:03Z</time>
      </trkpt>
      <trkpt lat="47.35764" lon="0.08897">
        <ele>97.71</ele>
        <time>2010-10-31T09:21:11Z</time>
      </trkpt>
      <trkpt lat="47.35739" lon="0.08939">
        <ele>99.63</ele>
        <time>2010-10-31T09:21:20Z</time>
      </trkpt>
      <trkpt lat="47.35724" lon="0.08973">
        <ele>99.15</ele>
        <time>2010-10-31T09:21:26Z</time>
      </trkpt>
      <trkpt lat="47.35719" lon="0.08985">
        <ele>99.63</ele>
        <time>2010-10-31T09:21:28Z</time>
      </trkpt>
      <trkpt lat="47.35718" lon="0.08992">
        <ele>99.63</ele>
        <time>2010-10-31T09:21:29Z</time>
      </trkpt>
      <trkpt lat="47.35717" lon="0.08999">
        <ele>99.63</ele>
        <time>2010-10-31T09:21:30Z</time>
      </trkpt>
      <trkpt lat="47.35714" lon="0.09038">
        <ele>100.11</ele>
        <time>2010-10-31T09:21:36Z</time>
      </trkpt>
      <trkpt lat="47.35712" lon="0.09059">
        <ele>100.6</ele>
        <time>2010-10-31T09:21:39Z</time>
      </trkpt>
      <trkpt lat="47.35711" lon="0.09066">
        <ele>100.6</ele>
        <time>2010-10-31T09:21:40Z</time>
      </trkpt>
      <trkpt lat="47.35708" lon="0.09125">
        <ele>100.11</ele>
        <time>2010-10-31T09:21:48Z</time>
      </trkpt>
      <trkpt lat="47.35708" lon="0.0916">
        <ele>101.08</ele>
        <time>2010-10-31T09:21:53Z</time>
      </trkpt>
      <trkpt lat="47.35709" lon="0.09203">
        <ele>101.56</ele>
        <time>2010-10-31T09:21:59Z</time>
      </trkpt>
      <trkpt lat="47.35709" lon="0.0921">
        <ele>101.08</ele>
        <time>2010-10-31T09:22:00Z</time>
      </trkpt>
      <trkpt lat="47.3571" lon="0.09224">
        <ele>102.04</ele>
        <time>2010-10-31T09:22:02Z</time>
      </trkpt>
      <trkpt lat="47.35709" lon="0.09231">
        <ele>102.04</ele>
        <time>2010-10-31T09:22:03Z</time>
      </trkpt>
      <trkpt lat="47.3571" lon="0.09238">
        <ele>102.04</ele>
        <time>2010-10-31T09:22:04Z</time>
      </trkpt>
      <trkpt lat="47.3571" lon="0.09245">
        <ele>102.04</ele>
        <time>2010-10-31T09:22:05Z</time>
      </trkpt>
      <trkpt lat="47.35711" lon="0.09252">
        <ele>102.04</ele>
        <time>2010-10-31T09:22:06Z</time>
      </trkpt>
      <trkpt lat="47.35711" lon="0.09259">
        <ele>102.52</ele>
        <time>2010-10-31T09:22:07Z</time>
      </trkpt>
      <trkpt lat="47.35711" lon="0.09297">
        <ele>103</ele>
        <time>2010-10-31T09:22:12Z</time>
      </trkpt>
      <trkpt lat="47.3571" lon="0.09319">
        <ele>102.04</ele>
        <time>2010-10-31T09:22:15Z</time>
      </trkpt>
      <trkpt lat="47.3571" lon="0.09326">
        <ele>102.04</ele>
        <time>2010-10-31T09:22:16Z</time>
      </trkpt>
      <trkpt lat="47.35709" lon="0.09375">
        <ele>103.48</ele>
        <time>2010-10-31T09:22:23Z</time>
      </trkpt>
      <trkpt lat="47.35709" lon="0.09383">
        <ele>103.48</ele>
        <time>2010-10-31T09:22:24Z</time>
      </trkpt>
      <trkpt lat="47.35708" lon="0.09396">
        <ele>103.48</ele>
        <time>2010-10-31T09:22:26Z</time>
      </trkpt>
      <trkpt lat="47.35703" lon="0.09443">
        <ele>103.96</ele>
        <time>2010-10-31T09:22:33Z</time>
      </trkpt>
      <trkpt lat="47.357" lon="0.09463">
        <ele>103.48</ele>
        <time>2010-10-31T09:22:37Z</time>
      </trkpt>
      <trkpt lat="47.35701" lon="0.09469">
        <ele>103</ele>
        <time>2010-10-31T09:22:38Z</time>
      </trkpt>
      <trkpt lat="47.35703" lon="0.09475">
        <ele>103.48</ele>
        <time>2010-10-31T09:22:39Z</time>
      </trkpt>
      <trkpt lat="47.35707" lon="0.09481">
        <ele>103</ele>
        <time>2010-10-31T09:22:40Z</time>
      </trkpt>
      <trkpt lat="47.3571" lon="0.09487">
        <ele>103.96</ele>
        <time>2010-10-31T09:22:41Z</time>
      </trkpt>
      <trkpt lat="47.35732" lon="0.09518">
        <ele>102.52</ele>
        <time>2010-10-31T09:22:47Z</time>
      </trkpt>
      <trkpt lat="47.35771" lon="0.09565">
        <ele>103.96</ele>
        <time>2010-10-31T09:22:57Z</time>
      </trkpt>
      <trkpt lat="47.35774" lon="0.09571">
        <ele>103.48</ele>
        <time>2010-10-31T09:22:58Z</time>
      </trkpt>
      <trkpt lat="47.35777" lon="0.09576">
        <ele>103.48</ele>
        <time>2010-10-31T09:22:59Z</time>
      </trkpt>
      <trkpt lat="47.35781" lon="0.09582">
        <ele>103.48</ele>
        <time>2010-10-31T09:23:00Z</time>
      </trkpt>
      <trkpt lat="47.35784" lon="0.09588">
        <ele>103.48</ele>
        <time>2010-10-31T09:23:01Z</time>
      </trkpt>
      <trkpt lat="47.35787" lon="0.09594">
        <ele>103.48</ele>
        <time>2010-10-31T09:23:02Z</time>
      </trkpt>
      <trkpt lat="47.35797" lon="0.09621">
        <ele>103</ele>
        <time>2010-10-31T09:23:06Z</time>
      </trkpt>
      <trkpt lat="47.35798" lon="0.09628">
        <ele>103.96</ele>
        <time>2010-10-31T09:23:07Z</time>
      </trkpt>
      <trkpt lat="47.35801" lon="0.09634">
        <ele>103.96</ele>
        <time>2010-10-31T09:23:08Z</time>
      </trkpt>
      <trkpt lat="47.35802" lon="0.09641">
        <ele>104.44</ele>
        <time>2010-10-31T09:23:09Z</time>
      </trkpt>
      <trkpt lat="47.35804" lon="0.09649">
        <ele>103.96</ele>
        <time>2010-10-31T09:23:10Z</time>
      </trkpt>
      <trkpt lat="47.35807" lon="0.09655">
        <ele>104.44</ele>
        <time>2010-10-31T09:23:11Z</time>
      </trkpt>
      <trkpt lat="47.35809" lon="0.09662">
        <ele>103.96</ele>
        <time>2010-10-31T09:23:12Z</time>
      </trkpt>
      <trkpt lat="47.35814" lon="0.09676">
        <ele>104.44</ele>
        <time>2010-10-31T09:23:14Z</time>
      </trkpt>
      <trkpt lat="47.35821" lon="0.09696">
        <ele>104.92</ele>
        <time>2010-10-31T09:23:17Z</time>
      </trkpt>
      <trkpt lat="47.35823" lon="0.09704">
        <ele>103.96</ele>
        <time>2010-10-31T09:23:18Z</time>
      </trkpt>
      <trkpt lat="47.35837" lon="0.09745">
        <ele>104.44</ele>
        <time>2010-10-31T09:23:24Z</time>
      </trkpt>
      <trkpt lat="47.35842" lon="0.09757">
        <ele>105.4</ele>
        <time>2010-10-31T09:23:26Z</time>
      </trkpt>
      <trkpt lat="47.35858" lon="0.09787">
        <ele>104.44</ele>
        <time>2010-10-31T09:23:32Z</time>
      </trkpt>
      <trkpt lat="47.35862" lon="0.09793">
        <ele>103.96</ele>
        <time>2010-10-31T09:23:34Z</time>
      </trkpt>
      <trkpt lat="47.35864" lon="0.09795">
        <ele>103.48</ele>
        <time>2010-10-31T09:23:35Z</time>
      </trkpt>
      <trkpt lat="47.35868" lon="0.09805">
        <ele>104.92</ele>
        <time>2010-10-31T09:23:38Z</time>
      </trkpt>
      <trkpt lat="47.3587" lon="0.09808">
        <ele>103.96</ele>
        <time>2010-10-31T09:23:39Z</time>
      </trkpt>
      <trkpt lat="47.35872" lon="0.09812">
        <ele>104.44</ele>
        <time>2010-10-31T09:23:40Z</time>
      </trkpt>
      <trkpt lat="47.35893" lon="0.0984">
        <ele>104.92</ele>
        <time>2010-10-31T09:23:47Z</time>
      </trkpt>
      <trkpt lat="47.35896" lon="0.09845">
        <ele>104.92</ele>
        <time>2010-10-31T09:23:48Z</time>
      </trkpt>
      <trkpt lat="47.35912" lon="0.09865">
        <ele>104.44</ele>
        <time>2010-10-31T09:23:53Z</time>
      </trkpt>
      <trkpt lat="47.35922" lon="0.09877">
        <ele>105.88</ele>
        <time>2010-10-31T09:23:56Z</time>
      </trkpt>
      <trkpt lat="47.35926" lon="0.0988">
        <ele>104.92</ele>
        <time>2010-10-31T09:23:57Z</time>
      </trkpt>
      <trkpt lat="47.35929" lon="0.09884">
        <ele>104.44</ele>
        <time>2010-10-31T09:23:58Z</time>
      </trkpt>
      <trkpt lat="47.35932" lon="0.09889">
        <ele>104.44</ele>
        <time>2010-10-31T09:23:59Z</time>
      </trkpt>
      <trkpt lat="47.3595" lon="0.09909">
        <ele>103.96</ele>
        <time>2010-10-31T09:24:04Z</time>
      </trkpt>
      <trkpt lat="47.35953" lon="0.09913">
        <ele>103.48</ele>
        <time>2010-10-31T09:24:05Z</time>
      </trkpt>
      <trkpt lat="47.35957" lon="0.09917">
        <ele>103.96</ele>
        <time>2010-10-31T09:24:06Z</time>
      </trkpt>
      <trkpt lat="47.35969" lon="0.09938">
        <ele>103.48</ele>
        <time>2010-10-31T09:24:10Z</time>
      </trkpt>
      <trkpt lat="47.35979" lon="0.09956">
        <ele>102.52</ele>
        <time>2010-10-31T09:24:14Z</time>
      </trkpt>
      <trkpt lat="47.35982" lon="0.0996">
        <ele>102.52</ele>
        <time>2010-10-31T09:24:15Z</time>
      </trkpt>
      <trkpt lat="47.35985" lon="0.09964">
        <ele>102.52</ele>
        <time>2010-10-31T09:24:16Z</time>
      </trkpt>
      <trkpt lat="47.35998" lon="0.09992">
        <ele>101.56</ele>
        <time>2010-10-31T09:24:22Z</time>
      </trkpt>
      <trkpt lat="47.36" lon="0.09997">
        <ele>101.08</ele>
        <time>2010-10-31T09:24:23Z</time>
      </trkpt>
      <trkpt lat="47.36005" lon="0.10005">
        <ele>100.6</ele>
        <time>2010-10-31T09:24:25Z</time>
      </trkpt>
      <trkpt lat="47.36007" lon="0.1001">
        <ele>100.6</ele>
        <time>2010-10-31T09:24:26Z</time>
      </trkpt>
      <trkpt lat="47.3601" lon="0.10015">
        <ele>100.6</ele>
        <time>2010-10-31T09:24:27Z</time>
      </trkpt>
      <trkpt lat="47.36013" lon="0.10021">
        <ele>100.11</ele>
        <time>2010-10-31T09:24:28Z</time>
      </trkpt>
      <trkpt lat="47.36015" lon="0.10025">
        <ele>100.6</ele>
        <time>2010-10-31T09:24:29Z</time>
      </trkpt>
      <trkpt lat="47.36021" lon="0.10034">
        <ele>100.11</ele>
        <time>2010-10-31T09:24:31Z</time>
      </trkpt>
      <trkpt lat="47.36024" lon="0.10038">
        <ele>101.08</ele>
        <time>2010-10-31T09:24:32Z</time>
      </trkpt>
      <trkpt lat="47.36026" lon="0.10042">
        <ele>100.11</ele>
        <time>2010-10-31T09:24:33Z</time>
      </trkpt>
      <trkpt lat="47.36029" lon="0.10051">
        <ele>99.15</ele>
        <time>2010-10-31T09:24:35Z</time>
      </trkpt>
      <trkpt lat="47.36039" lon="0.10074">
        <ele>99.15</ele>
        <time>2010-10-31T09:24:40Z</time>
      </trkpt>
      <trkpt lat="47.36054" lon="0.10104">
        <ele>97.23</ele>
        <time>2010-10-31T09:24:46Z</time>
      </trkpt>
      <trkpt lat="47.36065" lon="0.10129">
        <ele>97.23</ele>
        <time>2010-10-31T09:24:51Z</time>
      </trkpt>
      <trkpt lat="47.36066" lon="0.10133">
        <ele>96.75</ele>
        <time>2010-10-31T09:24:52Z</time>
      </trkpt>
      <trkpt lat="47.36067" lon="0.10137">
        <ele>96.75</ele>
        <time>2010-10-31T09:24:53Z</time>
      </trkpt>
      <trkpt lat="47.36068" lon="0.10141">
        <ele>96.27</ele>
        <time>2010-10-31T09:24:54Z</time>
      </trkpt>
      <trkpt lat="47.36081" lon="0.10166">
        <ele>95.31</ele>
        <time>2010-10-31T09:24:59Z</time>
      </trkpt>
      <trkpt lat="47.36085" lon="0.10172">
        <ele>95.31</ele>
        <time>2010-10-31T09:25:00Z</time>
      </trkpt>
      <trkpt lat="47.36108" lon="0.10217">
        <ele>93.39</ele>
        <time>2010-10-31T09:25:07Z</time>
      </trkpt>
      <trkpt lat="47.36118" lon="0.10242">
        <ele>91.46</ele>
        <time>2010-10-31T09:25:11Z</time>
      </trkpt>
      <trkpt lat="47.36121" lon="0.10248">
        <ele>91.94</ele>
        <time>2010-10-31T09:25:12Z</time>
      </trkpt>
      <trkpt lat="47.36125" lon="0.10261">
        <ele>90.98</ele>
        <time>2010-10-31T09:25:14Z</time>
      </trkpt>
      <trkpt lat="47.36128" lon="0.10267">
        <ele>90.5</ele>
        <time>2010-10-31T09:25:15Z</time>
      </trkpt>
      <trkpt lat="47.36131" lon="0.10273">
        <ele>90.02</ele>
        <time>2010-10-31T09:25:16Z</time>
      </trkpt>
      <trkpt lat="47.36133" lon="0.10281">
        <ele>90.02</ele>
        <time>2010-10-31T09:25:17Z</time>
      </trkpt>
      <trkpt lat="47.36134" lon="0.10289">
        <ele>89.06</ele>
        <time>2010-10-31T09:25:18Z</time>
      </trkpt>
      <trkpt lat="47.36135" lon="0.10296">
        <ele>89.54</ele>
        <time>2010-10-31T09:25:19Z</time>
      </trkpt>
      <trkpt lat="47.36135" lon="0.10303">
        <ele>89.54</ele>
        <time>2010-10-31T09:25:20Z</time>
      </trkpt>
      <trkpt lat="47.36137" lon="0.1031">
        <ele>89.06</ele>
        <time>2010-10-31T09:25:21Z</time>
      </trkpt>
      <trkpt lat="47.3614" lon="0.10324">
        <ele>88.58</ele>
        <time>2010-10-31T09:25:23Z</time>
      </trkpt>
      <trkpt lat="47.36144" lon="0.10336">
        <ele>87.14</ele>
        <time>2010-10-31T09:25:25Z</time>
      </trkpt>
      <trkpt lat="47.36146" lon="0.10343">
        <ele>87.14</ele>
        <time>2010-10-31T09:25:26Z</time>
      </trkpt>
      <trkpt lat="47.3615" lon="0.10367">
        <ele>87.14</ele>
        <time>2010-10-31T09:25:29Z</time>
      </trkpt>
      <trkpt lat="47.36151" lon="0.10374">
        <ele>86.66</ele>
        <time>2010-10-31T09:25:30Z</time>
      </trkpt>
      <trkpt lat="47.36153" lon="0.10381">
        <ele>86.18</ele>
        <time>2010-10-31T09:25:31Z</time>
      </trkpt>
      <trkpt lat="47.36159" lon="0.10411">
        <ele>86.18</ele>
        <time>2010-10-31T09:25:36Z</time>
      </trkpt>
      <trkpt lat="47.36152" lon="0.10437">
        <ele>85.21</ele>
        <time>2010-10-31T09:25:42Z</time>
      </trkpt>
      <trkpt lat="47.36137" lon="0.1046">
        <ele>84.25</ele>
        <time>2010-10-31T09:25:47Z</time>
      </trkpt>
      <trkpt lat="47.36118" lon="0.10489">
        <ele>83.77</ele>
        <time>2010-10-31T09:25:53Z</time>
      </trkpt>
      <trkpt lat="47.36098" lon="0.10527">
        <ele>82.33</ele>
        <time>2010-10-31T09:26:00Z</time>
      </trkpt>
      <trkpt lat="47.36089" lon="0.10545">
        <ele>81.85</ele>
        <time>2010-10-31T09:26:03Z</time>
      </trkpt>
      <trkpt lat="47.36086" lon="0.1055">
        <ele>81.85</ele>
        <time>2010-10-31T09:26:04Z</time>
      </trkpt>
      <trkpt lat="47.36082" lon="0.10555">
        <ele>82.81</ele>
        <time>2010-10-31T09:26:05Z</time>
      </trkpt>
      <trkpt lat="47.36079" lon="0.1056">
        <ele>81.37</ele>
        <time>2010-10-31T09:26:06Z</time>
      </trkpt>
      <trkpt lat="47.36075" lon="0.10565">
        <ele>81.37</ele>
        <time>2010-10-31T09:26:07Z</time>
      </trkpt>
      <trkpt lat="47.36072" lon="0.10569">
        <ele>81.37</ele>
        <time>2010-10-31T09:26:08Z</time>
      </trkpt>
      <trkpt lat="47.36069" lon="0.10573">
        <ele>81.37</ele>
        <time>2010-10-31T09:26:09Z</time>
      </trkpt>
      <trkpt lat="47.36066" lon="0.10576">
        <ele>82.33</ele>
        <time>2010-10-31T09:26:10Z</time>
      </trkpt>
      <trkpt lat="47.36064" lon="0.1058">
        <ele>81.85</ele>
        <time>2010-10-31T09:26:11Z</time>
      </trkpt>
      <trkpt lat="47.36057" lon="0.10588">
        <ele>81.85</ele>
        <time>2010-10-31T09:26:13Z</time>
      </trkpt>
      <trkpt lat="47.36053" lon="0.1059">
        <ele>82.33</ele>
        <time>2010-10-31T09:26:14Z</time>
      </trkpt>
      <trkpt lat="47.36049" lon="0.10593">
        <ele>81.37</ele>
        <time>2010-10-31T09:26:15Z</time>
      </trkpt>
      <trkpt lat="47.36017" lon="0.10617">
        <ele>80.89</ele>
        <time>2010-10-31T09:26:23Z</time>
      </trkpt>
      <trkpt lat="47.36" lon="0.10635">
        <ele>79.93</ele>
        <time>2010-10-31T09:26:28Z</time>
      </trkpt>
      <trkpt lat="47.35984" lon="0.10652">
        <ele>78.97</ele>
        <time>2010-10-31T09:26:33Z</time>
      </trkpt>
      <trkpt lat="47.35968" lon="0.10668">
        <ele>78.48</ele>
        <time>2010-10-31T09:26:38Z</time>
      </trkpt>
      <trkpt lat="47.35946" lon="0.10698">
        <ele>79.45</ele>
        <time>2010-10-31T09:26:45Z</time>
      </trkpt>
      <trkpt lat="47.35942" lon="0.10701">
        <ele>79.45</ele>
        <time>2010-10-31T09:26:46Z</time>
      </trkpt>
      <trkpt lat="47.35939" lon="0.10704">
        <ele>79.45</ele>
        <time>2010-10-31T09:26:47Z</time>
      </trkpt>
      <trkpt lat="47.35936" lon="0.10707">
        <ele>78.97</ele>
        <time>2010-10-31T09:26:48Z</time>
      </trkpt>
      <trkpt lat="47.35933" lon="0.10711">
        <ele>78.97</ele>
        <time>2010-10-31T09:26:49Z</time>
      </trkpt>
      <trkpt lat="47.35912" lon="0.10735">
        <ele>78.97</ele>
        <time>2010-10-31T09:26:55Z</time>
      </trkpt>
      <trkpt lat="47.35895" lon="0.10757">
        <ele>78.97</ele>
        <time>2010-10-31T09:27:00Z</time>
      </trkpt>
      <trkpt lat="47.35882" lon="0.10773">
        <ele>79.45</ele>
        <time>2010-10-31T09:27:04Z</time>
      </trkpt>
      <trkpt lat="47.35861" lon="0.10799">
        <ele>78.48</ele>
        <time>2010-10-31T09:27:10Z</time>
      </trkpt>
      <trkpt lat="47.35841" lon="0.10822">
        <ele>78</ele>
        <time>2010-10-31T09:27:16Z</time>
      </trkpt>
      <trkpt lat="47.35834" lon="0.1084">
        <ele>78</ele>
        <time>2010-10-31T09:27:21Z</time>
      </trkpt>
      <trkpt lat="47.35833" lon="0.10843">
        <ele>77.04</ele>
        <time>2010-10-31T09:27:22Z</time>
      </trkpt>
      <trkpt lat="47.35834" lon="0.10845">
        <ele>77.04</ele>
        <time>2010-10-31T09:27:23Z</time>
      </trkpt>
      <trkpt lat="47.35834" lon="0.10847">
        <ele>77.52</ele>
        <time>2010-10-31T09:27:24Z</time>
      </trkpt>
      <trkpt lat="47.35835" lon="0.10848">
        <ele>77.04</ele>
        <time>2010-10-31T09:27:25Z</time>
      </trkpt>
      <trkpt lat="47.35837" lon="0.10849">
        <ele>77.52</ele>
        <time>2010-10-31T09:27:26Z</time>
      </trkpt>
      <trkpt lat="47.35839" lon="0.10851">
        <ele>77.04</ele>
        <time>2010-10-31T09:27:27Z</time>
      </trkpt>
      <trkpt lat="47.3584" lon="0.10853">
        <ele>76.56</ele>
        <time>2010-10-31T09:27:28Z</time>
      </trkpt>
      <trkpt lat="47.35841" lon="0.10856">
        <ele>77.04</ele>
        <time>2010-10-31T09:27:29Z</time>
      </trkpt>
      <trkpt lat="47.35843" lon="0.1086">
        <ele>77.04</ele>
        <time>2010-10-31T09:27:30Z</time>
      </trkpt>
      <trkpt lat="47.35846" lon="0.10864">
        <ele>76.56</ele>
        <time>2010-10-31T09:27:31Z</time>
      </trkpt>
      <trkpt lat="47.35848" lon="0.10867">
        <ele>76.56</ele>
        <time>2010-10-31T09:27:32Z</time>
      </trkpt>
      <trkpt lat="47.35849" lon="0.1087">
        <ele>77.04</ele>
        <time>2010-10-31T09:27:33Z</time>
      </trkpt>
      <trkpt lat="47.35861" lon="0.10887">
        <ele>77.04</ele>
        <time>2010-10-31T09:27:38Z</time>
      </trkpt>
      <trkpt lat="47.35881" lon="0.10908">
        <ele>76.08</ele>
        <time>2010-10-31T09:27:45Z</time>
      </trkpt>
      <trkpt lat="47.35905" lon="0.1093">
        <ele>77.04</ele>
        <time>2010-10-31T09:27:52Z</time>
      </trkpt>
      <trkpt lat="47.35912" lon="0.10949">
        <ele>77.04</ele>
        <time>2010-10-31T09:27:57Z</time>
      </trkpt>
      <trkpt lat="47.35922" lon="0.10967">
        <ele>76.56</ele>
        <time>2010-10-31T09:28:01Z</time>
      </trkpt>
      <trkpt lat="47.35933" lon="0.10984">
        <ele>77.04</ele>
        <time>2010-10-31T09:28:04Z</time>
      </trkpt>
      <trkpt lat="47.35936" lon="0.10988">
        <ele>76.56</ele>
        <time>2010-10-31T09:28:05Z</time>
      </trkpt>
      <trkpt lat="47.35939" lon="0.10993">
        <ele>77.04</ele>
        <time>2010-10-31T09:28:06Z</time>
      </trkpt>
      <trkpt lat="47.35942" lon="0.10998">
        <ele>77.04</ele>
        <time>2010-10-31T09:28:07Z</time>
      </trkpt>
      <trkpt lat="47.35946" lon="0.11002">
        <ele>77.04</ele>
        <time>2010-10-31T09:28:08Z</time>
      </trkpt>
      <trkpt lat="47.3595" lon="0.11005">
        <ele>77.04</ele>
        <time>2010-10-31T09:28:09Z</time>
      </trkpt>
      <trkpt lat="47.35954" lon="0.11009">
        <ele>77.04</ele>
        <time>2010-10-31T09:28:10Z</time>
      </trkpt>
      <trkpt lat="47.35972" lon="0.11036">
        <ele>77.52</ele>
        <time>2010-10-31T09:28:16Z</time>
      </trkpt>
      <trkpt lat="47.35999" lon="0.11067">
        <ele>78</ele>
        <time>2010-10-31T09:28:22Z</time>
      </trkpt>
      <trkpt lat="47.36004" lon="0.11072">
        <ele>78</ele>
        <time>2010-10-31T09:28:23Z</time>
      </trkpt>
      <trkpt lat="47.36029" lon="0.11099">
        <ele>78</ele>
        <time>2010-10-31T09:28:29Z</time>
      </trkpt>
      <trkpt lat="47.36045" lon="0.11122">
        <ele>78.48</ele>
        <time>2010-10-31T09:28:34Z</time>
      </trkpt>
      <trkpt lat="47.36056" lon="0.11137">
        <ele>78.48</ele>
        <time>2010-10-31T09:28:37Z</time>
      </trkpt>
      <trkpt lat="47.3606" lon="0.11142">
        <ele>77.52</ele>
        <time>2010-10-31T09:28:38Z</time>
      </trkpt>
      <trkpt lat="47.36064" lon="0.11147">
        <ele>78</ele>
        <time>2010-10-31T09:28:39Z</time>
      </trkpt>
      <trkpt lat="47.36067" lon="0.11153">
        <ele>78</ele>
        <time>2010-10-31T09:28:40Z</time>
      </trkpt>
      <trkpt lat="47.36071" lon="0.11158">
        <ele>78</ele>
        <time>2010-10-31T09:28:41Z</time>
      </trkpt>
      <trkpt lat="47.36075" lon="0.11164">
        <ele>78</ele>
        <time>2010-10-31T09:28:42Z</time>
      </trkpt>
      <trkpt lat="47.36078" lon="0.11169">
        <ele>78.48</ele>
        <time>2010-10-31T09:28:43Z</time>
      </trkpt>
      <trkpt lat="47.36083" lon="0.11174">
        <ele>78</ele>
        <time>2010-10-31T09:28:44Z</time>
      </trkpt>
      <trkpt lat="47.36087" lon="0.11179">
        <ele>78</ele>
        <time>2010-10-31T09:28:45Z</time>
      </trkpt>
      <trkpt lat="47.36091" lon="0.11184">
        <ele>78</ele>
        <time>2010-10-31T09:28:46Z</time>
      </trkpt>
      <trkpt lat="47.36095" lon="0.11188">
        <ele>78.48</ele>
        <time>2010-10-31T09:28:47Z</time>
      </trkpt>
      <trkpt lat="47.36116" lon="0.11212">
        <ele>78.97</ele>
        <time>2010-10-31T09:28:52Z</time>
      </trkpt>
      <trkpt lat="47.36126" lon="0.11225">
        <ele>78.48</ele>
        <time>2010-10-31T09:28:55Z</time>
      </trkpt>
      <trkpt lat="47.36138" lon="0.11238">
        <ele>78.97</ele>
        <time>2010-10-31T09:28:58Z</time>
      </trkpt>
      <trkpt lat="47.36141" lon="0.11243">
        <ele>78.48</ele>
        <time>2010-10-31T09:28:59Z</time>
      </trkpt>
      <trkpt lat="47.36145" lon="0.11248">
        <ele>78.48</ele>
        <time>2010-10-31T09:29:00Z</time>
      </trkpt>
      <trkpt lat="47.36154" lon="0.11264">
        <ele>78.97</ele>
        <time>2010-10-31T09:29:03Z</time>
      </trkpt>
      <trkpt lat="47.36158" lon="0.11269">
        <ele>79.45</ele>
        <time>2010-10-31T09:29:04Z</time>
      </trkpt>
      <trkpt lat="47.36165" lon="0.11278">
        <ele>79.45</ele>
        <time>2010-10-31T09:29:06Z</time>
      </trkpt>
      <trkpt lat="47.36169" lon="0.11283">
        <ele>79.45</ele>
        <time>2010-10-31T09:29:07Z</time>
      </trkpt>
      <trkpt lat="47.36171" lon="0.11288">
        <ele>78.97</ele>
        <time>2010-10-31T09:29:08Z</time>
      </trkpt>
      <trkpt lat="47.36175" lon="0.11292">
        <ele>79.45</ele>
        <time>2010-10-31T09:29:09Z</time>
      </trkpt>
      <trkpt lat="47.36178" lon="0.11296">
        <ele>78.97</ele>
        <time>2010-10-31T09:29:10Z</time>
      </trkpt>
      <trkpt lat="47.36182" lon="0.113">
        <ele>79.45</ele>
        <time>2010-10-31T09:29:11Z</time>
      </trkpt>
      <trkpt lat="47.36185" lon="0.11304">
        <ele>79.45</ele>
        <time>2010-10-31T09:29:12Z</time>
      </trkpt>
      <trkpt lat="47.36189" lon="0.11308">
        <ele>79.93</ele>
        <time>2010-10-31T09:29:13Z</time>
      </trkpt>
      <trkpt lat="47.36202" lon="0.11327">
        <ele>79.93</ele>
        <time>2010-10-31T09:29:18Z</time>
      </trkpt>
      <trkpt lat="47.36206" lon="0.11331">
        <ele>79.93</ele>
        <time>2010-10-31T09:29:19Z</time>
      </trkpt>
      <trkpt lat="47.3621" lon="0.11335">
        <ele>79.45</ele>
        <time>2010-10-31T09:29:20Z</time>
      </trkpt>
      <trkpt lat="47.36214" lon="0.1134">
        <ele>78.97</ele>
        <time>2010-10-31T09:29:21Z</time>
      </trkpt>
      <trkpt lat="47.36217" lon="0.11345">
        <ele>78.97</ele>
        <time>2010-10-31T09:29:22Z</time>
      </trkpt>
      <trkpt lat="47.36218" lon="0.11349">
        <ele>78.97</ele>
        <time>2010-10-31T09:29:23Z</time>
      </trkpt>
      <trkpt lat="47.36222" lon="0.11354">
        <ele>78.97</ele>
        <time>2010-10-31T09:29:24Z</time>
      </trkpt>
      <trkpt lat="47.36223" lon="0.11357">
        <ele>79.93</ele>
        <time>2010-10-31T09:29:25Z</time>
      </trkpt>
      <trkpt lat="47.36222" lon="0.11359">
        <ele>80.41</ele>
        <time>2010-10-31T09:29:26Z</time>
      </trkpt>
      <trkpt lat="47.36221" lon="0.1136">
        <ele>78.97</ele>
        <time>2010-10-31T09:29:27Z</time>
      </trkpt>
      <trkpt lat="47.3622" lon="0.11361">
        <ele>79.45</ele>
        <time>2010-10-31T09:29:28Z</time>
      </trkpt>
      <trkpt lat="47.36218" lon="0.11361">
        <ele>79.45</ele>
        <time>2010-10-31T09:29:29Z</time>
      </trkpt>
      <trkpt lat="47.36201" lon="0.11367">
        <ele>79.93</ele>
        <time>2010-10-31T09:29:35Z</time>
      </trkpt>
      <trkpt lat="47.36171" lon="0.11374">
        <ele>78.97</ele>
        <time>2010-10-31T09:29:43Z</time>
      </trkpt>
      <trkpt lat="47.36149" lon="0.11371">
        <ele>79.93</ele>
        <time>2010-10-31T09:29:49Z</time>
      </trkpt>
      <trkpt lat="47.36127" lon="0.1135">
        <ele>79.45</ele>
        <time>2010-10-31T09:29:55Z</time>
      </trkpt>
      <trkpt lat="47.36124" lon="0.11347">
        <ele>79.93</ele>
        <time>2010-10-31T09:29:56Z</time>
      </trkpt>
      <trkpt lat="47.36111" lon="0.11331">
        <ele>80.89</ele>
        <time>2010-10-31T09:30:00Z</time>
      </trkpt>
      <trkpt lat="47.36108" lon="0.11327">
        <ele>80.41</ele>
        <time>2010-10-31T09:30:01Z</time>
      </trkpt>
      <trkpt lat="47.36104" lon="0.11322">
        <ele>80.89</ele>
        <time>2010-10-31T09:30:02Z</time>
      </trkpt>
      <trkpt lat="47.361" lon="0.11318">
        <ele>80.89</ele>
        <time>2010-10-31T09:30:03Z</time>
      </trkpt>
      <trkpt lat="47.36096" lon="0.11313">
        <ele>80.41</ele>
        <time>2010-10-31T09:30:04Z</time>
      </trkpt>
      <trkpt lat="47.36092" lon="0.11308">
        <ele>79.93</ele>
        <time>2010-10-31T09:30:05Z</time>
      </trkpt>
      <trkpt lat="47.36087" lon="0.11304">
        <ele>79.93</ele>
        <time>2010-10-31T09:30:06Z</time>
      </trkpt>
      <trkpt lat="47.36083" lon="0.113">
        <ele>79.93</ele>
        <time>2010-10-31T09:30:07Z</time>
      </trkpt>
      <trkpt lat="47.3608" lon="0.11295">
        <ele>80.41</ele>
        <time>2010-10-31T09:30:08Z</time>
      </trkpt>
      <trkpt lat="47.36076" lon="0.11291">
        <ele>79.93</ele>
        <time>2010-10-31T09:30:09Z</time>
      </trkpt>
      <trkpt lat="47.36068" lon="0.11283">
        <ele>80.41</ele>
        <time>2010-10-31T09:30:11Z</time>
      </trkpt>
      <trkpt lat="47.36058" lon="0.11272">
        <ele>80.89</ele>
        <time>2010-10-31T09:30:14Z</time>
      </trkpt>
      <trkpt lat="47.36054" lon="0.11268">
        <ele>80.41</ele>
        <time>2010-10-31T09:30:15Z</time>
      </trkpt>
      <trkpt lat="47.36051" lon="0.11264">
        <ele>79.45</ele>
        <time>2010-10-31T09:30:16Z</time>
      </trkpt>
      <trkpt lat="47.36044" lon="0.11255">
        <ele>80.41</ele>
        <time>2010-10-31T09:30:18Z</time>
      </trkpt>
      <trkpt lat="47.36034" lon="0.11245">
        <ele>80.41</ele>
        <time>2010-10-31T09:30:21Z</time>
      </trkpt>
      <trkpt lat="47.36031" lon="0.11242">
        <ele>80.41</ele>
        <time>2010-10-31T09:30:22Z</time>
      </trkpt>
      <trkpt lat="47.36028" lon="0.11239">
        <ele>79.45</ele>
        <time>2010-10-31T09:30:23Z</time>
      </trkpt>
      <trkpt lat="47.36025" lon="0.11236">
        <ele>79.93</ele>
        <time>2010-10-31T09:30:24Z</time>
      </trkpt>
      <trkpt lat="47.36022" lon="0.11234">
        <ele>79.93</ele>
        <time>2010-10-31T09:30:25Z</time>
      </trkpt>
      <trkpt lat="47.36018" lon="0.11232">
        <ele>79.93</ele>
        <time>2010-10-31T09:30:26Z</time>
      </trkpt>
      <trkpt lat="47.36014" lon="0.11231">
        <ele>79.93</ele>
        <time>2010-10-31T09:30:27Z</time>
      </trkpt>
      <trkpt lat="47.36001" lon="0.11225">
        <ele>79.45</ele>
        <time>2010-10-31T09:30:30Z</time>
      </trkpt>
      <trkpt lat="47.35996" lon="0.11223">
        <ele>79.45</ele>
        <time>2010-10-31T09:30:31Z</time>
      </trkpt>
      <trkpt lat="47.35992" lon="0.11221">
        <ele>79.93</ele>
        <time>2010-10-31T09:30:32Z</time>
      </trkpt>
      <trkpt lat="47.35988" lon="0.11219">
        <ele>79.93</ele>
        <time>2010-10-31T09:30:33Z</time>
      </trkpt>
      <trkpt lat="47.35984" lon="0.11217">
        <ele>78.97</ele>
        <time>2010-10-31T09:30:34Z</time>
      </trkpt>
      <trkpt lat="47.3598" lon="0.11215">
        <ele>79.45</ele>
        <time>2010-10-31T09:30:35Z</time>
      </trkpt>
      <trkpt lat="47.35957" lon="0.11196">
        <ele>79.93</ele>
        <time>2010-10-31T09:30:41Z</time>
      </trkpt>
      <trkpt lat="47.35945" lon="0.11186">
        <ele>78.97</ele>
        <time>2010-10-31T09:30:44Z</time>
      </trkpt>
      <trkpt lat="47.3594" lon="0.11183">
        <ele>78.97</ele>
        <time>2010-10-31T09:30:45Z</time>
      </trkpt>
      <trkpt lat="47.35923" lon="0.11173">
        <ele>79.93</ele>
        <time>2010-10-31T09:30:49Z</time>
      </trkpt>
      <trkpt lat="47.35899" lon="0.11162">
        <ele>78.97</ele>
        <time>2010-10-31T09:30:54Z</time>
      </trkpt>
      <trkpt lat="47.35883" lon="0.11154">
        <ele>78.97</ele>
        <time>2010-10-31T09:30:57Z</time>
      </trkpt>
      <trkpt lat="47.35878" lon="0.11151">
        <ele>78.48</ele>
        <time>2010-10-31T09:30:58Z</time>
      </trkpt>
      <trkpt lat="47.35861" lon="0.11139">
        <ele>78</ele>
        <time>2010-10-31T09:31:02Z</time>
      </trkpt>
      <trkpt lat="47.35847" lon="0.11129">
        <ele>78</ele>
        <time>2010-10-31T09:31:05Z</time>
      </trkpt>
      <trkpt lat="47.35842" lon="0.11125">
        <ele>78</ele>
        <time>2010-10-31T09:31:06Z</time>
      </trkpt>
      <trkpt lat="47.35816" lon="0.11114">
        <ele>77.04</ele>
        <time>2010-10-31T09:31:11Z</time>
      </trkpt>
      <trkpt lat="47.35795" lon="0.11106">
        <ele>76.56</ele>
        <time>2010-10-31T09:31:15Z</time>
      </trkpt>
      <trkpt lat="47.35785" lon="0.111">
        <ele>77.04</ele>
        <time>2010-10-31T09:31:17Z</time>
      </trkpt>
      <trkpt lat="47.35779" lon="0.11098">
        <ele>76.08</ele>
        <time>2010-10-31T09:31:18Z</time>
      </trkpt>
      <trkpt lat="47.3574" lon="0.11084">
        <ele>75.6</ele>
        <time>2010-10-31T09:31:25Z</time>
      </trkpt>
      <trkpt lat="47.35735" lon="0.11082">
        <ele>76.08</ele>
        <time>2010-10-31T09:31:26Z</time>
      </trkpt>
      <trkpt lat="47.3573" lon="0.11079">
        <ele>75.6</ele>
        <time>2010-10-31T09:31:27Z</time>
      </trkpt>
      <trkpt lat="47.35725" lon="0.11076">
        <ele>76.56</ele>
        <time>2010-10-31T09:31:28Z</time>
      </trkpt>
      <trkpt lat="47.3572" lon="0.11074">
        <ele>75.6</ele>
        <time>2010-10-31T09:31:29Z</time>
      </trkpt>
      <trkpt lat="47.35715" lon="0.11072">
        <ele>77.04</ele>
        <time>2010-10-31T09:31:30Z</time>
      </trkpt>
      <trkpt lat="47.3571" lon="0.1107">
        <ele>76.08</ele>
        <time>2010-10-31T09:31:31Z</time>
      </trkpt>
      <trkpt lat="47.35704" lon="0.11067">
        <ele>75.6</ele>
        <time>2010-10-31T09:31:32Z</time>
      </trkpt>
      <trkpt lat="47.35693" lon="0.1106">
        <ele>76.56</ele>
        <time>2010-10-31T09:31:34Z</time>
      </trkpt>
      <trkpt lat="47.35688" lon="0.11055">
        <ele>75.6</ele>
        <time>2010-10-31T09:31:35Z</time>
      </trkpt>
      <trkpt lat="47.35683" lon="0.1105">
        <ele>75.12</ele>
        <time>2010-10-31T09:31:36Z</time>
      </trkpt>
      <trkpt lat="47.35653" lon="0.11023">
        <ele>76.08</ele>
        <time>2010-10-31T09:31:42Z</time>
      </trkpt>
      <trkpt lat="47.35648" lon="0.11018">
        <ele>75.6</ele>
        <time>2010-10-31T09:31:43Z</time>
      </trkpt>
      <trkpt lat="47.35643" lon="0.11014">
        <ele>75.6</ele>
        <time>2010-10-31T09:31:44Z</time>
      </trkpt>
      <trkpt lat="47.35611" lon="0.10986">
        <ele>76.08</ele>
        <time>2010-10-31T09:31:51Z</time>
      </trkpt>
      <trkpt lat="47.35606" lon="0.10982">
        <ele>75.6</ele>
        <time>2010-10-31T09:31:52Z</time>
      </trkpt>
      <trkpt lat="47.35596" lon="0.10974">
        <ele>76.56</ele>
        <time>2010-10-31T09:31:54Z</time>
      </trkpt>
      <trkpt lat="47.3557" lon="0.10956">
        <ele>75.6</ele>
        <time>2010-10-31T09:31:59Z</time>
      </trkpt>
      <trkpt lat="47.35543" lon="0.10941">
        <ele>76.08</ele>
        <time>2010-10-31T09:32:04Z</time>
      </trkpt>
      <trkpt lat="47.3551" lon="0.10927">
        <ele>75.12</ele>
        <time>2010-10-31T09:32:10Z</time>
      </trkpt>
      <trkpt lat="47.355" lon="0.10922">
        <ele>75.12</ele>
        <time>2010-10-31T09:32:12Z</time>
      </trkpt>
      <trkpt lat="47.35497" lon="0.1092">
        <ele>74.16</ele>
        <time>2010-10-31T09:32:13Z</time>
      </trkpt>
      <trkpt lat="47.35492" lon="0.10917">
        <ele>75.12</ele>
        <time>2010-10-31T09:32:14Z</time>
      </trkpt>
      <trkpt lat="47.35488" lon="0.10914">
        <ele>74.64</ele>
        <time>2010-10-31T09:32:15Z</time>
      </trkpt>
      <trkpt lat="47.35484" lon="0.10912">
        <ele>75.12</ele>
        <time>2010-10-31T09:32:16Z</time>
      </trkpt>
      <trkpt lat="47.3548" lon="0.10911">
        <ele>74.64</ele>
        <time>2010-10-31T09:32:17Z</time>
      </trkpt>
      <trkpt lat="47.35477" lon="0.10909">
        <ele>75.12</ele>
        <time>2010-10-31T09:32:18Z</time>
      </trkpt>
      <trkpt lat="47.35473" lon="0.10907">
        <ele>74.64</ele>
        <time>2010-10-31T09:32:19Z</time>
      </trkpt>
      <trkpt lat="47.3547" lon="0.10904">
        <ele>74.64</ele>
        <time>2010-10-31T09:32:20Z</time>
      </trkpt>
      <trkpt lat="47.35465" lon="0.10902">
        <ele>74.64</ele>
        <time>2010-10-31T09:32:21Z</time>
      </trkpt>
      <trkpt lat="47.35461" lon="0.109">
        <ele>75.12</ele>
        <time>2010-10-31T09:32:22Z</time>
      </trkpt>
      <trkpt lat="47.35457" lon="0.10897">
        <ele>75.12</ele>
        <time>2010-10-31T09:32:23Z</time>
      </trkpt>
      <trkpt lat="47.35452" lon="0.10895">
        <ele>74.64</ele>
        <time>2010-10-31T09:32:24Z</time>
      </trkpt>
      <trkpt lat="47.35406" lon="0.10877">
        <ele>74.16</ele>
        <time>2010-10-31T09:32:32Z</time>
      </trkpt>
      <trkpt lat="47.35385" lon="0.10867">
        <ele>73.68</ele>
        <time>2010-10-31T09:32:35Z</time>
      </trkpt>
      <trkpt lat="47.35379" lon="0.10864">
        <ele>73.2</ele>
        <time>2010-10-31T09:32:36Z</time>
      </trkpt>
      <trkpt lat="47.35373" lon="0.10861">
        <ele>74.16</ele>
        <time>2010-10-31T09:32:37Z</time>
      </trkpt>
      <trkpt lat="47.35327" lon="0.10837">
        <ele>72.24</ele>
        <time>2010-10-31T09:32:45Z</time>
      </trkpt>
      <trkpt lat="47.35321" lon="0.10834">
        <ele>73.2</ele>
        <time>2010-10-31T09:32:46Z</time>
      </trkpt>
      <trkpt lat="47.35298" lon="0.10822">
        <ele>74.16</ele>
        <time>2010-10-31T09:32:50Z</time>
      </trkpt>
      <trkpt lat="47.35292" lon="0.10819">
        <ele>73.2</ele>
        <time>2010-10-31T09:32:51Z</time>
      </trkpt>
      <trkpt lat="47.35283" lon="0.10813">
        <ele>73.68</ele>
        <time>2010-10-31T09:32:53Z</time>
      </trkpt>
      <trkpt lat="47.35254" lon="0.10788">
        <ele>73.2</ele>
        <time>2010-10-31T09:32:59Z</time>
      </trkpt>
      <trkpt lat="47.35244" lon="0.10782">
        <ele>73.2</ele>
        <time>2010-10-31T09:33:01Z</time>
      </trkpt>
      <trkpt lat="47.35239" lon="0.10778">
        <ele>72.72</ele>
        <time>2010-10-31T09:33:02Z</time>
      </trkpt>
      <trkpt lat="47.35235" lon="0.10775">
        <ele>74.16</ele>
        <time>2010-10-31T09:33:03Z</time>
      </trkpt>
      <trkpt lat="47.3523" lon="0.10773">
        <ele>72.72</ele>
        <time>2010-10-31T09:33:04Z</time>
      </trkpt>
      <trkpt lat="47.35226" lon="0.1077">
        <ele>72.72</ele>
        <time>2010-10-31T09:33:05Z</time>
      </trkpt>
      <trkpt lat="47.35221" lon="0.10766">
        <ele>73.2</ele>
        <time>2010-10-31T09:33:06Z</time>
      </trkpt>
      <trkpt lat="47.35206" lon="0.1075">
        <ele>72.72</ele>
        <time>2010-10-31T09:33:10Z</time>
      </trkpt>
      <trkpt lat="47.35182" lon="0.10725">
        <ele>71.76</ele>
        <time>2010-10-31T09:33:15Z</time>
      </trkpt>
      <trkpt lat="47.35177" lon="0.10721">
        <ele>70.79</ele>
        <time>2010-10-31T09:33:16Z</time>
      </trkpt>
      <trkpt lat="47.35171" lon="0.10717">
        <ele>71.76</ele>
        <time>2010-10-31T09:33:17Z</time>
      </trkpt>
      <trkpt lat="47.3516" lon="0.10709">
        <ele>71.76</ele>
        <time>2010-10-31T09:33:19Z</time>
      </trkpt>
      <trkpt lat="47.35145" lon="0.107">
        <ele>71.27</ele>
        <time>2010-10-31T09:33:22Z</time>
      </trkpt>
      <trkpt lat="47.3514" lon="0.10697">
        <ele>70.79</ele>
        <time>2010-10-31T09:33:23Z</time>
      </trkpt>
      <trkpt lat="47.35135" lon="0.10694">
        <ele>71.27</ele>
        <time>2010-10-31T09:33:24Z</time>
      </trkpt>
      <trkpt lat="47.3512" lon="0.10688">
        <ele>70.79</ele>
        <time>2010-10-31T09:33:27Z</time>
      </trkpt>
      <trkpt lat="47.35115" lon="0.10686">
        <ele>71.27</ele>
        <time>2010-10-31T09:33:28Z</time>
      </trkpt>
      <trkpt lat="47.35072" lon="0.10665">
        <ele>70.31</ele>
        <time>2010-10-31T09:33:36Z</time>
      </trkpt>
      <trkpt lat="47.35032" lon="0.10644">
        <ele>69.83</ele>
        <time>2010-10-31T09:33:43Z</time>
      </trkpt>
      <trkpt lat="47.34994" lon="0.10631">
        <ele>70.31</ele>
        <time>2010-10-31T09:33:50Z</time>
      </trkpt>
      <trkpt lat="47.3496" lon="0.10618">
        <ele>69.83</ele>
        <time>2010-10-31T09:33:57Z</time>
      </trkpt>
      <trkpt lat="47.34939" lon="0.10604">
        <ele>69.83</ele>
        <time>2010-10-31T09:34:03Z</time>
      </trkpt>
      <trkpt lat="47.34935" lon="0.106">
        <ele>70.31</ele>
        <time>2010-10-31T09:34:05Z</time>
      </trkpt>
      <trkpt lat="47.34933" lon="0.106">
        <ele>70.31</ele>
        <time>2010-10-31T09:34:06Z</time>
      </trkpt>
      <trkpt lat="47.34931" lon="0.106">
        <ele>70.79</ele>
        <time>2010-10-31T09:34:07Z</time>
      </trkpt>
      <trkpt lat="47.34928" lon="0.10601">
        <ele>70.31</ele>
        <time>2010-10-31T09:34:08Z</time>
      </trkpt>
      <trkpt lat="47.34925" lon="0.10604">
        <ele>70.31</ele>
        <time>2010-10-31T09:34:09Z</time>
      </trkpt>
      <trkpt lat="47.34916" lon="0.10613">
        <ele>69.83</ele>
        <time>2010-10-31T09:34:12Z</time>
      </trkpt>
      <trkpt lat="47.34912" lon="0.10616">
        <ele>70.79</ele>
        <time>2010-10-31T09:34:13Z</time>
      </trkpt>
      <trkpt lat="47.34898" lon="0.10626">
        <ele>69.83</ele>
        <time>2010-10-31T09:34:16Z</time>
      </trkpt>
      <trkpt lat="47.3489" lon="0.10635">
        <ele>70.31</ele>
        <time>2010-10-31T09:34:18Z</time>
      </trkpt>
      <trkpt lat="47.34885" lon="0.10639">
        <ele>70.31</ele>
        <time>2010-10-31T09:34:19Z</time>
      </trkpt>
      <trkpt lat="47.34868" lon="0.10654">
        <ele>69.35</ele>
        <time>2010-10-31T09:34:23Z</time>
      </trkpt>
      <trkpt lat="47.34864" lon="0.10659">
        <ele>70.31</ele>
        <time>2010-10-31T09:34:24Z</time>
      </trkpt>
      <trkpt lat="47.3486" lon="0.10663">
        <ele>70.31</ele>
        <time>2010-10-31T09:34:25Z</time>
      </trkpt>
      <trkpt lat="47.34856" lon="0.10667">
        <ele>70.31</ele>
        <time>2010-10-31T09:34:26Z</time>
      </trkpt>
      <trkpt lat="47.34852" lon="0.10672">
        <ele>69.83</ele>
        <time>2010-10-31T09:34:27Z</time>
      </trkpt>
      <trkpt lat="47.34848" lon="0.10676">
        <ele>69.83</ele>
        <time>2010-10-31T09:34:28Z</time>
      </trkpt>
      <trkpt lat="47.34844" lon="0.1068">
        <ele>69.83</ele>
        <time>2010-10-31T09:34:29Z</time>
      </trkpt>
      <trkpt lat="47.34822" lon="0.10704">
        <ele>69.35</ele>
        <time>2010-10-31T09:34:35Z</time>
      </trkpt>
      <trkpt lat="47.34802" lon="0.10727">
        <ele>69.35</ele>
        <time>2010-10-31T09:34:40Z</time>
      </trkpt>
      <trkpt lat="47.34797" lon="0.10732">
        <ele>69.83</ele>
        <time>2010-10-31T09:34:41Z</time>
      </trkpt>
      <trkpt lat="47.34793" lon="0.10736">
        <ele>69.83</ele>
        <time>2010-10-31T09:34:42Z</time>
      </trkpt>
      <trkpt lat="47.34788" lon="0.1074">
        <ele>70.31</ele>
        <time>2010-10-31T09:34:43Z</time>
      </trkpt>
      <trkpt lat="47.34783" lon="0.10744">
        <ele>70.31</ele>
        <time>2010-10-31T09:34:44Z</time>
      </trkpt>
      <trkpt lat="47.34779" lon="0.10748">
        <ele>69.35</ele>
        <time>2010-10-31T09:34:45Z</time>
      </trkpt>
      <trkpt lat="47.34774" lon="0.10753">
        <ele>69.83</ele>
        <time>2010-10-31T09:34:46Z</time>
      </trkpt>
      <trkpt lat="47.34755" lon="0.10772">
        <ele>70.31</ele>
        <time>2010-10-31T09:34:50Z</time>
      </trkpt>
      <trkpt lat="47.34727" lon="0.10803">
        <ele>69.83</ele>
        <time>2010-10-31T09:34:56Z</time>
      </trkpt>
      <trkpt lat="47.34722" lon="0.10808">
        <ele>68.87</ele>
        <time>2010-10-31T09:34:57Z</time>
      </trkpt>
      <trkpt lat="47.34712" lon="0.10819">
        <ele>69.83</ele>
        <time>2010-10-31T09:34:59Z</time>
      </trkpt>
      <trkpt lat="47.34683" lon="0.10855">
        <ele>67.91</ele>
        <time>2010-10-31T09:35:06Z</time>
      </trkpt>
      <trkpt lat="47.3468" lon="0.1086">
        <ele>67.91</ele>
        <time>2010-10-31T09:35:07Z</time>
      </trkpt>
      <trkpt lat="47.34679" lon="0.10867">
        <ele>68.39</ele>
        <time>2010-10-31T09:35:08Z</time>
      </trkpt>
      <trkpt lat="47.34679" lon="0.10872">
        <ele>68.39</ele>
        <time>2010-10-31T09:35:09Z</time>
      </trkpt>
      <trkpt lat="47.3468" lon="0.10881">
        <ele>68.39</ele>
        <time>2010-10-31T09:35:11Z</time>
      </trkpt>
      <trkpt lat="47.3468" lon="0.10884">
        <ele>69.83</ele>
        <time>2010-10-31T09:35:12Z</time>
      </trkpt>
      <trkpt lat="47.34682" lon="0.10887">
        <ele>69.35</ele>
        <time>2010-10-31T09:35:13Z</time>
      </trkpt>
      <trkpt lat="47.34682" lon="0.10889">
        <ele>69.83</ele>
        <time>2010-10-31T09:35:14Z</time>
      </trkpt>
      <trkpt lat="47.34683" lon="0.10893">
        <ele>70.31</ele>
        <time>2010-10-31T09:35:15Z</time>
      </trkpt>
      <trkpt lat="47.34683" lon="0.10898">
        <ele>70.79</ele>
        <time>2010-10-31T09:35:16Z</time>
      </trkpt>
      <trkpt lat="47.34685" lon="0.10903">
        <ele>70.79</ele>
        <time>2010-10-31T09:35:17Z</time>
      </trkpt>
      <trkpt lat="47.34686" lon="0.10907">
        <ele>71.27</ele>
        <time>2010-10-31T09:35:18Z</time>
      </trkpt>
      <trkpt lat="47.34693" lon="0.10928">
        <ele>72.24</ele>
        <time>2010-10-31T09:35:23Z</time>
      </trkpt>
      <trkpt lat="47.34695" lon="0.10936">
        <ele>73.2</ele>
        <time>2010-10-31T09:35:25Z</time>
      </trkpt>
      <trkpt lat="47.34695" lon="0.1094">
        <ele>73.68</ele>
        <time>2010-10-31T09:35:26Z</time>
      </trkpt>
      <trkpt lat="47.347" lon="0.10958">
        <ele>75.12</ele>
        <time>2010-10-31T09:35:32Z</time>
      </trkpt>
      <trkpt lat="47.34703" lon="0.1096">
        <ele>75.6</ele>
        <time>2010-10-31T09:35:33Z</time>
      </trkpt>
      <trkpt lat="47.34707" lon="0.10961">
        <ele>75.6</ele>
        <time>2010-10-31T09:35:35Z</time>
      </trkpt>
      <trkpt lat="47.34709" lon="0.1096">
        <ele>75.12</ele>
        <time>2010-10-31T09:35:36Z</time>
      </trkpt>
      <trkpt lat="47.34711" lon="0.1096">
        <ele>76.08</ele>
        <time>2010-10-31T09:35:37Z</time>
      </trkpt>
      <trkpt lat="47.34713" lon="0.1096">
        <ele>76.08</ele>
        <time>2010-10-31T09:35:38Z</time>
      </trkpt>
      <trkpt lat="47.34716" lon="0.10959">
        <ele>76.08</ele>
        <time>2010-10-31T09:35:39Z</time>
      </trkpt>
      <trkpt lat="47.34719" lon="0.10959">
        <ele>77.52</ele>
        <time>2010-10-31T09:35:40Z</time>
      </trkpt>
      <trkpt lat="47.34722" lon="0.10959">
        <ele>76.56</ele>
        <time>2010-10-31T09:35:41Z</time>
      </trkpt>
      <trkpt lat="47.34725" lon="0.10959">
        <ele>77.04</ele>
        <time>2010-10-31T09:35:42Z</time>
      </trkpt>
      <trkpt lat="47.34728" lon="0.10958">
        <ele>77.04</ele>
        <time>2010-10-31T09:35:43Z</time>
      </trkpt>
      <trkpt lat="47.3473" lon="0.10958">
        <ele>77.52</ele>
        <time>2010-10-31T09:35:44Z</time>
      </trkpt>
      <trkpt lat="47.34732" lon="0.10957">
        <ele>78</ele>
        <time>2010-10-31T09:35:45Z</time>
      </trkpt>
      <trkpt lat="47.34738" lon="0.10956">
        <ele>77.52</ele>
        <time>2010-10-31T09:35:47Z</time>
      </trkpt>
      <trkpt lat="47.34739" lon="0.10954">
        <ele>77.52</ele>
        <time>2010-10-31T09:35:48Z</time>
      </trkpt>
      <trkpt lat="47.34741" lon="0.10953">
        <ele>77.04</ele>
        <time>2010-10-31T09:35:49Z</time>
      </trkpt>
      <trkpt lat="47.34749" lon="0.10945">
        <ele>78.48</ele>
        <time>2010-10-31T09:35:53Z</time>
      </trkpt>
      <trkpt lat="47.34758" lon="0.10942">
        <ele>78.48</ele>
        <time>2010-10-31T09:35:56Z</time>
      </trkpt>
      <trkpt lat="47.34761" lon="0.10942">
        <ele>78.48</ele>
        <time>2010-10-31T09:35:57Z</time>
      </trkpt>
      <trkpt lat="47.34781" lon="0.10944">
        <ele>78.97</ele>
        <time>2010-10-31T09:36:03Z</time>
      </trkpt>
      <trkpt lat="47.34798" lon="0.10947">
        <ele>79.45</ele>
        <time>2010-10-31T09:36:09Z</time>
      </trkpt>
      <trkpt lat="47.34811" lon="0.10941">
        <ele>81.85</ele>
        <time>2010-10-31T09:36:15Z</time>
      </trkpt>
      <trkpt lat="47.34817" lon="0.10943">
        <ele>82.81</ele>
        <time>2010-10-31T09:36:18Z</time>
      </trkpt>
      <trkpt lat="47.34819" lon="0.10945">
        <ele>82.33</ele>
        <time>2010-10-31T09:36:19Z</time>
      </trkpt>
      <trkpt lat="47.34821" lon="0.10946">
        <ele>83.29</ele>
        <time>2010-10-31T09:36:20Z</time>
      </trkpt>
      <trkpt lat="47.34823" lon="0.10947">
        <ele>83.29</ele>
        <time>2010-10-31T09:36:21Z</time>
      </trkpt>
      <trkpt lat="47.34825" lon="0.10949">
        <ele>83.77</ele>
        <time>2010-10-31T09:36:22Z</time>
      </trkpt>
      <trkpt lat="47.34828" lon="0.1095">
        <ele>84.25</ele>
        <time>2010-10-31T09:36:23Z</time>
      </trkpt>
      <trkpt lat="47.34842" lon="0.10958">
        <ele>85.21</ele>
        <time>2010-10-31T09:36:28Z</time>
      </trkpt>
      <trkpt lat="47.34844" lon="0.10961">
        <ele>86.66</ele>
        <time>2010-10-31T09:36:29Z</time>
      </trkpt>
      <trkpt lat="47.34845" lon="0.10964">
        <ele>85.69</ele>
        <time>2010-10-31T09:36:30Z</time>
      </trkpt>
      <trkpt lat="47.34847" lon="0.10966">
        <ele>85.21</ele>
        <time>2010-10-31T09:36:31Z</time>
      </trkpt>
      <trkpt lat="47.34848" lon="0.10969">
        <ele>85.69</ele>
        <time>2010-10-31T09:36:32Z</time>
      </trkpt>
      <trkpt lat="47.3485" lon="0.10971">
        <ele>86.18</ele>
        <time>2010-10-31T09:36:33Z</time>
      </trkpt>
      <trkpt lat="47.34852" lon="0.10973">
        <ele>86.66</ele>
        <time>2010-10-31T09:36:34Z</time>
      </trkpt>
      <trkpt lat="47.34855" lon="0.10976">
        <ele>87.14</ele>
        <time>2010-10-31T09:36:35Z</time>
      </trkpt>
      <trkpt lat="47.34875" lon="0.10991">
        <ele>87.14</ele>
        <time>2010-10-31T09:36:41Z</time>
      </trkpt>
      <trkpt lat="47.34886" lon="0.10998">
        <ele>89.06</ele>
        <time>2010-10-31T09:36:47Z</time>
      </trkpt>
      <trkpt lat="47.34888" lon="0.11">
        <ele>88.58</ele>
        <time>2010-10-31T09:36:48Z</time>
      </trkpt>
      <trkpt lat="47.34889" lon="0.11002">
        <ele>89.06</ele>
        <time>2010-10-31T09:36:49Z</time>
      </trkpt>
      <trkpt lat="47.34891" lon="0.11007">
        <ele>89.54</ele>
        <time>2010-10-31T09:36:52Z</time>
      </trkpt>
      <trkpt lat="47.3489" lon="0.1101">
        <ele>90.02</ele>
        <time>2010-10-31T09:36:54Z</time>
      </trkpt>
      <trkpt lat="47.34905" lon="0.11038">
        <ele>90.98</ele>
        <time>2010-10-31T09:37:01Z</time>
      </trkpt>
      <trkpt lat="47.34908" lon="0.11048">
        <ele>91.46</ele>
        <time>2010-10-31T09:37:04Z</time>
      </trkpt>
      <trkpt lat="47.34908" lon="0.11051">
        <ele>91.94</ele>
        <time>2010-10-31T09:37:05Z</time>
      </trkpt>
      <trkpt lat="47.34908" lon="0.11054">
        <ele>91.46</ele>
        <time>2010-10-31T09:37:06Z</time>
      </trkpt>
      <trkpt lat="47.34908" lon="0.11057">
        <ele>92.42</ele>
        <time>2010-10-31T09:37:07Z</time>
      </trkpt>
      <trkpt lat="47.34908" lon="0.1106">
        <ele>92.42</ele>
        <time>2010-10-31T09:37:08Z</time>
      </trkpt>
      <trkpt lat="47.34909" lon="0.11063">
        <ele>92.9</ele>
        <time>2010-10-31T09:37:09Z</time>
      </trkpt>
      <trkpt lat="47.34909" lon="0.11066">
        <ele>92.42</ele>
        <time>2010-10-31T09:37:10Z</time>
      </trkpt>
      <trkpt lat="47.34924" lon="0.11087">
        <ele>94.35</ele>
        <time>2010-10-31T09:37:16Z</time>
      </trkpt>
      <trkpt lat="47.34929" lon="0.11109">
        <ele>95.31</ele>
        <time>2010-10-31T09:37:22Z</time>
      </trkpt>
      <trkpt lat="47.34935" lon="0.1112">
        <ele>96.27</ele>
        <time>2010-10-31T09:37:26Z</time>
      </trkpt>
      <trkpt lat="47.34936" lon="0.11122">
        <ele>96.75</ele>
        <time>2010-10-31T09:37:27Z</time>
      </trkpt>
      <trkpt lat="47.34937" lon="0.11125">
        <ele>96.27</ele>
        <time>2010-10-31T09:37:28Z</time>
      </trkpt>
      <trkpt lat="47.34939" lon="0.11128">
        <ele>97.23</ele>
        <time>2010-10-31T09:37:29Z</time>
      </trkpt>
      <trkpt lat="47.34941" lon="0.11131">
        <ele>97.23</ele>
        <time>2010-10-31T09:37:30Z</time>
      </trkpt>
      <trkpt lat="47.34942" lon="0.11134">
        <ele>97.23</ele>
        <time>2010-10-31T09:37:31Z</time>
      </trkpt>
      <trkpt lat="47.34943" lon="0.11138">
        <ele>97.23</ele>
        <time>2010-10-31T09:37:32Z</time>
      </trkpt>
      <trkpt lat="47.34944" lon="0.11141">
        <ele>97.71</ele>
        <time>2010-10-31T09:37:33Z</time>
      </trkpt>
      <trkpt lat="47.34945" lon="0.11144">
        <ele>97.71</ele>
        <time>2010-10-31T09:37:34Z</time>
      </trkpt>
      <trkpt lat="47.34946" lon="0.11147">
        <ele>98.19</ele>
        <time>2010-10-31T09:37:35Z</time>
      </trkpt>
      <trkpt lat="47.34958" lon="0.11165">
        <ele>99.15</ele>
        <time>2010-10-31T09:37:42Z</time>
      </trkpt>
      <trkpt lat="47.34965" lon="0.11176">
        <ele>99.63</ele>
        <time>2010-10-31T09:37:47Z</time>
      </trkpt>
      <trkpt lat="47.34966" lon="0.11178">
        <ele>99.63</ele>
        <time>2010-10-31T09:37:48Z</time>
      </trkpt>
      <trkpt lat="47.34967" lon="0.1118">
        <ele>99.63</ele>
        <time>2010-10-31T09:37:49Z</time>
      </trkpt>
      <trkpt lat="47.34968" lon="0.11182">
        <ele>100.6</ele>
        <time>2010-10-31T09:37:50Z</time>
      </trkpt>
      <trkpt lat="47.34968" lon="0.11184">
        <ele>99.63</ele>
        <time>2010-10-31T09:37:51Z</time>
      </trkpt>
      <trkpt lat="47.34969" lon="0.11186">
        <ele>100.11</ele>
        <time>2010-10-31T09:37:52Z</time>
      </trkpt>
      <trkpt lat="47.3497" lon="0.11187">
        <ele>100.11</ele>
        <time>2010-10-31T09:37:53Z</time>
      </trkpt>
      <trkpt lat="47.3497" lon="0.11188">
        <ele>100.11</ele>
        <time>2010-10-31T09:37:54Z</time>
      </trkpt>
      <trkpt lat="47.34971" lon="0.11192">
        <ele>100.11</ele>
        <time>2010-10-31T09:37:59Z</time>
      </trkpt>
      <trkpt lat="47.34971" lon="0.11192">
        <ele>101.56</ele>
        <time>2010-10-31T09:38:08Z</time>
      </trkpt>
      <trkpt lat="47.34969" lon="0.11193">
        <ele>100.6</ele>
        <time>2010-10-31T09:38:30Z</time>
      </trkpt>
      <trkpt lat="47.34968" lon="0.11194">
        <ele>101.08</ele>
        <time>2010-10-31T09:38:31Z</time>
      </trkpt>
      <trkpt lat="47.34966" lon="0.11194">
        <ele>100.6</ele>
        <time>2010-10-31T09:38:32Z</time>
      </trkpt>
      <trkpt lat="47.34964" lon="0.11194">
        <ele>100.6</ele>
        <time>2010-10-31T09:38:33Z</time>
      </trkpt>
      <trkpt lat="47.34962" lon="0.11195">
        <ele>100.6</ele>
        <time>2010-10-31T09:38:34Z</time>
      </trkpt>
      <trkpt lat="47.34938" lon="0.11198">
        <ele>100.6</ele>
        <time>2010-10-31T09:38:41Z</time>
      </trkpt>
      <trkpt lat="47.34922" lon="0.11202">
        <ele>100.6</ele>
        <time>2010-10-31T09:38:45Z</time>
      </trkpt>
      <trkpt lat="47.34914" lon="0.11205">
        <ele>99.63</ele>
        <time>2010-10-31T09:38:47Z</time>
      </trkpt>
      <trkpt lat="47.34909" lon="0.11206">
        <ele>99.15</ele>
        <time>2010-10-31T09:38:48Z</time>
      </trkpt>
      <trkpt lat="47.34879" lon="0.11213">
        <ele>99.15</ele>
        <time>2010-10-31T09:38:56Z</time>
      </trkpt>
      <trkpt lat="47.34855" lon="0.11219">
        <ele>97.71</ele>
        <time>2010-10-31T09:39:02Z</time>
      </trkpt>
      <trkpt lat="47.34839" lon="0.11226">
        <ele>98.19</ele>
        <time>2010-10-31T09:39:06Z</time>
      </trkpt>
      <trkpt lat="47.34809" lon="0.11238">
        <ele>98.19</ele>
        <time>2010-10-31T09:39:14Z</time>
      </trkpt>
      <trkpt lat="47.34798" lon="0.11242">
        <ele>96.75</ele>
        <time>2010-10-31T09:39:17Z</time>
      </trkpt>
      <trkpt lat="47.34768" lon="0.11251">
        <ele>96.75</ele>
        <time>2010-10-31T09:39:25Z</time>
      </trkpt>
      <trkpt lat="47.34748" lon="0.11256">
        <ele>96.27</ele>
        <time>2010-10-31T09:39:30Z</time>
      </trkpt>
      <trkpt lat="47.34723" lon="0.11264">
        <ele>95.79</ele>
        <time>2010-10-31T09:39:36Z</time>
      </trkpt>
      <trkpt lat="47.34715" lon="0.11269">
        <ele>94.83</ele>
        <time>2010-10-31T09:39:38Z</time>
      </trkpt>
      <trkpt lat="47.34684" lon="0.11277">
        <ele>94.35</ele>
        <time>2010-10-31T09:39:45Z</time>
      </trkpt>
      <trkpt lat="47.34654" lon="0.11265">
        <ele>92.9</ele>
        <time>2010-10-31T09:39:51Z</time>
      </trkpt>
      <trkpt lat="47.34649" lon="0.11261">
        <ele>92.9</ele>
        <time>2010-10-31T09:39:52Z</time>
      </trkpt>
      <trkpt lat="47.34624" lon="0.11255">
        <ele>90.98</ele>
        <time>2010-10-31T09:39:57Z</time>
      </trkpt>
      <trkpt lat="47.34618" lon="0.11257">
        <ele>90.02</ele>
        <time>2010-10-31T09:39:58Z</time>
      </trkpt>
      <trkpt lat="47.34587" lon="0.11261">
        <ele>89.06</ele>
        <time>2010-10-31T09:40:03Z</time>
      </trkpt>
      <trkpt lat="47.34569" lon="0.11259">
        <ele>87.62</ele>
        <time>2010-10-31T09:40:06Z</time>
      </trkpt>
      <trkpt lat="47.34558" lon="0.11259">
        <ele>87.14</ele>
        <time>2010-10-31T09:40:08Z</time>
      </trkpt>
      <trkpt lat="47.34541" lon="0.11272">
        <ele>87.14</ele>
        <time>2010-10-31T09:40:12Z</time>
      </trkpt>
      <trkpt lat="47.34529" lon="0.11283">
        <ele>86.18</ele>
        <time>2010-10-31T09:40:15Z</time>
      </trkpt>
      <trkpt lat="47.34504" lon="0.11308">
        <ele>84.73</ele>
        <time>2010-10-31T09:40:21Z</time>
      </trkpt>
      <trkpt lat="47.34496" lon="0.11318">
        <ele>84.73</ele>
        <time>2010-10-31T09:40:23Z</time>
      </trkpt>
      <trkpt lat="47.34466" lon="0.11355">
        <ele>82.81</ele>
        <time>2010-10-31T09:40:30Z</time>
      </trkpt>
      <trkpt lat="47.34436" lon="0.1139">
        <ele>82.81</ele>
        <time>2010-10-31T09:40:36Z</time>
      </trkpt>
      <trkpt lat="47.3441" lon="0.11423">
        <ele>82.33</ele>
        <time>2010-10-31T09:40:42Z</time>
      </trkpt>
      <trkpt lat="47.34397" lon="0.11445">
        <ele>82.33</ele>
        <time>2010-10-31T09:40:46Z</time>
      </trkpt>
      <trkpt lat="47.34382" lon="0.11475">
        <ele>80.89</ele>
        <time>2010-10-31T09:40:51Z</time>
      </trkpt>
      <trkpt lat="47.34374" lon="0.1149">
        <ele>80.89</ele>
        <time>2010-10-31T09:40:54Z</time>
      </trkpt>
      <trkpt lat="47.34372" lon="0.11495">
        <ele>79.93</ele>
        <time>2010-10-31T09:40:55Z</time>
      </trkpt>
      <trkpt lat="47.3437" lon="0.11499">
        <ele>79.93</ele>
        <time>2010-10-31T09:40:56Z</time>
      </trkpt>
      <trkpt lat="47.34368" lon="0.11502">
        <ele>79.45</ele>
        <time>2010-10-31T09:40:57Z</time>
      </trkpt>
      <trkpt lat="47.34365" lon="0.11503">
        <ele>78.97</ele>
        <time>2010-10-31T09:40:58Z</time>
      </trkpt>
      <trkpt lat="47.34363" lon="0.11504">
        <ele>79.93</ele>
        <time>2010-10-31T09:40:59Z</time>
      </trkpt>
      <trkpt lat="47.34361" lon="0.11504">
        <ele>78.97</ele>
        <time>2010-10-31T09:41:00Z</time>
      </trkpt>
      <trkpt lat="47.34358" lon="0.11504">
        <ele>78.48</ele>
        <time>2010-10-31T09:41:02Z</time>
      </trkpt>
      <trkpt lat="47.3435" lon="0.11505">
        <ele>78</ele>
        <time>2010-10-31T09:41:08Z</time>
      </trkpt>
      <trkpt lat="47.34334" lon="0.11504">
        <ele>77.52</ele>
        <time>2010-10-31T09:41:14Z</time>
      </trkpt>
      <trkpt lat="47.34326" lon="0.11503">
        <ele>77.04</ele>
        <time>2010-10-31T09:41:16Z</time>
      </trkpt>
      <trkpt lat="47.34296" lon="0.11505">
        <ele>75.6</ele>
        <time>2010-10-31T09:41:23Z</time>
      </trkpt>
      <trkpt lat="47.34276" lon="0.11507">
        <ele>73.68</ele>
        <time>2010-10-31T09:41:27Z</time>
      </trkpt>
      <trkpt lat="47.34234" lon="0.11519">
        <ele>72.24</ele>
        <time>2010-10-31T09:41:34Z</time>
      </trkpt>
      <trkpt lat="47.34228" lon="0.11522">
        <ele>71.27</ele>
        <time>2010-10-31T09:41:35Z</time>
      </trkpt>
      <trkpt lat="47.34201" lon="0.11533">
        <ele>69.83</ele>
        <time>2010-10-31T09:41:39Z</time>
      </trkpt>
      <trkpt lat="47.34155" lon="0.11555">
        <ele>68.39</ele>
        <time>2010-10-31T09:41:46Z</time>
      </trkpt>
      <trkpt lat="47.34151" lon="0.11556">
        <ele>66.95</ele>
        <time>2010-10-31T09:41:47Z</time>
      </trkpt>
      <trkpt lat="47.34147" lon="0.11555">
        <ele>66.47</ele>
        <time>2010-10-31T09:41:48Z</time>
      </trkpt>
      <trkpt lat="47.34143" lon="0.11554">
        <ele>65.99</ele>
        <time>2010-10-31T09:41:49Z</time>
      </trkpt>
      <trkpt lat="47.34117" lon="0.11558">
        <ele>66.47</ele>
        <time>2010-10-31T09:41:56Z</time>
      </trkpt>
      <trkpt lat="47.34095" lon="0.11563">
        <ele>65.99</ele>
        <time>2010-10-31T09:42:01Z</time>
      </trkpt>
      <trkpt lat="47.34091" lon="0.11564">
        <ele>65.51</ele>
        <time>2010-10-31T09:42:02Z</time>
      </trkpt>
      <trkpt lat="47.34087" lon="0.11564">
        <ele>65.99</ele>
        <time>2010-10-31T09:42:03Z</time>
      </trkpt>
      <trkpt lat="47.34083" lon="0.11562">
        <ele>65.99</ele>
        <time>2010-10-31T09:42:04Z</time>
      </trkpt>
      <trkpt lat="47.3408" lon="0.1156">
        <ele>66.47</ele>
        <time>2010-10-31T09:42:05Z</time>
      </trkpt>
      <trkpt lat="47.34077" lon="0.11556">
        <ele>65.99</ele>
        <time>2010-10-31T09:42:06Z</time>
      </trkpt>
      <trkpt lat="47.34076" lon="0.11551">
        <ele>66.47</ele>
        <time>2010-10-31T09:42:07Z</time>
      </trkpt>
      <trkpt lat="47.34075" lon="0.11546">
        <ele>66.47</ele>
        <time>2010-10-31T09:42:08Z</time>
      </trkpt>
      <trkpt lat="47.34074" lon="0.11539">
        <ele>65.99</ele>
        <time>2010-10-31T09:42:09Z</time>
      </trkpt>
      <trkpt lat="47.34072" lon="0.11532">
        <ele>66.47</ele>
        <time>2010-10-31T09:42:10Z</time>
      </trkpt>
      <trkpt lat="47.34062" lon="0.11471">
        <ele>65.51</ele>
        <time>2010-10-31T09:42:19Z</time>
      </trkpt>
      <trkpt lat="47.34058" lon="0.11455">
        <ele>65.99</ele>
        <time>2010-10-31T09:42:22Z</time>
      </trkpt>
      <trkpt lat="47.34054" lon="0.11451">
        <ele>65.03</ele>
        <time>2010-10-31T09:42:23Z</time>
      </trkpt>
      <trkpt lat="47.3405" lon="0.11448">
        <ele>66.47</ele>
        <time>2010-10-31T09:42:24Z</time>
      </trkpt>
      <trkpt lat="47.34046" lon="0.11446">
        <ele>65.03</ele>
        <time>2010-10-31T09:42:25Z</time>
      </trkpt>
      <trkpt lat="47.34041" lon="0.11445">
        <ele>65.99</ele>
        <time>2010-10-31T09:42:26Z</time>
      </trkpt>
      <trkpt lat="47.34007" lon="0.11431">
        <ele>65.51</ele>
        <time>2010-10-31T09:42:33Z</time>
      </trkpt>
      <trkpt lat="47.33965" lon="0.11405">
        <ele>66.47</ele>
        <time>2010-10-31T09:42:42Z</time>
      </trkpt>
      <trkpt lat="47.33961" lon="0.11402">
        <ele>66.47</ele>
        <time>2010-10-31T09:42:43Z</time>
      </trkpt>
      <trkpt lat="47.33957" lon="0.11399">
        <ele>66.47</ele>
        <time>2010-10-31T09:42:44Z</time>
      </trkpt>
      <trkpt lat="47.33919" lon="0.11378">
        <ele>66.47</ele>
        <time>2010-10-31T09:42:52Z</time>
      </trkpt>
      <trkpt lat="47.33881" lon="0.1136">
        <ele>65.99</ele>
        <time>2010-10-31T09:43:00Z</time>
      </trkpt>
      <trkpt lat="47.33842" lon="0.11321">
        <ele>65.03</ele>
        <time>2010-10-31T09:43:09Z</time>
      </trkpt>
      <trkpt lat="47.33825" lon="0.11301">
        <ele>65.03</ele>
        <time>2010-10-31T09:43:13Z</time>
      </trkpt>
      <trkpt lat="47.33796" lon="0.11262">
        <ele>65.51</ele>
        <time>2010-10-31T09:43:21Z</time>
      </trkpt>
      <trkpt lat="47.33781" lon="0.11245">
        <ele>65.51</ele>
        <time>2010-10-31T09:43:25Z</time>
      </trkpt>
      <trkpt lat="47.33759" lon="0.11226">
        <ele>65.03</ele>
        <time>2010-10-31T09:43:31Z</time>
      </trkpt>
      <trkpt lat="47.33757" lon="0.11221">
        <ele>65.51</ele>
        <time>2010-10-31T09:43:32Z</time>
      </trkpt>
      <trkpt lat="47.33756" lon="0.11215">
        <ele>65.51</ele>
        <time>2010-10-31T09:43:33Z</time>
      </trkpt>
      <trkpt lat="47.33756" lon="0.11209">
        <ele>65.03</ele>
        <time>2010-10-31T09:43:34Z</time>
      </trkpt>
      <trkpt lat="47.33756" lon="0.11203">
        <ele>65.03</ele>
        <time>2010-10-31T09:43:35Z</time>
      </trkpt>
      <trkpt lat="47.33756" lon="0.11198">
        <ele>65.51</ele>
        <time>2010-10-31T09:43:36Z</time>
      </trkpt>
      <trkpt lat="47.33756" lon="0.11194">
        <ele>65.99</ele>
        <time>2010-10-31T09:43:37Z</time>
      </trkpt>
      <trkpt lat="47.33756" lon="0.11189">
        <ele>66.95</ele>
        <time>2010-10-31T09:43:40Z</time>
      </trkpt>
      <trkpt lat="47.33757" lon="0.11186">
        <ele>66.95</ele>
        <time>2010-10-31T09:43:41Z</time>
      </trkpt>
      <trkpt lat="47.3376" lon="0.11181">
        <ele>66.47</ele>
        <time>2010-10-31T09:43:42Z</time>
      </trkpt>
      <trkpt lat="47.33762" lon="0.11177">
        <ele>67.43</ele>
        <time>2010-10-31T09:43:43Z</time>
      </trkpt>
      <trkpt lat="47.33764" lon="0.11173">
        <ele>67.43</ele>
        <time>2010-10-31T09:43:44Z</time>
      </trkpt>
      <trkpt lat="47.33766" lon="0.11169">
        <ele>68.39</ele>
        <time>2010-10-31T09:43:45Z</time>
      </trkpt>
      <trkpt lat="47.33768" lon="0.11164">
        <ele>68.39</ele>
        <time>2010-10-31T09:43:46Z</time>
      </trkpt>
      <trkpt lat="47.3377" lon="0.1116">
        <ele>68.39</ele>
        <time>2010-10-31T09:43:47Z</time>
      </trkpt>
      <trkpt lat="47.33772" lon="0.11157">
        <ele>68.39</ele>
        <time>2010-10-31T09:43:48Z</time>
      </trkpt>
      <trkpt lat="47.33775" lon="0.11151">
        <ele>68.87</ele>
        <time>2010-10-31T09:43:49Z</time>
      </trkpt>
      <trkpt lat="47.33776" lon="0.11143">
        <ele>68.87</ele>
        <time>2010-10-31T09:43:50Z</time>
      </trkpt>
      <trkpt lat="47.33776" lon="0.11135">
        <ele>70.31</ele>
        <time>2010-10-31T09:43:51Z</time>
      </trkpt>
      <trkpt lat="47.33775" lon="0.1113">
        <ele>69.35</ele>
        <time>2010-10-31T09:43:52Z</time>
      </trkpt>
      <trkpt lat="47.33775" lon="0.11125">
        <ele>69.83</ele>
        <time>2010-10-31T09:43:53Z</time>
      </trkpt>
      <trkpt lat="47.33774" lon="0.11121">
        <ele>69.83</ele>
        <time>2010-10-31T09:43:54Z</time>
      </trkpt>
      <trkpt lat="47.33773" lon="0.11115">
        <ele>70.31</ele>
        <time>2010-10-31T09:43:55Z</time>
      </trkpt>
      <trkpt lat="47.33773" lon="0.1111">
        <ele>69.83</ele>
        <time>2010-10-31T09:43:56Z</time>
      </trkpt>
      <trkpt lat="47.33773" lon="0.11105">
        <ele>69.35</ele>
        <time>2010-10-31T09:43:57Z</time>
      </trkpt>
      <trkpt lat="47.33772" lon="0.11099">
        <ele>69.83</ele>
        <time>2010-10-31T09:43:58Z</time>
      </trkpt>
      <trkpt lat="47.33771" lon="0.11094">
        <ele>69.83</ele>
        <time>2010-10-31T09:43:59Z</time>
      </trkpt>
      <trkpt lat="47.3377" lon="0.11087">
        <ele>69.83</ele>
        <time>2010-10-31T09:44:00Z</time>
      </trkpt>
      <trkpt lat="47.33769" lon="0.11081">
        <ele>69.83</ele>
        <time>2010-10-31T09:44:01Z</time>
      </trkpt>
      <trkpt lat="47.33769" lon="0.11075">
        <ele>70.31</ele>
        <time>2010-10-31T09:44:02Z</time>
      </trkpt>
      <trkpt lat="47.33768" lon="0.11069">
        <ele>69.83</ele>
        <time>2010-10-31T09:44:03Z</time>
      </trkpt>
      <trkpt lat="47.33766" lon="0.11064">
        <ele>69.35</ele>
        <time>2010-10-31T09:44:04Z</time>
      </trkpt>
      <trkpt lat="47.33759" lon="0.1103">
        <ele>68.87</ele>
        <time>2010-10-31T09:44:09Z</time>
      </trkpt>
      <trkpt lat="47.33757" lon="0.11022">
        <ele>67.91</ele>
        <time>2010-10-31T09:44:10Z</time>
      </trkpt>
      <trkpt lat="47.33755" lon="0.11014">
        <ele>67.43</ele>
        <time>2010-10-31T09:44:11Z</time>
      </trkpt>
      <trkpt lat="47.33753" lon="0.11007">
        <ele>67.91</ele>
        <time>2010-10-31T09:44:12Z</time>
      </trkpt>
      <trkpt lat="47.33751" lon="0.11">
        <ele>68.39</ele>
        <time>2010-10-31T09:44:13Z</time>
      </trkpt>
      <trkpt lat="47.33749" lon="0.10993">
        <ele>66.95</ele>
        <time>2010-10-31T09:44:14Z</time>
      </trkpt>
      <trkpt lat="47.33738" lon="0.10954">
        <ele>66.95</ele>
        <time>2010-10-31T09:44:20Z</time>
      </trkpt>
      <trkpt lat="47.33735" lon="0.10946">
        <ele>66.95</ele>
        <time>2010-10-31T09:44:21Z</time>
      </trkpt>
      <trkpt lat="47.33729" lon="0.10918">
        <ele>65.99</ele>
        <time>2010-10-31T09:44:25Z</time>
      </trkpt>
      <trkpt lat="47.33727" lon="0.1091">
        <ele>66.47</ele>
        <time>2010-10-31T09:44:26Z</time>
      </trkpt>
      <trkpt lat="47.33725" lon="0.10901">
        <ele>65.03</ele>
        <time>2010-10-31T09:44:27Z</time>
      </trkpt>
      <trkpt lat="47.33722" lon="0.10874">
        <ele>65.51</ele>
        <time>2010-10-31T09:44:30Z</time>
      </trkpt>
      <trkpt lat="47.33721" lon="0.10866">
        <ele>64.55</ele>
        <time>2010-10-31T09:44:31Z</time>
      </trkpt>
      <trkpt lat="47.33721" lon="0.10857">
        <ele>64.55</ele>
        <time>2010-10-31T09:44:32Z</time>
      </trkpt>
      <trkpt lat="47.33722" lon="0.10835">
        <ele>64.55</ele>
        <time>2010-10-31T09:44:35Z</time>
      </trkpt>
      <trkpt lat="47.33728" lon="0.10772">
        <ele>64.07</ele>
        <time>2010-10-31T09:44:42Z</time>
      </trkpt>
      <trkpt lat="47.3373" lon="0.10713">
        <ele>63.58</ele>
        <time>2010-10-31T09:44:48Z</time>
      </trkpt>
      <trkpt lat="47.3373" lon="0.10676">
        <ele>63.58</ele>
        <time>2010-10-31T09:44:52Z</time>
      </trkpt>
      <trkpt lat="47.3373" lon="0.10668">
        <ele>63.58</ele>
        <time>2010-10-31T09:44:53Z</time>
      </trkpt>
      <trkpt lat="47.33731" lon="0.10661">
        <ele>63.58</ele>
        <time>2010-10-31T09:44:54Z</time>
      </trkpt>
      <trkpt lat="47.33736" lon="0.10632">
        <ele>63.58</ele>
        <time>2010-10-31T09:44:58Z</time>
      </trkpt>
      <trkpt lat="47.33745" lon="0.10584">
        <ele>63.58</ele>
        <time>2010-10-31T09:45:05Z</time>
      </trkpt>
      <trkpt lat="47.33746" lon="0.10567">
        <ele>64.07</ele>
        <time>2010-10-31T09:45:07Z</time>
      </trkpt>
      <trkpt lat="47.33747" lon="0.10552">
        <ele>63.1</ele>
        <time>2010-10-31T09:45:09Z</time>
      </trkpt>
      <trkpt lat="47.33755" lon="0.10506">
        <ele>63.58</ele>
        <time>2010-10-31T09:45:15Z</time>
      </trkpt>
      <trkpt lat="47.33757" lon="0.10499">
        <ele>63.58</ele>
        <time>2010-10-31T09:45:16Z</time>
      </trkpt>
      <trkpt lat="47.33759" lon="0.10486">
        <ele>62.62</ele>
        <time>2010-10-31T09:45:18Z</time>
      </trkpt>
      <trkpt lat="47.33769" lon="0.10465">
        <ele>63.1</ele>
        <time>2010-10-31T09:45:23Z</time>
      </trkpt>
      <trkpt lat="47.33786" lon="0.10428">
        <ele>63.1</ele>
        <time>2010-10-31T09:45:30Z</time>
      </trkpt>
      <trkpt lat="47.33797" lon="0.104">
        <ele>63.1</ele>
        <time>2010-10-31T09:45:35Z</time>
      </trkpt>
      <trkpt lat="47.33808" lon="0.10379">
        <ele>63.1</ele>
        <time>2010-10-31T09:45:39Z</time>
      </trkpt>
      <trkpt lat="47.33814" lon="0.10369">
        <ele>62.62</ele>
        <time>2010-10-31T09:45:41Z</time>
      </trkpt>
      <trkpt lat="47.33821" lon="0.10336">
        <ele>62.62</ele>
        <time>2010-10-31T09:45:47Z</time>
      </trkpt>
      <trkpt lat="47.33828" lon="0.10325">
        <ele>63.1</ele>
        <time>2010-10-31T09:45:49Z</time>
      </trkpt>
      <trkpt lat="47.33842" lon="0.10307">
        <ele>62.14</ele>
        <time>2010-10-31T09:45:52Z</time>
      </trkpt>
      <trkpt lat="47.33847" lon="0.10304">
        <ele>62.62</ele>
        <time>2010-10-31T09:45:53Z</time>
      </trkpt>
      <trkpt lat="47.33851" lon="0.103">
        <ele>62.62</ele>
        <time>2010-10-31T09:45:54Z</time>
      </trkpt>
      <trkpt lat="47.33855" lon="0.10297">
        <ele>62.14</ele>
        <time>2010-10-31T09:45:55Z</time>
      </trkpt>
      <trkpt lat="47.33861" lon="0.10293">
        <ele>62.14</ele>
        <time>2010-10-31T09:45:56Z</time>
      </trkpt>
      <trkpt lat="47.33871" lon="0.10285">
        <ele>62.62</ele>
        <time>2010-10-31T09:45:58Z</time>
      </trkpt>
      <trkpt lat="47.33892" lon="0.10261">
        <ele>63.58</ele>
        <time>2010-10-31T09:46:03Z</time>
      </trkpt>
      <trkpt lat="47.33915" lon="0.10236">
        <ele>63.58</ele>
        <time>2010-10-31T09:46:09Z</time>
      </trkpt>
      <trkpt lat="47.33923" lon="0.1023">
        <ele>65.03</ele>
        <time>2010-10-31T09:46:11Z</time>
      </trkpt>
      <trkpt lat="47.33927" lon="0.10226">
        <ele>64.55</ele>
        <time>2010-10-31T09:46:12Z</time>
      </trkpt>
      <trkpt lat="47.33932" lon="0.10222">
        <ele>64.55</ele>
        <time>2010-10-31T09:46:13Z</time>
      </trkpt>
      <trkpt lat="47.33936" lon="0.10218">
        <ele>64.07</ele>
        <time>2010-10-31T09:46:14Z</time>
      </trkpt>
      <trkpt lat="47.3394" lon="0.10213">
        <ele>64.07</ele>
        <time>2010-10-31T09:46:15Z</time>
      </trkpt>
      <trkpt lat="47.33959" lon="0.10182">
        <ele>63.58</ele>
        <time>2010-10-31T09:46:22Z</time>
      </trkpt>
      <trkpt lat="47.3396" lon="0.10155">
        <ele>62.62</ele>
        <time>2010-10-31T09:46:27Z</time>
      </trkpt>
      <trkpt lat="47.33956" lon="0.10124">
        <ele>63.58</ele>
        <time>2010-10-31T09:46:33Z</time>
      </trkpt>
      <trkpt lat="47.33955" lon="0.10119">
        <ele>63.58</ele>
        <time>2010-10-31T09:46:34Z</time>
      </trkpt>
      <trkpt lat="47.33946" lon="0.10101">
        <ele>64.55</ele>
        <time>2010-10-31T09:46:38Z</time>
      </trkpt>
      <trkpt lat="47.33929" lon="0.10072">
        <ele>65.03</ele>
        <time>2010-10-31T09:46:45Z</time>
      </trkpt>
      <trkpt lat="47.33907" lon="0.10045">
        <ele>65.03</ele>
        <time>2010-10-31T09:46:51Z</time>
      </trkpt>
      <trkpt lat="47.33896" lon="0.1002">
        <ele>65.51</ele>
        <time>2010-10-31T09:46:57Z</time>
      </trkpt>
      <trkpt lat="47.33885" lon="0.09988">
        <ele>66.47</ele>
        <time>2010-10-31T09:47:04Z</time>
      </trkpt>
      <trkpt lat="47.33879" lon="0.09959">
        <ele>67.43</ele>
        <time>2010-10-31T09:47:11Z</time>
      </trkpt>
      <trkpt lat="47.33875" lon="0.09946">
        <ele>68.87</ele>
        <time>2010-10-31T09:47:15Z</time>
      </trkpt>
      <trkpt lat="47.3387" lon="0.09929">
        <ele>69.83</ele>
        <time>2010-10-31T09:47:20Z</time>
      </trkpt>
      <trkpt lat="47.33868" lon="0.09916">
        <ele>69.83</ele>
        <time>2010-10-31T09:47:25Z</time>
      </trkpt>
      <trkpt lat="47.33865" lon="0.09897">
        <ele>71.27</ele>
        <time>2010-10-31T09:47:31Z</time>
      </trkpt>
      <trkpt lat="47.3386" lon="0.09879">
        <ele>73.2</ele>
        <time>2010-10-31T09:47:37Z</time>
      </trkpt>
      <trkpt lat="47.33852" lon="0.0986">
        <ele>74.16</ele>
        <time>2010-10-31T09:47:43Z</time>
      </trkpt>
      <trkpt lat="47.33847" lon="0.09847">
        <ele>74.64</ele>
        <time>2010-10-31T09:47:47Z</time>
      </trkpt>
      <trkpt lat="47.33835" lon="0.09816">
        <ele>75.6</ele>
        <time>2010-10-31T09:47:55Z</time>
      </trkpt>
      <trkpt lat="47.33817" lon="0.09787">
        <ele>76.56</ele>
        <time>2010-10-31T09:48:03Z</time>
      </trkpt>
      <trkpt lat="47.33805" lon="0.0977">
        <ele>76.56</ele>
        <time>2010-10-31T09:48:08Z</time>
      </trkpt>
      <trkpt lat="47.33791" lon="0.09746">
        <ele>77.52</ele>
        <time>2010-10-31T09:48:14Z</time>
      </trkpt>
      <trkpt lat="47.33776" lon="0.09721">
        <ele>77.04</ele>
        <time>2010-10-31T09:48:20Z</time>
      </trkpt>
      <trkpt lat="47.33774" lon="0.09716">
        <ele>78</ele>
        <time>2010-10-31T09:48:21Z</time>
      </trkpt>
      <trkpt lat="47.33772" lon="0.09712">
        <ele>77.04</ele>
        <time>2010-10-31T09:48:22Z</time>
      </trkpt>
      <trkpt lat="47.33754" lon="0.09686">
        <ele>78.97</ele>
        <time>2010-10-31T09:48:28Z</time>
      </trkpt>
      <trkpt lat="47.33743" lon="0.0968">
        <ele>78</ele>
        <time>2010-10-31T09:48:30Z</time>
      </trkpt>
      <trkpt lat="47.3374" lon="0.09675">
        <ele>78.97</ele>
        <time>2010-10-31T09:48:31Z</time>
      </trkpt>
      <trkpt lat="47.33729" lon="0.09659">
        <ele>78</ele>
        <time>2010-10-31T09:48:35Z</time>
      </trkpt>
      <trkpt lat="47.33725" lon="0.09655">
        <ele>77.52</ele>
        <time>2010-10-31T09:48:36Z</time>
      </trkpt>
      <trkpt lat="47.33711" lon="0.09637">
        <ele>78</ele>
        <time>2010-10-31T09:48:40Z</time>
      </trkpt>
      <trkpt lat="47.337" lon="0.09623">
        <ele>78</ele>
        <time>2010-10-31T09:48:43Z</time>
      </trkpt>
      <trkpt lat="47.33696" lon="0.09619">
        <ele>78.97</ele>
        <time>2010-10-31T09:48:44Z</time>
      </trkpt>
      <trkpt lat="47.33693" lon="0.09614">
        <ele>78.97</ele>
        <time>2010-10-31T09:48:45Z</time>
      </trkpt>
      <trkpt lat="47.33689" lon="0.0961">
        <ele>78.97</ele>
        <time>2010-10-31T09:48:46Z</time>
      </trkpt>
      <trkpt lat="47.33686" lon="0.09605">
        <ele>78.48</ele>
        <time>2010-10-31T09:48:47Z</time>
      </trkpt>
      <trkpt lat="47.33666" lon="0.09582">
        <ele>78</ele>
        <time>2010-10-31T09:48:53Z</time>
      </trkpt>
      <trkpt lat="47.33663" lon="0.09577">
        <ele>78.48</ele>
        <time>2010-10-31T09:48:54Z</time>
      </trkpt>
      <trkpt lat="47.33641" lon="0.09547">
        <ele>77.52</ele>
        <time>2010-10-31T09:49:00Z</time>
      </trkpt>
      <trkpt lat="47.33637" lon="0.09542">
        <ele>78</ele>
        <time>2010-10-31T09:49:01Z</time>
      </trkpt>
      <trkpt lat="47.33633" lon="0.09538">
        <ele>77.52</ele>
        <time>2010-10-31T09:49:02Z</time>
      </trkpt>
      <trkpt lat="47.33628" lon="0.09535">
        <ele>77.04</ele>
        <time>2010-10-31T09:49:03Z</time>
      </trkpt>
      <trkpt lat="47.33623" lon="0.09532">
        <ele>77.52</ele>
        <time>2010-10-31T09:49:04Z</time>
      </trkpt>
      <trkpt lat="47.33618" lon="0.09528">
        <ele>77.04</ele>
        <time>2010-10-31T09:49:05Z</time>
      </trkpt>
      <trkpt lat="47.33614" lon="0.09524">
        <ele>77.52</ele>
        <time>2010-10-31T09:49:06Z</time>
      </trkpt>
      <trkpt lat="47.33602" lon="0.09507">
        <ele>78.97</ele>
        <time>2010-10-31T09:49:11Z</time>
      </trkpt>
      <trkpt lat="47.33591" lon="0.09488">
        <ele>78.97</ele>
        <time>2010-10-31T09:49:16Z</time>
      </trkpt>
      <trkpt lat="47.33576" lon="0.09462">
        <ele>80.41</ele>
        <time>2010-10-31T09:49:22Z</time>
      </trkpt>
      <trkpt lat="47.33561" lon="0.09438">
        <ele>81.37</ele>
        <time>2010-10-31T09:49:28Z</time>
      </trkpt>
      <trkpt lat="47.33543" lon="0.09415">
        <ele>81.85</ele>
        <time>2010-10-31T09:49:33Z</time>
      </trkpt>
      <trkpt lat="47.33526" lon="0.09391">
        <ele>82.33</ele>
        <time>2010-10-31T09:49:39Z</time>
      </trkpt>
      <trkpt lat="47.33515" lon="0.09374">
        <ele>83.77</ele>
        <time>2010-10-31T09:49:43Z</time>
      </trkpt>
      <trkpt lat="47.33508" lon="0.09359">
        <ele>83.77</ele>
        <time>2010-10-31T09:49:46Z</time>
      </trkpt>
      <trkpt lat="47.33506" lon="0.09354">
        <ele>84.25</ele>
        <time>2010-10-31T09:49:47Z</time>
      </trkpt>
      <trkpt lat="47.33494" lon="0.09329">
        <ele>84.73</ele>
        <time>2010-10-31T09:49:53Z</time>
      </trkpt>
      <trkpt lat="47.33491" lon="0.09325">
        <ele>84.73</ele>
        <time>2010-10-31T09:49:54Z</time>
      </trkpt>
      <trkpt lat="47.33488" lon="0.0932">
        <ele>85.21</ele>
        <time>2010-10-31T09:49:55Z</time>
      </trkpt>
      <trkpt lat="47.33465" lon="0.09289">
        <ele>85.69</ele>
        <time>2010-10-31T09:50:02Z</time>
      </trkpt>
      <trkpt lat="47.3345" lon="0.09273">
        <ele>86.18</ele>
        <time>2010-10-31T09:50:07Z</time>
      </trkpt>
      <trkpt lat="47.33439" lon="0.09257">
        <ele>86.18</ele>
        <time>2010-10-31T09:50:11Z</time>
      </trkpt>
      <trkpt lat="47.33438" lon="0.09253">
        <ele>86.66</ele>
        <time>2010-10-31T09:50:12Z</time>
      </trkpt>
      <trkpt lat="47.33441" lon="0.09221">
        <ele>87.14</ele>
        <time>2010-10-31T09:50:19Z</time>
      </trkpt>
      <trkpt lat="47.33444" lon="0.0918">
        <ele>87.62</ele>
        <time>2010-10-31T09:50:27Z</time>
      </trkpt>
      <trkpt lat="47.33447" lon="0.09158">
        <ele>87.14</ele>
        <time>2010-10-31T09:50:32Z</time>
      </trkpt>
      <trkpt lat="47.33456" lon="0.09107">
        <ele>86.66</ele>
        <time>2010-10-31T09:50:41Z</time>
      </trkpt>
      <trkpt lat="47.33459" lon="0.09094">
        <ele>87.14</ele>
        <time>2010-10-31T09:50:43Z</time>
      </trkpt>
      <trkpt lat="47.33474" lon="0.09038">
        <ele>87.62</ele>
        <time>2010-10-31T09:50:52Z</time>
      </trkpt>
      <trkpt lat="47.335" lon="0.08957">
        <ele>86.18</ele>
        <time>2010-10-31T09:51:04Z</time>
      </trkpt>
      <trkpt lat="47.33518" lon="0.08896">
        <ele>86.66</ele>
        <time>2010-10-31T09:51:12Z</time>
      </trkpt>
      <trkpt lat="47.3353" lon="0.08859">
        <ele>85.21</ele>
        <time>2010-10-31T09:51:17Z</time>
      </trkpt>
      <trkpt lat="47.33551" lon="0.08804">
        <ele>86.66</ele>
        <time>2010-10-31T09:51:25Z</time>
      </trkpt>
      <trkpt lat="47.33571" lon="0.08739">
        <ele>86.18</ele>
        <time>2010-10-31T09:51:34Z</time>
      </trkpt>
      <trkpt lat="47.3358" lon="0.08711">
        <ele>87.14</ele>
        <time>2010-10-31T09:51:38Z</time>
      </trkpt>
      <trkpt lat="47.33599" lon="0.08654">
        <ele>88.1</ele>
        <time>2010-10-31T09:51:46Z</time>
      </trkpt>
      <trkpt lat="47.33617" lon="0.08597">
        <ele>88.1</ele>
        <time>2010-10-31T09:51:54Z</time>
      </trkpt>
      <trkpt lat="47.33623" lon="0.0857">
        <ele>88.58</ele>
        <time>2010-10-31T09:51:58Z</time>
      </trkpt>
      <trkpt lat="47.33624" lon="0.08563">
        <ele>89.06</ele>
        <time>2010-10-31T09:51:59Z</time>
      </trkpt>
      <trkpt lat="47.33624" lon="0.08556">
        <ele>89.54</ele>
        <time>2010-10-31T09:52:00Z</time>
      </trkpt>
      <trkpt lat="47.33625" lon="0.08549">
        <ele>90.02</ele>
        <time>2010-10-31T09:52:01Z</time>
      </trkpt>
      <trkpt lat="47.33625" lon="0.08543">
        <ele>90.02</ele>
        <time>2010-10-31T09:52:02Z</time>
      </trkpt>
      <trkpt lat="47.33626" lon="0.08529">
        <ele>90.5</ele>
        <time>2010-10-31T09:52:04Z</time>
      </trkpt>
      <trkpt lat="47.33628" lon="0.08516">
        <ele>90.02</ele>
        <time>2010-10-31T09:52:06Z</time>
      </trkpt>
      <trkpt lat="47.33634" lon="0.08492">
        <ele>90.98</ele>
        <time>2010-10-31T09:52:10Z</time>
      </trkpt>
      <trkpt lat="47.33634" lon="0.08485">
        <ele>90.98</ele>
        <time>2010-10-31T09:52:11Z</time>
      </trkpt>
      <trkpt lat="47.33635" lon="0.08479">
        <ele>90.5</ele>
        <time>2010-10-31T09:52:12Z</time>
      </trkpt>
      <trkpt lat="47.33635" lon="0.08472">
        <ele>90.5</ele>
        <time>2010-10-31T09:52:13Z</time>
      </trkpt>
      <trkpt lat="47.33636" lon="0.08466">
        <ele>90.5</ele>
        <time>2010-10-31T09:52:14Z</time>
      </trkpt>
      <trkpt lat="47.33637" lon="0.08459">
        <ele>91.46</ele>
        <time>2010-10-31T09:52:15Z</time>
      </trkpt>
      <trkpt lat="47.33639" lon="0.08452">
        <ele>90.02</ele>
        <time>2010-10-31T09:52:16Z</time>
      </trkpt>
      <trkpt lat="47.3364" lon="0.08446">
        <ele>89.54</ele>
        <time>2010-10-31T09:52:17Z</time>
      </trkpt>
      <trkpt lat="47.33649" lon="0.08412">
        <ele>90.5</ele>
        <time>2010-10-31T09:52:22Z</time>
      </trkpt>
      <trkpt lat="47.33653" lon="0.08398">
        <ele>90.98</ele>
        <time>2010-10-31T09:52:24Z</time>
      </trkpt>
      <trkpt lat="47.33657" lon="0.08349">
        <ele>90.98</ele>
        <time>2010-10-31T09:52:31Z</time>
      </trkpt>
      <trkpt lat="47.33659" lon="0.08334">
        <ele>90.98</ele>
        <time>2010-10-31T09:52:33Z</time>
      </trkpt>
      <trkpt lat="47.33662" lon="0.08326">
        <ele>91.94</ele>
        <time>2010-10-31T09:52:34Z</time>
      </trkpt>
      <trkpt lat="47.33665" lon="0.08319">
        <ele>90.98</ele>
        <time>2010-10-31T09:52:35Z</time>
      </trkpt>
      <trkpt lat="47.3368" lon="0.08291">
        <ele>90.5</ele>
        <time>2010-10-31T09:52:39Z</time>
      </trkpt>
      <trkpt lat="47.33688" lon="0.08271">
        <ele>90.98</ele>
        <time>2010-10-31T09:52:42Z</time>
      </trkpt>
      <trkpt lat="47.33703" lon="0.08251">
        <ele>91.94</ele>
        <time>2010-10-31T09:52:45Z</time>
      </trkpt>
      <trkpt lat="47.33713" lon="0.08239">
        <ele>90.5</ele>
        <time>2010-10-31T09:52:47Z</time>
      </trkpt>
      <trkpt lat="47.33717" lon="0.08232">
        <ele>90.98</ele>
        <time>2010-10-31T09:52:48Z</time>
      </trkpt>
      <trkpt lat="47.33734" lon="0.08206">
        <ele>90.5</ele>
        <time>2010-10-31T09:52:52Z</time>
      </trkpt>
      <trkpt lat="47.33738" lon="0.082">
        <ele>91.46</ele>
        <time>2010-10-31T09:52:53Z</time>
      </trkpt>
      <trkpt lat="47.33742" lon="0.08193">
        <ele>90.98</ele>
        <time>2010-10-31T09:52:54Z</time>
      </trkpt>
      <trkpt lat="47.33752" lon="0.08174">
        <ele>90.98</ele>
        <time>2010-10-31T09:52:57Z</time>
      </trkpt>
      <trkpt lat="47.33755" lon="0.08167">
        <ele>91.46</ele>
        <time>2010-10-31T09:52:58Z</time>
      </trkpt>
      <trkpt lat="47.33784" lon="0.08105">
        <ele>90.98</ele>
        <time>2010-10-31T09:53:07Z</time>
      </trkpt>
      <trkpt lat="47.33813" lon="0.08044">
        <ele>91.94</ele>
        <time>2010-10-31T09:53:16Z</time>
      </trkpt>
      <trkpt lat="47.33833" lon="0.08016">
        <ele>91.46</ele>
        <time>2010-10-31T09:53:21Z</time>
      </trkpt>
      <trkpt lat="47.33842" lon="0.08006">
        <ele>91.94</ele>
        <time>2010-10-31T09:53:23Z</time>
      </trkpt>
      <trkpt lat="47.33846" lon="0.08001">
        <ele>91.94</ele>
        <time>2010-10-31T09:53:24Z</time>
      </trkpt>
      <trkpt lat="47.33878" lon="0.07968">
        <ele>91.94</ele>
        <time>2010-10-31T09:53:31Z</time>
      </trkpt>
      <trkpt lat="47.33915" lon="0.07932">
        <ele>91.46</ele>
        <time>2010-10-31T09:53:39Z</time>
      </trkpt>
      <trkpt lat="47.33929" lon="0.07917">
        <ele>93.39</ele>
        <time>2010-10-31T09:53:42Z</time>
      </trkpt>
      <trkpt lat="47.33966" lon="0.07878">
        <ele>91.94</ele>
        <time>2010-10-31T09:53:50Z</time>
      </trkpt>
      <trkpt lat="47.33981" lon="0.07859">
        <ele>91.94</ele>
        <time>2010-10-31T09:53:54Z</time>
      </trkpt>
      <trkpt lat="47.34" lon="0.07838">
        <ele>92.42</ele>
        <time>2010-10-31T09:53:59Z</time>
      </trkpt>
      <trkpt lat="47.34014" lon="0.0782">
        <ele>92.42</ele>
        <time>2010-10-31T09:54:03Z</time>
      </trkpt>
      <trkpt lat="47.34017" lon="0.07816">
        <ele>92.42</ele>
        <time>2010-10-31T09:54:04Z</time>
      </trkpt>
      <trkpt lat="47.34027" lon="0.07804">
        <ele>91.46</ele>
        <time>2010-10-31T09:54:07Z</time>
      </trkpt>
      <trkpt lat="47.34048" lon="0.07774">
        <ele>91.46</ele>
        <time>2010-10-31T09:54:13Z</time>
      </trkpt>
      <trkpt lat="47.34056" lon="0.07765">
        <ele>91.46</ele>
        <time>2010-10-31T09:54:15Z</time>
      </trkpt>
      <trkpt lat="47.34059" lon="0.0776">
        <ele>90.98</ele>
        <time>2010-10-31T09:54:16Z</time>
      </trkpt>
      <trkpt lat="47.34062" lon="0.07756">
        <ele>90.5</ele>
        <time>2010-10-31T09:54:17Z</time>
      </trkpt>
      <trkpt lat="47.34065" lon="0.07754">
        <ele>91.46</ele>
        <time>2010-10-31T09:54:18Z</time>
      </trkpt>
      <trkpt lat="47.34067" lon="0.07753">
        <ele>90.98</ele>
        <time>2010-10-31T09:54:19Z</time>
      </trkpt>
      <trkpt lat="47.34069" lon="0.07756">
        <ele>90.98</ele>
        <time>2010-10-31T09:54:20Z</time>
      </trkpt>
      <trkpt lat="47.34071" lon="0.0776">
        <ele>90.98</ele>
        <time>2010-10-31T09:54:21Z</time>
      </trkpt>
      <trkpt lat="47.34073" lon="0.07766">
        <ele>91.46</ele>
        <time>2010-10-31T09:54:22Z</time>
      </trkpt>
      <trkpt lat="47.34078" lon="0.07781">
        <ele>91.46</ele>
        <time>2010-10-31T09:54:25Z</time>
      </trkpt>
      <trkpt lat="47.3408" lon="0.07787">
        <ele>90.98</ele>
        <time>2010-10-31T09:54:26Z</time>
      </trkpt>
      <trkpt lat="47.34087" lon="0.07804">
        <ele>91.94</ele>
        <time>2010-10-31T09:54:29Z</time>
      </trkpt>
      <trkpt lat="47.34092" lon="0.07816">
        <ele>92.9</ele>
        <time>2010-10-31T09:54:31Z</time>
      </trkpt>
      <trkpt lat="47.3411" lon="0.07856">
        <ele>92.9</ele>
        <time>2010-10-31T09:54:38Z</time>
      </trkpt>
      <trkpt lat="47.34113" lon="0.07861">
        <ele>92.42</ele>
        <time>2010-10-31T09:54:39Z</time>
      </trkpt>
      <trkpt lat="47.3414" lon="0.07911">
        <ele>92.9</ele>
        <time>2010-10-31T09:54:48Z</time>
      </trkpt>
      <trkpt lat="47.34168" lon="0.0796">
        <ele>92.9</ele>
        <time>2010-10-31T09:54:57Z</time>
      </trkpt>
      <trkpt lat="47.34184" lon="0.07987">
        <ele>93.39</ele>
        <time>2010-10-31T09:55:02Z</time>
      </trkpt>
      <trkpt lat="47.34188" lon="0.07991">
        <ele>92.9</ele>
        <time>2010-10-31T09:55:03Z</time>
      </trkpt>
      <trkpt lat="47.34192" lon="0.07994">
        <ele>93.39</ele>
        <time>2010-10-31T09:55:04Z</time>
      </trkpt>
      <trkpt lat="47.34197" lon="0.07996">
        <ele>93.39</ele>
        <time>2010-10-31T09:55:05Z</time>
      </trkpt>
      <trkpt lat="47.34202" lon="0.07998">
        <ele>92.9</ele>
        <time>2010-10-31T09:55:06Z</time>
      </trkpt>
      <trkpt lat="47.34238" lon="0.08002">
        <ele>93.87</ele>
        <time>2010-10-31T09:55:13Z</time>
      </trkpt>
      <trkpt lat="47.3429" lon="0.08015">
        <ele>93.39</ele>
        <time>2010-10-31T09:55:23Z</time>
      </trkpt>
      <trkpt lat="47.34304" lon="0.08025">
        <ele>93.87</ele>
        <time>2010-10-31T09:55:26Z</time>
      </trkpt>
      <trkpt lat="47.34308" lon="0.08029">
        <ele>93.39</ele>
        <time>2010-10-31T09:55:27Z</time>
      </trkpt>
      <trkpt lat="47.34312" lon="0.08033">
        <ele>93.39</ele>
        <time>2010-10-31T09:55:28Z</time>
      </trkpt>
      <trkpt lat="47.34316" lon="0.08036">
        <ele>92.42</ele>
        <time>2010-10-31T09:55:29Z</time>
      </trkpt>
      <trkpt lat="47.3432" lon="0.08037">
        <ele>93.39</ele>
        <time>2010-10-31T09:55:30Z</time>
      </trkpt>
      <trkpt lat="47.34328" lon="0.08034">
        <ele>93.39</ele>
        <time>2010-10-31T09:55:32Z</time>
      </trkpt>
      <trkpt lat="47.34346" lon="0.08015">
        <ele>93.39</ele>
        <time>2010-10-31T09:55:38Z</time>
      </trkpt>
      <trkpt lat="47.34347" lon="0.08012">
        <ele>94.35</ele>
        <time>2010-10-31T09:55:39Z</time>
      </trkpt>
      <trkpt lat="47.3435" lon="0.08001">
        <ele>93.39</ele>
        <time>2010-10-31T09:55:42Z</time>
      </trkpt>
      <trkpt lat="47.34349" lon="0.07981">
        <ele>94.35</ele>
        <time>2010-10-31T09:55:46Z</time>
      </trkpt>
      <trkpt lat="47.34348" lon="0.0795">
        <ele>93.87</ele>
        <time>2010-10-31T09:55:51Z</time>
      </trkpt>
      <trkpt lat="47.34344" lon="0.07907">
        <ele>93.39</ele>
        <time>2010-10-31T09:55:57Z</time>
      </trkpt>
      <trkpt lat="47.34343" lon="0.07899">
        <ele>93.39</ele>
        <time>2010-10-31T09:55:58Z</time>
      </trkpt>
      <trkpt lat="47.3434" lon="0.07869">
        <ele>92.42</ele>
        <time>2010-10-31T09:56:02Z</time>
      </trkpt>
      <trkpt lat="47.34338" lon="0.07846">
        <ele>93.87</ele>
        <time>2010-10-31T09:56:05Z</time>
      </trkpt>
      <trkpt lat="47.34338" lon="0.07838">
        <ele>93.39</ele>
        <time>2010-10-31T09:56:06Z</time>
      </trkpt>
      <trkpt lat="47.34337" lon="0.0783">
        <ele>94.35</ele>
        <time>2010-10-31T09:56:07Z</time>
      </trkpt>
      <trkpt lat="47.34336" lon="0.07817">
        <ele>93.87</ele>
        <time>2010-10-31T09:56:09Z</time>
      </trkpt>
      <trkpt lat="47.34336" lon="0.07811">
        <ele>92.42</ele>
        <time>2010-10-31T09:56:10Z</time>
      </trkpt>
      <trkpt lat="47.34336" lon="0.07772">
        <ele>92.9</ele>
        <time>2010-10-31T09:56:16Z</time>
      </trkpt>
      <trkpt lat="47.34338" lon="0.07767">
        <ele>92.9</ele>
        <time>2010-10-31T09:56:17Z</time>
      </trkpt>
      <trkpt lat="47.34345" lon="0.07756">
        <ele>94.35</ele>
        <time>2010-10-31T09:56:19Z</time>
      </trkpt>
      <trkpt lat="47.34353" lon="0.07747">
        <ele>93.39</ele>
        <time>2010-10-31T09:56:21Z</time>
      </trkpt>
      <trkpt lat="47.34384" lon="0.07718">
        <ele>94.35</ele>
        <time>2010-10-31T09:56:28Z</time>
      </trkpt>
      <trkpt lat="47.34417" lon="0.07688">
        <ele>93.39</ele>
        <time>2010-10-31T09:56:36Z</time>
      </trkpt>
      <trkpt lat="47.34426" lon="0.0768">
        <ele>94.83</ele>
        <time>2010-10-31T09:56:38Z</time>
      </trkpt>
      <trkpt lat="47.34437" lon="0.07667">
        <ele>92.9</ele>
        <time>2010-10-31T09:56:41Z</time>
      </trkpt>
      <trkpt lat="47.34449" lon="0.07656">
        <ele>92.9</ele>
        <time>2010-10-31T09:56:44Z</time>
      </trkpt>
      <trkpt lat="47.34453" lon="0.07654">
        <ele>93.39</ele>
        <time>2010-10-31T09:56:45Z</time>
      </trkpt>
      <trkpt lat="47.34457" lon="0.07654">
        <ele>93.39</ele>
        <time>2010-10-31T09:56:46Z</time>
      </trkpt>
      <trkpt lat="47.34462" lon="0.07655">
        <ele>93.87</ele>
        <time>2010-10-31T09:56:47Z</time>
      </trkpt>
      <trkpt lat="47.34465" lon="0.07658">
        <ele>94.35</ele>
        <time>2010-10-31T09:56:48Z</time>
      </trkpt>
      <trkpt lat="47.34469" lon="0.07661">
        <ele>92.42</ele>
        <time>2010-10-31T09:56:49Z</time>
      </trkpt>
      <trkpt lat="47.34472" lon="0.07665">
        <ele>91.94</ele>
        <time>2010-10-31T09:56:50Z</time>
      </trkpt>
      <trkpt lat="47.34476" lon="0.07669">
        <ele>93.39</ele>
        <time>2010-10-31T09:56:51Z</time>
      </trkpt>
      <trkpt lat="47.3448" lon="0.07672">
        <ele>93.39</ele>
        <time>2010-10-31T09:56:52Z</time>
      </trkpt>
      <trkpt lat="47.34484" lon="0.07676">
        <ele>93.87</ele>
        <time>2010-10-31T09:56:53Z</time>
      </trkpt>
      <trkpt lat="47.34488" lon="0.0768">
        <ele>94.35</ele>
        <time>2010-10-31T09:56:54Z</time>
      </trkpt>
      <trkpt lat="47.34492" lon="0.07684">
        <ele>94.35</ele>
        <time>2010-10-31T09:56:55Z</time>
      </trkpt>
      <trkpt lat="47.34497" lon="0.07688">
        <ele>94.35</ele>
        <time>2010-10-31T09:56:56Z</time>
      </trkpt>
      <trkpt lat="47.345" lon="0.07692">
        <ele>95.79</ele>
        <time>2010-10-31T09:56:57Z</time>
      </trkpt>
      <trkpt lat="47.34519" lon="0.07711">
        <ele>92.9</ele>
        <time>2010-10-31T09:57:02Z</time>
      </trkpt>
      <trkpt lat="47.34523" lon="0.07715">
        <ele>93.87</ele>
        <time>2010-10-31T09:57:03Z</time>
      </trkpt>
      <trkpt lat="47.3453" lon="0.07723">
        <ele>94.35</ele>
        <time>2010-10-31T09:57:05Z</time>
      </trkpt>
      <trkpt lat="47.34552" lon="0.07746">
        <ele>93.87</ele>
        <time>2010-10-31T09:57:11Z</time>
      </trkpt>
      <trkpt lat="47.34555" lon="0.07746">
        <ele>94.83</ele>
        <time>2010-10-31T09:57:12Z</time>
      </trkpt>
      <trkpt lat="47.34558" lon="0.07743">
        <ele>93.87</ele>
        <time>2010-10-31T09:57:13Z</time>
      </trkpt>
      <trkpt lat="47.34561" lon="0.07739">
        <ele>93.87</ele>
        <time>2010-10-31T09:57:14Z</time>
      </trkpt>
      <trkpt lat="47.34564" lon="0.07734">
        <ele>93.39</ele>
        <time>2010-10-31T09:57:15Z</time>
      </trkpt>
      <trkpt lat="47.34565" lon="0.07728">
        <ele>93.39</ele>
        <time>2010-10-31T09:57:16Z</time>
      </trkpt>
      <trkpt lat="47.34567" lon="0.07723">
        <ele>91.94</ele>
        <time>2010-10-31T09:57:17Z</time>
      </trkpt>
      <trkpt lat="47.34569" lon="0.07718">
        <ele>93.87</ele>
        <time>2010-10-31T09:57:18Z</time>
      </trkpt>
      <trkpt lat="47.34571" lon="0.07713">
        <ele>94.83</ele>
        <time>2010-10-31T09:57:19Z</time>
      </trkpt>
      <trkpt lat="47.34574" lon="0.07708">
        <ele>94.35</ele>
        <time>2010-10-31T09:57:20Z</time>
      </trkpt>
      <trkpt lat="47.34577" lon="0.07702">
        <ele>94.83</ele>
        <time>2010-10-31T09:57:21Z</time>
      </trkpt>
      <trkpt lat="47.3458" lon="0.07696">
        <ele>94.35</ele>
        <time>2010-10-31T09:57:22Z</time>
      </trkpt>
      <trkpt lat="47.34583" lon="0.07691">
        <ele>94.83</ele>
        <time>2010-10-31T09:57:23Z</time>
      </trkpt>
      <trkpt lat="47.34588" lon="0.07679">
        <ele>94.35</ele>
        <time>2010-10-31T09:57:25Z</time>
      </trkpt>
      <trkpt lat="47.3459" lon="0.07673">
        <ele>94.35</ele>
        <time>2010-10-31T09:57:26Z</time>
      </trkpt>
      <trkpt lat="47.34592" lon="0.07668">
        <ele>93.87</ele>
        <time>2010-10-31T09:57:27Z</time>
      </trkpt>
      <trkpt lat="47.34594" lon="0.07664">
        <ele>93.87</ele>
        <time>2010-10-31T09:57:28Z</time>
      </trkpt>
      <trkpt lat="47.34597" lon="0.07659">
        <ele>95.31</ele>
        <time>2010-10-31T09:57:29Z</time>
      </trkpt>
      <trkpt lat="47.34601" lon="0.07654">
        <ele>93.87</ele>
        <time>2010-10-31T09:57:30Z</time>
      </trkpt>
      <trkpt lat="47.34605" lon="0.07649">
        <ele>94.83</ele>
        <time>2010-10-31T09:57:31Z</time>
      </trkpt>
      <trkpt lat="47.34621" lon="0.0762">
        <ele>94.35</ele>
        <time>2010-10-31T09:57:36Z</time>
      </trkpt>
      <trkpt lat="47.34624" lon="0.07614">
        <ele>94.35</ele>
        <time>2010-10-31T09:57:37Z</time>
      </trkpt>
      <trkpt lat="47.34637" lon="0.07583">
        <ele>94.35</ele>
        <time>2010-10-31T09:57:42Z</time>
      </trkpt>
      <trkpt lat="47.3464" lon="0.07577">
        <ele>95.31</ele>
        <time>2010-10-31T09:57:43Z</time>
      </trkpt>
      <trkpt lat="47.34648" lon="0.07558">
        <ele>94.35</ele>
        <time>2010-10-31T09:57:46Z</time>
      </trkpt>
      <trkpt lat="47.34649" lon="0.07552">
        <ele>94.35</ele>
        <time>2010-10-31T09:57:47Z</time>
      </trkpt>
      <trkpt lat="47.34651" lon="0.07546">
        <ele>96.27</ele>
        <time>2010-10-31T09:57:48Z</time>
      </trkpt>
      <trkpt lat="47.34652" lon="0.0754">
        <ele>94.83</ele>
        <time>2010-10-31T09:57:49Z</time>
      </trkpt>
      <trkpt lat="47.34654" lon="0.07534">
        <ele>94.35</ele>
        <time>2010-10-31T09:57:50Z</time>
      </trkpt>
      <trkpt lat="47.34672" lon="0.07491">
        <ele>95.31</ele>
        <time>2010-10-31T09:57:57Z</time>
      </trkpt>
      <trkpt lat="47.34675" lon="0.07484">
        <ele>93.87</ele>
        <time>2010-10-31T09:57:58Z</time>
      </trkpt>
      <trkpt lat="47.3468" lon="0.07471">
        <ele>94.35</ele>
        <time>2010-10-31T09:58:00Z</time>
      </trkpt>
      <trkpt lat="47.34682" lon="0.07466">
        <ele>94.35</ele>
        <time>2010-10-31T09:58:01Z</time>
      </trkpt>
      <trkpt lat="47.34684" lon="0.07461">
        <ele>93.87</ele>
        <time>2010-10-31T09:58:02Z</time>
      </trkpt>
      <trkpt lat="47.34687" lon="0.07458">
        <ele>94.35</ele>
        <time>2010-10-31T09:58:03Z</time>
      </trkpt>
      <trkpt lat="47.34691" lon="0.07455">
        <ele>93.87</ele>
        <time>2010-10-31T09:58:04Z</time>
      </trkpt>
      <trkpt lat="47.34692" lon="0.07452">
        <ele>93.39</ele>
        <time>2010-10-31T09:58:05Z</time>
      </trkpt>
      <trkpt lat="47.34695" lon="0.07449">
        <ele>93.87</ele>
        <time>2010-10-31T09:58:06Z</time>
      </trkpt>
      <trkpt lat="47.34698" lon="0.07445">
        <ele>93.39</ele>
        <time>2010-10-31T09:58:07Z</time>
      </trkpt>
      <trkpt lat="47.347" lon="0.07441">
        <ele>93.87</ele>
        <time>2010-10-31T09:58:08Z</time>
      </trkpt>
      <trkpt lat="47.34701" lon="0.07437">
        <ele>94.35</ele>
        <time>2010-10-31T09:58:09Z</time>
      </trkpt>
      <trkpt lat="47.34706" lon="0.07421">
        <ele>93.39</ele>
        <time>2010-10-31T09:58:13Z</time>
      </trkpt>
      <trkpt lat="47.34708" lon="0.07418">
        <ele>93.87</ele>
        <time>2010-10-31T09:58:14Z</time>
      </trkpt>
      <trkpt lat="47.34709" lon="0.07414">
        <ele>92.9</ele>
        <time>2010-10-31T09:58:15Z</time>
      </trkpt>
      <trkpt lat="47.3471" lon="0.0741">
        <ele>93.39</ele>
        <time>2010-10-31T09:58:16Z</time>
      </trkpt>
      <trkpt lat="47.34711" lon="0.07407">
        <ele>92.9</ele>
        <time>2010-10-31T09:58:17Z</time>
      </trkpt>
      <trkpt lat="47.34712" lon="0.07404">
        <ele>92.9</ele>
        <time>2010-10-31T09:58:18Z</time>
      </trkpt>
      <trkpt lat="47.34712" lon="0.074">
        <ele>92.9</ele>
        <time>2010-10-31T09:58:19Z</time>
      </trkpt>
      <trkpt lat="47.34713" lon="0.07397">
        <ele>93.39</ele>
        <time>2010-10-31T09:58:20Z</time>
      </trkpt>
      <trkpt lat="47.34714" lon="0.07393">
        <ele>93.39</ele>
        <time>2010-10-31T09:58:21Z</time>
      </trkpt>
      <trkpt lat="47.34714" lon="0.0739">
        <ele>92.9</ele>
        <time>2010-10-31T09:58:22Z</time>
      </trkpt>
      <trkpt lat="47.34714" lon="0.07387">
        <ele>93.39</ele>
        <time>2010-10-31T09:58:23Z</time>
      </trkpt>
      <trkpt lat="47.34715" lon="0.07384">
        <ele>93.87</ele>
        <time>2010-10-31T09:58:24Z</time>
      </trkpt>
      <trkpt lat="47.34716" lon="0.07381">
        <ele>92.9</ele>
        <time>2010-10-31T09:58:25Z</time>
      </trkpt>
      <trkpt lat="47.34716" lon="0.07378">
        <ele>93.39</ele>
        <time>2010-10-31T09:58:26Z</time>
      </trkpt>
      <trkpt lat="47.34717" lon="0.07374">
        <ele>93.39</ele>
        <time>2010-10-31T09:58:27Z</time>
      </trkpt>
      <trkpt lat="47.34718" lon="0.07371">
        <ele>93.39</ele>
        <time>2010-10-31T09:58:28Z</time>
      </trkpt>
      <trkpt lat="47.34718" lon="0.07368">
        <ele>92.42</ele>
        <time>2010-10-31T09:58:29Z</time>
      </trkpt>
      <trkpt lat="47.34721" lon="0.07346">
        <ele>92.9</ele>
        <time>2010-10-31T09:58:34Z</time>
      </trkpt>
      <trkpt lat="47.34722" lon="0.0732">
        <ele>93.39</ele>
        <time>2010-10-31T09:58:39Z</time>
      </trkpt>
      <trkpt lat="47.3472" lon="0.07313">
        <ele>92.42</ele>
        <time>2010-10-31T09:58:40Z</time>
      </trkpt>
      <trkpt lat="47.3472" lon="0.07306">
        <ele>91.94</ele>
        <time>2010-10-31T09:58:41Z</time>
      </trkpt>
      <trkpt lat="47.34723" lon="0.07266">
        <ele>93.39</ele>
        <time>2010-10-31T09:58:48Z</time>
      </trkpt>
      <trkpt lat="47.34729" lon="0.07247">
        <ele>92.9</ele>
        <time>2010-10-31T09:58:52Z</time>
      </trkpt>
      <trkpt lat="47.34732" lon="0.07241">
        <ele>93.39</ele>
        <time>2010-10-31T09:58:53Z</time>
      </trkpt>
      <trkpt lat="47.34739" lon="0.07227">
        <ele>93.39</ele>
        <time>2010-10-31T09:58:56Z</time>
      </trkpt>
      <trkpt lat="47.34741" lon="0.07223">
        <ele>91.46</ele>
        <time>2010-10-31T09:58:57Z</time>
      </trkpt>
      <trkpt lat="47.34742" lon="0.07219">
        <ele>91.46</ele>
        <time>2010-10-31T09:58:58Z</time>
      </trkpt>
      <trkpt lat="47.34745" lon="0.07216">
        <ele>90.98</ele>
        <time>2010-10-31T09:58:59Z</time>
      </trkpt>
      <trkpt lat="47.34753" lon="0.07194">
        <ele>90.5</ele>
        <time>2010-10-31T09:59:04Z</time>
      </trkpt>
      <trkpt lat="47.34755" lon="0.07188">
        <ele>90.98</ele>
        <time>2010-10-31T09:59:05Z</time>
      </trkpt>
      <trkpt lat="47.34758" lon="0.07181">
        <ele>90.5</ele>
        <time>2010-10-31T09:59:06Z</time>
      </trkpt>
      <trkpt lat="47.34761" lon="0.07174">
        <ele>90.5</ele>
        <time>2010-10-31T09:59:07Z</time>
      </trkpt>
      <trkpt lat="47.34763" lon="0.07167">
        <ele>90.5</ele>
        <time>2010-10-31T09:59:08Z</time>
      </trkpt>
      <trkpt lat="47.34769" lon="0.07153">
        <ele>90.02</ele>
        <time>2010-10-31T09:59:10Z</time>
      </trkpt>
      <trkpt lat="47.34777" lon="0.07132">
        <ele>89.54</ele>
        <time>2010-10-31T09:59:13Z</time>
      </trkpt>
      <trkpt lat="47.34781" lon="0.07124">
        <ele>90.02</ele>
        <time>2010-10-31T09:59:14Z</time>
      </trkpt>
      <trkpt lat="47.34783" lon="0.07108">
        <ele>91.46</ele>
        <time>2010-10-31T09:59:16Z</time>
      </trkpt>
      <trkpt lat="47.34793" lon="0.07063">
        <ele>90.02</ele>
        <time>2010-10-31T09:59:21Z</time>
      </trkpt>
      <trkpt lat="47.34797" lon="0.07053">
        <ele>88.58</ele>
        <time>2010-10-31T09:59:22Z</time>
      </trkpt>
      <trkpt lat="47.34831" lon="0.06973">
        <ele>87.62</ele>
        <time>2010-10-31T09:59:30Z</time>
      </trkpt>
      <trkpt lat="47.34846" lon="0.06946">
        <ele>86.66</ele>
        <time>2010-10-31T09:59:33Z</time>
      </trkpt>
      <trkpt lat="47.34866" lon="0.06918">
        <ele>85.21</ele>
        <time>2010-10-31T09:59:37Z</time>
      </trkpt>
      <trkpt lat="47.34869" lon="0.0691">
        <ele>84.73</ele>
        <time>2010-10-31T09:59:38Z</time>
      </trkpt>
      <trkpt lat="47.34872" lon="0.06901">
        <ele>85.69</ele>
        <time>2010-10-31T09:59:39Z</time>
      </trkpt>
      <trkpt lat="47.34878" lon="0.06893">
        <ele>85.69</ele>
        <time>2010-10-31T09:59:40Z</time>
      </trkpt>
      <trkpt lat="47.34883" lon="0.06886">
        <ele>85.21</ele>
        <time>2010-10-31T09:59:41Z</time>
      </trkpt>
      <trkpt lat="47.34889" lon="0.06879">
        <ele>83.29</ele>
        <time>2010-10-31T09:59:42Z</time>
      </trkpt>
      <trkpt lat="47.34895" lon="0.06873">
        <ele>83.77</ele>
        <time>2010-10-31T09:59:43Z</time>
      </trkpt>
      <trkpt lat="47.34901" lon="0.06869">
        <ele>83.77</ele>
        <time>2010-10-31T09:59:44Z</time>
      </trkpt>
      <trkpt lat="47.34912" lon="0.06859">
        <ele>81.85</ele>
        <time>2010-10-31T09:59:46Z</time>
      </trkpt>
      <trkpt lat="47.34917" lon="0.06853">
        <ele>82.33</ele>
        <time>2010-10-31T09:59:47Z</time>
      </trkpt>
      <trkpt lat="47.34922" lon="0.06846">
        <ele>81.85</ele>
        <time>2010-10-31T09:59:48Z</time>
      </trkpt>
      <trkpt lat="47.34933" lon="0.0683">
        <ele>80.89</ele>
        <time>2010-10-31T09:59:50Z</time>
      </trkpt>
      <trkpt lat="47.34955" lon="0.06796">
        <ele>78.97</ele>
        <time>2010-10-31T09:59:54Z</time>
      </trkpt>
      <trkpt lat="47.34959" lon="0.06789">
        <ele>77.52</ele>
        <time>2010-10-31T09:59:55Z</time>
      </trkpt>
      <trkpt lat="47.34963" lon="0.0678">
        <ele>77.04</ele>
        <time>2010-10-31T09:59:56Z</time>
      </trkpt>
      <trkpt lat="47.34968" lon="0.0677">
        <ele>76.56</ele>
        <time>2010-10-31T09:59:57Z</time>
      </trkpt>
      <trkpt lat="47.34973" lon="0.06758">
        <ele>76.08</ele>
        <time>2010-10-31T09:59:58Z</time>
      </trkpt>
      <trkpt lat="47.3498" lon="0.06748">
        <ele>76.08</ele>
        <time>2010-10-31T09:59:59Z</time>
      </trkpt>
      <trkpt lat="47.34986" lon="0.06738">
        <ele>75.6</ele>
        <time>2010-10-31T10:00:00Z</time>
      </trkpt>
      <trkpt lat="47.34992" lon="0.06728">
        <ele>73.68</ele>
        <time>2010-10-31T10:00:01Z</time>
      </trkpt>
      <trkpt lat="47.34999" lon="0.06718">
        <ele>74.16</ele>
        <time>2010-10-31T10:00:02Z</time>
      </trkpt>
      <trkpt lat="47.3503" lon="0.06656">
        <ele>69.35</ele>
        <time>2010-10-31T10:00:07Z</time>
      </trkpt>
      <trkpt lat="47.35034" lon="0.06642">
        <ele>68.87</ele>
        <time>2010-10-31T10:00:08Z</time>
      </trkpt>
      <trkpt lat="47.35043" lon="0.06613">
        <ele>66.95</ele>
        <time>2010-10-31T10:00:10Z</time>
      </trkpt>
      <trkpt lat="47.35045" lon="0.06599">
        <ele>65.03</ele>
        <time>2010-10-31T10:00:11Z</time>
      </trkpt>
      <trkpt lat="47.35046" lon="0.06585">
        <ele>63.58</ele>
        <time>2010-10-31T10:00:12Z</time>
      </trkpt>
      <trkpt lat="47.35044" lon="0.06544">
        <ele>61.18</ele>
        <time>2010-10-31T10:00:15Z</time>
      </trkpt>
      <trkpt lat="47.35045" lon="0.06531">
        <ele>60.7</ele>
        <time>2010-10-31T10:00:16Z</time>
      </trkpt>
      <trkpt lat="47.35047" lon="0.06519">
        <ele>60.7</ele>
        <time>2010-10-31T10:00:17Z</time>
      </trkpt>
      <trkpt lat="47.35051" lon="0.06497">
        <ele>62.14</ele>
        <time>2010-10-31T10:00:19Z</time>
      </trkpt>
      <trkpt lat="47.35052" lon="0.06486">
        <ele>61.66</ele>
        <time>2010-10-31T10:00:20Z</time>
      </trkpt>
      <trkpt lat="47.3506" lon="0.06417">
        <ele>59.26</ele>
        <time>2010-10-31T10:00:27Z</time>
      </trkpt>
      <trkpt lat="47.35066" lon="0.06391">
        <ele>57.82</ele>
        <time>2010-10-31T10:00:30Z</time>
      </trkpt>
      <trkpt lat="47.35067" lon="0.06383">
        <ele>57.82</ele>
        <time>2010-10-31T10:00:31Z</time>
      </trkpt>
      <trkpt lat="47.35069" lon="0.06376">
        <ele>57.34</ele>
        <time>2010-10-31T10:00:32Z</time>
      </trkpt>
      <trkpt lat="47.35072" lon="0.06368">
        <ele>56.37</ele>
        <time>2010-10-31T10:00:33Z</time>
      </trkpt>
      <trkpt lat="47.3508" lon="0.06351">
        <ele>55.89</ele>
        <time>2010-10-31T10:00:37Z</time>
      </trkpt>
      <trkpt lat="47.35079" lon="0.06351">
        <ele>55.41</ele>
        <time>2010-10-31T10:01:09Z</time>
      </trkpt>
      <trkpt lat="47.35079" lon="0.06351">
        <ele>56.37</ele>
        <time>2010-10-31T10:01:16Z</time>
      </trkpt>
      <trkpt lat="47.35079" lon="0.0635">
        <ele>55.89</ele>
        <time>2010-10-31T10:01:38Z</time>
      </trkpt>
      <trkpt lat="47.35079" lon="0.06349">
        <ele>55.89</ele>
        <time>2010-10-31T10:02:29Z</time>
      </trkpt>
      <trkpt lat="47.35079" lon="0.06349">
        <ele>56.86</ele>
        <time>2010-10-31T10:02:31Z</time>
      </trkpt>
      <trkpt lat="47.35079" lon="0.06349">
        <ele>58.3</ele>
        <time>2010-10-31T10:02:52Z</time>
      </trkpt>
      <trkpt lat="47.35079" lon="0.06349">
        <ele>58.78</ele>
        <time>2010-10-31T10:03:05Z</time>
      </trkpt>
      <trkpt lat="47.35079" lon="0.06349">
        <ele>58.78</ele>
        <time>2010-10-31T10:05:11Z</time>
      </trkpt>
      <trkpt lat="47.35079" lon="0.06349">
        <ele>57.34</ele>
        <time>2010-10-31T10:05:18Z</time>
      </trkpt>
      <trkpt lat="47.3508" lon="0.06349">
        <ele>57.34</ele>
        <time>2010-10-31T10:05:28Z</time>
      </trkpt>
      <trkpt lat="47.3508" lon="0.06349">
        <ele>59.74</ele>
        <time>2010-10-31T10:05:49Z</time>
      </trkpt>
      <trkpt lat="47.3508" lon="0.06349">
        <ele>58.3</ele>
        <time>2010-10-31T10:06:08Z</time>
      </trkpt>
      <trkpt lat="47.3508" lon="0.06349">
        <ele>58.78</ele>
        <time>2010-10-31T10:06:35Z</time>
      </trkpt>
      <trkpt lat="47.3508" lon="0.06349">
        <ele>58.78</ele>
        <time>2010-10-31T10:06:52Z</time>
      </trkpt>
      <trkpt lat="47.3508" lon="0.06349">
        <ele>59.26</ele>
        <time>2010-10-31T10:07:11Z</time>
      </trkpt>
      <trkpt lat="47.3508" lon="0.06349">
        <ele>60.22</ele>
        <time>2010-10-31T10:07:29Z</time>
      </trkpt>
      <trkpt lat="47.3508" lon="0.06349">
        <ele>59.26</ele>
        <time>2010-10-31T10:07:31Z</time>
      </trkpt>
      <trkpt lat="47.3508" lon="0.06349">
        <ele>63.1</ele>
        <time>2010-10-31T10:07:34Z</time>
      </trkpt>
      <trkpt lat="47.3508" lon="0.06349">
        <ele>58.78</ele>
        <time>2010-10-31T10:07:36Z</time>
      </trkpt>
      <trkpt lat="47.3508" lon="0.06349">
        <ele>58.78</ele>
        <time>2010-10-31T10:07:37Z</time>
      </trkpt>
      <trkpt lat="47.3508" lon="0.06349">
        <ele>60.22</ele>
        <time>2010-10-31T10:07:46Z</time>
      </trkpt>
      <trkpt lat="47.35081" lon="0.06346">
        <ele>58.3</ele>
        <time>2010-10-31T10:07:48Z</time>
      </trkpt>
      <trkpt lat="47.35083" lon="0.06349">
        <ele>59.74</ele>
        <time>2010-10-31T10:07:50Z</time>
      </trkpt>
      <trkpt lat="47.35083" lon="0.0635">
        <ele>64.55</ele>
        <time>2010-10-31T10:07:56Z</time>
      </trkpt>
      <trkpt lat="47.35083" lon="0.0635">
        <ele>59.26</ele>
        <time>2010-10-31T10:07:57Z</time>
      </trkpt>
      <trkpt lat="47.35083" lon="0.0635">
        <ele>60.22</ele>
        <time>2010-10-31T10:08:13Z</time>
      </trkpt>
      <trkpt lat="47.35083" lon="0.0635">
        <ele>60.7</ele>
        <time>2010-10-31T10:08:19Z</time>
      </trkpt>
      <trkpt lat="47.35083" lon="0.0635">
        <ele>57.82</ele>
        <time>2010-10-31T10:08:21Z</time>
      </trkpt>
      <trkpt lat="47.35083" lon="0.0635">
        <ele>62.14</ele>
        <time>2010-10-31T10:08:29Z</time>
      </trkpt>
      <trkpt lat="47.35083" lon="0.0635">
        <ele>58.78</ele>
        <time>2010-10-31T10:08:31Z</time>
      </trkpt>
      <trkpt lat="47.35083" lon="0.0635">
        <ele>55.89</ele>
        <time>2010-10-31T10:08:34Z</time>
      </trkpt>
      <trkpt lat="47.35083" lon="0.0635">
        <ele>59.26</ele>
        <time>2010-10-31T10:08:35Z</time>
      </trkpt>
      <trkpt lat="47.35083" lon="0.0635">
        <ele>59.26</ele>
        <time>2010-10-31T10:08:36Z</time>
      </trkpt>
      <trkpt lat="47.35083" lon="0.0635">
        <ele>62.62</ele>
        <time>2010-10-31T10:08:39Z</time>
      </trkpt>
      <trkpt lat="47.35083" lon="0.0635">
        <ele>59.26</ele>
        <time>2010-10-31T10:08:40Z</time>
      </trkpt>
      <trkpt lat="47.35083" lon="0.0635">
        <ele>63.1</ele>
        <time>2010-10-31T10:08:42Z</time>
      </trkpt>
      <trkpt lat="47.35083" lon="0.0635">
        <ele>59.74</ele>
        <time>2010-10-31T10:08:43Z</time>
      </trkpt>
      <trkpt lat="47.35083" lon="0.0635">
        <ele>53.97</ele>
        <time>2010-10-31T10:08:49Z</time>
      </trkpt>
      <trkpt lat="47.35083" lon="0.0635">
        <ele>58.78</ele>
        <time>2010-10-31T10:08:50Z</time>
      </trkpt>
      <trkpt lat="47.35083" lon="0.0635">
        <ele>57.34</ele>
        <time>2010-10-31T10:09:12Z</time>
      </trkpt>
      <trkpt lat="47.35083" lon="0.0635">
        <ele>60.22</ele>
        <time>2010-10-31T10:09:16Z</time>
      </trkpt>
      <trkpt lat="47.35083" lon="0.0635">
        <ele>59.26</ele>
        <time>2010-10-31T10:09:20Z</time>
      </trkpt>
      <trkpt lat="47.35083" lon="0.0635">
        <ele>60.22</ele>
        <time>2010-10-31T10:09:22Z</time>
      </trkpt>
      <trkpt lat="47.35083" lon="0.0635">
        <ele>59.26</ele>
        <time>2010-10-31T10:09:37Z</time>
      </trkpt>
      <trkpt lat="47.35083" lon="0.0635">
        <ele>60.7</ele>
        <time>2010-10-31T10:09:40Z</time>
      </trkpt>
      <trkpt lat="47.35083" lon="0.0635">
        <ele>58.3</ele>
        <time>2010-10-31T10:09:45Z</time>
      </trkpt>
      <trkpt lat="47.35083" lon="0.0635">
        <ele>61.18</ele>
        <time>2010-10-31T10:09:46Z</time>
      </trkpt>
      <trkpt lat="47.35083" lon="0.0635">
        <ele>60.7</ele>
        <time>2010-10-31T10:09:47Z</time>
      </trkpt>
      <trkpt lat="47.35083" lon="0.06349">
        <ele>61.18</ele>
        <time>2010-10-31T10:09:55Z</time>
      </trkpt>
      <trkpt lat="47.35083" lon="0.06349">
        <ele>57.34</ele>
        <time>2010-10-31T10:09:56Z</time>
      </trkpt>
      <trkpt lat="47.35083" lon="0.06349">
        <ele>58.78</ele>
        <time>2010-10-31T10:09:57Z</time>
      </trkpt>
      <trkpt lat="47.35083" lon="0.06349">
        <ele>62.14</ele>
        <time>2010-10-31T10:09:58Z</time>
      </trkpt>
      <trkpt lat="47.35083" lon="0.06349">
        <ele>61.18</ele>
        <time>2010-10-31T10:09:59Z</time>
      </trkpt>
      <trkpt lat="47.35083" lon="0.06349">
        <ele>60.22</ele>
        <time>2010-10-31T10:10:02Z</time>
      </trkpt>
      <trkpt lat="47.35083" lon="0.06349">
        <ele>58.78</ele>
        <time>2010-10-31T10:10:12Z</time>
      </trkpt>
      <trkpt lat="47.35083" lon="0.06349">
        <ele>62.62</ele>
        <time>2010-10-31T10:10:16Z</time>
      </trkpt>
      <trkpt lat="47.35083" lon="0.06349">
        <ele>58.78</ele>
        <time>2010-10-31T10:10:21Z</time>
      </trkpt>
      <trkpt lat="47.35083" lon="0.06349">
        <ele>59.26</ele>
        <time>2010-10-31T10:10:22Z</time>
      </trkpt>
      <trkpt lat="47.35083" lon="0.06351">
        <ele>59.26</ele>
        <time>2010-10-31T10:10:38Z</time>
      </trkpt>
      <trkpt lat="47.35079" lon="0.06359">
        <ele>60.7</ele>
        <time>2010-10-31T10:10:43Z</time>
      </trkpt>
      <trkpt lat="47.35078" lon="0.06359">
        <ele>61.18</ele>
        <time>2010-10-31T10:10:44Z</time>
      </trkpt>
      <trkpt lat="47.35074" lon="0.06361">
        <ele>59.26</ele>
        <time>2010-10-31T10:10:48Z</time>
      </trkpt>
      <trkpt lat="47.35073" lon="0.0636">
        <ele>59.26</ele>
        <time>2010-10-31T10:10:49Z</time>
      </trkpt>
      <trkpt lat="47.35071" lon="0.06359">
        <ele>61.18</ele>
        <time>2010-10-31T10:10:50Z</time>
      </trkpt>
      <trkpt lat="47.3507" lon="0.06357">
        <ele>59.74</ele>
        <time>2010-10-31T10:10:51Z</time>
      </trkpt>
      <trkpt lat="47.35068" lon="0.06355">
        <ele>59.74</ele>
        <time>2010-10-31T10:10:52Z</time>
      </trkpt>
      <trkpt lat="47.35066" lon="0.06352">
        <ele>60.22</ele>
        <time>2010-10-31T10:10:53Z</time>
      </trkpt>
      <trkpt lat="47.35063" lon="0.06348">
        <ele>59.26</ele>
        <time>2010-10-31T10:10:54Z</time>
      </trkpt>
      <trkpt lat="47.35056" lon="0.06334">
        <ele>59.26</ele>
        <time>2010-10-31T10:10:57Z</time>
      </trkpt>
      <trkpt lat="47.35054" lon="0.06329">
        <ele>58.78</ele>
        <time>2010-10-31T10:10:58Z</time>
      </trkpt>
      <trkpt lat="47.35051" lon="0.06324">
        <ele>58.78</ele>
        <time>2010-10-31T10:10:59Z</time>
      </trkpt>
      <trkpt lat="47.35045" lon="0.06313">
        <ele>59.74</ele>
        <time>2010-10-31T10:11:01Z</time>
      </trkpt>
      <trkpt lat="47.35043" lon="0.06307">
        <ele>59.26</ele>
        <time>2010-10-31T10:11:02Z</time>
      </trkpt>
      <trkpt lat="47.35041" lon="0.063">
        <ele>59.26</ele>
        <time>2010-10-31T10:11:03Z</time>
      </trkpt>
      <trkpt lat="47.35034" lon="0.06275">
        <ele>58.3</ele>
        <time>2010-10-31T10:11:07Z</time>
      </trkpt>
      <trkpt lat="47.35033" lon="0.06269">
        <ele>58.78</ele>
        <time>2010-10-31T10:11:08Z</time>
      </trkpt>
      <trkpt lat="47.35031" lon="0.06263">
        <ele>58.78</ele>
        <time>2010-10-31T10:11:09Z</time>
      </trkpt>
      <trkpt lat="47.3503" lon="0.06257">
        <ele>58.78</ele>
        <time>2010-10-31T10:11:10Z</time>
      </trkpt>
      <trkpt lat="47.35028" lon="0.06252">
        <ele>59.74</ele>
        <time>2010-10-31T10:11:11Z</time>
      </trkpt>
      <trkpt lat="47.35027" lon="0.06246">
        <ele>58.3</ele>
        <time>2010-10-31T10:11:12Z</time>
      </trkpt>
      <trkpt lat="47.35024" lon="0.06233">
        <ele>58.78</ele>
        <time>2010-10-31T10:11:14Z</time>
      </trkpt>
      <trkpt lat="47.35002" lon="0.06174">
        <ele>58.78</ele>
        <time>2010-10-31T10:11:23Z</time>
      </trkpt>
      <trkpt lat="47.3499" lon="0.06132">
        <ele>58.78</ele>
        <time>2010-10-31T10:11:30Z</time>
      </trkpt>
      <trkpt lat="47.34984" lon="0.06114">
        <ele>59.26</ele>
        <time>2010-10-31T10:11:35Z</time>
      </trkpt>
      <trkpt lat="47.34985" lon="0.06101">
        <ele>58.78</ele>
        <time>2010-10-31T10:11:42Z</time>
      </trkpt>
      <trkpt lat="47.34985" lon="0.06097">
        <ele>59.74</ele>
        <time>2010-10-31T10:11:48Z</time>
      </trkpt>
      <trkpt lat="47.34985" lon="0.06097">
        <ele>56.37</ele>
        <time>2010-10-31T10:11:49Z</time>
      </trkpt>
      <trkpt lat="47.34985" lon="0.06097">
        <ele>60.22</ele>
        <time>2010-10-31T10:11:51Z</time>
      </trkpt>
      <trkpt lat="47.34985" lon="0.06097">
        <ele>60.22</ele>
        <time>2010-10-31T10:11:52Z</time>
      </trkpt>
      <trkpt lat="47.34985" lon="0.06097">
        <ele>58.3</ele>
        <time>2010-10-31T10:12:11Z</time>
      </trkpt>
      <trkpt lat="47.34985" lon="0.06097">
        <ele>57.34</ele>
        <time>2010-10-31T10:12:19Z</time>
      </trkpt>
      <trkpt lat="47.34985" lon="0.06097">
        <ele>58.78</ele>
        <time>2010-10-31T10:12:21Z</time>
      </trkpt>
      <trkpt lat="47.34986" lon="0.06097">
        <ele>59.74</ele>
        <time>2010-10-31T10:12:31Z</time>
      </trkpt>
      <trkpt lat="47.34986" lon="0.06097">
        <ele>58.78</ele>
        <time>2010-10-31T10:12:33Z</time>
      </trkpt>
      <trkpt lat="47.34987" lon="0.06099">
        <ele>59.74</ele>
        <time>2010-10-31T10:13:00Z</time>
      </trkpt>
      <trkpt lat="47.34987" lon="0.06102">
        <ele>58.3</ele>
        <time>2010-10-31T10:13:01Z</time>
      </trkpt>
      <trkpt lat="47.34987" lon="0.06105">
        <ele>58.78</ele>
        <time>2010-10-31T10:13:03Z</time>
      </trkpt>
      <trkpt lat="47.34987" lon="0.06109">
        <ele>57.34</ele>
        <time>2010-10-31T10:13:05Z</time>
      </trkpt>
      <trkpt lat="47.34989" lon="0.06119">
        <ele>58.78</ele>
        <time>2010-10-31T10:13:08Z</time>
      </trkpt>
      <trkpt lat="47.34989" lon="0.06124">
        <ele>59.26</ele>
        <time>2010-10-31T10:13:09Z</time>
      </trkpt>
      <trkpt lat="47.34991" lon="0.06129">
        <ele>60.22</ele>
        <time>2010-10-31T10:13:10Z</time>
      </trkpt>
      <trkpt lat="47.34992" lon="0.06134">
        <ele>59.74</ele>
        <time>2010-10-31T10:13:11Z</time>
      </trkpt>
      <trkpt lat="47.34993" lon="0.0614">
        <ele>58.78</ele>
        <time>2010-10-31T10:13:12Z</time>
      </trkpt>
      <trkpt lat="47.34998" lon="0.0616">
        <ele>61.18</ele>
        <time>2010-10-31T10:13:16Z</time>
      </trkpt>
      <trkpt lat="47.35" lon="0.0617">
        <ele>58.78</ele>
        <time>2010-10-31T10:13:18Z</time>
      </trkpt>
      <trkpt lat="47.35001" lon="0.06175">
        <ele>58.78</ele>
        <time>2010-10-31T10:13:19Z</time>
      </trkpt>
      <trkpt lat="47.35003" lon="0.06181">
        <ele>58.78</ele>
        <time>2010-10-31T10:13:20Z</time>
      </trkpt>
      <trkpt lat="47.35005" lon="0.06185">
        <ele>59.26</ele>
        <time>2010-10-31T10:13:21Z</time>
      </trkpt>
      <trkpt lat="47.35021" lon="0.06227">
        <ele>60.22</ele>
        <time>2010-10-31T10:13:29Z</time>
      </trkpt>
      <trkpt lat="47.35027" lon="0.06249">
        <ele>61.66</ele>
        <time>2010-10-31T10:13:33Z</time>
      </trkpt>
      <trkpt lat="47.35028" lon="0.06256">
        <ele>61.18</ele>
        <time>2010-10-31T10:13:34Z</time>
      </trkpt>
      <trkpt lat="47.35032" lon="0.06268">
        <ele>60.22</ele>
        <time>2010-10-31T10:13:36Z</time>
      </trkpt>
      <trkpt lat="47.35038" lon="0.06294">
        <ele>64.07</ele>
        <time>2010-10-31T10:13:40Z</time>
      </trkpt>
      <trkpt lat="47.3504" lon="0.06299">
        <ele>59.74</ele>
        <time>2010-10-31T10:13:41Z</time>
      </trkpt>
      <trkpt lat="47.35042" lon="0.06305">
        <ele>60.7</ele>
        <time>2010-10-31T10:13:42Z</time>
      </trkpt>
      <trkpt lat="47.35044" lon="0.0631">
        <ele>60.7</ele>
        <time>2010-10-31T10:13:43Z</time>
      </trkpt>
      <trkpt lat="47.35046" lon="0.06316">
        <ele>60.22</ele>
        <time>2010-10-31T10:13:44Z</time>
      </trkpt>
      <trkpt lat="47.3505" lon="0.06326">
        <ele>60.22</ele>
        <time>2010-10-31T10:13:46Z</time>
      </trkpt>
      <trkpt lat="47.3506" lon="0.06346">
        <ele>59.74</ele>
        <time>2010-10-31T10:13:50Z</time>
      </trkpt>
      <trkpt lat="47.35074" lon="0.06367">
        <ele>61.18</ele>
        <time>2010-10-31T10:13:55Z</time>
      </trkpt>
      <trkpt lat="47.35085" lon="0.06386">
        <ele>62.14</ele>
        <time>2010-10-31T10:14:00Z</time>
      </trkpt>
      <trkpt lat="47.35093" lon="0.06403">
        <ele>65.99</ele>
        <time>2010-10-31T10:14:04Z</time>
      </trkpt>
      <trkpt lat="47.35098" lon="0.0641">
        <ele>62.62</ele>
        <time>2010-10-31T10:14:06Z</time>
      </trkpt>
      <trkpt lat="47.351" lon="0.06414">
        <ele>63.1</ele>
        <time>2010-10-31T10:14:07Z</time>
      </trkpt>
      <trkpt lat="47.35107" lon="0.06426">
        <ele>66.95</ele>
        <time>2010-10-31T10:14:10Z</time>
      </trkpt>
      <trkpt lat="47.35114" lon="0.06437">
        <ele>63.1</ele>
        <time>2010-10-31T10:14:13Z</time>
      </trkpt>
      <trkpt lat="47.35119" lon="0.06445">
        <ele>68.39</ele>
        <time>2010-10-31T10:14:15Z</time>
      </trkpt>
      <trkpt lat="47.35121" lon="0.06449">
        <ele>67.91</ele>
        <time>2010-10-31T10:14:16Z</time>
      </trkpt>
      <trkpt lat="47.35133" lon="0.06472">
        <ele>65.03</ele>
        <time>2010-10-31T10:14:21Z</time>
      </trkpt>
      <trkpt lat="47.35138" lon="0.06481">
        <ele>68.87</ele>
        <time>2010-10-31T10:14:23Z</time>
      </trkpt>
      <trkpt lat="47.35141" lon="0.06487">
        <ele>65.99</ele>
        <time>2010-10-31T10:14:24Z</time>
      </trkpt>
      <trkpt lat="47.35147" lon="0.06497">
        <ele>65.51</ele>
        <time>2010-10-31T10:14:26Z</time>
      </trkpt>
      <trkpt lat="47.3515" lon="0.06502">
        <ele>62.14</ele>
        <time>2010-10-31T10:14:27Z</time>
      </trkpt>
      <trkpt lat="47.35154" lon="0.06507">
        <ele>63.1</ele>
        <time>2010-10-31T10:14:28Z</time>
      </trkpt>
      <trkpt lat="47.35165" lon="0.06523">
        <ele>62.62</ele>
        <time>2010-10-31T10:14:33Z</time>
      </trkpt>
      <trkpt lat="47.35166" lon="0.06525">
        <ele>63.1</ele>
        <time>2010-10-31T10:14:34Z</time>
      </trkpt>
      <trkpt lat="47.35169" lon="0.06528">
        <ele>62.62</ele>
        <time>2010-10-31T10:14:36Z</time>
      </trkpt>
      <trkpt lat="47.35171" lon="0.06527">
        <ele>64.07</ele>
        <time>2010-10-31T10:14:38Z</time>
      </trkpt>
      <trkpt lat="47.35172" lon="0.06525">
        <ele>65.03</ele>
        <time>2010-10-31T10:14:39Z</time>
      </trkpt>
      <trkpt lat="47.35171" lon="0.06524">
        <ele>67.43</ele>
        <time>2010-10-31T10:14:40Z</time>
      </trkpt>
      <trkpt lat="47.3517" lon="0.06524">
        <ele>65.51</ele>
        <time>2010-10-31T10:14:41Z</time>
      </trkpt>
      <trkpt lat="47.35168" lon="0.06522">
        <ele>63.1</ele>
        <time>2010-10-31T10:14:44Z</time>
      </trkpt>
      <trkpt lat="47.35165" lon="0.06516">
        <ele>64.55</ele>
        <time>2010-10-31T10:14:48Z</time>
      </trkpt>
      <trkpt lat="47.35163" lon="0.06512">
        <ele>63.1</ele>
        <time>2010-10-31T10:14:50Z</time>
      </trkpt>
      <trkpt lat="47.35159" lon="0.06507">
        <ele>64.07</ele>
        <time>2010-10-31T10:14:52Z</time>
      </trkpt>
      <trkpt lat="47.35144" lon="0.06487">
        <ele>66.47</ele>
        <time>2010-10-31T10:14:58Z</time>
      </trkpt>
      <trkpt lat="47.35141" lon="0.06482">
        <ele>66.95</ele>
        <time>2010-10-31T10:14:59Z</time>
      </trkpt>
      <trkpt lat="47.35138" lon="0.06477">
        <ele>66.95</ele>
        <time>2010-10-31T10:15:00Z</time>
      </trkpt>
      <trkpt lat="47.35135" lon="0.06471">
        <ele>64.07</ele>
        <time>2010-10-31T10:15:01Z</time>
      </trkpt>
      <trkpt lat="47.35131" lon="0.06466">
        <ele>65.99</ele>
        <time>2010-10-31T10:15:02Z</time>
      </trkpt>
      <trkpt lat="47.35129" lon="0.06462">
        <ele>65.03</ele>
        <time>2010-10-31T10:15:03Z</time>
      </trkpt>
      <trkpt lat="47.35122" lon="0.06451">
        <ele>68.87</ele>
        <time>2010-10-31T10:15:05Z</time>
      </trkpt>
      <trkpt lat="47.35119" lon="0.06446">
        <ele>66.95</ele>
        <time>2010-10-31T10:15:06Z</time>
      </trkpt>
      <trkpt lat="47.3511" lon="0.06429">
        <ele>65.03</ele>
        <time>2010-10-31T10:15:09Z</time>
      </trkpt>
      <trkpt lat="47.35103" lon="0.06417">
        <ele>66.95</ele>
        <time>2010-10-31T10:15:11Z</time>
      </trkpt>
      <trkpt lat="47.35094" lon="0.064">
        <ele>64.55</ele>
        <time>2010-10-31T10:15:14Z</time>
      </trkpt>
      <trkpt lat="47.35085" lon="0.06383">
        <ele>66.47</ele>
        <time>2010-10-31T10:15:17Z</time>
      </trkpt>
      <trkpt lat="47.35077" lon="0.06376">
        <ele>63.58</ele>
        <time>2010-10-31T10:15:20Z</time>
      </trkpt>
      <trkpt lat="47.35075" lon="0.06377">
        <ele>62.62</ele>
        <time>2010-10-31T10:15:25Z</time>
      </trkpt>
      <trkpt lat="47.35075" lon="0.06378">
        <ele>65.99</ele>
        <time>2010-10-31T10:15:30Z</time>
      </trkpt>
      <trkpt lat="47.35074" lon="0.06379">
        <ele>61.18</ele>
        <time>2010-10-31T10:15:33Z</time>
      </trkpt>
      <trkpt lat="47.35074" lon="0.0638">
        <ele>63.58</ele>
        <time>2010-10-31T10:15:34Z</time>
      </trkpt>
      <trkpt lat="47.3507" lon="0.0639">
        <ele>63.1</ele>
        <time>2010-10-31T10:15:39Z</time>
      </trkpt>
      <trkpt lat="47.35067" lon="0.06411">
        <ele>62.14</ele>
        <time>2010-10-31T10:15:45Z</time>
      </trkpt>
      <trkpt lat="47.35064" lon="0.06424">
        <ele>64.55</ele>
        <time>2010-10-31T10:15:48Z</time>
      </trkpt>
      <trkpt lat="47.3506" lon="0.06454">
        <ele>65.51</ele>
        <time>2010-10-31T10:15:55Z</time>
      </trkpt>
      <trkpt lat="47.35058" lon="0.06482">
        <ele>66.47</ele>
        <time>2010-10-31T10:16:01Z</time>
      </trkpt>
      <trkpt lat="47.35053" lon="0.06508">
        <ele>66.47</ele>
        <time>2010-10-31T10:16:07Z</time>
      </trkpt>
      <trkpt lat="47.35041" lon="0.06525">
        <ele>65.03</ele>
        <time>2010-10-31T10:16:12Z</time>
      </trkpt>
      <trkpt lat="47.35038" lon="0.06527">
        <ele>65.03</ele>
        <time>2010-10-31T10:16:13Z</time>
      </trkpt>
      <trkpt lat="47.35026" lon="0.06535">
        <ele>65.51</ele>
        <time>2010-10-31T10:16:17Z</time>
      </trkpt>
      <trkpt lat="47.35002" lon="0.06547">
        <ele>66.95</ele>
        <time>2010-10-31T10:16:25Z</time>
      </trkpt>
      <trkpt lat="47.34988" lon="0.06555">
        <ele>67.91</ele>
        <time>2010-10-31T10:16:31Z</time>
      </trkpt>
      <trkpt lat="47.34969" lon="0.06566">
        <ele>68.87</ele>
        <time>2010-10-31T10:16:38Z</time>
      </trkpt>
      <trkpt lat="47.34953" lon="0.06573">
        <ele>68.87</ele>
        <time>2010-10-31T10:16:45Z</time>
      </trkpt>
      <trkpt lat="47.34947" lon="0.06574">
        <ele>70.31</ele>
        <time>2010-10-31T10:16:48Z</time>
      </trkpt>
      <trkpt lat="47.34936" lon="0.06577">
        <ele>72.24</ele>
        <time>2010-10-31T10:16:53Z</time>
      </trkpt>
      <trkpt lat="47.3493" lon="0.06578">
        <ele>74.64</ele>
        <time>2010-10-31T10:16:55Z</time>
      </trkpt>
      <trkpt lat="47.34922" lon="0.06579">
        <ele>73.68</ele>
        <time>2010-10-31T10:16:58Z</time>
      </trkpt>
      <trkpt lat="47.34915" lon="0.06578">
        <ele>72.72</ele>
        <time>2010-10-31T10:17:01Z</time>
      </trkpt>
      <trkpt lat="47.34909" lon="0.06575">
        <ele>73.68</ele>
        <time>2010-10-31T10:17:04Z</time>
      </trkpt>
      <trkpt lat="47.34892" lon="0.06574">
        <ele>74.16</ele>
        <time>2010-10-31T10:17:11Z</time>
      </trkpt>
      <trkpt lat="47.34891" lon="0.06574">
        <ele>74.16</ele>
        <time>2010-10-31T10:17:12Z</time>
      </trkpt>
      <trkpt lat="47.3487" lon="0.06576">
        <ele>74.64</ele>
        <time>2010-10-31T10:17:19Z</time>
      </trkpt>
      <trkpt lat="47.34845" lon="0.06576">
        <ele>75.6</ele>
        <time>2010-10-31T10:17:26Z</time>
      </trkpt>
      <trkpt lat="47.34826" lon="0.06574">
        <ele>76.56</ele>
        <time>2010-10-31T10:17:32Z</time>
      </trkpt>
      <trkpt lat="47.34807" lon="0.06568">
        <ele>75.6</ele>
        <time>2010-10-31T10:17:38Z</time>
      </trkpt>
      <trkpt lat="47.34797" lon="0.06564">
        <ele>77.52</ele>
        <time>2010-10-31T10:17:41Z</time>
      </trkpt>
      <trkpt lat="47.34777" lon="0.06545">
        <ele>76.56</ele>
        <time>2010-10-31T10:17:48Z</time>
      </trkpt>
      <trkpt lat="47.34769" lon="0.0653">
        <ele>77.52</ele>
        <time>2010-10-31T10:17:54Z</time>
      </trkpt>
      <trkpt lat="47.34763" lon="0.06517">
        <ele>78</ele>
        <time>2010-10-31T10:17:59Z</time>
      </trkpt>
      <trkpt lat="47.34762" lon="0.06513">
        <ele>78</ele>
        <time>2010-10-31T10:18:01Z</time>
      </trkpt>
      <trkpt lat="47.34761" lon="0.06501">
        <ele>78.48</ele>
        <time>2010-10-31T10:18:07Z</time>
      </trkpt>
      <trkpt lat="47.34761" lon="0.06498">
        <ele>80.41</ele>
        <time>2010-10-31T10:18:09Z</time>
      </trkpt>
      <trkpt lat="47.34759" lon="0.06486">
        <ele>80.89</ele>
        <time>2010-10-31T10:18:14Z</time>
      </trkpt>
      <trkpt lat="47.34755" lon="0.06464">
        <ele>81.85</ele>
        <time>2010-10-31T10:18:20Z</time>
      </trkpt>
      <trkpt lat="47.34747" lon="0.06434">
        <ele>81.37</ele>
        <time>2010-10-31T10:18:27Z</time>
      </trkpt>
      <trkpt lat="47.3474" lon="0.06403">
        <ele>83.29</ele>
        <time>2010-10-31T10:18:34Z</time>
      </trkpt>
      <trkpt lat="47.34736" lon="0.06373">
        <ele>82.33</ele>
        <time>2010-10-31T10:18:41Z</time>
      </trkpt>
      <trkpt lat="47.34736" lon="0.06369">
        <ele>83.29</ele>
        <time>2010-10-31T10:18:42Z</time>
      </trkpt>
      <trkpt lat="47.34735" lon="0.06348">
        <ele>82.81</ele>
        <time>2010-10-31T10:18:47Z</time>
      </trkpt>
      <trkpt lat="47.34731" lon="0.06314">
        <ele>82.33</ele>
        <time>2010-10-31T10:18:54Z</time>
      </trkpt>
      <trkpt lat="47.34724" lon="0.06275">
        <ele>83.29</ele>
        <time>2010-10-31T10:19:01Z</time>
      </trkpt>
      <trkpt lat="47.34721" lon="0.06245">
        <ele>83.29</ele>
        <time>2010-10-31T10:19:06Z</time>
      </trkpt>
      <trkpt lat="47.34715" lon="0.06209">
        <ele>81.85</ele>
        <time>2010-10-31T10:19:12Z</time>
      </trkpt>
      <trkpt lat="47.34712" lon="0.06176">
        <ele>78.97</ele>
        <time>2010-10-31T10:19:17Z</time>
      </trkpt>
      <trkpt lat="47.34711" lon="0.06168">
        <ele>78.97</ele>
        <time>2010-10-31T10:19:18Z</time>
      </trkpt>
      <trkpt lat="47.3471" lon="0.06159">
        <ele>77.04</ele>
        <time>2010-10-31T10:19:19Z</time>
      </trkpt>
      <trkpt lat="47.34708" lon="0.0615">
        <ele>77.04</ele>
        <time>2010-10-31T10:19:20Z</time>
      </trkpt>
      <trkpt lat="47.34706" lon="0.0614">
        <ele>76.08</ele>
        <time>2010-10-31T10:19:21Z</time>
      </trkpt>
      <trkpt lat="47.34704" lon="0.06131">
        <ele>77.52</ele>
        <time>2010-10-31T10:19:22Z</time>
      </trkpt>
      <trkpt lat="47.34703" lon="0.06121">
        <ele>77.04</ele>
        <time>2010-10-31T10:19:23Z</time>
      </trkpt>
      <trkpt lat="47.34698" lon="0.06093">
        <ele>75.12</ele>
        <time>2010-10-31T10:19:26Z</time>
      </trkpt>
      <trkpt lat="47.34697" lon="0.06085">
        <ele>74.16</ele>
        <time>2010-10-31T10:19:27Z</time>
      </trkpt>
      <trkpt lat="47.34695" lon="0.06076">
        <ele>76.08</ele>
        <time>2010-10-31T10:19:28Z</time>
      </trkpt>
      <trkpt lat="47.34693" lon="0.06057">
        <ele>73.68</ele>
        <time>2010-10-31T10:19:30Z</time>
      </trkpt>
      <trkpt lat="47.34691" lon="0.06046">
        <ele>75.12</ele>
        <time>2010-10-31T10:19:31Z</time>
      </trkpt>
      <trkpt lat="47.34689" lon="0.06036">
        <ele>72.24</ele>
        <time>2010-10-31T10:19:32Z</time>
      </trkpt>
      <trkpt lat="47.34688" lon="0.06027">
        <ele>71.27</ele>
        <time>2010-10-31T10:19:33Z</time>
      </trkpt>
      <trkpt lat="47.34687" lon="0.06018">
        <ele>72.24</ele>
        <time>2010-10-31T10:19:34Z</time>
      </trkpt>
      <trkpt lat="47.34686" lon="0.06008">
        <ele>72.72</ele>
        <time>2010-10-31T10:19:35Z</time>
      </trkpt>
      <trkpt lat="47.34683" lon="0.05988">
        <ele>70.31</ele>
        <time>2010-10-31T10:19:37Z</time>
      </trkpt>
      <trkpt lat="47.34683" lon="0.05979">
        <ele>71.27</ele>
        <time>2010-10-31T10:19:38Z</time>
      </trkpt>
      <trkpt lat="47.34679" lon="0.05953">
        <ele>69.35</ele>
        <time>2010-10-31T10:19:41Z</time>
      </trkpt>
      <trkpt lat="47.34677" lon="0.05936">
        <ele>67.43</ele>
        <time>2010-10-31T10:19:43Z</time>
      </trkpt>
      <trkpt lat="47.34675" lon="0.05927">
        <ele>67.43</ele>
        <time>2010-10-31T10:19:44Z</time>
      </trkpt>
      <trkpt lat="47.34672" lon="0.0591">
        <ele>70.79</ele>
        <time>2010-10-31T10:19:47Z</time>
      </trkpt>
      <trkpt lat="47.34669" lon="0.05901">
        <ele>67.43</ele>
        <time>2010-10-31T10:19:51Z</time>
      </trkpt>
      <trkpt lat="47.34668" lon="0.059">
        <ele>65.99</ele>
        <time>2010-10-31T10:19:53Z</time>
      </trkpt>
      <trkpt lat="47.34667" lon="0.05897">
        <ele>67.43</ele>
        <time>2010-10-31T10:20:03Z</time>
      </trkpt>
      <trkpt lat="47.34665" lon="0.05895">
        <ele>66.47</ele>
        <time>2010-10-31T10:20:05Z</time>
      </trkpt>
      <trkpt lat="47.34663" lon="0.05892">
        <ele>72.24</ele>
        <time>2010-10-31T10:20:08Z</time>
      </trkpt>
      <trkpt lat="47.34663" lon="0.05891">
        <ele>67.91</ele>
        <time>2010-10-31T10:20:09Z</time>
      </trkpt>
      <trkpt lat="47.34661" lon="0.05888">
        <ele>67.43</ele>
        <time>2010-10-31T10:20:16Z</time>
      </trkpt>
      <trkpt lat="47.34661" lon="0.05888">
        <ele>65.99</ele>
        <time>2010-10-31T10:20:19Z</time>
      </trkpt>
      <trkpt lat="47.34661" lon="0.05888">
        <ele>66.95</ele>
        <time>2010-10-31T10:20:29Z</time>
      </trkpt>
      <trkpt lat="47.34661" lon="0.05888">
        <ele>65.03</ele>
        <time>2010-10-31T10:21:16Z</time>
      </trkpt>
      <trkpt lat="47.34661" lon="0.05888">
        <ele>66.95</ele>
        <time>2010-10-31T10:21:18Z</time>
      </trkpt>
      <trkpt lat="47.34661" lon="0.05888">
        <ele>66.95</ele>
        <time>2010-10-31T10:21:29Z</time>
      </trkpt>
      <trkpt lat="47.34661" lon="0.05888">
        <ele>67.43</ele>
        <time>2010-10-31T10:21:38Z</time>
      </trkpt>
      <trkpt lat="47.34661" lon="0.05888">
        <ele>66.95</ele>
        <time>2010-10-31T10:21:43Z</time>
      </trkpt>
      <trkpt lat="47.34661" lon="0.05888">
        <ele>66.95</ele>
        <time>2010-10-31T10:21:47Z</time>
      </trkpt>
      <trkpt lat="47.34661" lon="0.05888">
        <ele>66.47</ele>
        <time>2010-10-31T10:21:56Z</time>
      </trkpt>
      <trkpt lat="47.34661" lon="0.05888">
        <ele>66.95</ele>
        <time>2010-10-31T10:22:04Z</time>
      </trkpt>
      <trkpt lat="47.34661" lon="0.05888">
        <ele>63.58</ele>
        <time>2010-10-31T10:22:13Z</time>
      </trkpt>
      <trkpt lat="47.34661" lon="0.05888">
        <ele>68.39</ele>
        <time>2010-10-31T10:22:15Z</time>
      </trkpt>
      <trkpt lat="47.34661" lon="0.05888">
        <ele>67.43</ele>
        <time>2010-10-31T10:22:16Z</time>
      </trkpt>
      <trkpt lat="47.34661" lon="0.05887">
        <ele>67.43</ele>
        <time>2010-10-31T10:22:25Z</time>
      </trkpt>
      <trkpt lat="47.34661" lon="0.05887">
        <ele>66.47</ele>
        <time>2010-10-31T10:22:29Z</time>
      </trkpt>
      <trkpt lat="47.34661" lon="0.05887">
        <ele>65.51</ele>
        <time>2010-10-31T10:22:43Z</time>
      </trkpt>
      <trkpt lat="47.34661" lon="0.05887">
        <ele>65.51</ele>
        <time>2010-10-31T10:22:51Z</time>
      </trkpt>
      <trkpt lat="47.34661" lon="0.05887">
        <ele>68.39</ele>
        <time>2010-10-31T10:23:02Z</time>
      </trkpt>
      <trkpt lat="47.34661" lon="0.05888">
        <ele>68.39</ele>
        <time>2010-10-31T10:23:22Z</time>
      </trkpt>
      <trkpt lat="47.34661" lon="0.05888">
        <ele>71.76</ele>
        <time>2010-10-31T10:23:36Z</time>
      </trkpt>
      <trkpt lat="47.34661" lon="0.05888">
        <ele>68.39</ele>
        <time>2010-10-31T10:23:37Z</time>
      </trkpt>
      <trkpt lat="47.34661" lon="0.05888">
        <ele>65.99</ele>
        <time>2010-10-31T10:23:41Z</time>
      </trkpt>
      <trkpt lat="47.3466" lon="0.05887">
        <ele>70.31</ele>
        <time>2010-10-31T10:24:02Z</time>
      </trkpt>
      <trkpt lat="47.3466" lon="0.05887">
        <ele>66.47</ele>
        <time>2010-10-31T10:24:03Z</time>
      </trkpt>
      <trkpt lat="47.3466" lon="0.05887">
        <ele>66.95</ele>
        <time>2010-10-31T10:24:04Z</time>
      </trkpt>
      <trkpt lat="47.3466" lon="0.05887">
        <ele>70.31</ele>
        <time>2010-10-31T10:24:25Z</time>
      </trkpt>
      <trkpt lat="47.3466" lon="0.05887">
        <ele>67.43</ele>
        <time>2010-10-31T10:24:30Z</time>
      </trkpt>
      <trkpt lat="47.3466" lon="0.05887">
        <ele>66.47</ele>
        <time>2010-10-31T10:24:37Z</time>
      </trkpt>
      <trkpt lat="47.3466" lon="0.05887">
        <ele>67.91</ele>
        <time>2010-10-31T10:24:39Z</time>
      </trkpt>
      <trkpt lat="47.34661" lon="0.05887">
        <ele>66.95</ele>
        <time>2010-10-31T10:24:52Z</time>
      </trkpt>
      <trkpt lat="47.34661" lon="0.05887">
        <ele>67.43</ele>
        <time>2010-10-31T10:25:01Z</time>
      </trkpt>
      <trkpt lat="47.3466" lon="0.05886">
        <ele>67.91</ele>
        <time>2010-10-31T10:25:02Z</time>
      </trkpt>
      <trkpt lat="47.34658" lon="0.05873">
        <ele>67.91</ele>
        <time>2010-10-31T10:25:08Z</time>
      </trkpt>
      <trkpt lat="47.34653" lon="0.05853">
        <ele>67.91</ele>
        <time>2010-10-31T10:25:14Z</time>
      </trkpt>
      <trkpt lat="47.34644" lon="0.05821">
        <ele>68.87</ele>
        <time>2010-10-31T10:25:21Z</time>
      </trkpt>
      <trkpt lat="47.34636" lon="0.05797">
        <ele>65.51</ele>
        <time>2010-10-31T10:25:26Z</time>
      </trkpt>
      <trkpt lat="47.34626" lon="0.05773">
        <ele>65.99</ele>
        <time>2010-10-31T10:25:31Z</time>
      </trkpt>
      <trkpt lat="47.34613" lon="0.05742">
        <ele>65.03</ele>
        <time>2010-10-31T10:25:37Z</time>
      </trkpt>
      <trkpt lat="47.34603" lon="0.05719">
        <ele>67.43</ele>
        <time>2010-10-31T10:25:43Z</time>
      </trkpt>
      <trkpt lat="47.346" lon="0.05718">
        <ele>67.43</ele>
        <time>2010-10-31T10:25:44Z</time>
      </trkpt>
      <trkpt lat="47.34592" lon="0.05702">
        <ele>64.55</ele>
        <time>2010-10-31T10:25:49Z</time>
      </trkpt>
      <trkpt lat="47.34591" lon="0.05699">
        <ele>65.99</ele>
        <time>2010-10-31T10:25:50Z</time>
      </trkpt>
      <trkpt lat="47.3459" lon="0.05697">
        <ele>64.07</ele>
        <time>2010-10-31T10:25:51Z</time>
      </trkpt>
      <trkpt lat="47.34589" lon="0.05693">
        <ele>63.58</ele>
        <time>2010-10-31T10:25:52Z</time>
      </trkpt>
      <trkpt lat="47.34588" lon="0.0569">
        <ele>65.51</ele>
        <time>2010-10-31T10:25:53Z</time>
      </trkpt>
      <trkpt lat="47.34586" lon="0.05686">
        <ele>66.47</ele>
        <time>2010-10-31T10:25:54Z</time>
      </trkpt>
      <trkpt lat="47.34575" lon="0.05661">
        <ele>64.55</ele>
        <time>2010-10-31T10:25:59Z</time>
      </trkpt>
      <trkpt lat="47.34568" lon="0.05642">
        <ele>66.47</ele>
        <time>2010-10-31T10:26:05Z</time>
      </trkpt>
      <trkpt lat="47.34566" lon="0.05639">
        <ele>66.95</ele>
        <time>2010-10-31T10:26:09Z</time>
      </trkpt>
      <trkpt lat="47.34563" lon="0.05636">
        <ele>64.07</ele>
        <time>2010-10-31T10:26:15Z</time>
      </trkpt>
      <trkpt lat="47.34561" lon="0.05631">
        <ele>64.55</ele>
        <time>2010-10-31T10:26:21Z</time>
      </trkpt>
      <trkpt lat="47.34559" lon="0.05629">
        <ele>65.51</ele>
        <time>2010-10-31T10:26:28Z</time>
      </trkpt>
      <trkpt lat="47.34556" lon="0.05623">
        <ele>64.07</ele>
        <time>2010-10-31T10:26:34Z</time>
      </trkpt>
      <trkpt lat="47.34555" lon="0.05621">
        <ele>65.03</ele>
        <time>2010-10-31T10:26:41Z</time>
      </trkpt>
      <trkpt lat="47.34549" lon="0.05612">
        <ele>63.1</ele>
        <time>2010-10-31T10:26:44Z</time>
      </trkpt>
      <trkpt lat="47.34546" lon="0.05605">
        <ele>64.07</ele>
        <time>2010-10-31T10:26:46Z</time>
      </trkpt>
      <trkpt lat="47.34535" lon="0.05584">
        <ele>63.1</ele>
        <time>2010-10-31T10:26:53Z</time>
      </trkpt>
      <trkpt lat="47.34532" lon="0.05579">
        <ele>64.07</ele>
        <time>2010-10-31T10:26:55Z</time>
      </trkpt>
      <trkpt lat="47.34526" lon="0.05567">
        <ele>63.58</ele>
        <time>2010-10-31T10:27:00Z</time>
      </trkpt>
      <trkpt lat="47.34518" lon="0.05549">
        <ele>63.58</ele>
        <time>2010-10-31T10:27:05Z</time>
      </trkpt>
      <trkpt lat="47.34518" lon="0.05546">
        <ele>63.58</ele>
        <time>2010-10-31T10:27:06Z</time>
      </trkpt>
      <trkpt lat="47.34509" lon="0.05525">
        <ele>63.58</ele>
        <time>2010-10-31T10:27:12Z</time>
      </trkpt>
      <trkpt lat="47.34498" lon="0.05503">
        <ele>62.62</ele>
        <time>2010-10-31T10:27:17Z</time>
      </trkpt>
      <trkpt lat="47.34492" lon="0.05485">
        <ele>62.14</ele>
        <time>2010-10-31T10:27:21Z</time>
      </trkpt>
      <trkpt lat="47.34484" lon="0.05475">
        <ele>61.66</ele>
        <time>2010-10-31T10:27:26Z</time>
      </trkpt>
      <trkpt lat="47.3447" lon="0.0546">
        <ele>61.66</ele>
        <time>2010-10-31T10:27:32Z</time>
      </trkpt>
      <trkpt lat="47.34455" lon="0.05445">
        <ele>60.7</ele>
        <time>2010-10-31T10:27:36Z</time>
      </trkpt>
      <trkpt lat="47.34426" lon="0.05416">
        <ele>61.66</ele>
        <time>2010-10-31T10:27:43Z</time>
      </trkpt>
      <trkpt lat="47.34422" lon="0.05412">
        <ele>58.78</ele>
        <time>2010-10-31T10:27:44Z</time>
      </trkpt>
      <trkpt lat="47.34418" lon="0.05408">
        <ele>63.1</ele>
        <time>2010-10-31T10:27:45Z</time>
      </trkpt>
      <trkpt lat="47.34414" lon="0.05404">
        <ele>59.74</ele>
        <time>2010-10-31T10:27:46Z</time>
      </trkpt>
      <trkpt lat="47.34411" lon="0.05399">
        <ele>61.66</ele>
        <time>2010-10-31T10:27:47Z</time>
      </trkpt>
      <trkpt lat="47.34399" lon="0.05387">
        <ele>63.1</ele>
        <time>2010-10-31T10:27:50Z</time>
      </trkpt>
      <trkpt lat="47.34392" lon="0.05377">
        <ele>59.74</ele>
        <time>2010-10-31T10:27:52Z</time>
      </trkpt>
      <trkpt lat="47.34382" lon="0.05362">
        <ele>63.1</ele>
        <time>2010-10-31T10:27:55Z</time>
      </trkpt>
      <trkpt lat="47.34372" lon="0.05341">
        <ele>65.51</ele>
        <time>2010-10-31T10:27:59Z</time>
      </trkpt>
      <trkpt lat="47.34369" lon="0.05336">
        <ele>61.18</ele>
        <time>2010-10-31T10:28:00Z</time>
      </trkpt>
      <trkpt lat="47.34367" lon="0.05331">
        <ele>60.7</ele>
        <time>2010-10-31T10:28:01Z</time>
      </trkpt>
      <trkpt lat="47.34361" lon="0.0532">
        <ele>61.18</ele>
        <time>2010-10-31T10:28:03Z</time>
      </trkpt>
      <trkpt lat="47.34358" lon="0.05315">
        <ele>62.62</ele>
        <time>2010-10-31T10:28:04Z</time>
      </trkpt>
      <trkpt lat="47.34356" lon="0.05309">
        <ele>60.7</ele>
        <time>2010-10-31T10:28:05Z</time>
      </trkpt>
      <trkpt lat="47.34347" lon="0.05293">
        <ele>62.62</ele>
        <time>2010-10-31T10:28:08Z</time>
      </trkpt>
      <trkpt lat="47.34345" lon="0.05287">
        <ele>62.14</ele>
        <time>2010-10-31T10:28:09Z</time>
      </trkpt>
      <trkpt lat="47.34342" lon="0.05282">
        <ele>62.14</ele>
        <time>2010-10-31T10:28:10Z</time>
      </trkpt>
      <trkpt lat="47.3434" lon="0.05276">
        <ele>60.22</ele>
        <time>2010-10-31T10:28:11Z</time>
      </trkpt>
      <trkpt lat="47.34339" lon="0.0527">
        <ele>61.18</ele>
        <time>2010-10-31T10:28:12Z</time>
      </trkpt>
      <trkpt lat="47.34336" lon="0.05265">
        <ele>60.7</ele>
        <time>2010-10-31T10:28:13Z</time>
      </trkpt>
      <trkpt lat="47.34327" lon="0.05243">
        <ele>64.07</ele>
        <time>2010-10-31T10:28:17Z</time>
      </trkpt>
      <trkpt lat="47.34324" lon="0.05238">
        <ele>63.58</ele>
        <time>2010-10-31T10:28:18Z</time>
      </trkpt>
      <trkpt lat="47.34317" lon="0.05222">
        <ele>62.14</ele>
        <time>2010-10-31T10:28:21Z</time>
      </trkpt>
      <trkpt lat="47.34314" lon="0.05216">
        <ele>65.03</ele>
        <time>2010-10-31T10:28:22Z</time>
      </trkpt>
      <trkpt lat="47.34311" lon="0.0521">
        <ele>62.14</ele>
        <time>2010-10-31T10:28:23Z</time>
      </trkpt>
      <trkpt lat="47.34308" lon="0.05205">
        <ele>63.1</ele>
        <time>2010-10-31T10:28:24Z</time>
      </trkpt>
      <trkpt lat="47.34306" lon="0.05201">
        <ele>62.62</ele>
        <time>2010-10-31T10:28:25Z</time>
      </trkpt>
      <trkpt lat="47.34302" lon="0.05195">
        <ele>65.99</ele>
        <time>2010-10-31T10:28:26Z</time>
      </trkpt>
      <trkpt lat="47.34299" lon="0.05189">
        <ele>64.07</ele>
        <time>2010-10-31T10:28:27Z</time>
      </trkpt>
      <trkpt lat="47.34296" lon="0.05184">
        <ele>66.95</ele>
        <time>2010-10-31T10:28:28Z</time>
      </trkpt>
      <trkpt lat="47.3429" lon="0.05174">
        <ele>63.1</ele>
        <time>2010-10-31T10:28:30Z</time>
      </trkpt>
      <trkpt lat="47.34286" lon="0.05169">
        <ele>65.99</ele>
        <time>2010-10-31T10:28:31Z</time>
      </trkpt>
      <trkpt lat="47.34277" lon="0.05155">
        <ele>62.62</ele>
        <time>2010-10-31T10:28:34Z</time>
      </trkpt>
      <trkpt lat="47.34275" lon="0.05151">
        <ele>65.03</ele>
        <time>2010-10-31T10:28:35Z</time>
      </trkpt>
      <trkpt lat="47.34252" lon="0.05114">
        <ele>62.14</ele>
        <time>2010-10-31T10:28:41Z</time>
      </trkpt>
      <trkpt lat="47.34223" lon="0.05077">
        <ele>61.18</ele>
        <time>2010-10-31T10:28:48Z</time>
      </trkpt>
      <trkpt lat="47.34207" lon="0.05047">
        <ele>61.66</ele>
        <time>2010-10-31T10:28:53Z</time>
      </trkpt>
      <trkpt lat="47.34199" lon="0.05026">
        <ele>61.18</ele>
        <time>2010-10-31T10:28:56Z</time>
      </trkpt>
      <trkpt lat="47.3419" lon="0.04991">
        <ele>61.18</ele>
        <time>2010-10-31T10:29:01Z</time>
      </trkpt>
      <trkpt lat="47.34187" lon="0.04983">
        <ele>61.66</ele>
        <time>2010-10-31T10:29:02Z</time>
      </trkpt>
      <trkpt lat="47.34164" lon="0.04934">
        <ele>61.66</ele>
        <time>2010-10-31T10:29:09Z</time>
      </trkpt>
      <trkpt lat="47.34153" lon="0.04914">
        <ele>57.34</ele>
        <time>2010-10-31T10:29:12Z</time>
      </trkpt>
      <trkpt lat="47.3415" lon="0.04908">
        <ele>59.26</ele>
        <time>2010-10-31T10:29:13Z</time>
      </trkpt>
      <trkpt lat="47.34141" lon="0.0489">
        <ele>60.7</ele>
        <time>2010-10-31T10:29:16Z</time>
      </trkpt>
      <trkpt lat="47.34125" lon="0.04863">
        <ele>56.86</ele>
        <time>2010-10-31T10:29:21Z</time>
      </trkpt>
      <trkpt lat="47.34115" lon="0.04846">
        <ele>60.22</ele>
        <time>2010-10-31T10:29:24Z</time>
      </trkpt>
      <trkpt lat="47.34099" lon="0.0482">
        <ele>59.74</ele>
        <time>2010-10-31T10:29:28Z</time>
      </trkpt>
      <trkpt lat="47.34086" lon="0.04802">
        <ele>56.86</ele>
        <time>2010-10-31T10:29:31Z</time>
      </trkpt>
      <trkpt lat="47.34078" lon="0.04791">
        <ele>62.14</ele>
        <time>2010-10-31T10:29:33Z</time>
      </trkpt>
      <trkpt lat="47.34074" lon="0.04786">
        <ele>56.37</ele>
        <time>2010-10-31T10:29:34Z</time>
      </trkpt>
      <trkpt lat="47.34069" lon="0.0478">
        <ele>56.86</ele>
        <time>2010-10-31T10:29:35Z</time>
      </trkpt>
      <trkpt lat="47.34041" lon="0.04751">
        <ele>56.37</ele>
        <time>2010-10-31T10:29:41Z</time>
      </trkpt>
      <trkpt lat="47.3402" lon="0.0473">
        <ele>62.62</ele>
        <time>2010-10-31T10:29:46Z</time>
      </trkpt>
      <trkpt lat="47.34015" lon="0.04726">
        <ele>56.37</ele>
        <time>2010-10-31T10:29:47Z</time>
      </trkpt>
      <trkpt lat="47.34012" lon="0.04722">
        <ele>54.93</ele>
        <time>2010-10-31T10:29:48Z</time>
      </trkpt>
      <trkpt lat="47.34008" lon="0.04719">
        <ele>55.89</ele>
        <time>2010-10-31T10:29:49Z</time>
      </trkpt>
      <trkpt lat="47.34003" lon="0.04715">
        <ele>57.34</ele>
        <time>2010-10-31T10:29:50Z</time>
      </trkpt>
      <trkpt lat="47.33998" lon="0.04711">
        <ele>57.82</ele>
        <time>2010-10-31T10:29:51Z</time>
      </trkpt>
      <trkpt lat="47.33994" lon="0.04707">
        <ele>56.37</ele>
        <time>2010-10-31T10:29:52Z</time>
      </trkpt>
      <trkpt lat="47.33989" lon="0.04703">
        <ele>58.3</ele>
        <time>2010-10-31T10:29:53Z</time>
      </trkpt>
      <trkpt lat="47.33986" lon="0.04698">
        <ele>59.26</ele>
        <time>2010-10-31T10:29:54Z</time>
      </trkpt>
      <trkpt lat="47.33982" lon="0.04694">
        <ele>58.78</ele>
        <time>2010-10-31T10:29:55Z</time>
      </trkpt>
      <trkpt lat="47.33978" lon="0.0469">
        <ele>57.82</ele>
        <time>2010-10-31T10:29:56Z</time>
      </trkpt>
      <trkpt lat="47.33974" lon="0.04687">
        <ele>61.18</ele>
        <time>2010-10-31T10:29:57Z</time>
      </trkpt>
      <trkpt lat="47.3397" lon="0.04683">
        <ele>58.3</ele>
        <time>2010-10-31T10:29:58Z</time>
      </trkpt>
      <trkpt lat="47.33966" lon="0.04679">
        <ele>58.3</ele>
        <time>2010-10-31T10:29:59Z</time>
      </trkpt>
      <trkpt lat="47.33963" lon="0.04675">
        <ele>59.74</ele>
        <time>2010-10-31T10:30:00Z</time>
      </trkpt>
      <trkpt lat="47.33959" lon="0.04672">
        <ele>59.26</ele>
        <time>2010-10-31T10:30:01Z</time>
      </trkpt>
      <trkpt lat="47.33956" lon="0.04667">
        <ele>58.3</ele>
        <time>2010-10-31T10:30:02Z</time>
      </trkpt>
      <trkpt lat="47.33952" lon="0.04663">
        <ele>59.74</ele>
        <time>2010-10-31T10:30:03Z</time>
      </trkpt>
      <trkpt lat="47.33949" lon="0.04658">
        <ele>58.78</ele>
        <time>2010-10-31T10:30:04Z</time>
      </trkpt>
      <trkpt lat="47.33945" lon="0.04654">
        <ele>58.78</ele>
        <time>2010-10-31T10:30:05Z</time>
      </trkpt>
      <trkpt lat="47.33913" lon="0.04617">
        <ele>57.34</ele>
        <time>2010-10-31T10:30:13Z</time>
      </trkpt>
      <trkpt lat="47.33909" lon="0.04612">
        <ele>58.3</ele>
        <time>2010-10-31T10:30:14Z</time>
      </trkpt>
      <trkpt lat="47.33881" lon="0.04579">
        <ele>55.89</ele>
        <time>2010-10-31T10:30:20Z</time>
      </trkpt>
      <trkpt lat="47.33871" lon="0.04568">
        <ele>56.86</ele>
        <time>2010-10-31T10:30:22Z</time>
      </trkpt>
      <trkpt lat="47.33867" lon="0.04562">
        <ele>57.34</ele>
        <time>2010-10-31T10:30:23Z</time>
      </trkpt>
      <trkpt lat="47.33862" lon="0.04557">
        <ele>56.37</ele>
        <time>2010-10-31T10:30:24Z</time>
      </trkpt>
      <trkpt lat="47.33859" lon="0.04552">
        <ele>55.41</ele>
        <time>2010-10-31T10:30:25Z</time>
      </trkpt>
      <trkpt lat="47.33854" lon="0.04546">
        <ele>56.37</ele>
        <time>2010-10-31T10:30:26Z</time>
      </trkpt>
      <trkpt lat="47.3385" lon="0.0454">
        <ele>57.34</ele>
        <time>2010-10-31T10:30:27Z</time>
      </trkpt>
      <trkpt lat="47.33847" lon="0.04533">
        <ele>56.37</ele>
        <time>2010-10-31T10:30:28Z</time>
      </trkpt>
      <trkpt lat="47.33843" lon="0.04527">
        <ele>58.3</ele>
        <time>2010-10-31T10:30:29Z</time>
      </trkpt>
      <trkpt lat="47.33834" lon="0.04513">
        <ele>54.45</ele>
        <time>2010-10-31T10:30:31Z</time>
      </trkpt>
      <trkpt lat="47.3383" lon="0.04506">
        <ele>56.37</ele>
        <time>2010-10-31T10:30:32Z</time>
      </trkpt>
      <trkpt lat="47.33817" lon="0.04486">
        <ele>55.89</ele>
        <time>2010-10-31T10:30:35Z</time>
      </trkpt>
      <trkpt lat="47.33812" lon="0.04481">
        <ele>55.41</ele>
        <time>2010-10-31T10:30:36Z</time>
      </trkpt>
      <trkpt lat="47.33801" lon="0.04469">
        <ele>55.41</ele>
        <time>2010-10-31T10:30:39Z</time>
      </trkpt>
      <trkpt lat="47.33793" lon="0.04459">
        <ele>57.82</ele>
        <time>2010-10-31T10:30:41Z</time>
      </trkpt>
      <trkpt lat="47.33759" lon="0.04408">
        <ele>55.41</ele>
        <time>2010-10-31T10:30:49Z</time>
      </trkpt>
      <trkpt lat="47.33742" lon="0.04383">
        <ele>53.97</ele>
        <time>2010-10-31T10:30:53Z</time>
      </trkpt>
      <trkpt lat="47.33727" lon="0.0436">
        <ele>56.37</ele>
        <time>2010-10-31T10:30:57Z</time>
      </trkpt>
      <trkpt lat="47.33719" lon="0.04339">
        <ele>55.41</ele>
        <time>2010-10-31T10:31:02Z</time>
      </trkpt>
      <trkpt lat="47.33719" lon="0.04336">
        <ele>54.93</ele>
        <time>2010-10-31T10:31:03Z</time>
      </trkpt>
      <trkpt lat="47.3372" lon="0.04333">
        <ele>55.41</ele>
        <time>2010-10-31T10:31:04Z</time>
      </trkpt>
      <trkpt lat="47.33722" lon="0.04329">
        <ele>54.93</ele>
        <time>2010-10-31T10:31:05Z</time>
      </trkpt>
      <trkpt lat="47.33723" lon="0.04324">
        <ele>56.86</ele>
        <time>2010-10-31T10:31:06Z</time>
      </trkpt>
      <trkpt lat="47.33725" lon="0.0432">
        <ele>55.41</ele>
        <time>2010-10-31T10:31:07Z</time>
      </trkpt>
      <trkpt lat="47.33728" lon="0.04309">
        <ele>58.78</ele>
        <time>2010-10-31T10:31:09Z</time>
      </trkpt>
      <trkpt lat="47.33727" lon="0.04292">
        <ele>55.89</ele>
        <time>2010-10-31T10:31:12Z</time>
      </trkpt>
      <trkpt lat="47.33729" lon="0.04282">
        <ele>54.93</ele>
        <time>2010-10-31T10:31:14Z</time>
      </trkpt>
      <trkpt lat="47.33736" lon="0.04251">
        <ele>53.97</ele>
        <time>2010-10-31T10:31:20Z</time>
      </trkpt>
      <trkpt lat="47.33736" lon="0.04244">
        <ele>55.41</ele>
        <time>2010-10-31T10:31:21Z</time>
      </trkpt>
      <trkpt lat="47.33735" lon="0.04238">
        <ele>55.89</ele>
        <time>2010-10-31T10:31:22Z</time>
      </trkpt>
      <trkpt lat="47.33732" lon="0.04232">
        <ele>53.49</ele>
        <time>2010-10-31T10:31:23Z</time>
      </trkpt>
      <trkpt lat="47.3373" lon="0.04227">
        <ele>53.97</ele>
        <time>2010-10-31T10:31:24Z</time>
      </trkpt>
      <trkpt lat="47.33727" lon="0.04222">
        <ele>54.45</ele>
        <time>2010-10-31T10:31:25Z</time>
      </trkpt>
      <trkpt lat="47.33725" lon="0.04216">
        <ele>53.97</ele>
        <time>2010-10-31T10:31:26Z</time>
      </trkpt>
      <trkpt lat="47.33722" lon="0.04211">
        <ele>55.89</ele>
        <time>2010-10-31T10:31:27Z</time>
      </trkpt>
      <trkpt lat="47.33709" lon="0.04184">
        <ele>54.45</ele>
        <time>2010-10-31T10:31:33Z</time>
      </trkpt>
      <trkpt lat="47.33705" lon="0.04175">
        <ele>55.41</ele>
        <time>2010-10-31T10:31:35Z</time>
      </trkpt>
      <trkpt lat="47.33696" lon="0.04158">
        <ele>55.89</ele>
        <time>2010-10-31T10:31:39Z</time>
      </trkpt>
      <trkpt lat="47.33687" lon="0.04136">
        <ele>58.3</ele>
        <time>2010-10-31T10:31:44Z</time>
      </trkpt>
      <trkpt lat="47.33679" lon="0.04115">
        <ele>53.97</ele>
        <time>2010-10-31T10:31:48Z</time>
      </trkpt>
      <trkpt lat="47.33676" lon="0.0411">
        <ele>53.97</ele>
        <time>2010-10-31T10:31:49Z</time>
      </trkpt>
      <trkpt lat="47.33671" lon="0.04098">
        <ele>57.82</ele>
        <time>2010-10-31T10:31:51Z</time>
      </trkpt>
      <trkpt lat="47.33661" lon="0.04075">
        <ele>55.89</ele>
        <time>2010-10-31T10:31:55Z</time>
      </trkpt>
      <trkpt lat="47.33656" lon="0.04062">
        <ele>55.41</ele>
        <time>2010-10-31T10:31:57Z</time>
      </trkpt>
      <trkpt lat="47.33633" lon="0.04021">
        <ele>56.86</ele>
        <time>2010-10-31T10:32:04Z</time>
      </trkpt>
      <trkpt lat="47.33624" lon="0.04003">
        <ele>55.89</ele>
        <time>2010-10-31T10:32:07Z</time>
      </trkpt>
      <trkpt lat="47.33614" lon="0.03976">
        <ele>54.93</ele>
        <time>2010-10-31T10:32:11Z</time>
      </trkpt>
      <trkpt lat="47.33599" lon="0.03921">
        <ele>56.37</ele>
        <time>2010-10-31T10:32:19Z</time>
      </trkpt>
      <trkpt lat="47.33596" lon="0.03906">
        <ele>54.93</ele>
        <time>2010-10-31T10:32:21Z</time>
      </trkpt>
      <trkpt lat="47.33588" lon="0.03872">
        <ele>56.86</ele>
        <time>2010-10-31T10:32:26Z</time>
      </trkpt>
      <trkpt lat="47.33582" lon="0.0383">
        <ele>57.34</ele>
        <time>2010-10-31T10:32:32Z</time>
      </trkpt>
      <trkpt lat="47.3358" lon="0.03816">
        <ele>55.41</ele>
        <time>2010-10-31T10:32:34Z</time>
      </trkpt>
      <trkpt lat="47.33579" lon="0.03809">
        <ele>56.37</ele>
        <time>2010-10-31T10:32:35Z</time>
      </trkpt>
      <trkpt lat="47.33579" lon="0.03802">
        <ele>57.34</ele>
        <time>2010-10-31T10:32:36Z</time>
      </trkpt>
      <trkpt lat="47.33578" lon="0.03796">
        <ele>57.82</ele>
        <time>2010-10-31T10:32:37Z</time>
      </trkpt>
      <trkpt lat="47.33578" lon="0.0379">
        <ele>55.89</ele>
        <time>2010-10-31T10:32:38Z</time>
      </trkpt>
      <trkpt lat="47.3358" lon="0.03784">
        <ele>54.93</ele>
        <time>2010-10-31T10:32:39Z</time>
      </trkpt>
      <trkpt lat="47.33582" lon="0.03779">
        <ele>54.93</ele>
        <time>2010-10-31T10:32:40Z</time>
      </trkpt>
      <trkpt lat="47.33585" lon="0.03776">
        <ele>54.45</ele>
        <time>2010-10-31T10:32:41Z</time>
      </trkpt>
      <trkpt lat="47.33588" lon="0.03773">
        <ele>53.01</ele>
        <time>2010-10-31T10:32:42Z</time>
      </trkpt>
      <trkpt lat="47.33592" lon="0.03769">
        <ele>54.45</ele>
        <time>2010-10-31T10:32:43Z</time>
      </trkpt>
      <trkpt lat="47.33602" lon="0.03755">
        <ele>54.93</ele>
        <time>2010-10-31T10:32:46Z</time>
      </trkpt>
      <trkpt lat="47.33609" lon="0.03746">
        <ele>53.97</ele>
        <time>2010-10-31T10:32:48Z</time>
      </trkpt>
      <trkpt lat="47.33643" lon="0.03704">
        <ele>52.05</ele>
        <time>2010-10-31T10:32:56Z</time>
      </trkpt>
      <trkpt lat="47.33653" lon="0.03692">
        <ele>51.09</ele>
        <time>2010-10-31T10:32:58Z</time>
      </trkpt>
      <trkpt lat="47.33669" lon="0.03671">
        <ele>48.2</ele>
        <time>2010-10-31T10:33:01Z</time>
      </trkpt>
      <trkpt lat="47.33705" lon="0.03625">
        <ele>44.36</ele>
        <time>2010-10-31T10:33:07Z</time>
      </trkpt>
      <trkpt lat="47.3371" lon="0.03618">
        <ele>45.32</ele>
        <time>2010-10-31T10:33:08Z</time>
      </trkpt>
      <trkpt lat="47.33733" lon="0.03588">
        <ele>47.24</ele>
        <time>2010-10-31T10:33:13Z</time>
      </trkpt>
      <trkpt lat="47.3375" lon="0.03567">
        <ele>44.36</ele>
        <time>2010-10-31T10:33:17Z</time>
      </trkpt>
      <trkpt lat="47.33765" lon="0.03549">
        <ele>45.32</ele>
        <time>2010-10-31T10:33:21Z</time>
      </trkpt>
      <trkpt lat="47.33783" lon="0.03528">
        <ele>45.32</ele>
        <time>2010-10-31T10:33:27Z</time>
      </trkpt>
      <trkpt lat="47.33786" lon="0.03527">
        <ele>47.72</ele>
        <time>2010-10-31T10:33:28Z</time>
      </trkpt>
      <trkpt lat="47.33788" lon="0.03528">
        <ele>48.2</ele>
        <time>2010-10-31T10:33:29Z</time>
      </trkpt>
      <trkpt lat="47.3379" lon="0.0353">
        <ele>46.28</ele>
        <time>2010-10-31T10:33:30Z</time>
      </trkpt>
      <trkpt lat="47.33792" lon="0.03533">
        <ele>46.76</ele>
        <time>2010-10-31T10:33:31Z</time>
      </trkpt>
      <trkpt lat="47.33795" lon="0.03536">
        <ele>46.76</ele>
        <time>2010-10-31T10:33:32Z</time>
      </trkpt>
      <trkpt lat="47.33805" lon="0.03553">
        <ele>49.16</ele>
        <time>2010-10-31T10:33:36Z</time>
      </trkpt>
      <trkpt lat="47.33808" lon="0.03557">
        <ele>47.72</ele>
        <time>2010-10-31T10:33:37Z</time>
      </trkpt>
      <trkpt lat="47.33836" lon="0.03604">
        <ele>48.2</ele>
        <time>2010-10-31T10:33:47Z</time>
      </trkpt>
      <trkpt lat="47.33842" lon="0.03613">
        <ele>48.68</ele>
        <time>2010-10-31T10:33:49Z</time>
      </trkpt>
      <trkpt lat="47.33845" lon="0.03619">
        <ele>48.68</ele>
        <time>2010-10-31T10:33:50Z</time>
      </trkpt>
      <trkpt lat="47.33847" lon="0.03625">
        <ele>50.13</ele>
        <time>2010-10-31T10:33:51Z</time>
      </trkpt>
      <trkpt lat="47.3385" lon="0.0363">
        <ele>48.2</ele>
        <time>2010-10-31T10:33:52Z</time>
      </trkpt>
      <trkpt lat="47.33853" lon="0.03635">
        <ele>52.05</ele>
        <time>2010-10-31T10:33:53Z</time>
      </trkpt>
      <trkpt lat="47.33862" lon="0.03649">
        <ele>48.68</ele>
        <time>2010-10-31T10:33:56Z</time>
      </trkpt>
      <trkpt lat="47.33864" lon="0.03654">
        <ele>48.2</ele>
        <time>2010-10-31T10:33:57Z</time>
      </trkpt>
      <trkpt lat="47.33879" lon="0.03673">
        <ele>47.72</ele>
        <time>2010-10-31T10:34:02Z</time>
      </trkpt>
      <trkpt lat="47.33889" lon="0.0367">
        <ele>48.68</ele>
        <time>2010-10-31T10:34:05Z</time>
      </trkpt>
      <trkpt lat="47.33891" lon="0.03667">
        <ele>49.16</ele>
        <time>2010-10-31T10:34:06Z</time>
      </trkpt>
      <trkpt lat="47.33894" lon="0.03664">
        <ele>48.68</ele>
        <time>2010-10-31T10:34:07Z</time>
      </trkpt>
      <trkpt lat="47.33897" lon="0.03661">
        <ele>48.68</ele>
        <time>2010-10-31T10:34:08Z</time>
      </trkpt>
      <trkpt lat="47.339" lon="0.03657">
        <ele>50.13</ele>
        <time>2010-10-31T10:34:09Z</time>
      </trkpt>
      <trkpt lat="47.33916" lon="0.03629">
        <ele>49.16</ele>
        <time>2010-10-31T10:34:15Z</time>
      </trkpt>
      <trkpt lat="47.33924" lon="0.03616">
        <ele>53.49</ele>
        <time>2010-10-31T10:34:18Z</time>
      </trkpt>
      <trkpt lat="47.33927" lon="0.03612">
        <ele>52.05</ele>
        <time>2010-10-31T10:34:19Z</time>
      </trkpt>
      <trkpt lat="47.3394" lon="0.03592">
        <ele>52.53</ele>
        <time>2010-10-31T10:34:24Z</time>
      </trkpt>
      <trkpt lat="47.33956" lon="0.03565">
        <ele>54.45</ele>
        <time>2010-10-31T10:34:30Z</time>
      </trkpt>
      <trkpt lat="47.33976" lon="0.03542">
        <ele>54.93</ele>
        <time>2010-10-31T10:34:36Z</time>
      </trkpt>
      <trkpt lat="47.33998" lon="0.03515">
        <ele>53.97</ele>
        <time>2010-10-31T10:34:43Z</time>
      </trkpt>
      <trkpt lat="47.34013" lon="0.03501">
        <ele>55.89</ele>
        <time>2010-10-31T10:34:48Z</time>
      </trkpt>
      <trkpt lat="47.34029" lon="0.03473">
        <ele>55.89</ele>
        <time>2010-10-31T10:34:55Z</time>
      </trkpt>
      <trkpt lat="47.34032" lon="0.03466">
        <ele>56.86</ele>
        <time>2010-10-31T10:34:57Z</time>
      </trkpt>
      <trkpt lat="47.34046" lon="0.03445">
        <ele>55.41</ele>
        <time>2010-10-31T10:35:02Z</time>
      </trkpt>
      <trkpt lat="47.34059" lon="0.03427">
        <ele>59.26</ele>
        <time>2010-10-31T10:35:06Z</time>
      </trkpt>
      <trkpt lat="47.34063" lon="0.03421">
        <ele>60.22</ele>
        <time>2010-10-31T10:35:08Z</time>
      </trkpt>
      <trkpt lat="47.3408" lon="0.03395">
        <ele>56.37</ele>
        <time>2010-10-31T10:35:13Z</time>
      </trkpt>
      <trkpt lat="47.34086" lon="0.03386">
        <ele>59.26</ele>
        <time>2010-10-31T10:35:15Z</time>
      </trkpt>
      <trkpt lat="47.34111" lon="0.03345">
        <ele>60.22</ele>
        <time>2010-10-31T10:35:23Z</time>
      </trkpt>
      <trkpt lat="47.34134" lon="0.03317">
        <ele>61.18</ele>
        <time>2010-10-31T10:35:30Z</time>
      </trkpt>
      <trkpt lat="47.34137" lon="0.03313">
        <ele>60.7</ele>
        <time>2010-10-31T10:35:31Z</time>
      </trkpt>
      <trkpt lat="47.34155" lon="0.03291">
        <ele>60.7</ele>
        <time>2010-10-31T10:35:38Z</time>
      </trkpt>
      <trkpt lat="47.34167" lon="0.03272">
        <ele>62.14</ele>
        <time>2010-10-31T10:35:43Z</time>
      </trkpt>
      <trkpt lat="47.34178" lon="0.03256">
        <ele>64.07</ele>
        <time>2010-10-31T10:35:47Z</time>
      </trkpt>
      <trkpt lat="47.34186" lon="0.03244">
        <ele>62.62</ele>
        <time>2010-10-31T10:35:50Z</time>
      </trkpt>
      <trkpt lat="47.34191" lon="0.03237">
        <ele>64.07</ele>
        <time>2010-10-31T10:35:52Z</time>
      </trkpt>
      <trkpt lat="47.34194" lon="0.03233">
        <ele>61.18</ele>
        <time>2010-10-31T10:35:53Z</time>
      </trkpt>
      <trkpt lat="47.34205" lon="0.03215">
        <ele>64.55</ele>
        <time>2010-10-31T10:35:57Z</time>
      </trkpt>
      <trkpt lat="47.34228" lon="0.03184">
        <ele>63.1</ele>
        <time>2010-10-31T10:36:04Z</time>
      </trkpt>
      <trkpt lat="47.34235" lon="0.03173">
        <ele>65.99</ele>
        <time>2010-10-31T10:36:07Z</time>
      </trkpt>
      <trkpt lat="47.34241" lon="0.03165">
        <ele>66.95</ele>
        <time>2010-10-31T10:36:09Z</time>
      </trkpt>
      <trkpt lat="47.34253" lon="0.03145">
        <ele>66.95</ele>
        <time>2010-10-31T10:36:14Z</time>
      </trkpt>
      <trkpt lat="47.34255" lon="0.03142">
        <ele>65.51</ele>
        <time>2010-10-31T10:36:15Z</time>
      </trkpt>
      <trkpt lat="47.34257" lon="0.03138">
        <ele>68.39</ele>
        <time>2010-10-31T10:36:16Z</time>
      </trkpt>
      <trkpt lat="47.34259" lon="0.03134">
        <ele>66.47</ele>
        <time>2010-10-31T10:36:17Z</time>
      </trkpt>
      <trkpt lat="47.34261" lon="0.0313">
        <ele>64.55</ele>
        <time>2010-10-31T10:36:18Z</time>
      </trkpt>
      <trkpt lat="47.34264" lon="0.03126">
        <ele>66.47</ele>
        <time>2010-10-31T10:36:19Z</time>
      </trkpt>
      <trkpt lat="47.34266" lon="0.03121">
        <ele>67.91</ele>
        <time>2010-10-31T10:36:20Z</time>
      </trkpt>
      <trkpt lat="47.3429" lon="0.03087">
        <ele>68.87</ele>
        <time>2010-10-31T10:36:27Z</time>
      </trkpt>
      <trkpt lat="47.34295" lon="0.03079">
        <ele>67.43</ele>
        <time>2010-10-31T10:36:29Z</time>
      </trkpt>
      <trkpt lat="47.34309" lon="0.03055">
        <ele>67.91</ele>
        <time>2010-10-31T10:36:35Z</time>
      </trkpt>
      <trkpt lat="47.34317" lon="0.03043">
        <ele>66.95</ele>
        <time>2010-10-31T10:36:39Z</time>
      </trkpt>
      <trkpt lat="47.34322" lon="0.03034">
        <ele>70.31</ele>
        <time>2010-10-31T10:36:45Z</time>
      </trkpt>
      <trkpt lat="47.34322" lon="0.03034">
        <ele>68.39</ele>
        <time>2010-10-31T10:36:57Z</time>
      </trkpt>
      <trkpt lat="47.34322" lon="0.03034">
        <ele>72.24</ele>
        <time>2010-10-31T10:37:05Z</time>
      </trkpt>
      <trkpt lat="47.34322" lon="0.03034">
        <ele>67.91</ele>
        <time>2010-10-31T10:37:06Z</time>
      </trkpt>
      <trkpt lat="47.34322" lon="0.03034">
        <ele>72.72</ele>
        <time>2010-10-31T10:37:07Z</time>
      </trkpt>
      <trkpt lat="47.34322" lon="0.03034">
        <ele>68.87</ele>
        <time>2010-10-31T10:37:11Z</time>
      </trkpt>
      <trkpt lat="47.34322" lon="0.03034">
        <ele>68.39</ele>
        <time>2010-10-31T10:37:12Z</time>
      </trkpt>
      <trkpt lat="47.34322" lon="0.03034">
        <ele>69.83</ele>
        <time>2010-10-31T10:37:15Z</time>
      </trkpt>
      <trkpt lat="47.34322" lon="0.03034">
        <ele>67.43</ele>
        <time>2010-10-31T10:37:18Z</time>
      </trkpt>
      <trkpt lat="47.34323" lon="0.03034">
        <ele>68.87</ele>
        <time>2010-10-31T10:37:24Z</time>
      </trkpt>
      <trkpt lat="47.34323" lon="0.03034">
        <ele>69.35</ele>
        <time>2010-10-31T10:37:28Z</time>
      </trkpt>
      <trkpt lat="47.34323" lon="0.03034">
        <ele>71.76</ele>
        <time>2010-10-31T10:37:30Z</time>
      </trkpt>
      <trkpt lat="47.34323" lon="0.03034">
        <ele>67.91</ele>
        <time>2010-10-31T10:37:32Z</time>
      </trkpt>
      <trkpt lat="47.34323" lon="0.03034">
        <ele>67.91</ele>
        <time>2010-10-31T10:37:33Z</time>
      </trkpt>
      <trkpt lat="47.34323" lon="0.03034">
        <ele>69.83</ele>
        <time>2010-10-31T10:37:36Z</time>
      </trkpt>
      <trkpt lat="47.34331" lon="0.03022">
        <ele>71.27</ele>
        <time>2010-10-31T10:37:42Z</time>
      </trkpt>
      <trkpt lat="47.3434" lon="0.0301">
        <ele>67.91</ele>
        <time>2010-10-31T10:37:46Z</time>
      </trkpt>
      <trkpt lat="47.34342" lon="0.03006">
        <ele>72.24</ele>
        <time>2010-10-31T10:37:47Z</time>
      </trkpt>
      <trkpt lat="47.34354" lon="0.02985">
        <ele>71.76</ele>
        <time>2010-10-31T10:37:52Z</time>
      </trkpt>
      <trkpt lat="47.34356" lon="0.02982">
        <ele>71.27</ele>
        <time>2010-10-31T10:37:53Z</time>
      </trkpt>
      <trkpt lat="47.34366" lon="0.02963">
        <ele>74.16</ele>
        <time>2010-10-31T10:37:57Z</time>
      </trkpt>
      <trkpt lat="47.34368" lon="0.02958">
        <ele>71.76</ele>
        <time>2010-10-31T10:37:58Z</time>
      </trkpt>
      <trkpt lat="47.3437" lon="0.02954">
        <ele>73.2</ele>
        <time>2010-10-31T10:37:59Z</time>
      </trkpt>
      <trkpt lat="47.34372" lon="0.0295">
        <ele>75.12</ele>
        <time>2010-10-31T10:38:00Z</time>
      </trkpt>
      <trkpt lat="47.34374" lon="0.02947">
        <ele>72.24</ele>
        <time>2010-10-31T10:38:01Z</time>
      </trkpt>
      <trkpt lat="47.34377" lon="0.02941">
        <ele>68.87</ele>
        <time>2010-10-31T10:38:03Z</time>
      </trkpt>
      <trkpt lat="47.34379" lon="0.02932">
        <ele>70.79</ele>
        <time>2010-10-31T10:38:07Z</time>
      </trkpt>
      <trkpt lat="47.34383" lon="0.02926">
        <ele>75.6</ele>
        <time>2010-10-31T10:38:11Z</time>
      </trkpt>
      <trkpt lat="47.34391" lon="0.02919">
        <ele>72.24</ele>
        <time>2010-10-31T10:38:15Z</time>
      </trkpt>
      <trkpt lat="47.344" lon="0.02914">
        <ele>78.97</ele>
        <time>2010-10-31T10:38:18Z</time>
      </trkpt>
      <trkpt lat="47.34408" lon="0.02909">
        <ele>75.6</ele>
        <time>2010-10-31T10:38:20Z</time>
      </trkpt>
      <trkpt lat="47.34414" lon="0.02903">
        <ele>76.08</ele>
        <time>2010-10-31T10:38:22Z</time>
      </trkpt>
      <trkpt lat="47.34421" lon="0.02893">
        <ele>73.2</ele>
        <time>2010-10-31T10:38:25Z</time>
      </trkpt>
      <trkpt lat="47.34426" lon="0.02889">
        <ele>75.6</ele>
        <time>2010-10-31T10:38:28Z</time>
      </trkpt>
      <trkpt lat="47.34428" lon="0.02884">
        <ele>76.56</ele>
        <time>2010-10-31T10:38:30Z</time>
      </trkpt>
      <trkpt lat="47.34434" lon="0.02873">
        <ele>76.56</ele>
        <time>2010-10-31T10:38:35Z</time>
      </trkpt>
      <trkpt lat="47.34435" lon="0.02871">
        <ele>81.37</ele>
        <time>2010-10-31T10:38:36Z</time>
      </trkpt>
      <trkpt lat="47.34444" lon="0.0286">
        <ele>81.37</ele>
        <time>2010-10-31T10:38:42Z</time>
      </trkpt>
      <trkpt lat="47.34446" lon="0.02854">
        <ele>82.81</ele>
        <time>2010-10-31T10:38:45Z</time>
      </trkpt>
      <trkpt lat="47.34447" lon="0.02853">
        <ele>78</ele>
        <time>2010-10-31T10:38:46Z</time>
      </trkpt>
      <trkpt lat="47.34447" lon="0.02851">
        <ele>79.93</ele>
        <time>2010-10-31T10:38:47Z</time>
      </trkpt>
      <trkpt lat="47.34451" lon="0.02846">
        <ele>78</ele>
        <time>2010-10-31T10:38:50Z</time>
      </trkpt>
      <trkpt lat="47.34453" lon="0.02841">
        <ele>85.21</ele>
        <time>2010-10-31T10:38:54Z</time>
      </trkpt>
      <trkpt lat="47.34454" lon="0.02838">
        <ele>81.85</ele>
        <time>2010-10-31T10:38:55Z</time>
      </trkpt>
      <trkpt lat="47.34457" lon="0.02834">
        <ele>78.48</ele>
        <time>2010-10-31T10:38:57Z</time>
      </trkpt>
      <trkpt lat="47.34457" lon="0.02833">
        <ele>79.45</ele>
        <time>2010-10-31T10:38:58Z</time>
      </trkpt>
      <trkpt lat="47.34464" lon="0.02825">
        <ele>79.93</ele>
        <time>2010-10-31T10:39:04Z</time>
      </trkpt>
      <trkpt lat="47.34464" lon="0.02825">
        <ele>83.77</ele>
        <time>2010-10-31T10:39:05Z</time>
      </trkpt>
      <trkpt lat="47.34466" lon="0.02824">
        <ele>78.48</ele>
        <time>2010-10-31T10:39:06Z</time>
      </trkpt>
      <trkpt lat="47.34468" lon="0.02822">
        <ele>78.97</ele>
        <time>2010-10-31T10:39:07Z</time>
      </trkpt>
      <trkpt lat="47.3447" lon="0.02821">
        <ele>82.33</ele>
        <time>2010-10-31T10:39:08Z</time>
      </trkpt>
      <trkpt lat="47.34472" lon="0.02819">
        <ele>79.93</ele>
        <time>2010-10-31T10:39:09Z</time>
      </trkpt>
      <trkpt lat="47.34477" lon="0.02814">
        <ele>82.33</ele>
        <time>2010-10-31T10:39:12Z</time>
      </trkpt>
      <trkpt lat="47.34479" lon="0.0281">
        <ele>84.25</ele>
        <time>2010-10-31T10:39:16Z</time>
      </trkpt>
      <trkpt lat="47.34482" lon="0.02804">
        <ele>84.73</ele>
        <time>2010-10-31T10:39:19Z</time>
      </trkpt>
      <trkpt lat="47.34492" lon="0.02787">
        <ele>84.73</ele>
        <time>2010-10-31T10:39:26Z</time>
      </trkpt>
      <trkpt lat="47.34494" lon="0.02784">
        <ele>86.18</ele>
        <time>2010-10-31T10:39:27Z</time>
      </trkpt>
      <trkpt lat="47.34496" lon="0.02779">
        <ele>86.18</ele>
        <time>2010-10-31T10:39:29Z</time>
      </trkpt>
      <trkpt lat="47.345" lon="0.02768">
        <ele>86.18</ele>
        <time>2010-10-31T10:39:34Z</time>
      </trkpt>
      <trkpt lat="47.34504" lon="0.02755">
        <ele>86.18</ele>
        <time>2010-10-31T10:39:38Z</time>
      </trkpt>
      <trkpt lat="47.34507" lon="0.02749">
        <ele>86.66</ele>
        <time>2010-10-31T10:39:40Z</time>
      </trkpt>
      <trkpt lat="47.3451" lon="0.02735">
        <ele>87.62</ele>
        <time>2010-10-31T10:39:45Z</time>
      </trkpt>
      <trkpt lat="47.34512" lon="0.02728">
        <ele>88.58</ele>
        <time>2010-10-31T10:39:49Z</time>
      </trkpt>
      <trkpt lat="47.34519" lon="0.02714">
        <ele>89.06</ele>
        <time>2010-10-31T10:39:55Z</time>
      </trkpt>
      <trkpt lat="47.34523" lon="0.027">
        <ele>89.54</ele>
        <time>2010-10-31T10:40:02Z</time>
      </trkpt>
      <trkpt lat="47.34524" lon="0.02698">
        <ele>93.39</ele>
        <time>2010-10-31T10:40:04Z</time>
      </trkpt>
      <trkpt lat="47.34525" lon="0.02697">
        <ele>93.39</ele>
        <time>2010-10-31T10:40:05Z</time>
      </trkpt>
      <trkpt lat="47.34529" lon="0.02693">
        <ele>90.98</ele>
        <time>2010-10-31T10:40:07Z</time>
      </trkpt>
      <trkpt lat="47.34537" lon="0.02682">
        <ele>92.9</ele>
        <time>2010-10-31T10:40:11Z</time>
      </trkpt>
      <trkpt lat="47.34545" lon="0.02659">
        <ele>92.9</ele>
        <time>2010-10-31T10:40:18Z</time>
      </trkpt>
      <trkpt lat="47.3455" lon="0.02636">
        <ele>92.9</ele>
        <time>2010-10-31T10:40:24Z</time>
      </trkpt>
      <trkpt lat="47.34551" lon="0.02632">
        <ele>93.39</ele>
        <time>2010-10-31T10:40:25Z</time>
      </trkpt>
      <trkpt lat="47.34556" lon="0.02615">
        <ele>93.39</ele>
        <time>2010-10-31T10:40:29Z</time>
      </trkpt>
      <trkpt lat="47.34566" lon="0.02585">
        <ele>94.83</ele>
        <time>2010-10-31T10:40:35Z</time>
      </trkpt>
      <trkpt lat="47.34564" lon="0.02574">
        <ele>94.35</ele>
        <time>2010-10-31T10:40:37Z</time>
      </trkpt>
      <trkpt lat="47.34563" lon="0.02541">
        <ele>95.31</ele>
        <time>2010-10-31T10:40:43Z</time>
      </trkpt>
      <trkpt lat="47.34561" lon="0.02527">
        <ele>90.98</ele>
        <time>2010-10-31T10:40:45Z</time>
      </trkpt>
      <trkpt lat="47.34561" lon="0.02521">
        <ele>95.31</ele>
        <time>2010-10-31T10:40:46Z</time>
      </trkpt>
      <trkpt lat="47.3456" lon="0.02508">
        <ele>96.27</ele>
        <time>2010-10-31T10:40:48Z</time>
      </trkpt>
      <trkpt lat="47.34558" lon="0.0249">
        <ele>102.04</ele>
        <time>2010-10-31T10:40:51Z</time>
      </trkpt>
      <trkpt lat="47.34558" lon="0.02483">
        <ele>96.75</ele>
        <time>2010-10-31T10:40:52Z</time>
      </trkpt>
      <trkpt lat="47.34557" lon="0.02476">
        <ele>100.11</ele>
        <time>2010-10-31T10:40:53Z</time>
      </trkpt>
      <trkpt lat="47.34557" lon="0.02447">
        <ele>96.27</ele>
        <time>2010-10-31T10:40:58Z</time>
      </trkpt>
      <trkpt lat="47.34557" lon="0.02441">
        <ele>99.63</ele>
        <time>2010-10-31T10:40:59Z</time>
      </trkpt>
      <trkpt lat="47.34557" lon="0.02427">
        <ele>95.79</ele>
        <time>2010-10-31T10:41:01Z</time>
      </trkpt>
      <trkpt lat="47.3456" lon="0.02409">
        <ele>94.35</ele>
        <time>2010-10-31T10:41:04Z</time>
      </trkpt>
      <trkpt lat="47.3457" lon="0.02386">
        <ele>92.42</ele>
        <time>2010-10-31T10:41:08Z</time>
      </trkpt>
      <trkpt lat="47.34576" lon="0.02374">
        <ele>96.75</ele>
        <time>2010-10-31T10:41:10Z</time>
      </trkpt>
      <trkpt lat="47.34579" lon="0.02369">
        <ele>91.94</ele>
        <time>2010-10-31T10:41:11Z</time>
      </trkpt>
      <trkpt lat="47.34584" lon="0.02356">
        <ele>91.94</ele>
        <time>2010-10-31T10:41:13Z</time>
      </trkpt>
      <trkpt lat="47.3459" lon="0.02342">
        <ele>95.79</ele>
        <time>2010-10-31T10:41:15Z</time>
      </trkpt>
      <trkpt lat="47.34593" lon="0.02334">
        <ele>93.39</ele>
        <time>2010-10-31T10:41:16Z</time>
      </trkpt>
      <trkpt lat="47.34598" lon="0.02315">
        <ele>91.46</ele>
        <time>2010-10-31T10:41:18Z</time>
      </trkpt>
      <trkpt lat="47.34603" lon="0.02285">
        <ele>88.58</ele>
        <time>2010-10-31T10:41:21Z</time>
      </trkpt>
      <trkpt lat="47.34612" lon="0.02256">
        <ele>87.14</ele>
        <time>2010-10-31T10:41:24Z</time>
      </trkpt>
      <trkpt lat="47.34623" lon="0.02225">
        <ele>89.54</ele>
        <time>2010-10-31T10:41:27Z</time>
      </trkpt>
      <trkpt lat="47.34632" lon="0.02189">
        <ele>84.25</ele>
        <time>2010-10-31T10:41:30Z</time>
      </trkpt>
      <trkpt lat="47.34642" lon="0.02169">
        <ele>85.69</ele>
        <time>2010-10-31T10:41:32Z</time>
      </trkpt>
      <trkpt lat="47.34648" lon="0.0216">
        <ele>85.21</ele>
        <time>2010-10-31T10:41:33Z</time>
      </trkpt>
      <trkpt lat="47.34655" lon="0.02155">
        <ele>85.21</ele>
        <time>2010-10-31T10:41:34Z</time>
      </trkpt>
      <trkpt lat="47.34663" lon="0.0215">
        <ele>84.25</ele>
        <time>2010-10-31T10:41:35Z</time>
      </trkpt>
      <trkpt lat="47.34671" lon="0.02146">
        <ele>85.21</ele>
        <time>2010-10-31T10:41:36Z</time>
      </trkpt>
      <trkpt lat="47.34679" lon="0.02141">
        <ele>83.29</ele>
        <time>2010-10-31T10:41:37Z</time>
      </trkpt>
      <trkpt lat="47.34696" lon="0.0213">
        <ele>81.85</ele>
        <time>2010-10-31T10:41:39Z</time>
      </trkpt>
      <trkpt lat="47.34739" lon="0.02096">
        <ele>78</ele>
        <time>2010-10-31T10:41:44Z</time>
      </trkpt>
      <trkpt lat="47.34748" lon="0.02089">
        <ele>78.48</ele>
        <time>2010-10-31T10:41:45Z</time>
      </trkpt>
      <trkpt lat="47.34765" lon="0.02078">
        <ele>77.52</ele>
        <time>2010-10-31T10:41:47Z</time>
      </trkpt>
      <trkpt lat="47.34773" lon="0.02074">
        <ele>76.56</ele>
        <time>2010-10-31T10:41:48Z</time>
      </trkpt>
      <trkpt lat="47.3478" lon="0.0207">
        <ele>77.04</ele>
        <time>2010-10-31T10:41:49Z</time>
      </trkpt>
      <trkpt lat="47.34789" lon="0.02066">
        <ele>78</ele>
        <time>2010-10-31T10:41:50Z</time>
      </trkpt>
      <trkpt lat="47.34797" lon="0.0206">
        <ele>76.56</ele>
        <time>2010-10-31T10:41:51Z</time>
      </trkpt>
      <trkpt lat="47.34804" lon="0.02055">
        <ele>77.52</ele>
        <time>2010-10-31T10:41:52Z</time>
      </trkpt>
      <trkpt lat="47.34828" lon="0.02041">
        <ele>76.56</ele>
        <time>2010-10-31T10:41:55Z</time>
      </trkpt>
      <trkpt lat="47.34851" lon="0.02023">
        <ele>75.6</ele>
        <time>2010-10-31T10:41:58Z</time>
      </trkpt>
      <trkpt lat="47.34858" lon="0.02017">
        <ele>75.6</ele>
        <time>2010-10-31T10:41:59Z</time>
      </trkpt>
      <trkpt lat="47.34897" lon="0.01996">
        <ele>73.68</ele>
        <time>2010-10-31T10:42:04Z</time>
      </trkpt>
      <trkpt lat="47.34926" lon="0.01978">
        <ele>73.2</ele>
        <time>2010-10-31T10:42:08Z</time>
      </trkpt>
      <trkpt lat="47.34932" lon="0.01974">
        <ele>73.2</ele>
        <time>2010-10-31T10:42:09Z</time>
      </trkpt>
      <trkpt lat="47.34939" lon="0.01968">
        <ele>74.16</ele>
        <time>2010-10-31T10:42:10Z</time>
      </trkpt>
      <trkpt lat="47.34983" lon="0.01922">
        <ele>71.27</ele>
        <time>2010-10-31T10:42:17Z</time>
      </trkpt>
      <trkpt lat="47.34999" lon="0.01903">
        <ele>72.24</ele>
        <time>2010-10-31T10:42:20Z</time>
      </trkpt>
      <trkpt lat="47.35004" lon="0.01895">
        <ele>69.83</ele>
        <time>2010-10-31T10:42:21Z</time>
      </trkpt>
      <trkpt lat="47.3501" lon="0.01888">
        <ele>70.79</ele>
        <time>2010-10-31T10:42:22Z</time>
      </trkpt>
      <trkpt lat="47.35025" lon="0.01868">
        <ele>69.35</ele>
        <time>2010-10-31T10:42:25Z</time>
      </trkpt>
      <trkpt lat="47.35034" lon="0.01851">
        <ele>69.35</ele>
        <time>2010-10-31T10:42:27Z</time>
      </trkpt>
      <trkpt lat="47.35075" lon="0.01795">
        <ele>68.87</ele>
        <time>2010-10-31T10:42:35Z</time>
      </trkpt>
      <trkpt lat="47.35098" lon="0.01757">
        <ele>67.91</ele>
        <time>2010-10-31T10:42:41Z</time>
      </trkpt>
      <trkpt lat="47.35105" lon="0.01746">
        <ele>66.47</ele>
        <time>2010-10-31T10:42:43Z</time>
      </trkpt>
      <trkpt lat="47.35109" lon="0.01742">
        <ele>66.47</ele>
        <time>2010-10-31T10:42:44Z</time>
      </trkpt>
      <trkpt lat="47.35123" lon="0.01724">
        <ele>66.95</ele>
        <time>2010-10-31T10:42:49Z</time>
      </trkpt>
      <trkpt lat="47.35123" lon="0.01719">
        <ele>67.43</ele>
        <time>2010-10-31T10:42:50Z</time>
      </trkpt>
      <trkpt lat="47.35124" lon="0.01714">
        <ele>66.95</ele>
        <time>2010-10-31T10:42:51Z</time>
      </trkpt>
      <trkpt lat="47.35123" lon="0.01709">
        <ele>67.43</ele>
        <time>2010-10-31T10:42:52Z</time>
      </trkpt>
      <trkpt lat="47.35121" lon="0.01704">
        <ele>67.91</ele>
        <time>2010-10-31T10:42:53Z</time>
      </trkpt>
      <trkpt lat="47.35118" lon="0.017">
        <ele>68.87</ele>
        <time>2010-10-31T10:42:54Z</time>
      </trkpt>
      <trkpt lat="47.35116" lon="0.01696">
        <ele>67.91</ele>
        <time>2010-10-31T10:42:55Z</time>
      </trkpt>
      <trkpt lat="47.35087" lon="0.01657">
        <ele>69.35</ele>
        <time>2010-10-31T10:43:06Z</time>
      </trkpt>
      <trkpt lat="47.35086" lon="0.01654">
        <ele>69.35</ele>
        <time>2010-10-31T10:43:07Z</time>
      </trkpt>
      <trkpt lat="47.35086" lon="0.0165">
        <ele>69.35</ele>
        <time>2010-10-31T10:43:08Z</time>
      </trkpt>
      <trkpt lat="47.35092" lon="0.01632">
        <ele>68.39</ele>
        <time>2010-10-31T10:43:13Z</time>
      </trkpt>
      <trkpt lat="47.35094" lon="0.01626">
        <ele>70.31</ele>
        <time>2010-10-31T10:43:15Z</time>
      </trkpt>
      <trkpt lat="47.35092" lon="0.01616">
        <ele>67.91</ele>
        <time>2010-10-31T10:43:18Z</time>
      </trkpt>
      <trkpt lat="47.35091" lon="0.01608">
        <ele>68.87</ele>
        <time>2010-10-31T10:43:23Z</time>
      </trkpt>
      <trkpt lat="47.35091" lon="0.01607">
        <ele>70.31</ele>
        <time>2010-10-31T10:43:27Z</time>
      </trkpt>
      <trkpt lat="47.35094" lon="0.01601">
        <ele>69.83</ele>
        <time>2010-10-31T10:43:30Z</time>
      </trkpt>
      <trkpt lat="47.35094" lon="0.01595">
        <ele>68.87</ele>
        <time>2010-10-31T10:43:35Z</time>
      </trkpt>
      <trkpt lat="47.35094" lon="0.01595">
        <ele>70.79</ele>
        <time>2010-10-31T10:43:49Z</time>
      </trkpt>
      <trkpt lat="47.35095" lon="0.01594">
        <ele>69.35</ele>
        <time>2010-10-31T10:44:16Z</time>
      </trkpt>
      <trkpt lat="47.35095" lon="0.01594">
        <ele>71.27</ele>
        <time>2010-10-31T10:44:18Z</time>
      </trkpt>
      <trkpt lat="47.35093" lon="0.0159">
        <ele>69.83</ele>
        <time>2010-10-31T10:44:56Z</time>
      </trkpt>
      <trkpt lat="47.35091" lon="0.01587">
        <ele>69.83</ele>
        <time>2010-10-31T10:44:58Z</time>
      </trkpt>
      <trkpt lat="47.35087" lon="0.01577">
        <ele>69.83</ele>
        <time>2010-10-31T10:45:02Z</time>
      </trkpt>
      <trkpt lat="47.35082" lon="0.01567">
        <ele>71.76</ele>
        <time>2010-10-31T10:45:05Z</time>
      </trkpt>
      <trkpt lat="47.35071" lon="0.0155">
        <ele>72.24</ele>
        <time>2010-10-31T10:45:10Z</time>
      </trkpt>
      <trkpt lat="47.35063" lon="0.0153">
        <ele>72.24</ele>
        <time>2010-10-31T10:45:16Z</time>
      </trkpt>
      <trkpt lat="47.35061" lon="0.01526">
        <ele>72.24</ele>
        <time>2010-10-31T10:45:17Z</time>
      </trkpt>
      <trkpt lat="47.35058" lon="0.01511">
        <ele>75.12</ele>
        <time>2010-10-31T10:45:22Z</time>
      </trkpt>
      <trkpt lat="47.35059" lon="0.01507">
        <ele>75.12</ele>
        <time>2010-10-31T10:45:28Z</time>
      </trkpt>
      <trkpt lat="47.35059" lon="0.01507">
        <ele>73.2</ele>
        <time>2010-10-31T10:45:30Z</time>
      </trkpt>
      <trkpt lat="47.35059" lon="0.01504">
        <ele>73.68</ele>
        <time>2010-10-31T10:45:33Z</time>
      </trkpt>
      <trkpt lat="47.35062" lon="0.01486">
        <ele>75.6</ele>
        <time>2010-10-31T10:45:39Z</time>
      </trkpt>
      <trkpt lat="47.35063" lon="0.0148">
        <ele>76.08</ele>
        <time>2010-10-31T10:45:42Z</time>
      </trkpt>
      <trkpt lat="47.35066" lon="0.01471">
        <ele>76.56</ele>
        <time>2010-10-31T10:45:47Z</time>
      </trkpt>
      <trkpt lat="47.35065" lon="0.01462">
        <ele>77.04</ele>
        <time>2010-10-31T10:45:51Z</time>
      </trkpt>
      <trkpt lat="47.3506" lon="0.01449">
        <ele>78.97</ele>
        <time>2010-10-31T10:45:57Z</time>
      </trkpt>
      <trkpt lat="47.35058" lon="0.01445">
        <ele>78.48</ele>
        <time>2010-10-31T10:45:59Z</time>
      </trkpt>
      <trkpt lat="47.35048" lon="0.0144">
        <ele>78</ele>
        <time>2010-10-31T10:46:06Z</time>
      </trkpt>
      <trkpt lat="47.3504" lon="0.0144">
        <ele>78.97</ele>
        <time>2010-10-31T10:46:12Z</time>
      </trkpt>
      <trkpt lat="47.35037" lon="0.01441">
        <ele>78.48</ele>
        <time>2010-10-31T10:46:22Z</time>
      </trkpt>
      <trkpt lat="47.35035" lon="0.01446">
        <ele>80.41</ele>
        <time>2010-10-31T10:46:29Z</time>
      </trkpt>
      <trkpt lat="47.3503" lon="0.01449">
        <ele>78.48</ele>
        <time>2010-10-31T10:46:33Z</time>
      </trkpt>
      <trkpt lat="47.35027" lon="0.01446">
        <ele>79.45</ele>
        <time>2010-10-31T10:46:36Z</time>
      </trkpt>
      <trkpt lat="47.35019" lon="0.01432">
        <ele>80.41</ele>
        <time>2010-10-31T10:46:43Z</time>
      </trkpt>
      <trkpt lat="47.35012" lon="0.0142">
        <ele>79.45</ele>
        <time>2010-10-31T10:46:50Z</time>
      </trkpt>
      <trkpt lat="47.3501" lon="0.01415">
        <ele>81.85</ele>
        <time>2010-10-31T10:46:53Z</time>
      </trkpt>
      <trkpt lat="47.35006" lon="0.01392">
        <ele>82.33</ele>
        <time>2010-10-31T10:47:01Z</time>
      </trkpt>
      <trkpt lat="47.35001" lon="0.0138">
        <ele>81.85</ele>
        <time>2010-10-31T10:47:07Z</time>
      </trkpt>
      <trkpt lat="47.34996" lon="0.01371">
        <ele>84.25</ele>
        <time>2010-10-31T10:47:11Z</time>
      </trkpt>
      <trkpt lat="47.34989" lon="0.01358">
        <ele>82.81</ele>
        <time>2010-10-31T10:47:16Z</time>
      </trkpt>
      <trkpt lat="47.34985" lon="0.01349">
        <ele>83.77</ele>
        <time>2010-10-31T10:47:19Z</time>
      </trkpt>
      <trkpt lat="47.34984" lon="0.01347">
        <ele>82.81</ele>
        <time>2010-10-31T10:47:20Z</time>
      </trkpt>
      <trkpt lat="47.34976" lon="0.01328">
        <ele>85.21</ele>
        <time>2010-10-31T10:47:26Z</time>
      </trkpt>
      <trkpt lat="47.34969" lon="0.01311">
        <ele>84.25</ele>
        <time>2010-10-31T10:47:32Z</time>
      </trkpt>
      <trkpt lat="47.34967" lon="0.01304">
        <ele>84.25</ele>
        <time>2010-10-31T10:47:35Z</time>
      </trkpt>
      <trkpt lat="47.34963" lon="0.01297">
        <ele>84.73</ele>
        <time>2010-10-31T10:47:38Z</time>
      </trkpt>
      <trkpt lat="47.34954" lon="0.01281">
        <ele>85.69</ele>
        <time>2010-10-31T10:47:45Z</time>
      </trkpt>
      <trkpt lat="47.34947" lon="0.01273">
        <ele>85.69</ele>
        <time>2010-10-31T10:47:49Z</time>
      </trkpt>
      <trkpt lat="47.34942" lon="0.0127">
        <ele>86.18</ele>
        <time>2010-10-31T10:47:55Z</time>
      </trkpt>
      <trkpt lat="47.34935" lon="0.01259">
        <ele>85.69</ele>
        <time>2010-10-31T10:48:01Z</time>
      </trkpt>
      <trkpt lat="47.34934" lon="0.0125">
        <ele>86.66</ele>
        <time>2010-10-31T10:48:06Z</time>
      </trkpt>
      <trkpt lat="47.34923" lon="0.01237">
        <ele>89.06</ele>
        <time>2010-10-31T10:48:11Z</time>
      </trkpt>
      <trkpt lat="47.34921" lon="0.01234">
        <ele>88.1</ele>
        <time>2010-10-31T10:48:13Z</time>
      </trkpt>
      <trkpt lat="47.34926" lon="0.01219">
        <ele>87.62</ele>
        <time>2010-10-31T10:48:20Z</time>
      </trkpt>
      <trkpt lat="47.34938" lon="0.01209">
        <ele>88.1</ele>
        <time>2010-10-31T10:48:28Z</time>
      </trkpt>
      <trkpt lat="47.34948" lon="0.01194">
        <ele>89.06</ele>
        <time>2010-10-31T10:48:34Z</time>
      </trkpt>
      <trkpt lat="47.3495" lon="0.01191">
        <ele>89.06</ele>
        <time>2010-10-31T10:48:35Z</time>
      </trkpt>
      <trkpt lat="47.34969" lon="0.01173">
        <ele>90.98</ele>
        <time>2010-10-31T10:48:43Z</time>
      </trkpt>
      <trkpt lat="47.34978" lon="0.01164">
        <ele>90.98</ele>
        <time>2010-10-31T10:48:48Z</time>
      </trkpt>
      <trkpt lat="47.34992" lon="0.01146">
        <ele>88.1</ele>
        <time>2010-10-31T10:48:54Z</time>
      </trkpt>
      <trkpt lat="47.34997" lon="0.01138">
        <ele>90.98</ele>
        <time>2010-10-31T10:48:56Z</time>
      </trkpt>
      <trkpt lat="47.35012" lon="0.01121">
        <ele>88.1</ele>
        <time>2010-10-31T10:49:00Z</time>
      </trkpt>
      <trkpt lat="47.35032" lon="0.01089">
        <ele>86.66</ele>
        <time>2010-10-31T10:49:06Z</time>
      </trkpt>
      <trkpt lat="47.35036" lon="0.01075">
        <ele>86.66</ele>
        <time>2010-10-31T10:49:08Z</time>
      </trkpt>
      <trkpt lat="47.35047" lon="0.01042">
        <ele>84.25</ele>
        <time>2010-10-31T10:49:13Z</time>
      </trkpt>
      <trkpt lat="47.35055" lon="0.01028">
        <ele>85.21</ele>
        <time>2010-10-31T10:49:18Z</time>
      </trkpt>
      <trkpt lat="47.35059" lon="0.01023">
        <ele>82.81</ele>
        <time>2010-10-31T10:49:21Z</time>
      </trkpt>
      <trkpt lat="47.35065" lon="0.01012">
        <ele>83.29</ele>
        <time>2010-10-31T10:49:27Z</time>
      </trkpt>
      <trkpt lat="47.35072" lon="0.01001">
        <ele>82.81</ele>
        <time>2010-10-31T10:49:34Z</time>
      </trkpt>
      <trkpt lat="47.35083" lon="0.00987">
        <ele>83.77</ele>
        <time>2010-10-31T10:49:41Z</time>
      </trkpt>
      <trkpt lat="47.3509" lon="0.00966">
        <ele>79.93</ele>
        <time>2010-10-31T10:49:47Z</time>
      </trkpt>
      <trkpt lat="47.35099" lon="0.00955">
        <ele>78.48</ele>
        <time>2010-10-31T10:49:49Z</time>
      </trkpt>
      <trkpt lat="47.35105" lon="0.00949">
        <ele>75.6</ele>
        <time>2010-10-31T10:49:50Z</time>
      </trkpt>
      <trkpt lat="47.35124" lon="0.00929">
        <ele>78</ele>
        <time>2010-10-31T10:49:53Z</time>
      </trkpt>
      <trkpt lat="47.35145" lon="0.00896">
        <ele>72.24</ele>
        <time>2010-10-31T10:49:57Z</time>
      </trkpt>
      <trkpt lat="47.35163" lon="0.00875">
        <ele>68.87</ele>
        <time>2010-10-31T10:50:00Z</time>
      </trkpt>
      <trkpt lat="47.35174" lon="0.00863">
        <ele>67.91</ele>
        <time>2010-10-31T10:50:02Z</time>
      </trkpt>
      <trkpt lat="47.3518" lon="0.00856">
        <ele>67.43</ele>
        <time>2010-10-31T10:50:03Z</time>
      </trkpt>
      <trkpt lat="47.35186" lon="0.0085">
        <ele>69.83</ele>
        <time>2010-10-31T10:50:04Z</time>
      </trkpt>
      <trkpt lat="47.3519" lon="0.00845">
        <ele>66.95</ele>
        <time>2010-10-31T10:50:05Z</time>
      </trkpt>
      <trkpt lat="47.35194" lon="0.00837">
        <ele>67.91</ele>
        <time>2010-10-31T10:50:06Z</time>
      </trkpt>
      <trkpt lat="47.35197" lon="0.00832">
        <ele>65.99</ele>
        <time>2010-10-31T10:50:07Z</time>
      </trkpt>
      <trkpt lat="47.35197" lon="0.00828">
        <ele>65.99</ele>
        <time>2010-10-31T10:50:08Z</time>
      </trkpt>
      <trkpt lat="47.35199" lon="0.00817">
        <ele>67.91</ele>
        <time>2010-10-31T10:50:12Z</time>
      </trkpt>
      <trkpt lat="47.35201" lon="0.00807">
        <ele>65.99</ele>
        <time>2010-10-31T10:50:17Z</time>
      </trkpt>
      <trkpt lat="47.35201" lon="0.00803">
        <ele>65.99</ele>
        <time>2010-10-31T10:50:25Z</time>
      </trkpt>
      <trkpt lat="47.35201" lon="0.00803">
        <ele>67.43</ele>
        <time>2010-10-31T10:50:41Z</time>
      </trkpt>
      <trkpt lat="47.352" lon="0.00802">
        <ele>66.47</ele>
        <time>2010-10-31T10:50:56Z</time>
      </trkpt>
      <trkpt lat="47.35197" lon="0.00797">
        <ele>66.47</ele>
        <time>2010-10-31T10:50:59Z</time>
      </trkpt>
      <trkpt lat="47.35197" lon="0.00795">
        <ele>65.99</ele>
        <time>2010-10-31T10:51:00Z</time>
      </trkpt>
      <trkpt lat="47.35197" lon="0.00792">
        <ele>64.55</ele>
        <time>2010-10-31T10:51:01Z</time>
      </trkpt>
      <trkpt lat="47.35198" lon="0.00788">
        <ele>65.03</ele>
        <time>2010-10-31T10:51:02Z</time>
      </trkpt>
      <trkpt lat="47.35198" lon="0.00784">
        <ele>65.51</ele>
        <time>2010-10-31T10:51:03Z</time>
      </trkpt>
      <trkpt lat="47.35198" lon="0.0078">
        <ele>65.51</ele>
        <time>2010-10-31T10:51:04Z</time>
      </trkpt>
      <trkpt lat="47.35197" lon="0.00776">
        <ele>65.99</ele>
        <time>2010-10-31T10:51:05Z</time>
      </trkpt>
      <trkpt lat="47.35196" lon="0.00771">
        <ele>67.43</ele>
        <time>2010-10-31T10:51:06Z</time>
      </trkpt>
      <trkpt lat="47.35196" lon="0.00766">
        <ele>65.03</ele>
        <time>2010-10-31T10:51:07Z</time>
      </trkpt>
      <trkpt lat="47.35196" lon="0.00761">
        <ele>63.1</ele>
        <time>2010-10-31T10:51:08Z</time>
      </trkpt>
      <trkpt lat="47.35195" lon="0.00755">
        <ele>64.07</ele>
        <time>2010-10-31T10:51:09Z</time>
      </trkpt>
      <trkpt lat="47.35195" lon="0.00748">
        <ele>65.03</ele>
        <time>2010-10-31T10:51:10Z</time>
      </trkpt>
      <trkpt lat="47.35195" lon="0.00741">
        <ele>65.03</ele>
        <time>2010-10-31T10:51:11Z</time>
      </trkpt>
      <trkpt lat="47.35194" lon="0.00709">
        <ele>65.51</ele>
        <time>2010-10-31T10:51:16Z</time>
      </trkpt>
      <trkpt lat="47.35195" lon="0.0069">
        <ele>64.07</ele>
        <time>2010-10-31T10:51:19Z</time>
      </trkpt>
      <trkpt lat="47.35195" lon="0.00683">
        <ele>62.62</ele>
        <time>2010-10-31T10:51:20Z</time>
      </trkpt>
      <trkpt lat="47.35194" lon="0.00668">
        <ele>64.07</ele>
        <time>2010-10-31T10:51:22Z</time>
      </trkpt>
      <trkpt lat="47.35195" lon="0.00654">
        <ele>62.62</ele>
        <time>2010-10-31T10:51:24Z</time>
      </trkpt>
      <trkpt lat="47.35187" lon="0.00597">
        <ele>60.7</ele>
        <time>2010-10-31T10:51:31Z</time>
      </trkpt>
      <trkpt lat="47.35175" lon="0.00535">
        <ele>59.26</ele>
        <time>2010-10-31T10:51:38Z</time>
      </trkpt>
      <trkpt lat="47.35171" lon="0.00518">
        <ele>62.62</ele>
        <time>2010-10-31T10:51:40Z</time>
      </trkpt>
      <trkpt lat="47.35169" lon="0.0051">
        <ele>59.74</ele>
        <time>2010-10-31T10:51:41Z</time>
      </trkpt>
      <trkpt lat="47.35166" lon="0.00502">
        <ele>59.26</ele>
        <time>2010-10-31T10:51:42Z</time>
      </trkpt>
      <trkpt lat="47.35164" lon="0.00493">
        <ele>59.26</ele>
        <time>2010-10-31T10:51:43Z</time>
      </trkpt>
      <trkpt lat="47.35161" lon="0.00476">
        <ele>58.3</ele>
        <time>2010-10-31T10:51:45Z</time>
      </trkpt>
      <trkpt lat="47.35156" lon="0.0044">
        <ele>56.37</ele>
        <time>2010-10-31T10:51:49Z</time>
      </trkpt>
      <trkpt lat="47.35154" lon="0.00422">
        <ele>59.26</ele>
        <time>2010-10-31T10:51:51Z</time>
      </trkpt>
      <trkpt lat="47.35149" lon="0.00376">
        <ele>55.89</ele>
        <time>2010-10-31T10:51:56Z</time>
      </trkpt>
      <trkpt lat="47.35147" lon="0.00367">
        <ele>56.86</ele>
        <time>2010-10-31T10:51:57Z</time>
      </trkpt>
      <trkpt lat="47.3514" lon="0.00281">
        <ele>57.34</ele>
        <time>2010-10-31T10:52:06Z</time>
      </trkpt>
      <trkpt lat="47.35138" lon="0.00262">
        <ele>54.45</ele>
        <time>2010-10-31T10:52:08Z</time>
      </trkpt>
      <trkpt lat="47.35137" lon="0.00252">
        <ele>55.89</ele>
        <time>2010-10-31T10:52:09Z</time>
      </trkpt>
      <trkpt lat="47.35129" lon="0.00174">
        <ele>57.34</ele>
        <time>2010-10-31T10:52:17Z</time>
      </trkpt>
      <trkpt lat="47.35127" lon="0.00146">
        <ele>52.53</ele>
        <time>2010-10-31T10:52:20Z</time>
      </trkpt>
      <trkpt lat="47.35122" lon="0.0008">
        <ele>55.41</ele>
        <time>2010-10-31T10:52:27Z</time>
      </trkpt>
      <trkpt lat="47.35115" lon="-1.0E-5">
        <ele>53.49</ele>
        <time>2010-10-31T10:52:35Z</time>
      </trkpt>
      <trkpt lat="47.35094" lon="-0.00092">
        <ele>52.05</ele>
        <time>2010-10-31T10:52:44Z</time>
      </trkpt>
      <trkpt lat="47.35078" lon="-0.00157">
        <ele>52.53</ele>
        <time>2010-10-31T10:52:51Z</time>
      </trkpt>
      <trkpt lat="47.35066" lon="-0.00202">
        <ele>51.57</ele>
        <time>2010-10-31T10:52:56Z</time>
      </trkpt>
      <trkpt lat="47.35053" lon="-0.00274">
        <ele>51.09</ele>
        <time>2010-10-31T10:53:04Z</time>
      </trkpt>
      <trkpt lat="47.35047" lon="-0.0031">
        <ele>52.05</ele>
        <time>2010-10-31T10:53:08Z</time>
      </trkpt>
      <trkpt lat="47.35036" lon="-0.00362">
        <ele>52.53</ele>
        <time>2010-10-31T10:53:14Z</time>
      </trkpt>
      <trkpt lat="47.35026" lon="-0.00404">
        <ele>50.61</ele>
        <time>2010-10-31T10:53:19Z</time>
      </trkpt>
      <trkpt lat="47.35003" lon="-0.0048">
        <ele>50.61</ele>
        <time>2010-10-31T10:53:28Z</time>
      </trkpt>
      <trkpt lat="47.34994" lon="-0.00515">
        <ele>52.05</ele>
        <time>2010-10-31T10:53:32Z</time>
      </trkpt>
      <trkpt lat="47.34991" lon="-0.00523">
        <ele>52.05</ele>
        <time>2010-10-31T10:53:33Z</time>
      </trkpt>
      <trkpt lat="47.34978" lon="-0.0058">
        <ele>51.57</ele>
        <time>2010-10-31T10:53:40Z</time>
      </trkpt>
      <trkpt lat="47.34968" lon="-0.00652">
        <ele>50.13</ele>
        <time>2010-10-31T10:53:48Z</time>
      </trkpt>
      <trkpt lat="47.34967" lon="-0.00662">
        <ele>52.05</ele>
        <time>2010-10-31T10:53:49Z</time>
      </trkpt>
      <trkpt lat="47.34965" lon="-0.00691">
        <ele>50.13</ele>
        <time>2010-10-31T10:53:52Z</time>
      </trkpt>
      <trkpt lat="47.34956" lon="-0.00758">
        <ele>52.05</ele>
        <time>2010-10-31T10:53:59Z</time>
      </trkpt>
      <trkpt lat="47.34939" lon="-0.00812">
        <ele>51.09</ele>
        <time>2010-10-31T10:54:05Z</time>
      </trkpt>
      <trkpt lat="47.34925" lon="-0.00845">
        <ele>50.61</ele>
        <time>2010-10-31T10:54:09Z</time>
      </trkpt>
      <trkpt lat="47.34893" lon="-0.00916">
        <ele>52.53</ele>
        <time>2010-10-31T10:54:18Z</time>
      </trkpt>
      <trkpt lat="47.34856" lon="-0.00993">
        <ele>50.61</ele>
        <time>2010-10-31T10:54:28Z</time>
      </trkpt>
      <trkpt lat="47.3484" lon="-0.01022">
        <ele>54.45</ele>
        <time>2010-10-31T10:54:32Z</time>
      </trkpt>
      <trkpt lat="47.34836" lon="-0.01029">
        <ele>48.68</ele>
        <time>2010-10-31T10:54:33Z</time>
      </trkpt>
      <trkpt lat="47.34833" lon="-0.01035">
        <ele>49.65</ele>
        <time>2010-10-31T10:54:34Z</time>
      </trkpt>
      <trkpt lat="47.34829" lon="-0.01042">
        <ele>53.97</ele>
        <time>2010-10-31T10:54:35Z</time>
      </trkpt>
      <trkpt lat="47.34825" lon="-0.01048">
        <ele>52.05</ele>
        <time>2010-10-31T10:54:36Z</time>
      </trkpt>
      <trkpt lat="47.34814" lon="-0.01068">
        <ele>49.16</ele>
        <time>2010-10-31T10:54:39Z</time>
      </trkpt>
      <trkpt lat="47.34803" lon="-0.01088">
        <ele>51.09</ele>
        <time>2010-10-31T10:54:42Z</time>
      </trkpt>
      <trkpt lat="47.34778" lon="-0.01137">
        <ele>49.16</ele>
        <time>2010-10-31T10:54:49Z</time>
      </trkpt>
      <trkpt lat="47.34748" lon="-0.01196">
        <ele>49.16</ele>
        <time>2010-10-31T10:54:57Z</time>
      </trkpt>
      <trkpt lat="47.34732" lon="-0.01227">
        <ele>50.61</ele>
        <time>2010-10-31T10:55:01Z</time>
      </trkpt>
      <trkpt lat="47.3472" lon="-0.0125">
        <ele>48.2</ele>
        <time>2010-10-31T10:55:04Z</time>
      </trkpt>
      <trkpt lat="47.34707" lon="-0.01273">
        <ele>50.61</ele>
        <time>2010-10-31T10:55:07Z</time>
      </trkpt>
      <trkpt lat="47.34703" lon="-0.01281">
        <ele>47.24</ele>
        <time>2010-10-31T10:55:08Z</time>
      </trkpt>
      <trkpt lat="47.34698" lon="-0.01289">
        <ele>50.61</ele>
        <time>2010-10-31T10:55:09Z</time>
      </trkpt>
      <trkpt lat="47.34685" lon="-0.01313">
        <ele>45.8</ele>
        <time>2010-10-31T10:55:12Z</time>
      </trkpt>
      <trkpt lat="47.34681" lon="-0.01321">
        <ele>51.57</ele>
        <time>2010-10-31T10:55:13Z</time>
      </trkpt>
      <trkpt lat="47.34655" lon="-0.01369">
        <ele>46.76</ele>
        <time>2010-10-31T10:55:19Z</time>
      </trkpt>
      <trkpt lat="47.3465" lon="-0.01377">
        <ele>52.05</ele>
        <time>2010-10-31T10:55:20Z</time>
      </trkpt>
      <trkpt lat="47.34632" lon="-0.0141">
        <ele>47.72</ele>
        <time>2010-10-31T10:55:24Z</time>
      </trkpt>
      <trkpt lat="47.34628" lon="-0.01418">
        <ele>48.2</ele>
        <time>2010-10-31T10:55:25Z</time>
      </trkpt>
      <trkpt lat="47.34614" lon="-0.01442">
        <ele>51.57</ele>
        <time>2010-10-31T10:55:28Z</time>
      </trkpt>
      <trkpt lat="47.34597" lon="-0.01474">
        <ele>47.72</ele>
        <time>2010-10-31T10:55:32Z</time>
      </trkpt>
      <trkpt lat="47.34588" lon="-0.0149">
        <ele>46.28</ele>
        <time>2010-10-31T10:55:34Z</time>
      </trkpt>
      <trkpt lat="47.34584" lon="-0.01497">
        <ele>50.13</ele>
        <time>2010-10-31T10:55:35Z</time>
      </trkpt>
      <trkpt lat="47.34579" lon="-0.01505">
        <ele>48.68</ele>
        <time>2010-10-31T10:55:36Z</time>
      </trkpt>
      <trkpt lat="47.34551" lon="-0.01558">
        <ele>52.05</ele>
        <time>2010-10-31T10:55:43Z</time>
      </trkpt>
      <trkpt lat="47.34547" lon="-0.01565">
        <ele>48.2</ele>
        <time>2010-10-31T10:55:44Z</time>
      </trkpt>
      <trkpt lat="47.34517" lon="-0.01622">
        <ele>47.72</ele>
        <time>2010-10-31T10:55:52Z</time>
      </trkpt>
      <trkpt lat="47.34505" lon="-0.01642">
        <ele>51.09</ele>
        <time>2010-10-31T10:55:55Z</time>
      </trkpt>
      <trkpt lat="47.34497" lon="-0.01654">
        <ele>48.68</ele>
        <time>2010-10-31T10:55:57Z</time>
      </trkpt>
      <trkpt lat="47.34489" lon="-0.01667">
        <ele>47.24</ele>
        <time>2010-10-31T10:55:59Z</time>
      </trkpt>
      <trkpt lat="47.34476" lon="-0.01686">
        <ele>43.4</ele>
        <time>2010-10-31T10:56:02Z</time>
      </trkpt>
      <trkpt lat="47.34472" lon="-0.01693">
        <ele>48.2</ele>
        <time>2010-10-31T10:56:03Z</time>
      </trkpt>
      <trkpt lat="47.34438" lon="-0.01747">
        <ele>45.32</ele>
        <time>2010-10-31T10:56:11Z</time>
      </trkpt>
      <trkpt lat="47.3443" lon="-0.0176">
        <ele>51.57</ele>
        <time>2010-10-31T10:56:13Z</time>
      </trkpt>
      <trkpt lat="47.34425" lon="-0.01767">
        <ele>47.24</ele>
        <time>2010-10-31T10:56:14Z</time>
      </trkpt>
      <trkpt lat="47.34412" lon="-0.01787">
        <ele>50.61</ele>
        <time>2010-10-31T10:56:17Z</time>
      </trkpt>
      <trkpt lat="47.34407" lon="-0.01793">
        <ele>50.61</ele>
        <time>2010-10-31T10:56:18Z</time>
      </trkpt>
      <trkpt lat="47.34403" lon="-0.01799">
        <ele>46.28</ele>
        <time>2010-10-31T10:56:19Z</time>
      </trkpt>
      <trkpt lat="47.34394" lon="-0.01811">
        <ele>44.84</ele>
        <time>2010-10-31T10:56:21Z</time>
      </trkpt>
      <trkpt lat="47.34376" lon="-0.01832">
        <ele>47.24</ele>
        <time>2010-10-31T10:56:25Z</time>
      </trkpt>
      <trkpt lat="47.34373" lon="-0.01837">
        <ele>46.76</ele>
        <time>2010-10-31T10:56:26Z</time>
      </trkpt>
      <trkpt lat="47.34365" lon="-0.01847">
        <ele>44.84</ele>
        <time>2010-10-31T10:56:28Z</time>
      </trkpt>
      <trkpt lat="47.34358" lon="-0.01857">
        <ele>44.36</ele>
        <time>2010-10-31T10:56:30Z</time>
      </trkpt>
      <trkpt lat="47.34356" lon="-0.01864">
        <ele>43.88</ele>
        <time>2010-10-31T10:56:31Z</time>
      </trkpt>
      <trkpt lat="47.34355" lon="-0.01871">
        <ele>42.92</ele>
        <time>2010-10-31T10:56:32Z</time>
      </trkpt>
      <trkpt lat="47.34355" lon="-0.01878">
        <ele>43.4</ele>
        <time>2010-10-31T10:56:33Z</time>
      </trkpt>
      <trkpt lat="47.34356" lon="-0.01886">
        <ele>44.36</ele>
        <time>2010-10-31T10:56:34Z</time>
      </trkpt>
      <trkpt lat="47.34357" lon="-0.01893">
        <ele>46.76</ele>
        <time>2010-10-31T10:56:35Z</time>
      </trkpt>
      <trkpt lat="47.34358" lon="-0.01901">
        <ele>45.8</ele>
        <time>2010-10-31T10:56:36Z</time>
      </trkpt>
      <trkpt lat="47.34359" lon="-0.01917">
        <ele>44.84</ele>
        <time>2010-10-31T10:56:38Z</time>
      </trkpt>
      <trkpt lat="47.3436" lon="-0.01932">
        <ele>47.24</ele>
        <time>2010-10-31T10:56:40Z</time>
      </trkpt>
      <trkpt lat="47.34362" lon="-0.01945">
        <ele>45.8</ele>
        <time>2010-10-31T10:56:42Z</time>
      </trkpt>
      <trkpt lat="47.34366" lon="-0.01949">
        <ele>48.68</ele>
        <time>2010-10-31T10:56:43Z</time>
      </trkpt>
      <trkpt lat="47.34369" lon="-0.0195">
        <ele>46.76</ele>
        <time>2010-10-31T10:56:44Z</time>
      </trkpt>
      <trkpt lat="47.34373" lon="-0.01948">
        <ele>46.28</ele>
        <time>2010-10-31T10:56:45Z</time>
      </trkpt>
      <trkpt lat="47.34376" lon="-0.01946">
        <ele>45.32</ele>
        <time>2010-10-31T10:56:46Z</time>
      </trkpt>
      <trkpt lat="47.34378" lon="-0.01943">
        <ele>44.84</ele>
        <time>2010-10-31T10:56:47Z</time>
      </trkpt>
      <trkpt lat="47.34381" lon="-0.01941">
        <ele>47.72</ele>
        <time>2010-10-31T10:56:48Z</time>
      </trkpt>
      <trkpt lat="47.34384" lon="-0.01939">
        <ele>47.72</ele>
        <time>2010-10-31T10:56:49Z</time>
      </trkpt>
      <trkpt lat="47.34387" lon="-0.01938">
        <ele>46.28</ele>
        <time>2010-10-31T10:56:50Z</time>
      </trkpt>
      <trkpt lat="47.34389" lon="-0.01937">
        <ele>49.65</ele>
        <time>2010-10-31T10:56:51Z</time>
      </trkpt>
      <trkpt lat="47.34391" lon="-0.01936">
        <ele>44.84</ele>
        <time>2010-10-31T10:56:52Z</time>
      </trkpt>
      <trkpt lat="47.34394" lon="-0.01935">
        <ele>48.68</ele>
        <time>2010-10-31T10:56:53Z</time>
      </trkpt>
      <trkpt lat="47.34406" lon="-0.0193">
        <ele>48.68</ele>
        <time>2010-10-31T10:56:57Z</time>
      </trkpt>
      <trkpt lat="47.34421" lon="-0.01925">
        <ele>48.2</ele>
        <time>2010-10-31T10:57:01Z</time>
      </trkpt>
      <trkpt lat="47.34425" lon="-0.01927">
        <ele>46.76</ele>
        <time>2010-10-31T10:57:02Z</time>
      </trkpt>
      <trkpt lat="47.34428" lon="-0.0193">
        <ele>45.8</ele>
        <time>2010-10-31T10:57:03Z</time>
      </trkpt>
      <trkpt lat="47.34432" lon="-0.01934">
        <ele>48.68</ele>
        <time>2010-10-31T10:57:04Z</time>
      </trkpt>
      <trkpt lat="47.34435" lon="-0.01938">
        <ele>46.76</ele>
        <time>2010-10-31T10:57:05Z</time>
      </trkpt>
      <trkpt lat="47.34438" lon="-0.01943">
        <ele>46.28</ele>
        <time>2010-10-31T10:57:06Z</time>
      </trkpt>
      <trkpt lat="47.3444" lon="-0.01948">
        <ele>50.61</ele>
        <time>2010-10-31T10:57:07Z</time>
      </trkpt>
      <trkpt lat="47.34443" lon="-0.01953">
        <ele>46.76</ele>
        <time>2010-10-31T10:57:08Z</time>
      </trkpt>
      <trkpt lat="47.34475" lon="-0.02004">
        <ele>53.49</ele>
        <time>2010-10-31T10:57:18Z</time>
      </trkpt>
      <trkpt lat="47.34478" lon="-0.02009">
        <ele>50.13</ele>
        <time>2010-10-31T10:57:19Z</time>
      </trkpt>
      <trkpt lat="47.34488" lon="-0.02023">
        <ele>53.01</ele>
        <time>2010-10-31T10:57:22Z</time>
      </trkpt>
      <trkpt lat="47.34499" lon="-0.02038">
        <ele>49.16</ele>
        <time>2010-10-31T10:57:25Z</time>
      </trkpt>
      <trkpt lat="47.34502" lon="-0.02043">
        <ele>53.01</ele>
        <time>2010-10-31T10:57:26Z</time>
      </trkpt>
      <trkpt lat="47.34506" lon="-0.02048">
        <ele>49.16</ele>
        <time>2010-10-31T10:57:27Z</time>
      </trkpt>
      <trkpt lat="47.3454" lon="-0.02097">
        <ele>54.45</ele>
        <time>2010-10-31T10:57:37Z</time>
      </trkpt>
      <trkpt lat="47.34543" lon="-0.02102">
        <ele>53.01</ele>
        <time>2010-10-31T10:57:38Z</time>
      </trkpt>
      <trkpt lat="47.34552" lon="-0.02116">
        <ele>50.61</ele>
        <time>2010-10-31T10:57:41Z</time>
      </trkpt>
      <trkpt lat="47.34558" lon="-0.02126">
        <ele>54.93</ele>
        <time>2010-10-31T10:57:43Z</time>
      </trkpt>
      <trkpt lat="47.34561" lon="-0.02131">
        <ele>54.93</ele>
        <time>2010-10-31T10:57:44Z</time>
      </trkpt>
      <trkpt lat="47.34567" lon="-0.0214">
        <ele>51.57</ele>
        <time>2010-10-31T10:57:46Z</time>
      </trkpt>
      <trkpt lat="47.3457" lon="-0.02145">
        <ele>53.01</ele>
        <time>2010-10-31T10:57:47Z</time>
      </trkpt>
      <trkpt lat="47.34576" lon="-0.02153">
        <ele>56.37</ele>
        <time>2010-10-31T10:57:49Z</time>
      </trkpt>
      <trkpt lat="47.34587" lon="-0.02169">
        <ele>52.05</ele>
        <time>2010-10-31T10:57:53Z</time>
      </trkpt>
      <trkpt lat="47.34592" lon="-0.02177">
        <ele>56.86</ele>
        <time>2010-10-31T10:57:55Z</time>
      </trkpt>
      <trkpt lat="47.346" lon="-0.02188">
        <ele>53.49</ele>
        <time>2010-10-31T10:57:58Z</time>
      </trkpt>
      <trkpt lat="47.34606" lon="-0.02201">
        <ele>56.86</ele>
        <time>2010-10-31T10:58:03Z</time>
      </trkpt>
      <trkpt lat="47.34604" lon="-0.02204">
        <ele>53.01</ele>
        <time>2010-10-31T10:58:05Z</time>
      </trkpt>
      <trkpt lat="47.34603" lon="-0.02205">
        <ele>52.53</ele>
        <time>2010-10-31T10:58:06Z</time>
      </trkpt>
      <trkpt lat="47.34599" lon="-0.0221">
        <ele>56.37</ele>
        <time>2010-10-31T10:58:08Z</time>
      </trkpt>
      <trkpt lat="47.34597" lon="-0.02215">
        <ele>53.01</ele>
        <time>2010-10-31T10:58:11Z</time>
      </trkpt>
      <trkpt lat="47.34596" lon="-0.02216">
        <ele>52.53</ele>
        <time>2010-10-31T10:58:12Z</time>
      </trkpt>
      <trkpt lat="47.34592" lon="-0.02219">
        <ele>53.49</ele>
        <time>2010-10-31T10:58:15Z</time>
      </trkpt>
      <trkpt lat="47.34586" lon="-0.02228">
        <ele>52.53</ele>
        <time>2010-10-31T10:58:23Z</time>
      </trkpt>
      <trkpt lat="47.34586" lon="-0.02228">
        <ele>56.37</ele>
        <time>2010-10-31T10:58:24Z</time>
      </trkpt>
      <trkpt lat="47.34586" lon="-0.02228">
        <ele>51.57</ele>
        <time>2010-10-31T10:58:30Z</time>
      </trkpt>
      <trkpt lat="47.34586" lon="-0.02228">
        <ele>55.41</ele>
        <time>2010-10-31T10:58:31Z</time>
      </trkpt>
      <trkpt lat="47.34586" lon="-0.02228">
        <ele>52.53</ele>
        <time>2010-10-31T10:58:37Z</time>
      </trkpt>
      <trkpt lat="47.34586" lon="-0.02228">
        <ele>51.09</ele>
        <time>2010-10-31T10:58:39Z</time>
      </trkpt>
      <trkpt lat="47.34586" lon="-0.02228">
        <ele>53.01</ele>
        <time>2010-10-31T10:58:43Z</time>
      </trkpt>
      <trkpt lat="47.34586" lon="-0.02228">
        <ele>56.37</ele>
        <time>2010-10-31T10:58:44Z</time>
      </trkpt>
      <trkpt lat="47.34586" lon="-0.02228">
        <ele>52.53</ele>
        <time>2010-10-31T10:58:48Z</time>
      </trkpt>
      <trkpt lat="47.34586" lon="-0.02228">
        <ele>56.37</ele>
        <time>2010-10-31T10:58:57Z</time>
      </trkpt>
      <trkpt lat="47.34586" lon="-0.02228">
        <ele>53.97</ele>
        <time>2010-10-31T10:58:59Z</time>
      </trkpt>
      <trkpt lat="47.34586" lon="-0.02228">
        <ele>54.93</ele>
        <time>2010-10-31T10:59:01Z</time>
      </trkpt>
      <trkpt lat="47.34586" lon="-0.02228">
        <ele>51.09</ele>
        <time>2010-10-31T10:59:03Z</time>
      </trkpt>
      <trkpt lat="47.34586" lon="-0.02228">
        <ele>55.41</ele>
        <time>2010-10-31T10:59:04Z</time>
      </trkpt>
      <trkpt lat="47.34586" lon="-0.02228">
        <ele>54.45</ele>
        <time>2010-10-31T10:59:05Z</time>
      </trkpt>
      <trkpt lat="47.34586" lon="-0.02227">
        <ele>50.13</ele>
        <time>2010-10-31T10:59:21Z</time>
      </trkpt>
      <trkpt lat="47.34586" lon="-0.02227">
        <ele>54.93</ele>
        <time>2010-10-31T10:59:23Z</time>
      </trkpt>
      <trkpt lat="47.34586" lon="-0.02227">
        <ele>54.93</ele>
        <time>2010-10-31T10:59:24Z</time>
      </trkpt>
      <trkpt lat="47.34586" lon="-0.02227">
        <ele>52.05</ele>
        <time>2010-10-31T10:59:28Z</time>
      </trkpt>
      <trkpt lat="47.34586" lon="-0.02227">
        <ele>58.3</ele>
        <time>2010-10-31T10:59:32Z</time>
      </trkpt>
      <trkpt lat="47.34586" lon="-0.02227">
        <ele>54.93</ele>
        <time>2010-10-31T10:59:33Z</time>
      </trkpt>
      <trkpt lat="47.34586" lon="-0.02227">
        <ele>51.09</ele>
        <time>2010-10-31T10:59:39Z</time>
      </trkpt>
      <trkpt lat="47.34586" lon="-0.02227">
        <ele>56.37</ele>
        <time>2010-10-31T10:59:45Z</time>
      </trkpt>
      <trkpt lat="47.34586" lon="-0.02227">
        <ele>55.41</ele>
        <time>2010-10-31T10:59:46Z</time>
      </trkpt>
      <trkpt lat="47.34586" lon="-0.02228">
        <ele>49.65</ele>
        <time>2010-10-31T10:59:48Z</time>
      </trkpt>
      <trkpt lat="47.34586" lon="-0.02228">
        <ele>50.13</ele>
        <time>2010-10-31T10:59:49Z</time>
      </trkpt>
      <trkpt lat="47.34586" lon="-0.02228">
        <ele>58.3</ele>
        <time>2010-10-31T10:59:51Z</time>
      </trkpt>
      <trkpt lat="47.34586" lon="-0.02228">
        <ele>53.97</ele>
        <time>2010-10-31T10:59:52Z</time>
      </trkpt>
      <trkpt lat="47.34586" lon="-0.02228">
        <ele>51.09</ele>
        <time>2010-10-31T10:59:56Z</time>
      </trkpt>
      <trkpt lat="47.34586" lon="-0.02228">
        <ele>55.89</ele>
        <time>2010-10-31T10:59:57Z</time>
      </trkpt>
      <trkpt lat="47.34586" lon="-0.02228">
        <ele>52.53</ele>
        <time>2010-10-31T11:00:04Z</time>
      </trkpt>
      <trkpt lat="47.34586" lon="-0.02228">
        <ele>56.86</ele>
        <time>2010-10-31T11:00:07Z</time>
      </trkpt>
      <trkpt lat="47.34586" lon="-0.02228">
        <ele>55.89</ele>
        <time>2010-10-31T11:00:08Z</time>
      </trkpt>
      <trkpt lat="47.34586" lon="-0.02228">
        <ele>53.01</ele>
        <time>2010-10-31T11:00:10Z</time>
      </trkpt>
      <trkpt lat="47.34586" lon="-0.02228">
        <ele>53.49</ele>
        <time>2010-10-31T11:00:11Z</time>
      </trkpt>
      <trkpt lat="47.34586" lon="-0.02228">
        <ele>56.86</ele>
        <time>2010-10-31T11:00:15Z</time>
      </trkpt>
      <trkpt lat="47.34586" lon="-0.02228">
        <ele>54.93</ele>
        <time>2010-10-31T11:00:16Z</time>
      </trkpt>
      <trkpt lat="47.34586" lon="-0.02228">
        <ele>58.78</ele>
        <time>2010-10-31T11:00:19Z</time>
      </trkpt>
      <trkpt lat="47.34586" lon="-0.02228">
        <ele>58.78</ele>
        <time>2010-10-31T11:00:20Z</time>
      </trkpt>
      <trkpt lat="47.34586" lon="-0.02228">
        <ele>52.53</ele>
        <time>2010-10-31T11:00:21Z</time>
      </trkpt>
      <trkpt lat="47.34586" lon="-0.02228">
        <ele>54.45</ele>
        <time>2010-10-31T11:00:22Z</time>
      </trkpt>
      <trkpt lat="47.34586" lon="-0.02227">
        <ele>49.16</ele>
        <time>2010-10-31T11:00:29Z</time>
      </trkpt>
      <trkpt lat="47.34586" lon="-0.02227">
        <ele>56.37</ele>
        <time>2010-10-31T11:00:30Z</time>
      </trkpt>
      <trkpt lat="47.34586" lon="-0.02227">
        <ele>51.57</ele>
        <time>2010-10-31T11:00:31Z</time>
      </trkpt>
      <trkpt lat="47.34586" lon="-0.02227">
        <ele>57.34</ele>
        <time>2010-10-31T11:00:32Z</time>
      </trkpt>
      <trkpt lat="47.34586" lon="-0.02227">
        <ele>51.57</ele>
        <time>2010-10-31T11:00:33Z</time>
      </trkpt>
      <trkpt lat="47.34586" lon="-0.02227">
        <ele>55.89</ele>
        <time>2010-10-31T11:00:38Z</time>
      </trkpt>
      <trkpt lat="47.34586" lon="-0.02227">
        <ele>56.37</ele>
        <time>2010-10-31T11:00:40Z</time>
      </trkpt>
      <trkpt lat="47.34586" lon="-0.02227">
        <ele>59.74</ele>
        <time>2010-10-31T11:00:45Z</time>
      </trkpt>
      <trkpt lat="47.34586" lon="-0.02227">
        <ele>55.89</ele>
        <time>2010-10-31T11:00:46Z</time>
      </trkpt>
      <trkpt lat="47.34586" lon="-0.02227">
        <ele>55.89</ele>
        <time>2010-10-31T11:00:47Z</time>
      </trkpt>
      <trkpt lat="47.34586" lon="-0.02227">
        <ele>51.09</ele>
        <time>2010-10-31T11:00:50Z</time>
      </trkpt>
      <trkpt lat="47.34586" lon="-0.02227">
        <ele>55.41</ele>
        <time>2010-10-31T11:00:51Z</time>
      </trkpt>
      <trkpt lat="47.34586" lon="-0.02227">
        <ele>52.05</ele>
        <time>2010-10-31T11:01:01Z</time>
      </trkpt>
      <trkpt lat="47.34586" lon="-0.02227">
        <ele>57.82</ele>
        <time>2010-10-31T11:01:03Z</time>
      </trkpt>
      <trkpt lat="47.34586" lon="-0.02227">
        <ele>56.37</ele>
        <time>2010-10-31T11:01:04Z</time>
      </trkpt>
      <trkpt lat="47.34586" lon="-0.02227">
        <ele>59.74</ele>
        <time>2010-10-31T11:01:07Z</time>
      </trkpt>
      <trkpt lat="47.34586" lon="-0.02227">
        <ele>59.74</ele>
        <time>2010-10-31T11:01:08Z</time>
      </trkpt>
      <trkpt lat="47.34586" lon="-0.02227">
        <ele>57.34</ele>
        <time>2010-10-31T11:01:10Z</time>
      </trkpt>
      <trkpt lat="47.34586" lon="-0.02227">
        <ele>60.22</ele>
        <time>2010-10-31T11:01:11Z</time>
      </trkpt>
      <trkpt lat="47.34586" lon="-0.02227">
        <ele>59.26</ele>
        <time>2010-10-31T11:01:12Z</time>
      </trkpt>
      <trkpt lat="47.34586" lon="-0.02227">
        <ele>55.41</ele>
        <time>2010-10-31T11:01:13Z</time>
      </trkpt>
      <trkpt lat="47.34586" lon="-0.02227">
        <ele>60.7</ele>
        <time>2010-10-31T11:01:14Z</time>
      </trkpt>
      <trkpt lat="47.34586" lon="-0.02227">
        <ele>56.37</ele>
        <time>2010-10-31T11:01:16Z</time>
      </trkpt>
      <trkpt lat="47.34586" lon="-0.02227">
        <ele>60.7</ele>
        <time>2010-10-31T11:01:18Z</time>
      </trkpt>
      <trkpt lat="47.34586" lon="-0.02227">
        <ele>56.37</ele>
        <time>2010-10-31T11:01:23Z</time>
      </trkpt>
      <trkpt lat="47.34586" lon="-0.02227">
        <ele>53.49</ele>
        <time>2010-10-31T11:01:24Z</time>
      </trkpt>
      <trkpt lat="47.34586" lon="-0.02227">
        <ele>58.3</ele>
        <time>2010-10-31T11:01:25Z</time>
      </trkpt>
      <trkpt lat="47.34586" lon="-0.02227">
        <ele>59.26</ele>
        <time>2010-10-31T11:01:27Z</time>
      </trkpt>
      <trkpt lat="47.34586" lon="-0.02227">
        <ele>55.89</ele>
        <time>2010-10-31T11:01:30Z</time>
      </trkpt>
      <trkpt lat="47.34586" lon="-0.02227">
        <ele>59.74</ele>
        <time>2010-10-31T11:01:31Z</time>
      </trkpt>
      <trkpt lat="47.34586" lon="-0.02227">
        <ele>60.7</ele>
        <time>2010-10-31T11:01:34Z</time>
      </trkpt>
      <trkpt lat="47.34586" lon="-0.02227">
        <ele>55.41</ele>
        <time>2010-10-31T11:01:35Z</time>
      </trkpt>
      <trkpt lat="47.34586" lon="-0.02227">
        <ele>55.89</ele>
        <time>2010-10-31T11:01:36Z</time>
      </trkpt>
      <trkpt lat="47.34586" lon="-0.02227">
        <ele>58.78</ele>
        <time>2010-10-31T11:01:38Z</time>
      </trkpt>
      <trkpt lat="47.34586" lon="-0.02227">
        <ele>53.01</ele>
        <time>2010-10-31T11:01:48Z</time>
      </trkpt>
      <trkpt lat="47.34586" lon="-0.02227">
        <ele>61.18</ele>
        <time>2010-10-31T11:01:49Z</time>
      </trkpt>
      <trkpt lat="47.34586" lon="-0.02227">
        <ele>53.49</ele>
        <time>2010-10-31T11:01:50Z</time>
      </trkpt>
      <trkpt lat="47.34586" lon="-0.02227">
        <ele>60.7</ele>
        <time>2010-10-31T11:01:51Z</time>
      </trkpt>
      <trkpt lat="47.34586" lon="-0.02227">
        <ele>55.41</ele>
        <time>2010-10-31T11:01:52Z</time>
      </trkpt>
      <trkpt lat="47.34586" lon="-0.02227">
        <ele>60.7</ele>
        <time>2010-10-31T11:01:55Z</time>
      </trkpt>
      <trkpt lat="47.34586" lon="-0.02227">
        <ele>61.18</ele>
        <time>2010-10-31T11:01:56Z</time>
      </trkpt>
      <trkpt lat="47.34586" lon="-0.02227">
        <ele>56.37</ele>
        <time>2010-10-31T11:01:59Z</time>
      </trkpt>
      <trkpt lat="47.34586" lon="-0.02227">
        <ele>58.3</ele>
        <time>2010-10-31T11:02:00Z</time>
      </trkpt>
      <trkpt lat="47.34586" lon="-0.02227">
        <ele>58.3</ele>
        <time>2010-10-31T11:02:05Z</time>
      </trkpt>
      <trkpt lat="47.34586" lon="-0.02227">
        <ele>53.49</ele>
        <time>2010-10-31T11:02:13Z</time>
      </trkpt>
      <trkpt lat="47.34586" lon="-0.02227">
        <ele>60.7</ele>
        <time>2010-10-31T11:02:14Z</time>
      </trkpt>
      <trkpt lat="47.34586" lon="-0.02227">
        <ele>59.74</ele>
        <time>2010-10-31T11:02:18Z</time>
      </trkpt>
      <trkpt lat="47.34586" lon="-0.02227">
        <ele>57.82</ele>
        <time>2010-10-31T11:02:24Z</time>
      </trkpt>
      <trkpt lat="47.34586" lon="-0.02227">
        <ele>61.18</ele>
        <time>2010-10-31T11:02:33Z</time>
      </trkpt>
      <trkpt lat="47.34586" lon="-0.02227">
        <ele>57.82</ele>
        <time>2010-10-31T11:02:37Z</time>
      </trkpt>
      <trkpt lat="47.34586" lon="-0.02227">
        <ele>62.14</ele>
        <time>2010-10-31T11:02:38Z</time>
      </trkpt>
      <trkpt lat="47.34586" lon="-0.02227">
        <ele>61.18</ele>
        <time>2010-10-31T11:02:39Z</time>
      </trkpt>
      <trkpt lat="47.34586" lon="-0.02227">
        <ele>52.05</ele>
        <time>2010-10-31T11:02:41Z</time>
      </trkpt>
      <trkpt lat="47.34586" lon="-0.02227">
        <ele>54.93</ele>
        <time>2010-10-31T11:02:42Z</time>
      </trkpt>
      <trkpt lat="47.34586" lon="-0.02227">
        <ele>59.74</ele>
        <time>2010-10-31T11:02:44Z</time>
      </trkpt>
      <trkpt lat="47.34586" lon="-0.02227">
        <ele>58.78</ele>
        <time>2010-10-31T11:02:45Z</time>
      </trkpt>
      <trkpt lat="47.34586" lon="-0.02227">
        <ele>54.45</ele>
        <time>2010-10-31T11:02:48Z</time>
      </trkpt>
      <trkpt lat="47.34586" lon="-0.02227">
        <ele>58.78</ele>
        <time>2010-10-31T11:02:49Z</time>
      </trkpt>
      <trkpt lat="47.34586" lon="-0.02227">
        <ele>56.86</ele>
        <time>2010-10-31T11:02:53Z</time>
      </trkpt>
      <trkpt lat="47.34586" lon="-0.02227">
        <ele>58.3</ele>
        <time>2010-10-31T11:02:57Z</time>
      </trkpt>
      <trkpt lat="47.34586" lon="-0.02227">
        <ele>54.45</ele>
        <time>2010-10-31T11:03:06Z</time>
      </trkpt>
      <trkpt lat="47.34586" lon="-0.02227">
        <ele>56.37</ele>
        <time>2010-10-31T11:03:07Z</time>
      </trkpt>
      <trkpt lat="47.34586" lon="-0.02227">
        <ele>60.7</ele>
        <time>2010-10-31T11:03:09Z</time>
      </trkpt>
      <trkpt lat="47.34586" lon="-0.02227">
        <ele>60.22</ele>
        <time>2010-10-31T11:03:10Z</time>
      </trkpt>
      <trkpt lat="47.34586" lon="-0.02227">
        <ele>55.41</ele>
        <time>2010-10-31T11:03:11Z</time>
      </trkpt>
      <trkpt lat="47.34586" lon="-0.02227">
        <ele>58.3</ele>
        <time>2010-10-31T11:03:12Z</time>
      </trkpt>
      <trkpt lat="47.34586" lon="-0.02227">
        <ele>61.66</ele>
        <time>2010-10-31T11:03:15Z</time>
      </trkpt>
      <trkpt lat="47.34586" lon="-0.02227">
        <ele>61.66</ele>
        <time>2010-10-31T11:03:16Z</time>
      </trkpt>
      <trkpt lat="47.34586" lon="-0.02227">
        <ele>58.3</ele>
        <time>2010-10-31T11:03:17Z</time>
      </trkpt>
      <trkpt lat="47.34586" lon="-0.02227">
        <ele>57.34</ele>
        <time>2010-10-31T11:03:26Z</time>
      </trkpt>
      <trkpt lat="47.34586" lon="-0.02227">
        <ele>61.66</ele>
        <time>2010-10-31T11:03:28Z</time>
      </trkpt>
      <trkpt lat="47.34586" lon="-0.02227">
        <ele>58.3</ele>
        <time>2010-10-31T11:03:29Z</time>
      </trkpt>
      <trkpt lat="47.34586" lon="-0.02227">
        <ele>60.7</ele>
        <time>2010-10-31T11:03:32Z</time>
      </trkpt>
      <trkpt lat="47.34586" lon="-0.02227">
        <ele>53.49</ele>
        <time>2010-10-31T11:03:33Z</time>
      </trkpt>
      <trkpt lat="47.34586" lon="-0.02227">
        <ele>53.97</ele>
        <time>2010-10-31T11:03:34Z</time>
      </trkpt>
      <trkpt lat="47.34586" lon="-0.02227">
        <ele>52.53</ele>
        <time>2010-10-31T11:03:37Z</time>
      </trkpt>
      <trkpt lat="47.34586" lon="-0.02227">
        <ele>55.41</ele>
        <time>2010-10-31T11:03:51Z</time>
      </trkpt>
      <trkpt lat="47.34586" lon="-0.02227">
        <ele>53.01</ele>
        <time>2010-10-31T11:03:54Z</time>
      </trkpt>
      <trkpt lat="47.34586" lon="-0.02227">
        <ele>52.53</ele>
        <time>2010-10-31T11:04:01Z</time>
      </trkpt>
      <trkpt lat="47.34586" lon="-0.02227">
        <ele>56.86</ele>
        <time>2010-10-31T11:04:09Z</time>
      </trkpt>
      <trkpt lat="47.34586" lon="-0.02227">
        <ele>53.49</ele>
        <time>2010-10-31T11:04:10Z</time>
      </trkpt>
      <trkpt lat="47.34586" lon="-0.02227">
        <ele>57.82</ele>
        <time>2010-10-31T11:04:12Z</time>
      </trkpt>
      <trkpt lat="47.34586" lon="-0.02227">
        <ele>52.53</ele>
        <time>2010-10-31T11:04:15Z</time>
      </trkpt>
      <trkpt lat="47.34586" lon="-0.02227">
        <ele>55.41</ele>
        <time>2010-10-31T11:04:16Z</time>
      </trkpt>
      <trkpt lat="47.34586" lon="-0.02227">
        <ele>52.53</ele>
        <time>2010-10-31T11:04:20Z</time>
      </trkpt>
      <trkpt lat="47.34586" lon="-0.02227">
        <ele>56.86</ele>
        <time>2010-10-31T11:04:21Z</time>
      </trkpt>
      <trkpt lat="47.34586" lon="-0.02227">
        <ele>60.22</ele>
        <time>2010-10-31T11:04:23Z</time>
      </trkpt>
      <trkpt lat="47.34586" lon="-0.02227">
        <ele>56.37</ele>
        <time>2010-10-31T11:04:26Z</time>
      </trkpt>
      <trkpt lat="47.34586" lon="-0.02228">
        <ele>54.45</ele>
        <time>2010-10-31T11:04:34Z</time>
      </trkpt>
      <trkpt lat="47.34586" lon="-0.02228">
        <ele>56.86</ele>
        <time>2010-10-31T11:04:47Z</time>
      </trkpt>
      <trkpt lat="47.34586" lon="-0.02228">
        <ele>52.05</ele>
        <time>2010-10-31T11:04:51Z</time>
      </trkpt>
      <trkpt lat="47.34586" lon="-0.02228">
        <ele>55.41</ele>
        <time>2010-10-31T11:04:54Z</time>
      </trkpt>
      <trkpt lat="47.34587" lon="-0.02227">
        <ele>55.89</ele>
        <time>2010-10-31T11:05:11Z</time>
      </trkpt>
      <trkpt lat="47.34587" lon="-0.02227">
        <ele>54.45</ele>
        <time>2010-10-31T11:05:13Z</time>
      </trkpt>
      <trkpt lat="47.34587" lon="-0.02227">
        <ele>56.37</ele>
        <time>2010-10-31T11:05:22Z</time>
      </trkpt>
      <trkpt lat="47.34587" lon="-0.02227">
        <ele>53.01</ele>
        <time>2010-10-31T11:05:23Z</time>
      </trkpt>
      <trkpt lat="47.34587" lon="-0.02227">
        <ele>56.37</ele>
        <time>2010-10-31T11:05:24Z</time>
      </trkpt>
      <trkpt lat="47.34587" lon="-0.02227">
        <ele>55.89</ele>
        <time>2010-10-31T11:05:34Z</time>
      </trkpt>
      <trkpt lat="47.34587" lon="-0.02227">
        <ele>54.93</ele>
        <time>2010-10-31T11:05:36Z</time>
      </trkpt>
      <trkpt lat="47.34587" lon="-0.02227">
        <ele>58.3</ele>
        <time>2010-10-31T11:05:39Z</time>
      </trkpt>
      <trkpt lat="47.34587" lon="-0.02227">
        <ele>56.37</ele>
        <time>2010-10-31T11:05:40Z</time>
      </trkpt>
      <trkpt lat="47.34587" lon="-0.02227">
        <ele>53.49</ele>
        <time>2010-10-31T11:05:41Z</time>
      </trkpt>
      <trkpt lat="47.34587" lon="-0.02227">
        <ele>53.97</ele>
        <time>2010-10-31T11:05:42Z</time>
      </trkpt>
      <trkpt lat="47.34587" lon="-0.02227">
        <ele>55.41</ele>
        <time>2010-10-31T11:05:44Z</time>
      </trkpt>
      <trkpt lat="47.34587" lon="-0.02227">
        <ele>54.93</ele>
        <time>2010-10-31T11:05:52Z</time>
      </trkpt>
      <trkpt lat="47.34587" lon="-0.02227">
        <ele>51.57</ele>
        <time>2010-10-31T11:06:12Z</time>
      </trkpt>
      <trkpt lat="47.34587" lon="-0.02227">
        <ele>55.89</ele>
        <time>2010-10-31T11:06:15Z</time>
      </trkpt>
      <trkpt lat="47.34587" lon="-0.02227">
        <ele>52.05</ele>
        <time>2010-10-31T11:06:27Z</time>
      </trkpt>
      <trkpt lat="47.34587" lon="-0.02227">
        <ele>54.93</ele>
        <time>2010-10-31T11:06:28Z</time>
      </trkpt>
      <trkpt lat="47.34587" lon="-0.02227">
        <ele>53.49</ele>
        <time>2010-10-31T11:06:46Z</time>
      </trkpt>
      <trkpt lat="47.34587" lon="-0.02227">
        <ele>54.93</ele>
        <time>2010-10-31T11:06:48Z</time>
      </trkpt>
      <trkpt lat="47.34587" lon="-0.02227">
        <ele>53.49</ele>
        <time>2010-10-31T11:06:50Z</time>
      </trkpt>
      <trkpt lat="47.34587" lon="-0.02227">
        <ele>54.93</ele>
        <time>2010-10-31T11:07:03Z</time>
      </trkpt>
      <trkpt lat="47.34587" lon="-0.02227">
        <ele>54.45</ele>
        <time>2010-10-31T11:07:09Z</time>
      </trkpt>
      <trkpt lat="47.34587" lon="-0.02227">
        <ele>54.45</ele>
        <time>2010-10-31T11:07:32Z</time>
      </trkpt>
      <trkpt lat="47.34587" lon="-0.02228">
        <ele>57.34</ele>
        <time>2010-10-31T11:08:05Z</time>
      </trkpt>
      <trkpt lat="47.34587" lon="-0.02228">
        <ele>53.97</ele>
        <time>2010-10-31T11:08:07Z</time>
      </trkpt>
      <trkpt lat="47.34587" lon="-0.02228">
        <ele>56.86</ele>
        <time>2010-10-31T11:08:18Z</time>
      </trkpt>
      <trkpt lat="47.34587" lon="-0.02228">
        <ele>52.53</ele>
        <time>2010-10-31T11:08:25Z</time>
      </trkpt>
      <trkpt lat="47.34587" lon="-0.02228">
        <ele>55.41</ele>
        <time>2010-10-31T11:08:37Z</time>
      </trkpt>
      <trkpt lat="47.34587" lon="-0.02228">
        <ele>55.41</ele>
        <time>2010-10-31T11:08:51Z</time>
      </trkpt>
      <trkpt lat="47.34587" lon="-0.02228">
        <ele>52.05</ele>
        <time>2010-10-31T11:09:30Z</time>
      </trkpt>
      <trkpt lat="47.34587" lon="-0.02228">
        <ele>57.82</ele>
        <time>2010-10-31T11:09:33Z</time>
      </trkpt>
      <trkpt lat="47.34587" lon="-0.02228">
        <ele>56.86</ele>
        <time>2010-10-31T11:09:34Z</time>
      </trkpt>
      <trkpt lat="47.34587" lon="-0.02228">
        <ele>55.41</ele>
        <time>2010-10-31T11:09:36Z</time>
      </trkpt>
      <trkpt lat="47.34587" lon="-0.02228">
        <ele>53.97</ele>
        <time>2010-10-31T11:09:54Z</time>
      </trkpt>
      <trkpt lat="47.34587" lon="-0.02228">
        <ele>54.93</ele>
        <time>2010-10-31T11:09:56Z</time>
      </trkpt>
      <trkpt lat="47.34587" lon="-0.02228">
        <ele>54.93</ele>
        <time>2010-10-31T11:10:05Z</time>
      </trkpt>
      <trkpt lat="47.34587" lon="-0.02227">
        <ele>55.41</ele>
        <time>2010-10-31T11:10:37Z</time>
      </trkpt>
      <trkpt lat="47.34587" lon="-0.02227">
        <ele>54.45</ele>
        <time>2010-10-31T11:10:44Z</time>
      </trkpt>
      <trkpt lat="47.34587" lon="-0.02227">
        <ele>55.89</ele>
        <time>2010-10-31T11:11:07Z</time>
      </trkpt>
      <trkpt lat="47.34587" lon="-0.02227">
        <ele>54.93</ele>
        <time>2010-10-31T11:11:25Z</time>
      </trkpt>
      <trkpt lat="47.34587" lon="-0.02227">
        <ele>56.37</ele>
        <time>2010-10-31T11:12:33Z</time>
      </trkpt>
      <trkpt lat="47.34587" lon="-0.02227">
        <ele>55.41</ele>
        <time>2010-10-31T11:13:16Z</time>
      </trkpt>
      <trkpt lat="47.34587" lon="-0.02227">
        <ele>54.45</ele>
        <time>2010-10-31T11:13:24Z</time>
      </trkpt>
      <trkpt lat="47.34587" lon="-0.02227">
        <ele>55.41</ele>
        <time>2010-10-31T11:13:46Z</time>
      </trkpt>
      <trkpt lat="47.34588" lon="-0.02227">
        <ele>56.86</ele>
        <time>2010-10-31T11:14:06Z</time>
      </trkpt>
      <trkpt lat="47.34588" lon="-0.02227">
        <ele>56.86</ele>
        <time>2010-10-31T11:14:07Z</time>
      </trkpt>
      <trkpt lat="47.34587" lon="-0.02227">
        <ele>57.82</ele>
        <time>2010-10-31T11:14:39Z</time>
      </trkpt>
      <trkpt lat="47.34587" lon="-0.02227">
        <ele>54.45</ele>
        <time>2010-10-31T11:14:55Z</time>
      </trkpt>
      <trkpt lat="47.34587" lon="-0.02227">
        <ele>55.41</ele>
        <time>2010-10-31T11:14:56Z</time>
      </trkpt>
      <trkpt lat="47.34587" lon="-0.02227">
        <ele>58.78</ele>
        <time>2010-10-31T11:15:03Z</time>
      </trkpt>
      <trkpt lat="47.34587" lon="-0.02227">
        <ele>56.37</ele>
        <time>2010-10-31T11:15:05Z</time>
      </trkpt>
      <trkpt lat="47.34587" lon="-0.02227">
        <ele>55.89</ele>
        <time>2010-10-31T11:15:17Z</time>
      </trkpt>
      <trkpt lat="47.34588" lon="-0.02227">
        <ele>56.86</ele>
        <time>2010-10-31T11:15:39Z</time>
      </trkpt>
      <trkpt lat="47.34588" lon="-0.02227">
        <ele>53.49</ele>
        <time>2010-10-31T11:16:01Z</time>
      </trkpt>
      <trkpt lat="47.34588" lon="-0.02227">
        <ele>54.93</ele>
        <time>2010-10-31T11:16:02Z</time>
      </trkpt>
      <trkpt lat="47.34588" lon="-0.02227">
        <ele>57.34</ele>
        <time>2010-10-31T11:16:11Z</time>
      </trkpt>
      <trkpt lat="47.34588" lon="-0.02227">
        <ele>54.93</ele>
        <time>2010-10-31T11:16:13Z</time>
      </trkpt>
      <trkpt lat="47.34588" lon="-0.02227">
        <ele>57.34</ele>
        <time>2010-10-31T11:16:15Z</time>
      </trkpt>
      <trkpt lat="47.34588" lon="-0.02227">
        <ele>54.45</ele>
        <time>2010-10-31T11:16:25Z</time>
      </trkpt>
      <trkpt lat="47.34588" lon="-0.02227">
        <ele>56.37</ele>
        <time>2010-10-31T11:16:27Z</time>
      </trkpt>
      <trkpt lat="47.34588" lon="-0.02227">
        <ele>55.89</ele>
        <time>2010-10-31T11:16:52Z</time>
      </trkpt>
      <trkpt lat="47.34588" lon="-0.02227">
        <ele>57.34</ele>
        <time>2010-10-31T11:17:07Z</time>
      </trkpt>
      <trkpt lat="47.34588" lon="-0.02227">
        <ele>60.22</ele>
        <time>2010-10-31T11:17:12Z</time>
      </trkpt>
      <trkpt lat="47.34588" lon="-0.02227">
        <ele>58.3</ele>
        <time>2010-10-31T11:17:14Z</time>
      </trkpt>
      <trkpt lat="47.34588" lon="-0.02227">
        <ele>55.89</ele>
        <time>2010-10-31T11:17:21Z</time>
      </trkpt>
      <trkpt lat="47.34588" lon="-0.02227">
        <ele>54.93</ele>
        <time>2010-10-31T11:17:29Z</time>
      </trkpt>
      <trkpt lat="47.34588" lon="-0.02227">
        <ele>59.26</ele>
        <time>2010-10-31T11:17:31Z</time>
      </trkpt>
      <trkpt lat="47.34588" lon="-0.02227">
        <ele>57.82</ele>
        <time>2010-10-31T11:17:32Z</time>
      </trkpt>
      <trkpt lat="47.34588" lon="-0.02227">
        <ele>57.34</ele>
        <time>2010-10-31T11:17:47Z</time>
      </trkpt>
      <trkpt lat="47.34588" lon="-0.02227">
        <ele>57.82</ele>
        <time>2010-10-31T11:18:08Z</time>
      </trkpt>
      <trkpt lat="47.34588" lon="-0.02227">
        <ele>57.34</ele>
        <time>2010-10-31T11:18:25Z</time>
      </trkpt>
      <trkpt lat="47.34588" lon="-0.02227">
        <ele>56.37</ele>
        <time>2010-10-31T11:18:36Z</time>
      </trkpt>
      <trkpt lat="47.34588" lon="-0.02227">
        <ele>55.89</ele>
        <time>2010-10-31T11:18:46Z</time>
      </trkpt>
      <trkpt lat="47.34588" lon="-0.02227">
        <ele>54.45</ele>
        <time>2010-10-31T11:19:05Z</time>
      </trkpt>
      <trkpt lat="47.34588" lon="-0.02227">
        <ele>58.78</ele>
        <time>2010-10-31T11:19:08Z</time>
      </trkpt>
      <trkpt lat="47.34588" lon="-0.02227">
        <ele>58.3</ele>
        <time>2010-10-31T11:19:09Z</time>
      </trkpt>
      <trkpt lat="47.34588" lon="-0.02227">
        <ele>54.45</ele>
        <time>2010-10-31T11:19:17Z</time>
      </trkpt>
      <trkpt lat="47.34588" lon="-0.02227">
        <ele>57.82</ele>
        <time>2010-10-31T11:19:18Z</time>
      </trkpt>
      <trkpt lat="47.34588" lon="-0.02227">
        <ele>56.37</ele>
        <time>2010-10-31T11:19:33Z</time>
      </trkpt>
      <trkpt lat="47.34588" lon="-0.02227">
        <ele>56.37</ele>
        <time>2010-10-31T11:20:18Z</time>
      </trkpt>
      <trkpt lat="47.34588" lon="-0.02227">
        <ele>56.86</ele>
        <time>2010-10-31T11:20:20Z</time>
      </trkpt>
      <trkpt lat="47.34588" lon="-0.02227">
        <ele>57.82</ele>
        <time>2010-10-31T11:20:26Z</time>
      </trkpt>
      <trkpt lat="47.34588" lon="-0.02228">
        <ele>54.93</ele>
        <time>2010-10-31T11:20:29Z</time>
      </trkpt>
      <trkpt lat="47.34589" lon="-0.02226">
        <ele>55.89</ele>
        <time>2010-10-31T11:20:36Z</time>
      </trkpt>
      <trkpt lat="47.34595" lon="-0.02216">
        <ele>56.86</ele>
        <time>2010-10-31T11:20:44Z</time>
      </trkpt>
      <trkpt lat="47.34605" lon="-0.02203">
        <ele>55.89</ele>
        <time>2010-10-31T11:20:50Z</time>
      </trkpt>
      <trkpt lat="47.34618" lon="-0.02211">
        <ele>56.86</ele>
        <time>2010-10-31T11:20:55Z</time>
      </trkpt>
      <trkpt lat="47.34627" lon="-0.02225">
        <ele>60.7</ele>
        <time>2010-10-31T11:20:59Z</time>
      </trkpt>
      <trkpt lat="47.34631" lon="-0.02234">
        <ele>57.34</ele>
        <time>2010-10-31T11:21:01Z</time>
      </trkpt>
      <trkpt lat="47.34642" lon="-0.02251">
        <ele>56.86</ele>
        <time>2010-10-31T11:21:07Z</time>
      </trkpt>
      <trkpt lat="47.34647" lon="-0.02259">
        <ele>63.1</ele>
        <time>2010-10-31T11:21:10Z</time>
      </trkpt>
      <trkpt lat="47.34649" lon="-0.02262">
        <ele>59.26</ele>
        <time>2010-10-31T11:21:11Z</time>
      </trkpt>
      <trkpt lat="47.34665" lon="-0.02289">
        <ele>58.78</ele>
        <time>2010-10-31T11:21:19Z</time>
      </trkpt>
      <trkpt lat="47.3467" lon="-0.02295">
        <ele>62.14</ele>
        <time>2010-10-31T11:21:21Z</time>
      </trkpt>
      <trkpt lat="47.34672" lon="-0.02298">
        <ele>61.18</ele>
        <time>2010-10-31T11:21:22Z</time>
      </trkpt>
      <trkpt lat="47.34689" lon="-0.02323">
        <ele>57.82</ele>
        <time>2010-10-31T11:21:30Z</time>
      </trkpt>
      <trkpt lat="47.34696" lon="-0.02331">
        <ele>61.18</ele>
        <time>2010-10-31T11:21:33Z</time>
      </trkpt>
      <trkpt lat="47.34707" lon="-0.02345">
        <ele>66.47</ele>
        <time>2010-10-31T11:21:38Z</time>
      </trkpt>
      <trkpt lat="47.34709" lon="-0.02347">
        <ele>66.47</ele>
        <time>2010-10-31T11:21:39Z</time>
      </trkpt>
      <trkpt lat="47.34712" lon="-0.0235">
        <ele>60.7</ele>
        <time>2010-10-31T11:21:40Z</time>
      </trkpt>
      <trkpt lat="47.34714" lon="-0.02353">
        <ele>64.07</ele>
        <time>2010-10-31T11:21:41Z</time>
      </trkpt>
      <trkpt lat="47.34721" lon="-0.02361">
        <ele>60.7</ele>
        <time>2010-10-31T11:21:44Z</time>
      </trkpt>
      <trkpt lat="47.34725" lon="-0.02367">
        <ele>64.07</ele>
        <time>2010-10-31T11:21:46Z</time>
      </trkpt>
      <trkpt lat="47.34732" lon="-0.02376">
        <ele>62.14</ele>
        <time>2010-10-31T11:21:49Z</time>
      </trkpt>
      <trkpt lat="47.34742" lon="-0.02387">
        <ele>68.39</ele>
        <time>2010-10-31T11:21:53Z</time>
      </trkpt>
      <trkpt lat="47.34744" lon="-0.0239">
        <ele>67.91</ele>
        <time>2010-10-31T11:21:54Z</time>
      </trkpt>
      <trkpt lat="47.34749" lon="-0.02395">
        <ele>63.58</ele>
        <time>2010-10-31T11:21:56Z</time>
      </trkpt>
      <trkpt lat="47.34752" lon="-0.02398">
        <ele>64.55</ele>
        <time>2010-10-31T11:21:57Z</time>
      </trkpt>
      <trkpt lat="47.34767" lon="-0.02412">
        <ele>68.39</ele>
        <time>2010-10-31T11:22:03Z</time>
      </trkpt>
      <trkpt lat="47.34769" lon="-0.02414">
        <ele>65.03</ele>
        <time>2010-10-31T11:22:04Z</time>
      </trkpt>
      <trkpt lat="47.34774" lon="-0.02419">
        <ele>63.58</ele>
        <time>2010-10-31T11:22:06Z</time>
      </trkpt>
      <trkpt lat="47.34779" lon="-0.02422">
        <ele>66.47</ele>
        <time>2010-10-31T11:22:08Z</time>
      </trkpt>
      <trkpt lat="47.34794" lon="-0.02436">
        <ele>65.99</ele>
        <time>2010-10-31T11:22:14Z</time>
      </trkpt>
      <trkpt lat="47.34803" lon="-0.02442">
        <ele>65.99</ele>
        <time>2010-10-31T11:22:18Z</time>
      </trkpt>
      <trkpt lat="47.34809" lon="-0.02447">
        <ele>72.72</ele>
        <time>2010-10-31T11:22:21Z</time>
      </trkpt>
      <trkpt lat="47.3481" lon="-0.02448">
        <ele>69.35</ele>
        <time>2010-10-31T11:22:22Z</time>
      </trkpt>
      <trkpt lat="47.34825" lon="-0.0246">
        <ele>70.79</ele>
        <time>2010-10-31T11:22:29Z</time>
      </trkpt>
      <trkpt lat="47.3484" lon="-0.02468">
        <ele>72.72</ele>
        <time>2010-10-31T11:22:35Z</time>
      </trkpt>
      <trkpt lat="47.34842" lon="-0.02469">
        <ele>69.83</ele>
        <time>2010-10-31T11:22:36Z</time>
      </trkpt>
      <trkpt lat="47.34845" lon="-0.0247">
        <ele>69.83</ele>
        <time>2010-10-31T11:22:37Z</time>
      </trkpt>
      <trkpt lat="47.34848" lon="-0.02471">
        <ele>74.64</ele>
        <time>2010-10-31T11:22:38Z</time>
      </trkpt>
      <trkpt lat="47.34853" lon="-0.02473">
        <ele>71.27</ele>
        <time>2010-10-31T11:22:40Z</time>
      </trkpt>
      <trkpt lat="47.34855" lon="-0.02474">
        <ele>71.76</ele>
        <time>2010-10-31T11:22:41Z</time>
      </trkpt>
      <trkpt lat="47.34873" lon="-0.02482">
        <ele>74.64</ele>
        <time>2010-10-31T11:22:48Z</time>
      </trkpt>
      <trkpt lat="47.34876" lon="-0.02483">
        <ele>73.68</ele>
        <time>2010-10-31T11:22:49Z</time>
      </trkpt>
      <trkpt lat="47.349" lon="-0.02494">
        <ele>77.52</ele>
        <time>2010-10-31T11:22:58Z</time>
      </trkpt>
      <trkpt lat="47.34908" lon="-0.02498">
        <ele>73.68</ele>
        <time>2010-10-31T11:23:01Z</time>
      </trkpt>
      <trkpt lat="47.34911" lon="-0.02499">
        <ele>80.89</ele>
        <time>2010-10-31T11:23:02Z</time>
      </trkpt>
      <trkpt lat="47.34913" lon="-0.025">
        <ele>77.04</ele>
        <time>2010-10-31T11:23:03Z</time>
      </trkpt>
      <trkpt lat="47.34926" lon="-0.02505">
        <ele>73.2</ele>
        <time>2010-10-31T11:23:08Z</time>
      </trkpt>
      <trkpt lat="47.34929" lon="-0.02506">
        <ele>76.56</ele>
        <time>2010-10-31T11:23:09Z</time>
      </trkpt>
      <trkpt lat="47.34934" lon="-0.02509">
        <ele>81.37</ele>
        <time>2010-10-31T11:23:11Z</time>
      </trkpt>
      <trkpt lat="47.34936" lon="-0.0251">
        <ele>77.04</ele>
        <time>2010-10-31T11:23:12Z</time>
      </trkpt>
      <trkpt lat="47.34947" lon="-0.02514">
        <ele>79.93</ele>
        <time>2010-10-31T11:23:16Z</time>
      </trkpt>
      <trkpt lat="47.34949" lon="-0.02515">
        <ele>77.04</ele>
        <time>2010-10-31T11:23:17Z</time>
      </trkpt>
      <trkpt lat="47.34952" lon="-0.02517">
        <ele>79.93</ele>
        <time>2010-10-31T11:23:18Z</time>
      </trkpt>
      <trkpt lat="47.34962" lon="-0.02521">
        <ele>80.41</ele>
        <time>2010-10-31T11:23:22Z</time>
      </trkpt>
      <trkpt lat="47.34973" lon="-0.02525">
        <ele>76.56</ele>
        <time>2010-10-31T11:23:26Z</time>
      </trkpt>
      <trkpt lat="47.34975" lon="-0.02526">
        <ele>83.29</ele>
        <time>2010-10-31T11:23:27Z</time>
      </trkpt>
      <trkpt lat="47.34986" lon="-0.02531">
        <ele>80.89</ele>
        <time>2010-10-31T11:23:31Z</time>
      </trkpt>
      <trkpt lat="47.34991" lon="-0.02534">
        <ele>77.04</ele>
        <time>2010-10-31T11:23:33Z</time>
      </trkpt>
      <trkpt lat="47.34997" lon="-0.02535">
        <ele>82.33</ele>
        <time>2010-10-31T11:23:35Z</time>
      </trkpt>
      <trkpt lat="47.34999" lon="-0.02536">
        <ele>80.41</ele>
        <time>2010-10-31T11:23:36Z</time>
      </trkpt>
      <trkpt lat="47.35002" lon="-0.02538">
        <ele>76.56</ele>
        <time>2010-10-31T11:23:37Z</time>
      </trkpt>
      <trkpt lat="47.35005" lon="-0.0254">
        <ele>80.41</ele>
        <time>2010-10-31T11:23:38Z</time>
      </trkpt>
      <trkpt lat="47.35022" lon="-0.02545">
        <ele>81.85</ele>
        <time>2010-10-31T11:23:44Z</time>
      </trkpt>
      <trkpt lat="47.35025" lon="-0.02545">
        <ele>78.97</ele>
        <time>2010-10-31T11:23:45Z</time>
      </trkpt>
      <trkpt lat="47.35028" lon="-0.02545">
        <ele>78.97</ele>
        <time>2010-10-31T11:23:46Z</time>
      </trkpt>
      <trkpt lat="47.35034" lon="-0.02546">
        <ele>85.21</ele>
        <time>2010-10-31T11:23:48Z</time>
      </trkpt>
      <trkpt lat="47.35037" lon="-0.02546">
        <ele>82.33</ele>
        <time>2010-10-31T11:23:49Z</time>
      </trkpt>
      <trkpt lat="47.3506" lon="-0.0255">
        <ele>79.45</ele>
        <time>2010-10-31T11:23:57Z</time>
      </trkpt>
      <trkpt lat="47.35063" lon="-0.0255">
        <ele>81.37</ele>
        <time>2010-10-31T11:23:58Z</time>
      </trkpt>
      <trkpt lat="47.35065" lon="-0.02551">
        <ele>85.21</ele>
        <time>2010-10-31T11:23:59Z</time>
      </trkpt>
      <trkpt lat="47.35068" lon="-0.02551">
        <ele>83.29</ele>
        <time>2010-10-31T11:24:00Z</time>
      </trkpt>
      <trkpt lat="47.35084" lon="-0.02551">
        <ele>80.41</ele>
        <time>2010-10-31T11:24:06Z</time>
      </trkpt>
      <trkpt lat="47.35102" lon="-0.02552">
        <ele>84.25</ele>
        <time>2010-10-31T11:24:13Z</time>
      </trkpt>
      <trkpt lat="47.35112" lon="-0.02552">
        <ele>87.62</ele>
        <time>2010-10-31T11:24:17Z</time>
      </trkpt>
      <trkpt lat="47.35119" lon="-0.02552">
        <ele>84.25</ele>
        <time>2010-10-31T11:24:20Z</time>
      </trkpt>
      <trkpt lat="47.35132" lon="-0.0255">
        <ele>89.06</ele>
        <time>2010-10-31T11:24:26Z</time>
      </trkpt>
      <trkpt lat="47.35137" lon="-0.0255">
        <ele>84.25</ele>
        <time>2010-10-31T11:24:28Z</time>
      </trkpt>
      <trkpt lat="47.35155" lon="-0.02549">
        <ele>86.66</ele>
        <time>2010-10-31T11:24:35Z</time>
      </trkpt>
      <trkpt lat="47.3517" lon="-0.02547">
        <ele>86.66</ele>
        <time>2010-10-31T11:24:41Z</time>
      </trkpt>
      <trkpt lat="47.3518" lon="-0.02548">
        <ele>90.02</ele>
        <time>2010-10-31T11:24:45Z</time>
      </trkpt>
      <trkpt lat="47.35182" lon="-0.02549">
        <ele>88.58</ele>
        <time>2010-10-31T11:24:46Z</time>
      </trkpt>
      <trkpt lat="47.35187" lon="-0.02551">
        <ele>88.58</ele>
        <time>2010-10-31T11:24:48Z</time>
      </trkpt>
      <trkpt lat="47.35194" lon="-0.02554">
        <ele>88.58</ele>
        <time>2010-10-31T11:24:51Z</time>
      </trkpt>
      <trkpt lat="47.352" lon="-0.02559">
        <ele>90.5</ele>
        <time>2010-10-31T11:24:54Z</time>
      </trkpt>
      <trkpt lat="47.35202" lon="-0.02561">
        <ele>93.39</ele>
        <time>2010-10-31T11:24:55Z</time>
      </trkpt>
      <trkpt lat="47.35209" lon="-0.02565">
        <ele>88.58</ele>
        <time>2010-10-31T11:24:58Z</time>
      </trkpt>
      <trkpt lat="47.35213" lon="-0.02567">
        <ele>92.9</ele>
        <time>2010-10-31T11:25:00Z</time>
      </trkpt>
      <trkpt lat="47.35216" lon="-0.02568">
        <ele>93.39</ele>
        <time>2010-10-31T11:25:01Z</time>
      </trkpt>
      <trkpt lat="47.35235" lon="-0.02578">
        <ele>92.9</ele>
        <time>2010-10-31T11:25:08Z</time>
      </trkpt>
      <trkpt lat="47.35243" lon="-0.02582">
        <ele>95.31</ele>
        <time>2010-10-31T11:25:11Z</time>
      </trkpt>
      <trkpt lat="47.35269" lon="-0.02596">
        <ele>94.35</ele>
        <time>2010-10-31T11:25:20Z</time>
      </trkpt>
      <trkpt lat="47.35277" lon="-0.026">
        <ele>96.27</ele>
        <time>2010-10-31T11:25:23Z</time>
      </trkpt>
      <trkpt lat="47.35293" lon="-0.02607">
        <ele>103</ele>
        <time>2010-10-31T11:25:29Z</time>
      </trkpt>
      <trkpt lat="47.35296" lon="-0.02606">
        <ele>98.67</ele>
        <time>2010-10-31T11:25:30Z</time>
      </trkpt>
      <trkpt lat="47.35301" lon="-0.02604">
        <ele>96.27</ele>
        <time>2010-10-31T11:25:32Z</time>
      </trkpt>
      <trkpt lat="47.35313" lon="-0.02594">
        <ele>98.19</ele>
        <time>2010-10-31T11:25:37Z</time>
      </trkpt>
      <trkpt lat="47.35329" lon="-0.02577">
        <ele>98.19</ele>
        <time>2010-10-31T11:25:44Z</time>
      </trkpt>
      <trkpt lat="47.35333" lon="-0.02571">
        <ele>97.23</ele>
        <time>2010-10-31T11:25:46Z</time>
      </trkpt>
      <trkpt lat="47.35345" lon="-0.02552">
        <ele>101.56</ele>
        <time>2010-10-31T11:25:52Z</time>
      </trkpt>
      <trkpt lat="47.35347" lon="-0.02549">
        <ele>97.23</ele>
        <time>2010-10-31T11:25:53Z</time>
      </trkpt>
      <trkpt lat="47.35358" lon="-0.02531">
        <ele>102.04</ele>
        <time>2010-10-31T11:25:58Z</time>
      </trkpt>
      <trkpt lat="47.35365" lon="-0.02522">
        <ele>106.36</ele>
        <time>2010-10-31T11:26:01Z</time>
      </trkpt>
      <trkpt lat="47.35368" lon="-0.02519">
        <ele>99.63</ele>
        <time>2010-10-31T11:26:02Z</time>
      </trkpt>
      <trkpt lat="47.35382" lon="-0.02495">
        <ele>100.6</ele>
        <time>2010-10-31T11:26:08Z</time>
      </trkpt>
      <trkpt lat="47.35384" lon="-0.0249">
        <ele>104.92</ele>
        <time>2010-10-31T11:26:09Z</time>
      </trkpt>
      <trkpt lat="47.35392" lon="-0.02473">
        <ele>101.56</ele>
        <time>2010-10-31T11:26:13Z</time>
      </trkpt>
      <trkpt lat="47.354" lon="-0.0246">
        <ele>106.36</ele>
        <time>2010-10-31T11:26:16Z</time>
      </trkpt>
      <trkpt lat="47.35403" lon="-0.02453">
        <ele>109.73</ele>
        <time>2010-10-31T11:26:18Z</time>
      </trkpt>
      <trkpt lat="47.35407" lon="-0.02444">
        <ele>103.96</ele>
        <time>2010-10-31T11:26:20Z</time>
      </trkpt>
      <trkpt lat="47.3541" lon="-0.0244">
        <ele>99.63</ele>
        <time>2010-10-31T11:26:21Z</time>
      </trkpt>
      <trkpt lat="47.35412" lon="-0.02436">
        <ele>104.44</ele>
        <time>2010-10-31T11:26:22Z</time>
      </trkpt>
      <trkpt lat="47.35414" lon="-0.02433">
        <ele>99.63</ele>
        <time>2010-10-31T11:26:23Z</time>
      </trkpt>
      <trkpt lat="47.35415" lon="-0.02429">
        <ele>104.92</ele>
        <time>2010-10-31T11:26:24Z</time>
      </trkpt>
      <trkpt lat="47.35417" lon="-0.02424">
        <ele>101.56</ele>
        <time>2010-10-31T11:26:25Z</time>
      </trkpt>
      <trkpt lat="47.35421" lon="-0.02415">
        <ele>105.4</ele>
        <time>2010-10-31T11:26:27Z</time>
      </trkpt>
      <trkpt lat="47.35424" lon="-0.02411">
        <ele>103</ele>
        <time>2010-10-31T11:26:28Z</time>
      </trkpt>
      <trkpt lat="47.35427" lon="-0.02402">
        <ele>104.92</ele>
        <time>2010-10-31T11:26:30Z</time>
      </trkpt>
      <trkpt lat="47.35428" lon="-0.02398">
        <ele>101.08</ele>
        <time>2010-10-31T11:26:31Z</time>
      </trkpt>
      <trkpt lat="47.35434" lon="-0.02383">
        <ele>106.36</ele>
        <time>2010-10-31T11:26:34Z</time>
      </trkpt>
      <trkpt lat="47.35436" lon="-0.02378">
        <ele>101.08</ele>
        <time>2010-10-31T11:26:35Z</time>
      </trkpt>
      <trkpt lat="47.35441" lon="-0.02369">
        <ele>106.36</ele>
        <time>2010-10-31T11:26:37Z</time>
      </trkpt>
      <trkpt lat="47.35444" lon="-0.02365">
        <ele>102.04</ele>
        <time>2010-10-31T11:26:38Z</time>
      </trkpt>
      <trkpt lat="47.35453" lon="-0.02352">
        <ele>109.73</ele>
        <time>2010-10-31T11:26:41Z</time>
      </trkpt>
      <trkpt lat="47.35456" lon="-0.02346">
        <ele>110.21</ele>
        <time>2010-10-31T11:26:42Z</time>
      </trkpt>
      <trkpt lat="47.3546" lon="-0.02341">
        <ele>103.96</ele>
        <time>2010-10-31T11:26:43Z</time>
      </trkpt>
      <trkpt lat="47.35462" lon="-0.02336">
        <ele>102.52</ele>
        <time>2010-10-31T11:26:44Z</time>
      </trkpt>
      <trkpt lat="47.35465" lon="-0.0233">
        <ele>108.29</ele>
        <time>2010-10-31T11:26:45Z</time>
      </trkpt>
      <trkpt lat="47.3547" lon="-0.02319">
        <ele>110.69</ele>
        <time>2010-10-31T11:26:47Z</time>
      </trkpt>
      <trkpt lat="47.35479" lon="-0.02305">
        <ele>106.84</ele>
        <time>2010-10-31T11:26:50Z</time>
      </trkpt>
      <trkpt lat="47.35489" lon="-0.0229">
        <ele>110.21</ele>
        <time>2010-10-31T11:26:53Z</time>
      </trkpt>
      <trkpt lat="47.35492" lon="-0.02286">
        <ele>104.44</ele>
        <time>2010-10-31T11:26:54Z</time>
      </trkpt>
      <trkpt lat="47.35494" lon="-0.02281">
        <ele>105.4</ele>
        <time>2010-10-31T11:26:55Z</time>
      </trkpt>
      <trkpt lat="47.35496" lon="-0.02276">
        <ele>103.96</ele>
        <time>2010-10-31T11:26:56Z</time>
      </trkpt>
      <trkpt lat="47.35499" lon="-0.02271">
        <ele>104.92</ele>
        <time>2010-10-31T11:26:57Z</time>
      </trkpt>
      <trkpt lat="47.35501" lon="-0.02267">
        <ele>112.61</ele>
        <time>2010-10-31T11:26:58Z</time>
      </trkpt>
      <trkpt lat="47.35504" lon="-0.02262">
        <ele>111.65</ele>
        <time>2010-10-31T11:26:59Z</time>
      </trkpt>
      <trkpt lat="47.35507" lon="-0.02257">
        <ele>110.69</ele>
        <time>2010-10-31T11:27:00Z</time>
      </trkpt>
      <trkpt lat="47.3551" lon="-0.02252">
        <ele>111.17</ele>
        <time>2010-10-31T11:27:01Z</time>
      </trkpt>
      <trkpt lat="47.35513" lon="-0.02247">
        <ele>105.88</ele>
        <time>2010-10-31T11:27:02Z</time>
      </trkpt>
      <trkpt lat="47.35516" lon="-0.02242">
        <ele>106.84</ele>
        <time>2010-10-31T11:27:03Z</time>
      </trkpt>
      <trkpt lat="47.35519" lon="-0.02238">
        <ele>110.69</ele>
        <time>2010-10-31T11:27:04Z</time>
      </trkpt>
      <trkpt lat="47.35522" lon="-0.02232">
        <ele>108.29</ele>
        <time>2010-10-31T11:27:05Z</time>
      </trkpt>
      <trkpt lat="47.35527" lon="-0.02223">
        <ele>103.96</ele>
        <time>2010-10-31T11:27:07Z</time>
      </trkpt>
      <trkpt lat="47.35529" lon="-0.02218">
        <ele>104.92</ele>
        <time>2010-10-31T11:27:08Z</time>
      </trkpt>
      <trkpt lat="47.35532" lon="-0.02213">
        <ele>107.81</ele>
        <time>2010-10-31T11:27:09Z</time>
      </trkpt>
      <trkpt lat="47.35535" lon="-0.02209">
        <ele>111.65</ele>
        <time>2010-10-31T11:27:10Z</time>
      </trkpt>
      <trkpt lat="47.35537" lon="-0.02204">
        <ele>111.17</ele>
        <time>2010-10-31T11:27:11Z</time>
      </trkpt>
      <trkpt lat="47.35544" lon="-0.02195">
        <ele>107.81</ele>
        <time>2010-10-31T11:27:13Z</time>
      </trkpt>
      <trkpt lat="47.35548" lon="-0.0219">
        <ele>105.4</ele>
        <time>2010-10-31T11:27:14Z</time>
      </trkpt>
      <trkpt lat="47.35551" lon="-0.02185">
        <ele>109.25</ele>
        <time>2010-10-31T11:27:15Z</time>
      </trkpt>
      <trkpt lat="47.35556" lon="-0.02174">
        <ele>111.65</ele>
        <time>2010-10-31T11:27:17Z</time>
      </trkpt>
      <trkpt lat="47.35565" lon="-0.02156">
        <ele>103.48</ele>
        <time>2010-10-31T11:27:20Z</time>
      </trkpt>
      <trkpt lat="47.35568" lon="-0.02151">
        <ele>104.92</ele>
        <time>2010-10-31T11:27:21Z</time>
      </trkpt>
      <trkpt lat="47.35571" lon="-0.02145">
        <ele>109.25</ele>
        <time>2010-10-31T11:27:22Z</time>
      </trkpt>
      <trkpt lat="47.35573" lon="-0.02139">
        <ele>112.61</ele>
        <time>2010-10-31T11:27:23Z</time>
      </trkpt>
      <trkpt lat="47.35576" lon="-0.02133">
        <ele>112.13</ele>
        <time>2010-10-31T11:27:24Z</time>
      </trkpt>
      <trkpt lat="47.35582" lon="-0.02123">
        <ele>103.96</ele>
        <time>2010-10-31T11:27:26Z</time>
      </trkpt>
      <trkpt lat="47.35584" lon="-0.02117">
        <ele>108.29</ele>
        <time>2010-10-31T11:27:27Z</time>
      </trkpt>
      <trkpt lat="47.35587" lon="-0.02112">
        <ele>103.96</ele>
        <time>2010-10-31T11:27:28Z</time>
      </trkpt>
      <trkpt lat="47.35589" lon="-0.02106">
        <ele>103.96</ele>
        <time>2010-10-31T11:27:29Z</time>
      </trkpt>
      <trkpt lat="47.35592" lon="-0.02101">
        <ele>102.52</ele>
        <time>2010-10-31T11:27:30Z</time>
      </trkpt>
      <trkpt lat="47.35595" lon="-0.02096">
        <ele>107.81</ele>
        <time>2010-10-31T11:27:31Z</time>
      </trkpt>
      <trkpt lat="47.35597" lon="-0.02091">
        <ele>105.88</ele>
        <time>2010-10-31T11:27:32Z</time>
      </trkpt>
      <trkpt lat="47.356" lon="-0.02085">
        <ele>107.32</ele>
        <time>2010-10-31T11:27:33Z</time>
      </trkpt>
      <trkpt lat="47.35609" lon="-0.02066">
        <ele>102.04</ele>
        <time>2010-10-31T11:27:37Z</time>
      </trkpt>
      <trkpt lat="47.35612" lon="-0.02062">
        <ele>105.88</ele>
        <time>2010-10-31T11:27:38Z</time>
      </trkpt>
      <trkpt lat="47.35617" lon="-0.02052">
        <ele>111.65</ele>
        <time>2010-10-31T11:27:40Z</time>
      </trkpt>
      <trkpt lat="47.35619" lon="-0.02047">
        <ele>105.4</ele>
        <time>2010-10-31T11:27:41Z</time>
      </trkpt>
      <trkpt lat="47.35622" lon="-0.02041">
        <ele>110.69</ele>
        <time>2010-10-31T11:27:42Z</time>
      </trkpt>
      <trkpt lat="47.35624" lon="-0.02036">
        <ele>103.96</ele>
        <time>2010-10-31T11:27:43Z</time>
      </trkpt>
      <trkpt lat="47.35626" lon="-0.02031">
        <ele>108.29</ele>
        <time>2010-10-31T11:27:44Z</time>
      </trkpt>
      <trkpt lat="47.3563" lon="-0.02023">
        <ele>103.96</ele>
        <time>2010-10-31T11:27:46Z</time>
      </trkpt>
      <trkpt lat="47.35632" lon="-0.02019">
        <ele>105.4</ele>
        <time>2010-10-31T11:27:47Z</time>
      </trkpt>
      <trkpt lat="47.35634" lon="-0.02016">
        <ele>101.56</ele>
        <time>2010-10-31T11:27:48Z</time>
      </trkpt>
      <trkpt lat="47.35635" lon="-0.02014">
        <ele>105.4</ele>
        <time>2010-10-31T11:27:49Z</time>
      </trkpt>
      <trkpt lat="47.35638" lon="-0.02013">
        <ele>103</ele>
        <time>2010-10-31T11:27:52Z</time>
      </trkpt>
      <trkpt lat="47.35638" lon="-0.02013">
        <ele>104.44</ele>
        <time>2010-10-31T11:27:54Z</time>
      </trkpt>
      <trkpt lat="47.35638" lon="-0.02013">
        <ele>108.29</ele>
        <time>2010-10-31T11:27:57Z</time>
      </trkpt>
      <trkpt lat="47.35638" lon="-0.02013">
        <ele>104.44</ele>
        <time>2010-10-31T11:27:58Z</time>
      </trkpt>
      <trkpt lat="47.35638" lon="-0.02013">
        <ele>109.73</ele>
        <time>2010-10-31T11:28:00Z</time>
      </trkpt>
      <trkpt lat="47.35638" lon="-0.02013">
        <ele>108.77</ele>
        <time>2010-10-31T11:28:01Z</time>
      </trkpt>
      <trkpt lat="47.35639" lon="-0.02012">
        <ele>110.69</ele>
        <time>2010-10-31T11:28:02Z</time>
      </trkpt>
      <trkpt lat="47.35641" lon="-0.02013">
        <ele>103.48</ele>
        <time>2010-10-31T11:28:03Z</time>
      </trkpt>
      <trkpt lat="47.35642" lon="-0.02014">
        <ele>102.04</ele>
        <time>2010-10-31T11:28:04Z</time>
      </trkpt>
      <trkpt lat="47.35643" lon="-0.02016">
        <ele>109.73</ele>
        <time>2010-10-31T11:28:05Z</time>
      </trkpt>
      <trkpt lat="47.35643" lon="-0.02019">
        <ele>105.4</ele>
        <time>2010-10-31T11:28:06Z</time>
      </trkpt>
      <trkpt lat="47.35645" lon="-0.02022">
        <ele>106.36</ele>
        <time>2010-10-31T11:28:07Z</time>
      </trkpt>
      <trkpt lat="47.35646" lon="-0.02026">
        <ele>109.25</ele>
        <time>2010-10-31T11:28:08Z</time>
      </trkpt>
      <trkpt lat="47.35648" lon="-0.0203">
        <ele>103.96</ele>
        <time>2010-10-31T11:28:09Z</time>
      </trkpt>
      <trkpt lat="47.35652" lon="-0.02039">
        <ele>107.81</ele>
        <time>2010-10-31T11:28:11Z</time>
      </trkpt>
      <trkpt lat="47.35653" lon="-0.02045">
        <ele>103.96</ele>
        <time>2010-10-31T11:28:12Z</time>
      </trkpt>
      <trkpt lat="47.35656" lon="-0.02056">
        <ele>106.36</ele>
        <time>2010-10-31T11:28:14Z</time>
      </trkpt>
      <trkpt lat="47.35658" lon="-0.02062">
        <ele>106.36</ele>
        <time>2010-10-31T11:28:15Z</time>
      </trkpt>
      <trkpt lat="47.3566" lon="-0.02069">
        <ele>111.17</ele>
        <time>2010-10-31T11:28:16Z</time>
      </trkpt>
      <trkpt lat="47.35662" lon="-0.02075">
        <ele>110.21</ele>
        <time>2010-10-31T11:28:17Z</time>
      </trkpt>
      <trkpt lat="47.35663" lon="-0.02082">
        <ele>106.84</ele>
        <time>2010-10-31T11:28:18Z</time>
      </trkpt>
      <trkpt lat="47.35666" lon="-0.02096">
        <ele>106.36</ele>
        <time>2010-10-31T11:28:20Z</time>
      </trkpt>
      <trkpt lat="47.35669" lon="-0.02111">
        <ele>103.48</ele>
        <time>2010-10-31T11:28:22Z</time>
      </trkpt>
      <trkpt lat="47.3567" lon="-0.02119">
        <ele>107.32</ele>
        <time>2010-10-31T11:28:23Z</time>
      </trkpt>
      <trkpt lat="47.35672" lon="-0.02127">
        <ele>104.92</ele>
        <time>2010-10-31T11:28:24Z</time>
      </trkpt>
      <trkpt lat="47.35678" lon="-0.0215">
        <ele>101.56</ele>
        <time>2010-10-31T11:28:27Z</time>
      </trkpt>
      <trkpt lat="47.35682" lon="-0.02166">
        <ele>106.36</ele>
        <time>2010-10-31T11:28:29Z</time>
      </trkpt>
      <trkpt lat="47.35684" lon="-0.02175">
        <ele>106.84</ele>
        <time>2010-10-31T11:28:30Z</time>
      </trkpt>
      <trkpt lat="47.35686" lon="-0.02184">
        <ele>104.92</ele>
        <time>2010-10-31T11:28:31Z</time>
      </trkpt>
      <trkpt lat="47.35693" lon="-0.02208">
        <ele>105.4</ele>
        <time>2010-10-31T11:28:34Z</time>
      </trkpt>
      <trkpt lat="47.35697" lon="-0.02224">
        <ele>103.48</ele>
        <time>2010-10-31T11:28:36Z</time>
      </trkpt>
      <trkpt lat="47.35699" lon="-0.02232">
        <ele>106.36</ele>
        <time>2010-10-31T11:28:37Z</time>
      </trkpt>
      <trkpt lat="47.357" lon="-0.0224">
        <ele>100.6</ele>
        <time>2010-10-31T11:28:38Z</time>
      </trkpt>
      <trkpt lat="47.35701" lon="-0.02248">
        <ele>100.6</ele>
        <time>2010-10-31T11:28:39Z</time>
      </trkpt>
      <trkpt lat="47.35702" lon="-0.02258">
        <ele>100.6</ele>
        <time>2010-10-31T11:28:40Z</time>
      </trkpt>
      <trkpt lat="47.35705" lon="-0.02314">
        <ele>97.71</ele>
        <time>2010-10-31T11:28:46Z</time>
      </trkpt>
      <trkpt lat="47.35705" lon="-0.02324">
        <ele>106.84</ele>
        <time>2010-10-31T11:28:47Z</time>
      </trkpt>
      <trkpt lat="47.35706" lon="-0.02334">
        <ele>103.48</ele>
        <time>2010-10-31T11:28:48Z</time>
      </trkpt>
      <trkpt lat="47.35706" lon="-0.02344">
        <ele>103</ele>
        <time>2010-10-31T11:28:49Z</time>
      </trkpt>
      <trkpt lat="47.35706" lon="-0.02354">
        <ele>100.6</ele>
        <time>2010-10-31T11:28:50Z</time>
      </trkpt>
      <trkpt lat="47.35707" lon="-0.02364">
        <ele>101.56</ele>
        <time>2010-10-31T11:28:51Z</time>
      </trkpt>
      <trkpt lat="47.35707" lon="-0.02375">
        <ele>106.36</ele>
        <time>2010-10-31T11:28:52Z</time>
      </trkpt>
      <trkpt lat="47.35708" lon="-0.02385">
        <ele>99.15</ele>
        <time>2010-10-31T11:28:53Z</time>
      </trkpt>
      <trkpt lat="47.35709" lon="-0.02407">
        <ele>96.27</ele>
        <time>2010-10-31T11:28:55Z</time>
      </trkpt>
      <trkpt lat="47.35709" lon="-0.02417">
        <ele>98.19</ele>
        <time>2010-10-31T11:28:56Z</time>
      </trkpt>
      <trkpt lat="47.35709" lon="-0.02429">
        <ele>103.96</ele>
        <time>2010-10-31T11:28:57Z</time>
      </trkpt>
      <trkpt lat="47.3571" lon="-0.02451">
        <ele>99.63</ele>
        <time>2010-10-31T11:28:59Z</time>
      </trkpt>
      <trkpt lat="47.3571" lon="-0.02462">
        <ele>101.08</ele>
        <time>2010-10-31T11:29:00Z</time>
      </trkpt>
      <trkpt lat="47.35711" lon="-0.02473">
        <ele>97.23</ele>
        <time>2010-10-31T11:29:01Z</time>
      </trkpt>
      <trkpt lat="47.35712" lon="-0.02483">
        <ele>102.52</ele>
        <time>2010-10-31T11:29:02Z</time>
      </trkpt>
      <trkpt lat="47.35713" lon="-0.02525">
        <ele>98.19</ele>
        <time>2010-10-31T11:29:06Z</time>
      </trkpt>
      <trkpt lat="47.35714" lon="-0.02557">
        <ele>95.31</ele>
        <time>2010-10-31T11:29:09Z</time>
      </trkpt>
      <trkpt lat="47.35714" lon="-0.02568">
        <ele>96.27</ele>
        <time>2010-10-31T11:29:10Z</time>
      </trkpt>
      <trkpt lat="47.35715" lon="-0.0262">
        <ele>94.35</ele>
        <time>2010-10-31T11:29:15Z</time>
      </trkpt>
      <trkpt lat="47.35719" lon="-0.02653">
        <ele>97.71</ele>
        <time>2010-10-31T11:29:18Z</time>
      </trkpt>
      <trkpt lat="47.3572" lon="-0.02664">
        <ele>94.35</ele>
        <time>2010-10-31T11:29:19Z</time>
      </trkpt>
      <trkpt lat="47.35724" lon="-0.02684">
        <ele>92.42</ele>
        <time>2010-10-31T11:29:21Z</time>
      </trkpt>
      <trkpt lat="47.35726" lon="-0.02694">
        <ele>90.5</ele>
        <time>2010-10-31T11:29:22Z</time>
      </trkpt>
      <trkpt lat="47.35728" lon="-0.02705">
        <ele>98.19</ele>
        <time>2010-10-31T11:29:23Z</time>
      </trkpt>
      <trkpt lat="47.3573" lon="-0.02715">
        <ele>94.35</ele>
        <time>2010-10-31T11:29:24Z</time>
      </trkpt>
      <trkpt lat="47.35732" lon="-0.02725">
        <ele>97.23</ele>
        <time>2010-10-31T11:29:25Z</time>
      </trkpt>
      <trkpt lat="47.35735" lon="-0.02734">
        <ele>93.87</ele>
        <time>2010-10-31T11:29:26Z</time>
      </trkpt>
      <trkpt lat="47.35739" lon="-0.02742">
        <ele>90.02</ele>
        <time>2010-10-31T11:29:27Z</time>
      </trkpt>
      <trkpt lat="47.35743" lon="-0.02749">
        <ele>90.5</ele>
        <time>2010-10-31T11:29:28Z</time>
      </trkpt>
      <trkpt lat="47.35748" lon="-0.02756">
        <ele>91.46</ele>
        <time>2010-10-31T11:29:29Z</time>
      </trkpt>
      <trkpt lat="47.35753" lon="-0.02762">
        <ele>90.98</ele>
        <time>2010-10-31T11:29:30Z</time>
      </trkpt>
      <trkpt lat="47.35758" lon="-0.02769">
        <ele>90.5</ele>
        <time>2010-10-31T11:29:31Z</time>
      </trkpt>
      <trkpt lat="47.35786" lon="-0.02799">
        <ele>93.39</ele>
        <time>2010-10-31T11:29:36Z</time>
      </trkpt>
      <trkpt lat="47.35792" lon="-0.02805">
        <ele>90.98</ele>
        <time>2010-10-31T11:29:37Z</time>
      </trkpt>
      <trkpt lat="47.35804" lon="-0.02816">
        <ele>90.02</ele>
        <time>2010-10-31T11:29:39Z</time>
      </trkpt>
      <trkpt lat="47.3581" lon="-0.02821">
        <ele>89.54</ele>
        <time>2010-10-31T11:29:40Z</time>
      </trkpt>
      <trkpt lat="47.35823" lon="-0.02828">
        <ele>95.31</ele>
        <time>2010-10-31T11:29:42Z</time>
      </trkpt>
      <trkpt lat="47.3583" lon="-0.0283">
        <ele>91.94</ele>
        <time>2010-10-31T11:29:43Z</time>
      </trkpt>
      <trkpt lat="47.35843" lon="-0.02834">
        <ele>89.54</ele>
        <time>2010-10-31T11:29:45Z</time>
      </trkpt>
      <trkpt lat="47.3587" lon="-0.0284">
        <ele>90.98</ele>
        <time>2010-10-31T11:29:49Z</time>
      </trkpt>
      <trkpt lat="47.35887" lon="-0.02847">
        <ele>91.94</ele>
        <time>2010-10-31T11:29:52Z</time>
      </trkpt>
      <trkpt lat="47.35909" lon="-0.02863">
        <ele>87.62</ele>
        <time>2010-10-31T11:29:56Z</time>
      </trkpt>
      <trkpt lat="47.35915" lon="-0.02867">
        <ele>88.58</ele>
        <time>2010-10-31T11:29:57Z</time>
      </trkpt>
      <trkpt lat="47.35921" lon="-0.02871">
        <ele>90.98</ele>
        <time>2010-10-31T11:29:58Z</time>
      </trkpt>
      <trkpt lat="47.35933" lon="-0.0288">
        <ele>90.98</ele>
        <time>2010-10-31T11:30:00Z</time>
      </trkpt>
      <trkpt lat="47.35944" lon="-0.02891">
        <ele>87.62</ele>
        <time>2010-10-31T11:30:02Z</time>
      </trkpt>
      <trkpt lat="47.3595" lon="-0.02896">
        <ele>88.1</ele>
        <time>2010-10-31T11:30:03Z</time>
      </trkpt>
      <trkpt lat="47.35956" lon="-0.02901">
        <ele>87.62</ele>
        <time>2010-10-31T11:30:04Z</time>
      </trkpt>
      <trkpt lat="47.35962" lon="-0.02907">
        <ele>90.98</ele>
        <time>2010-10-31T11:30:05Z</time>
      </trkpt>
      <trkpt lat="47.35979" lon="-0.02924">
        <ele>84.25</ele>
        <time>2010-10-31T11:30:08Z</time>
      </trkpt>
      <trkpt lat="47.35985" lon="-0.02931">
        <ele>85.21</ele>
        <time>2010-10-31T11:30:09Z</time>
      </trkpt>
      <trkpt lat="47.35991" lon="-0.02937">
        <ele>84.73</ele>
        <time>2010-10-31T11:30:10Z</time>
      </trkpt>
      <trkpt lat="47.35997" lon="-0.02943">
        <ele>86.66</ele>
        <time>2010-10-31T11:30:11Z</time>
      </trkpt>
      <trkpt lat="47.36008" lon="-0.02955">
        <ele>83.77</ele>
        <time>2010-10-31T11:30:13Z</time>
      </trkpt>
      <trkpt lat="47.36014" lon="-0.02962">
        <ele>88.1</ele>
        <time>2010-10-31T11:30:14Z</time>
      </trkpt>
      <trkpt lat="47.36019" lon="-0.02969">
        <ele>82.81</ele>
        <time>2010-10-31T11:30:15Z</time>
      </trkpt>
      <trkpt lat="47.36024" lon="-0.02976">
        <ele>82.81</ele>
        <time>2010-10-31T11:30:16Z</time>
      </trkpt>
      <trkpt lat="47.3603" lon="-0.02983">
        <ele>82.81</ele>
        <time>2010-10-31T11:30:17Z</time>
      </trkpt>
      <trkpt lat="47.36039" lon="-0.02998">
        <ele>81.85</ele>
        <time>2010-10-31T11:30:19Z</time>
      </trkpt>
      <trkpt lat="47.36044" lon="-0.03006">
        <ele>80.41</ele>
        <time>2010-10-31T11:30:20Z</time>
      </trkpt>
      <trkpt lat="47.36048" lon="-0.03014">
        <ele>80.41</ele>
        <time>2010-10-31T11:30:21Z</time>
      </trkpt>
      <trkpt lat="47.36052" lon="-0.03022">
        <ele>82.33</ele>
        <time>2010-10-31T11:30:22Z</time>
      </trkpt>
      <trkpt lat="47.36057" lon="-0.0303">
        <ele>79.45</ele>
        <time>2010-10-31T11:30:23Z</time>
      </trkpt>
      <trkpt lat="47.36061" lon="-0.03038">
        <ele>78.97</ele>
        <time>2010-10-31T11:30:24Z</time>
      </trkpt>
      <trkpt lat="47.36065" lon="-0.03047">
        <ele>78.48</ele>
        <time>2010-10-31T11:30:25Z</time>
      </trkpt>
      <trkpt lat="47.36068" lon="-0.03058">
        <ele>76.08</ele>
        <time>2010-10-31T11:30:26Z</time>
      </trkpt>
      <trkpt lat="47.36072" lon="-0.03069">
        <ele>76.56</ele>
        <time>2010-10-31T11:30:27Z</time>
      </trkpt>
      <trkpt lat="47.36075" lon="-0.03079">
        <ele>76.56</ele>
        <time>2010-10-31T11:30:28Z</time>
      </trkpt>
      <trkpt lat="47.36079" lon="-0.0309">
        <ele>78.48</ele>
        <time>2010-10-31T11:30:29Z</time>
      </trkpt>
      <trkpt lat="47.36091" lon="-0.03134">
        <ele>74.16</ele>
        <time>2010-10-31T11:30:33Z</time>
      </trkpt>
      <trkpt lat="47.36095" lon="-0.03144">
        <ele>75.12</ele>
        <time>2010-10-31T11:30:34Z</time>
      </trkpt>
      <trkpt lat="47.36099" lon="-0.03162">
        <ele>75.12</ele>
        <time>2010-10-31T11:30:36Z</time>
      </trkpt>
      <trkpt lat="47.36099" lon="-0.03173">
        <ele>74.16</ele>
        <time>2010-10-31T11:30:37Z</time>
      </trkpt>
      <trkpt lat="47.36098" lon="-0.03185">
        <ele>72.24</ele>
        <time>2010-10-31T11:30:38Z</time>
      </trkpt>
      <trkpt lat="47.36097" lon="-0.03196">
        <ele>72.24</ele>
        <time>2010-10-31T11:30:39Z</time>
      </trkpt>
      <trkpt lat="47.36091" lon="-0.03229">
        <ele>75.6</ele>
        <time>2010-10-31T11:30:42Z</time>
      </trkpt>
      <trkpt lat="47.36088" lon="-0.03239">
        <ele>71.76</ele>
        <time>2010-10-31T11:30:43Z</time>
      </trkpt>
      <trkpt lat="47.36086" lon="-0.03249">
        <ele>75.12</ele>
        <time>2010-10-31T11:30:44Z</time>
      </trkpt>
      <trkpt lat="47.36078" lon="-0.03292">
        <ele>78.97</ele>
        <time>2010-10-31T11:30:48Z</time>
      </trkpt>
      <trkpt lat="47.36076" lon="-0.03302">
        <ele>70.79</ele>
        <time>2010-10-31T11:30:49Z</time>
      </trkpt>
      <trkpt lat="47.36074" lon="-0.03312">
        <ele>73.68</ele>
        <time>2010-10-31T11:30:50Z</time>
      </trkpt>
      <trkpt lat="47.36066" lon="-0.0336">
        <ele>71.76</ele>
        <time>2010-10-31T11:30:55Z</time>
      </trkpt>
      <trkpt lat="47.36065" lon="-0.03368">
        <ele>73.68</ele>
        <time>2010-10-31T11:30:56Z</time>
      </trkpt>
      <trkpt lat="47.36063" lon="-0.03385">
        <ele>70.31</ele>
        <time>2010-10-31T11:30:58Z</time>
      </trkpt>
      <trkpt lat="47.36062" lon="-0.03394">
        <ele>72.72</ele>
        <time>2010-10-31T11:30:59Z</time>
      </trkpt>
      <trkpt lat="47.36061" lon="-0.03402">
        <ele>70.31</ele>
        <time>2010-10-31T11:31:00Z</time>
      </trkpt>
      <trkpt lat="47.36062" lon="-0.03409">
        <ele>71.27</ele>
        <time>2010-10-31T11:31:01Z</time>
      </trkpt>
      <trkpt lat="47.36064" lon="-0.03416">
        <ele>68.87</ele>
        <time>2010-10-31T11:31:02Z</time>
      </trkpt>
      <trkpt lat="47.36068" lon="-0.03423">
        <ele>67.91</ele>
        <time>2010-10-31T11:31:03Z</time>
      </trkpt>
      <trkpt lat="47.36074" lon="-0.03427">
        <ele>68.39</ele>
        <time>2010-10-31T11:31:04Z</time>
      </trkpt>
      <trkpt lat="47.3608" lon="-0.03429">
        <ele>67.91</ele>
        <time>2010-10-31T11:31:05Z</time>
      </trkpt>
      <trkpt lat="47.36086" lon="-0.03431">
        <ele>66.95</ele>
        <time>2010-10-31T11:31:06Z</time>
      </trkpt>
      <trkpt lat="47.36098" lon="-0.03434">
        <ele>71.27</ele>
        <time>2010-10-31T11:31:08Z</time>
      </trkpt>
      <trkpt lat="47.36109" lon="-0.03436">
        <ele>71.76</ele>
        <time>2010-10-31T11:31:10Z</time>
      </trkpt>
      <trkpt lat="47.36114" lon="-0.03437">
        <ele>68.39</ele>
        <time>2010-10-31T11:31:11Z</time>
      </trkpt>
      <trkpt lat="47.3613" lon="-0.03443">
        <ele>63.58</ele>
        <time>2010-10-31T11:31:14Z</time>
      </trkpt>
      <trkpt lat="47.36133" lon="-0.03448">
        <ele>65.99</ele>
        <time>2010-10-31T11:31:15Z</time>
      </trkpt>
      <trkpt lat="47.36135" lon="-0.03453">
        <ele>64.07</ele>
        <time>2010-10-31T11:31:16Z</time>
      </trkpt>
      <trkpt lat="47.36136" lon="-0.03459">
        <ele>65.99</ele>
        <time>2010-10-31T11:31:17Z</time>
      </trkpt>
      <trkpt lat="47.36136" lon="-0.03464">
        <ele>66.47</ele>
        <time>2010-10-31T11:31:18Z</time>
      </trkpt>
      <trkpt lat="47.36136" lon="-0.0347">
        <ele>62.62</ele>
        <time>2010-10-31T11:31:19Z</time>
      </trkpt>
      <trkpt lat="47.36135" lon="-0.03476">
        <ele>61.66</ele>
        <time>2010-10-31T11:31:20Z</time>
      </trkpt>
      <trkpt lat="47.36133" lon="-0.03481">
        <ele>64.07</ele>
        <time>2010-10-31T11:31:21Z</time>
      </trkpt>
      <trkpt lat="47.36131" lon="-0.03485">
        <ele>64.55</ele>
        <time>2010-10-31T11:31:22Z</time>
      </trkpt>
      <trkpt lat="47.36128" lon="-0.03487">
        <ele>66.47</ele>
        <time>2010-10-31T11:31:23Z</time>
      </trkpt>
      <trkpt lat="47.36125" lon="-0.03487">
        <ele>66.47</ele>
        <time>2010-10-31T11:31:24Z</time>
      </trkpt>
      <trkpt lat="47.36123" lon="-0.03487">
        <ele>66.47</ele>
        <time>2010-10-31T11:31:25Z</time>
      </trkpt>
      <trkpt lat="47.36121" lon="-0.03487">
        <ele>64.07</ele>
        <time>2010-10-31T11:31:26Z</time>
      </trkpt>
      <trkpt lat="47.36118" lon="-0.03486">
        <ele>64.07</ele>
        <time>2010-10-31T11:31:27Z</time>
      </trkpt>
      <trkpt lat="47.36116" lon="-0.03486">
        <ele>65.99</ele>
        <time>2010-10-31T11:31:28Z</time>
      </trkpt>
      <trkpt lat="47.36102" lon="-0.03484">
        <ele>66.47</ele>
        <time>2010-10-31T11:31:34Z</time>
      </trkpt>
      <trkpt lat="47.361" lon="-0.03486">
        <ele>66.95</ele>
        <time>2010-10-31T11:31:35Z</time>
      </trkpt>
      <trkpt lat="47.36099" lon="-0.03488">
        <ele>65.03</ele>
        <time>2010-10-31T11:31:36Z</time>
      </trkpt>
      <trkpt lat="47.36098" lon="-0.0349">
        <ele>66.95</ele>
        <time>2010-10-31T11:31:37Z</time>
      </trkpt>
      <trkpt lat="47.36097" lon="-0.03495">
        <ele>67.43</ele>
        <time>2010-10-31T11:31:44Z</time>
      </trkpt>
      <trkpt lat="47.36099" lon="-0.035">
        <ele>65.99</ele>
        <time>2010-10-31T11:31:50Z</time>
      </trkpt>
      <trkpt lat="47.36099" lon="-0.035">
        <ele>65.51</ele>
        <time>2010-10-31T11:31:56Z</time>
      </trkpt>
      <trkpt lat="47.36097" lon="-0.03497">
        <ele>66.95</ele>
        <time>2010-10-31T11:32:02Z</time>
      </trkpt>
      <trkpt lat="47.36097" lon="-0.03496">
        <ele>66.47</ele>
        <time>2010-10-31T11:32:08Z</time>
      </trkpt>
      <trkpt lat="47.36097" lon="-0.03496">
        <ele>66.47</ele>
        <time>2010-10-31T11:32:23Z</time>
      </trkpt>
      <trkpt lat="47.36097" lon="-0.03496">
        <ele>65.99</ele>
        <time>2010-10-31T11:32:35Z</time>
      </trkpt>
      <trkpt lat="47.36097" lon="-0.03496">
        <ele>65.99</ele>
        <time>2010-10-31T11:32:46Z</time>
      </trkpt>
    </trkseg>
  </trk>
</gpx>